Log of axe sales

Generated on 2020-Jul-14 23:10:05 (UTC).

Back to trades page

ID Timestamp Type Alliance Seller Location Buyer Item Amount Price
11166 2020-Jul-14 15:47:34 market sale   gravityalive -01/-01 livelinstawe axe, 6000 minutes 1 1500
11165 2020-Jul-14 10:15:54 market sale   themainbrain -01/-01 qh2fpx1vb5yq axe, 5400 minutes 1 900
11164 2020-Jul-14 08:27:17 market sale   benjaminrost -01/-01 stelarizaxxx axe, 4800 minutes 1 1000
11163 2020-Jul-14 07:01:51 market sale   gravityalive -01/-01 spinthrough5 axe, 6000 minutes 1 1500
11162 2020-Jul-14 07:01:37 market sale   kukusingh333 -01/-01 spinthrough5 axe, 6000 minutes 2 1400
11161 2020-Jul-13 23:40:19 market sale   machwire4eos -01/-01 jiwavo1qeuma axe, 5100 minutes 1 500
11160 2020-Jul-13 23:27:44 market sale   4321yamez321 -01/-01 gy3dmojqgege axe, 6000 minutes 15 1400
11159 2020-Jul-13 23:27:27 market sale   cocojamboeos -01/-01 gy3dmojqgege axe, 6000 minutes 8 1300
11158 2020-Jul-13 23:12:44 market sale   xracerstiwrx -01/-01 gy3dmojqgege axe, 6000 minutes 1 1000
11157 2020-Jul-13 12:35:06 market sale   themainbrain -01/-01 qh2fpx1vb5yq axe, 5400 minutes 1 900
11156 2020-Jul-13 12:33:40 market sale   rkvasavalov3 -09/-26 qh2fpx1vb5yq axe, 2093 minutes 1 199
11155 2020-Jul-13 09:26:36 market sale   vinhpkim1313 18/-05 111jopka1111 axe, 6000 minutes 3 950
11154 2020-Jul-13 09:13:42 market sale   themainbrain -01/-01 criptosonido axe, 5400 minutes 1 900
11153 2020-Jul-12 16:34:46 market sale   eosgino33333 -01/-01 xracerstiwrx axe, 6000 minutes 1 1599
11152 2020-Jul-12 08:47:00 market sale   12lexas345ai -01/-01 adramadusmax axe, 3105 minutes 1 700
11151 2020-Jul-12 05:21:58 market sale   raventale114 -01/-01 rajakuba2133 axe, 6000 minutes 1 1200
11150 2020-Jul-11 20:53:12 market sale   eosgino33333 -01/-01 nakajimakent axe, 6000 minutes 1 1599
11149 2020-Jul-11 13:43:07 market sale   aluminumcoin -18/-12 criptosonido axe, 4400 minutes 1 1350
11148 2020-Jul-11 12:46:18 market sale   rkvasavalov3 -09/-26 criptosonido axe, 3300 minutes 1 777
11147 2020-Jul-11 08:04:33 market sale   eyebroowalet -02/17 dillonwheatl axe, 6000 minutes 1 1650
11146 2020-Jul-11 05:26:27 market sale   ahtashammanz 25/-02 princolatun1 axe, 6000 minutes 1 1350
11145 2020-Jul-10 17:32:31 market sale   gyydoobyhage 18/11 krishnalal21 axe, 6000 minutes 1 2000
11144 2020-Jul-10 13:33:51 market sale   lomoblomlom1 -01/-01 princolatun1 axe, 6000 minutes 1 1590
11143 2020-Jul-10 05:18:26 market sale   zachreynolds -01/-01 princolatun1 axe, 5580 minutes 1 1350
11142 2020-Jul-10 00:44:10 market sale   moongold3333 -01/-01 olymarinm111 axe, 6000 minutes 1 1490
11141 2020-Jul-09 19:43:33 market sale   rkvasavalov3 -09/-26 jonnycrypto1 axe, 2236 minutes 1 201
11140 2020-Jul-09 15:24:19 market sale golden..axe orendadilnok 04/00 daapocalypse axe, 6000 minutes 1 1499
11139 2020-Jul-09 14:53:18 market sale   lomoblomlom1 -01/-01 fichozzking1 axe, 6000 minutes 1 1580
11138 2020-Jul-09 14:53:13 market sale   megalex12345 -01/-01 fichozzking1 axe, 6000 minutes 2 1400
11137 2020-Jul-09 12:32:45 market sale golden..axe orendadilnok 04/00 daapocalypse axe, 6000 minutes 1 1499
11136 2020-Jul-09 12:23:39 market sale   megalex12345 -01/-01 kukusingh333 axe, 6000 minutes 1 1400
11135 2020-Jul-09 12:23:21 market sale   12lexas345ai -01/-01 kukusingh333 axe, 5700 minutes 1 1400
11134 2020-Jul-09 10:10:54 market sale   samsunactive 05/08 baladewa3333 axe, 6000 minutes 1 1600
11133 2020-Jul-09 09:39:04 market sale   gyydoobyhage -01/-01 keziahgraces axe, 6000 minutes 3 2000
11132 2020-Jul-09 09:35:38 market sale   samsunactive 05/08 touheedkhan1 axe, 6000 minutes 2 1600
11131 2020-Jul-09 09:22:53 market sale   samsunactive 05/08 kukusingh333 axe, 6000 minutes 1 1600
11130 2020-Jul-09 09:20:55 market sale   kessntb12345 -01/-01 konstantin21 axe, 4126 minutes 1 1000
11129 2020-Jul-09 09:18:04 market sale   gyydoobyhage -01/-01 calaeoscala2 axe, 6000 minutes 1 2000
11128 2020-Jul-09 08:17:38 market sale   1ctk3d5eosda 00/02 imranremo123 axe, 6000 minutes 1 1750
11127 2020-Jul-09 08:17:19 market sale   1ctk3d5eosda 00/02 imranremo123 axe, 6000 minutes 1 1750
11126 2020-Jul-09 08:13:04 market sale   gyydoobyhage -01/-01 jojo12345.m axe, 6000 minutes 8 2000
11125 2020-Jul-09 08:02:01 market sale   gamerscorner -01/-01 jellyfish111 axe, 6000 minutes 2 1700
11124 2020-Jul-09 07:50:58 market sale   samsunactive 05/08 boreesahnton axe, 6000 minutes 3 1600
11123 2020-Jul-09 07:43:03 market sale   gamerscorner -01/-01 noysiboyxxxx axe, 6000 minutes 3 1700
11122 2020-Jul-09 07:30:59 market sale   mdsmdsmdsmds -01/-01 mangomannnnn axe, 6000 minutes 3 1550
11121 2020-Jul-09 07:11:21 market sale   mdsmdsmdsmds -01/-01 gmanfreeeoss axe, 6000 minutes 1 1550
11120 2020-Jul-09 06:54:55 market sale   mdsmdsmdsmds -01/-01 mahfuzur1234 axe, 6000 minutes 9 1550
11119 2020-Jul-09 06:44:19 market sale   mdsmdsmdsmds -01/-01 parkerneoeos axe, 6000 minutes 9 1550
11118 2020-Jul-09 06:30:25 market sale   mdsmdsmdsmds -01/-01 giytmnjxgege axe, 6000 minutes 1 1550
11117 2020-Jul-09 06:23:53 market sale   mdsmdsmdsmds -01/-01 eddiecarty12 axe, 6000 minutes 2 1550
11116 2020-Jul-09 05:53:48 market sale   mdsmdsmdsmds -01/-01 treedescribe axe, 6000 minutes 3 1550
11115 2020-Jul-09 05:24:20 market sale   mdsmdsmdsmds -01/-01 eoslittleman axe, 6000 minutes 3 1550
11114 2020-Jul-09 05:22:51 market sale   mdsmdsmdsmds -01/-01 eos23ujzmlig axe, 6000 minutes 3 1550
11113 2020-Jul-09 05:05:28 market sale   mdsmdsmdsmds -01/-01 snehalghosh1 axe, 6000 minutes 1 1550
11112 2020-Jul-09 05:05:01 market sale   mdsmdsmdsmds -01/-01 feathersmith axe, 6000 minutes 9 1550
11111 2020-Jul-09 04:29:13 market sale   mdsmdsmdsmds -01/-01 baljeet25dec axe, 6000 minutes 1 1550
11110 2020-Jul-09 04:17:23 market sale   gamerscorner -01/-01 cryptogameco axe, 6000 minutes 1 1700
11109 2020-Jul-09 04:11:18 market sale   mdsmdsmdsmds -01/-01 priyanshu123 axe, 6000 minutes 3 1550
11108 2020-Jul-09 03:41:54 market sale   mdsmdsmdsmds -01/-01 eosmeetone34 axe, 6000 minutes 1 1550
11107 2020-Jul-09 03:32:49 market sale   mdsmdsmdsmds -01/-01 pedrorcprofe axe, 6000 minutes 6 1550
11106 2020-Jul-09 03:32:05 market sale   mdsmdsmdsmds -01/-01 balrok232323 axe, 6000 minutes 1 1550
11105 2020-Jul-09 03:25:45 market sale   mdsmdsmdsmds -01/-01 jonblanchard axe, 6000 minutes 3 1550
11104 2020-Jul-09 03:18:15 market sale   gamerscorner -01/-01 baracudass22 axe, 6000 minutes 3 1700
11103 2020-Jul-09 03:17:44 market sale   mdsmdsmdsmds -01/-01 pin55joker11 axe, 6000 minutes 1 1550
11102 2020-Jul-09 02:33:32 market sale   mdsmdsmdsmds -01/-01 xovna5ed2ouf axe, 6000 minutes 1 1550
11101 2020-Jul-09 02:31:36 market sale golden..axe orendadilnok 04/00 alwiwidianto axe, 6000 minutes 3 1499
11100 2020-Jul-09 02:13:22 market sale   mdsmdsmdsmds -01/-01 glezaiiiiiuu axe, 6000 minutes 1 1550
11099 2020-Jul-09 01:57:11 market sale   mdsmdsmdsmds -01/-01 raventale114 axe, 6000 minutes 1 1550
11098 2020-Jul-09 01:55:13 market sale   mdsmdsmdsmds -01/-01 raventale114 axe, 6000 minutes 2 1550
11097 2020-Jul-09 01:41:25 market sale   mdsmdsmdsmds -01/-01 zachreynolds axe, 6000 minutes 3 1550
11096 2020-Jul-09 01:10:10 market sale   mdsmdsmdsmds -01/-01 kukusingh333 axe, 6000 minutes 1 1550
11095 2020-Jul-09 00:54:24 market sale   gamerscorner -01/-01 haytanrygyge axe, 6000 minutes 3 1700
11094 2020-Jul-09 00:51:45 market sale   mdsmdsmdsmds -01/-01 rrpwalters21 axe, 6000 minutes 4 1550
11093 2020-Jul-09 00:47:06 market sale   ahtashammanz 25/-02 csa1234sb123 axe, 6000 minutes 3 1200
11092 2020-Jul-09 00:12:49 market sale   mdsmdsmdsmds -01/-01 csaguier1.tp axe, 6000 minutes 4 1550
11091 2020-Jul-09 00:09:20 market sale   mdsmdsmdsmds -01/-01 jazenblunts1 axe, 6000 minutes 3 1550
11090 2020-Jul-09 00:07:24 market sale   mdsmdsmdsmds -01/-01 thefryguy123 axe, 6000 minutes 3 1550
11089 2020-Jul-09 00:03:23 market sale   gamerscorner -01/-01 templarx3333 axe, 6000 minutes 1 1700
11088 2020-Jul-09 00:02:11 market sale   mdsmdsmdsmds -01/-01 templarx3333 axe, 6000 minutes 1 1550
11087 2020-Jul-08 23:57:12 market sale   mdsmdsmdsmds -01/-01 fdeidljj4zpt axe, 6000 minutes 1 1550
11086 2020-Jul-08 23:48:12 market sale   mdsmdsmdsmds -01/-01 tonthegreat5 axe, 6000 minutes 3 1550
11085 2020-Jul-08 23:39:31 market sale   mdsmdsmdsmds -01/-01 xrferentinos axe, 6000 minutes 1 1550
11084 2020-Jul-08 23:36:27 market sale golden..axe orendadilnok 04/00 aynuer441hop axe, 6000 minutes 3 1499
11083 2020-Jul-08 23:27:20 market sale   mdsmdsmdsmds -01/-01 nightsky2415 axe, 6000 minutes 3 1550
11082 2020-Jul-08 22:54:11 market sale   gamerscorner -01/-01 ifegwuonyeka axe, 6000 minutes 1 1700
11081 2020-Jul-08 22:52:15 market sale   mdsmdsmdsmds -01/-01 freeedm12345 axe, 6000 minutes 1 1550
11080 2020-Jul-08 22:51:58 market sale   buladifu1eos -01/-01 freeedm12345 axe, 6000 minutes 1 1549
11079 2020-Jul-08 22:51:39 market sale   mdsmdsmdsmds -01/-01 themainbrain axe, 6000 minutes 3 1550
11078 2020-Jul-08 22:35:44 market sale golden..axe orendadilnok 04/00 daapocalypse axe, 6000 minutes 1 1499
11077 2020-Jul-08 22:14:00 market sale   eyebroowalet -02/17 fanskarma111 axe, 6000 minutes 1 1650
11076 2020-Jul-08 22:13:52 market sale   mdsmdsmdsmds -01/-01 jocksonhelry axe, 6000 minutes 3 1550
11075 2020-Jul-08 22:12:00 market sale   airdropemmy1 -13/05 dipshlappers axe, 6000 minutes 3 1620
11074 2020-Jul-08 21:40:40 market sale   mdsmdsmdsmds -01/-01 12lexas345ai axe, 6000 minutes 1 1550
11073 2020-Jul-08 21:14:34 market sale   mdsmdsmdsmds -01/-01 fmssltdajh11 axe, 6000 minutes 1 1550
11072 2020-Jul-08 21:03:04 market sale   mdsmdsmdsmds -01/-01 calaeoscala2 axe, 6000 minutes 1 1550
11071 2020-Jul-08 21:00:42 market sale golden..axe orendadilnok 04/00 vinhpkim1313 axe, 6000 minutes 3 1499
11070 2020-Jul-08 20:36:40 market sale golden..axe orendadilnok 04/00 professor123 axe, 6000 minutes 7 1499
11069 2020-Jul-08 20:31:39 market sale   mdsmdsmdsmds -01/-01 kiplancooks1 axe, 6000 minutes 1 1550
11068 2020-Jul-08 20:27:51 market sale   mdsmdsmdsmds -01/-01 k1234512345n axe, 6000 minutes 1 1550
11067 2020-Jul-08 20:23:14 market sale golden..axe orendadilnok 04/00 uchihanaruto axe, 6000 minutes 10 1499
11066 2020-Jul-08 20:20:06 market sale   mdsmdsmdsmds -01/-01 shabdhishett axe, 6000 minutes 6 1550
11065 2020-Jul-08 20:09:42 market sale   mdsmdsmdsmds -01/-01 yoranaproeos axe, 6000 minutes 3 1550
11064 2020-Jul-08 20:01:14 market sale   mdsmdsmdsmds -01/-01 mortuustempl axe, 6000 minutes 3 1550
11063 2020-Jul-08 19:55:09 market sale   mdsmdsmdsmds -01/-01 gq2dgmzqguge axe, 6000 minutes 12 1550
11062 2020-Jul-08 19:50:38 market sale   mdsmdsmdsmds -01/-01 rsasmitgames axe, 6000 minutes 2 1550
11061 2020-Jul-08 19:44:19 market sale   mdsmdsmdsmds -01/-01 rsasmitgames axe, 6000 minutes 1 1550
11060 2020-Jul-08 19:37:16 market sale   mdsmdsmdsmds -01/-01 shawnvaradi2 axe, 6000 minutes 2 1550
11059 2020-Jul-08 19:36:32 market sale   mdsmdsmdsmds -01/-01 bhavnaojha12 axe, 6000 minutes 3 1550
11058 2020-Jul-08 19:25:09 market sale   airdropemmy1 -13/05 feryopgaming axe, 6000 minutes 3 1620
11057 2020-Jul-08 19:24:33 market sale golden..axe orendadilnok 04/00 ravindra1234 axe, 6000 minutes 3 1499
11056 2020-Jul-08 19:22:51 market sale   mdsmdsmdsmds -01/-01 rollabolla21 axe, 6000 minutes 1 1550
11055 2020-Jul-08 19:15:05 market sale   mdsmdsmdsmds -01/-01 batetasss111 axe, 6000 minutes 3 1550
11054 2020-Jul-08 19:13:45 market sale   lomoblomlom1 -01/-01 roshandhake5 axe, 6000 minutes 1 1610
11053 2020-Jul-08 19:05:35 market sale   mdsmdsmdsmds -01/-01 hunteryash12 axe, 6000 minutes 9 1550
11052 2020-Jul-08 18:52:11 market sale   mdsmdsmdsmds -01/-01 niharika1235 axe, 6000 minutes 1 1550
11051 2020-Jul-08 18:49:27 market sale   mdsmdsmdsmds -01/-01 niharika1235 axe, 6000 minutes 1 1550
11050 2020-Jul-08 18:40:17 market sale   mdsmdsmdsmds -01/-01 dreammaker23 axe, 6000 minutes 8 1550
11049 2020-Jul-08 18:39:06 market sale   damian123455 -10/-03 sushilkumar2 axe, 6000 minutes 1 1450
11048 2020-Jul-08 18:33:40 market sale   lomoblomlom1 -01/-01 jesusmarin31 axe, 6000 minutes 4 1610
11047 2020-Jul-08 18:26:46 market sale   eosvirusnp32 -01/-01 roshandhake5 axe, 49 minutes 1 13
11046 2020-Jul-08 18:01:20 market sale   mdsmdsmdsmds -01/-01 amartinezm11 axe, 6000 minutes 1 1550
11045 2020-Jul-08 17:59:44 market sale   mdsmdsmdsmds -01/-01 infinitus211 axe, 6000 minutes 1 1550
11044 2020-Jul-08 17:59:34 market sale   mdsmdsmdsmds -01/-01 elosopanza55 axe, 6000 minutes 2 1550
11043 2020-Jul-08 17:57:25 market sale   mdsmdsmdsmds -01/-01 mauriceka111 axe, 6000 minutes 3 1550
11042 2020-Jul-08 17:49:02 market sale   mdsmdsmdsmds -01/-01 iamjohngalt1 axe, 6000 minutes 3 1550
11041 2020-Jul-08 16:41:41 market sale   mdsmdsmdsmds -01/-01 vmiokbruoa1m axe, 6000 minutes 3 1550
11040 2020-Jul-08 16:33:45 market sale   mdsmdsmdsmds -01/-01 eleziwar32uj axe, 6000 minutes 2 1550
11039 2020-Jul-08 16:21:56 market sale   mdsmdsmdsmds -01/-01 babciakazia1 axe, 6000 minutes 9 1550
11038 2020-Jul-08 16:19:44 market sale   mdsmdsmdsmds -01/-01 gyzdgnzxg4ge axe, 6000 minutes 2 1550
11037 2020-Jul-08 16:18:19 market sale   mdsmdsmdsmds -01/-01 olenkarussia axe, 6000 minutes 3 1550
11036 2020-Jul-08 16:17:50 market sale   lomoblomlom1 -01/-01 pixelysaudir axe, 6000 minutes 1 1610
11035 2020-Jul-08 16:03:56 market sale   damian123455 -10/-03 awesumfaraz5 axe, 6000 minutes 1 1450
11034 2020-Jul-08 16:00:11 market sale   mdsmdsmdsmds -01/-01 rtnyffon2x5j axe, 6000 minutes 1 1550
11033 2020-Jul-08 15:59:52 market sale   mdsmdsmdsmds -01/-01 ninethreesix axe, 6000 minutes 2 1550
11032 2020-Jul-08 15:53:20 market sale   mdsmdsmdsmds -01/-01 nayounscattr axe, 6000 minutes 3 1550
11031 2020-Jul-08 15:49:34 market sale   mdsmdsmdsmds -01/-01 procuratoros axe, 6000 minutes 3 1550
11030 2020-Jul-08 15:18:06 market sale   playaccount1 -02/-01 meet123onexx axe, 6000 minutes 1 3000
11029 2020-Jul-08 15:18:04 market sale   mdsmdsmdsmds -01/-01 k1234512345n axe, 6000 minutes 2 1550
11028 2020-Jul-08 14:44:11 market sale   machwire4eos -01/-01 digittwallet axe, 6000 minutes 1 1400
11027 2020-Jul-08 14:44:02 market sale   machwire4eos -01/-01 digittwallet axe, 6000 minutes 1 1400
11026 2020-Jul-08 14:40:39 market sale   machwire4eos -01/-01 fifughoetori axe, 6000 minutes 3 1400
11025 2020-Jul-08 14:29:12 market sale   machwire4eos -01/-01 gy2dsnbqgmge axe, 6000 minutes 6 1400
11024 2020-Jul-08 14:28:15 market sale   mdsmdsmdsmds -01/-01 moongold3333 axe, 6000 minutes 1 1550
11023 2020-Jul-08 14:23:46 market sale   mdsmdsmdsmds -01/-01 cuentadeeos1 axe, 6000 minutes 3 1550
11022 2020-Jul-08 14:22:09 market sale   lomoblomlom1 -01/-01 moongold3333 axe, 6000 minutes 3 1610
11021 2020-Jul-08 14:21:53 market sale   mdsmdsmdsmds -01/-01 domovenokrus axe, 6000 minutes 6 1550
11020 2020-Jul-08 14:21:10 market sale   mdsmdsmdsmds -01/-01 thiagotrisko axe, 6000 minutes 1 1550
11019 2020-Jul-08 14:20:22 market sale   mdsmdsmdsmds -01/-01 domovenokrus axe, 6000 minutes 6 1550
11018 2020-Jul-08 14:14:28 market sale   mdsmdsmdsmds -01/-01 aspushkinrus axe, 6000 minutes 6 1550
11017 2020-Jul-08 14:08:17 market sale   mdsmdsmdsmds -01/-01 thiagotrisko axe, 6000 minutes 2 1550
11016 2020-Jul-08 12:46:09 market sale   eyebroowalet -02/17 g43dmnrygyge axe, 6000 minutes 1 1650
11015 2020-Jul-08 11:52:58 market sale   eyebroowalet -02/17 g43dmnrygyge axe, 6000 minutes 2 1650
11014 2020-Jul-08 11:09:37 market sale   eyebroowalet -02/17 meet123onexx axe, 6000 minutes 8 1650
11013 2020-Jul-08 11:03:14 market sale   mdsmdsmdsmds -01/-01 gorge5423523 axe, 6000 minutes 20 1550
11012 2020-Jul-08 11:02:07 market sale   gyydoobyhage 18/11 maheshsargam axe, 6000 minutes 1 2000
11011 2020-Jul-08 10:36:48 market sale   mdsmdsmdsmds -01/-01 fmssltdajh11 axe, 6000 minutes 1 1550
11010 2020-Jul-08 10:05:23 market sale   mdsmdsmdsmds -01/-01 ltachiuchiha axe, 6000 minutes 5 1550
11009 2020-Jul-08 09:35:10 market sale   eyebroowalet -02/17 meet123onexx axe, 6000 minutes 9 1650
11008 2020-Jul-08 08:52:21 market sale   playaccount1 -02/-01 nexterworlds axe, 6000 minutes 1 3000
11007 2020-Jul-08 05:44:18 market sale   damian123455 -10/-03 qkdmbv5nfdyy axe, 6000 minutes 3 1450
11006 2020-Jul-08 05:19:48 market sale   damian123455 -10/-03 conceptplays axe, 6000 minutes 1 1450
11005 2020-Jul-08 03:29:18 market sale   damian123455 -10/-03 elchife12345 axe, 6000 minutes 3 1450
11004 2020-Jul-08 03:29:00 market sale   damian123455 -10/-03 elchife12345 axe, 6000 minutes 3 1450
11003 2020-Jul-08 02:59:40 market sale   damian123455 -10/-03 iamleaf22345 axe, 6000 minutes 1 1450
11002 2020-Jul-08 02:38:48 market sale   damian123455 -10/-03 wilfredoseos axe, 6000 minutes 1 1450
11001 2020-Jul-08 01:48:29 market sale   playaccount1 -02/-01 gm2diobtgmge axe, 6000 minutes 3 3000
11000 2020-Jul-07 23:48:25 market sale   mdsmdsmdsmds -01/-01 buladifu1eos axe, 6000 minutes 1 1550
10999 2020-Jul-07 23:48:07 market sale   4321yamez321 -01/-01 buladifu1eos axe, 6000 minutes 2 1500
10998 2020-Jul-07 23:40:28 market sale   4321yamez321 -01/-01 evildeath111 axe, 6000 minutes 3 1500
10997 2020-Jul-07 23:40:07 market sale   michaelkim13 -01/-01 evildeath111 axe, 6000 minutes 3 1425
10996 2020-Jul-07 23:29:32 market sale   yevgenykurys -01/-01 jiwavo1qeuma axe, 1500 minutes 1 400
10995 2020-Jul-07 22:50:47 market sale   4321yamez321 -01/-01 13zzmarley13 axe, 6000 minutes 3 1500
10994 2020-Jul-07 22:36:45 market sale   mdsmdsmdsmds -01/-01 fdeidljj4zpt axe, 6000 minutes 1 1550
10993 2020-Jul-07 21:56:22 market sale   mdsmdsmdsmds -01/-01 rtnyffon2x5j axe, 6000 minutes 1 1550
10992 2020-Jul-07 19:54:58 market sale   mdsmdsmdsmds -01/-01 gamerscorner axe, 6000 minutes 16 1550
10991 2020-Jul-07 19:54:22 market sale   damian123455 -01/-01 gamerscorner axe, 6000 minutes 4 1450
10990 2020-Jul-07 18:10:03 market sale   damian123455 -01/-01 prospectorii axe, 6000 minutes 3 1450
10989 2020-Jul-07 16:01:24 market sale   mdsmdsmdsmds -01/-01 roshandhake5 axe, 6000 minutes 3 1550
10988 2020-Jul-07 12:58:56 market sale   lomoblomlom1 -01/-01 tirag4mining axe, 6000 minutes 3 1600
10987 2020-Jul-07 07:51:02 market sale   mdsmdsmdsmds -01/-01 metametamaks axe, 6000 minutes 3 1550
10986 2020-Jul-07 06:54:49 market sale   mdsmdsmdsmds -01/-01 hotzenplotz5 axe, 6000 minutes 10 1550
10985 2020-Jul-07 06:48:47 market sale   mdsmdsmdsmds -01/-01 machwire4eos axe, 6000 minutes 10 1550
10984 2020-Jul-07 06:26:40 market sale   mdsmdsmdsmds -01/-01 fmssltdair44 axe, 6000 minutes 1 1550
10983 2020-Jul-07 06:26:31 market sale   gyydoobyhage 18/11 mxysw5vma.tp axe, 6000 minutes 1 2000
10982 2020-Jul-06 22:47:01 market sale   mdsmdsmdsmds -01/-01 daigorokoike axe, 6000 minutes 2 1550
10981 2020-Jul-06 21:45:58 market sale   theaddario15 -05/08 gi2tkobrguge axe, 6000 minutes 3 1600
10980 2020-Jul-06 21:18:27 market sale   mdsmdsmdsmds -01/-01 downupdownup axe, 6000 minutes 2 1550
10979 2020-Jul-06 19:22:59 market sale   gyydoobyhage 18/11 brijsamant13 axe, 6000 minutes 1 2000
10978 2020-Jul-06 05:10:59 market sale   eosgino33333 20/13 daigorokoike axe, 6000 minutes 1 1599
10977 2020-Jul-06 03:49:32 market sale   apoorvavicky 16/-02 ahtashammanz axe, 6000 minutes 3 1890
10976 2020-Jul-06 03:45:13 market sale   apoorvavicky 16/-02 zeeshanmanzo axe, 6000 minutes 1 1890
10975 2020-Jul-06 01:38:51 market sale   13zzmarley13 -01/-01 agungneeos13 axe, 134 minutes 1 1
10974 2020-Jul-05 13:30:54 market sale   eosgino33333 20/13 norfiescu234 axe, 6000 minutes 1 1599
10973 2020-Jul-05 13:07:17 market sale golden..axe orendadilnok 04/00 omkar22omkar axe, 6000 minutes 2 1499
10972 2020-Jul-05 09:30:34 market sale   eyebroowalet -02/17 digdigdigeos axe, 6000 minutes 1 1650
10971 2020-Jul-05 01:20:27 market sale   ninethreesix -01/-01 mxysw5vma.tp axe, 4500 minutes 1 1111
10970 2020-Jul-04 10:27:22 market sale   1ctk3d5eosda -07/17 ssaharia1234 axe, 3750 minutes 1 800
10969 2020-Jul-04 09:09:08 market sale   eeeanekucfxx -01/03 mariaisacura axe, 3501 minutes 1 1000
10968 2020-Jul-04 09:05:56 market sale   eosgino33333 20/13 mariaisacura axe, 6000 minutes 1 1599
10967 2020-Jul-03 17:52:27 market sale   eosgino33333 20/13 marksrobinso axe, 6000 minutes 1 1599
10966 2020-Jul-03 16:02:37 market sale   apoorvavicky 16/-02 mariaisacura axe, 6000 minutes 1 1890
10965 2020-Jul-03 15:54:53 market sale   4321yamez321 -01/-01 ironhorse142 axe, 4800 minutes 3 1111
10964 2020-Jul-03 14:10:13 market sale   1ctk3d5eosda -07/17 ssaharia1234 axe, 863 minutes 1 150
10963 2020-Jul-03 09:19:08 market sale   roshandhake5 -01/-01 rodecabtc131 axe, 2113 minutes 1 755
10962 2020-Jul-03 03:33:58 market sale   lomoblomlom1 -01/-01 simeoneige11 axe, 6000 minutes 4 1600
10961 2020-Jul-03 03:08:12 market sale   drougski5454 -01/-01 iqed4ecit.tp axe, 6000 minutes 1 1650
10960 2020-Jul-02 22:45:12 market sale   dipshlappers -18/-20 rodecabtc131 axe, 1705 minutes 1 300
10959 2020-Jul-02 21:23:33 market sale   eosgino33333 20/13 wilfredoseos axe, 6000 minutes 1 1599
10958 2020-Jul-02 21:10:54 market sale   lomoblomlom1 -01/-01 franysfranys axe, 6000 minutes 1 1600
10957 2020-Jul-02 19:28:03 market sale   ninethreesix -01/-01 selamatjalan axe, 2315 minutes 1 555
10956 2020-Jul-02 13:18:54 market sale   ninethreesix -01/-01 fanskarma111 axe, 1925 minutes 1 444
10955 2020-Jul-02 11:18:45 market sale   eosgino33333 20/13 rtnyffon2x5j axe, 6000 minutes 1 1599
10954 2020-Jul-02 08:31:24 market sale   adasterunity -01/-01 jiwavo1qeuma axe, 783 minutes 1 160
10953 2020-Jul-02 03:17:44 market sale   lomoblomlom1 -01/-01 5osolttu4rlg axe, 6000 minutes 1 1600
10952 2020-Jul-01 19:06:46 market sale   lomoblomlom1 -01/-01 gyzdgnzxg4ge axe, 6000 minutes 2 1600
10951 2020-Jul-01 15:48:25 market sale   lomoblomlom1 -01/-01 procuratoros axe, 6000 minutes 1 1600
10950 2020-Jul-01 12:17:19 market sale   lomoblomlom1 -01/-01 5osolttu4rlg axe, 6000 minutes 2 1600
10949 2020-Jul-01 12:16:45 market sale   lomoblomlom1 -01/-01 mxysw5vma.tp axe, 6000 minutes 2 1600
10948 2020-Jul-01 11:28:09 market sale   mdsmdsmdsmds -05/06 g43dmnrygyge axe, 6000 minutes 1 1600
10947 2020-Jul-01 04:35:46 market sale   eyebroowalet -02/17 maheshsargam axe, 6000 minutes 1 1650
10946 2020-Jun-30 21:55:28 market sale   mdsmdsmdsmds -05/06 mortadelazk1 axe, 6000 minutes 1 1600
10945 2020-Jun-30 21:53:09 market sale   mdsmdsmdsmds -05/06 indiavenom42 axe, 6000 minutes 3 1600
10944 2020-Jun-30 19:06:39 market sale   iambig1deeee 26/-19 ahtashammanz axe, 6000 minutes 2 1555
10943 2020-Jun-30 15:45:02 market sale   lomoblomlom1 -01/-01 ethereumsuck axe, 6000 minutes 3 1600
10942 2020-Jun-30 14:47:23 market sale   mdsmdsmdsmds -05/06 elosopanza55 axe, 6000 minutes 1 1600
10941 2020-Jun-30 13:49:01 market sale   iambig1deeee 26/-19 muinuddinkha axe, 6000 minutes 2 1555
10940 2020-Jun-30 06:10:31 market sale   mdsmdsmdsmds -05/06 123sanjapopo axe, 6000 minutes 1 1600
10939 2020-Jun-30 03:45:21 market sale   lomoblomlom1 -01/-01 upeix4re22zk axe, 6000 minutes 2 1600
10938 2020-Jun-29 05:09:02 market sale   eyebroowalet -01/-01 neevadajones axe, 6000 minutes 3 1650
10937 2020-Jun-28 17:56:48 market sale   eyebroowalet -01/-01 gravityalive axe, 6000 minutes 10 1650
10936 2020-Jun-28 17:56:32 market sale   k1234512345n -01/-01 gravityalive axe, 6000 minutes 3 1600
10935 2020-Jun-28 17:27:35 market sale   gyydoobyhage 18/11 sunilksharma axe, 6000 minutes 1 2000
10934 2020-Jun-28 17:27:08 market sale   gyydoobyhage 18/11 sunilksharma axe, 6000 minutes 1 2000
10933 2020-Jun-28 16:36:16 market sale   pjsportygirl 01/-04 zeeshanmanzo axe, 6000 minutes 1 2800
10932 2020-Jun-28 13:02:09 market sale   mdsmdsmdsmds -05/06 digdigdigeos axe, 6000 minutes 1 1600
10931 2020-Jun-28 10:21:25 market sale   iambig1deeee 26/-19 franysfranys axe, 6000 minutes 1 1555
10930 2020-Jun-28 08:39:02 market sale   danieldomams -01/-01 thatcrooks22 axe, 77 minutes 1 20
10929 2020-Jun-28 07:24:11 market sale golden..axe orendadilnok 04/00 qh2fpx1vb5yq axe, 6000 minutes 1 1499
10928 2020-Jun-28 05:27:08 market sale   mdsmdsmdsmds -05/06 yaprisheleos axe, 6000 minutes 1 1600
10927 2020-Jun-28 02:34:45 market sale   pjsportygirl 01/-04 drunkmoon115 axe, 6000 minutes 1 2800
10926 2020-Jun-27 20:01:09 market sale   wujcioloczek 07/-15 thatcrooks22 axe, 1333 minutes 1 450
10925 2020-Jun-27 10:49:07 market sale   gyydoobyhage 18/11 elocrypto333 axe, 6000 minutes 1 2000
10924 2020-Jun-27 03:52:09 market sale   mdsmdsmdsmds -05/06 greenforests axe, 6000 minutes 3 1600
10923 2020-Jun-26 18:24:02 market sale   mdsmdsmdsmds -05/06 skinspecific axe, 6000 minutes 1 1600
10922 2020-Jun-26 16:32:18 market sale   gyydoobyhage 18/11 krishnalal21 axe, 6000 minutes 1 2000
10921 2020-Jun-26 14:21:26 market sale   eyebroowalet -01/-01 nylthads1234 axe, 6000 minutes 1 1650
10920 2020-Jun-25 23:15:54 market sale   mdsmdsmdsmds -05/06 greenforests axe, 6000 minutes 6 1600
10919 2020-Jun-25 11:54:53 market sale   mdsmdsmdsmds -05/06 giztqmbsg4ge axe, 6000 minutes 6 1600
10918 2020-Jun-25 09:31:03 market sale   eyebroowalet -02/17 niharika1235 axe, 6000 minutes 1 1650
10917 2020-Jun-25 04:45:00 market sale   eyebroowalet -02/17 niharika1235 axe, 6000 minutes 1 1650
10916 2020-Jun-25 00:42:39 market sale   mortuustempl -10/01 yisuseos1234 axe, 4914 minutes 1 1000
10915 2020-Jun-25 00:39:57 market sale   lomoblomlom1 -11/-03 yisuseos1234 axe, 2670 minutes 1 635
10914 2020-Jun-24 20:06:41 market sale   eyebroowalet -02/17 fanskarma111 axe, 6000 minutes 1 1650
10913 2020-Jun-24 11:03:25 market sale golden..axe orendadilnok 04/00 knightshadow axe, 6000 minutes 3 1499
10912 2020-Jun-23 19:16:36 market sale   gravityalive 14/17 dillonwheatl axe, 5700 minutes 1 1400
10911 2020-Jun-23 14:48:08 market sale golden..axe orendadilnok 04/00 domonicrypto axe, 6000 minutes 1 1499
10910 2020-Jun-23 10:36:38 market sale   gravityalive 14/17 amartinezm11 axe, 5700 minutes 1 1400
10909 2020-Jun-23 09:17:40 market sale   mdsmdsmdsmds -05/06 andresymm111 axe, 6000 minutes 1 1600
10908 2020-Jun-23 08:51:09 market sale   gyydoobyhage 18/11 asesoriasin1 axe, 6000 minutes 1 2000
10907 2020-Jun-23 06:02:57 market sale   eyebroowalet -02/17 mahlerjacob1 axe, 6000 minutes 1 1650
10906 2020-Jun-22 19:45:59 market sale   eyebroowalet -01/-01 hassanabid11 axe, 6000 minutes 1 1650
10905 2020-Jun-22 19:42:00 market sale   danieldomams -01/-01 hassanabid11 axe, 6000 minutes 1 1599
10904 2020-Jun-22 08:54:17 market sale   danieldomams -01/-01 slavenkiyyyy axe, 6000 minutes 2 1599
10903 2020-Jun-22 05:19:47 market sale   savagelitone 05/11 g43dmnrygyge axe, 6000 minutes 1 2000
10902 2020-Jun-21 21:46:09 market sale   eosgino33333 20/13 m4rco4urelio axe, 6000 minutes 1 1595
10901 2020-Jun-21 21:32:39 market sale   hezdinrugqge 03/-06 hotzenplotz5 axe, 6000 minutes 10 1200
10900 2020-Jun-21 19:24:13 market sale   danieldomams -01/-01 milenismata1 axe, 6000 minutes 2 1599
10899 2020-Jun-21 18:47:52 market sale   hezdinrugqge 03/-06 luismarin123 axe, 6000 minutes 3 1200
10898 2020-Jun-21 18:39:27 market sale   jazenblunts1 22/12 rmrgpg3htq3k axe, 6000 minutes 1 1280
10897 2020-Jun-21 17:28:39 market sale   danieldomams -01/-01 pankajsh3211 axe, 6000 minutes 1 1599
10896 2020-Jun-21 10:28:10 market sale   danieldomams -01/-01 abraacadabra axe, 6000 minutes 3 1599
10895 2020-Jun-21 10:13:54 market sale   hezdinrugqge 03/-06 episodeseven axe, 6000 minutes 6 1300
10894 2020-Jun-21 09:55:07 market sale ekteam samsunactive -01/-01 dragon4eospg axe, 3180 minutes 1 1
10893 2020-Jun-21 09:14:34 market sale   hezdinrugqge 03/-06 g44denjrgige axe, 6000 minutes 1 1300
10892 2020-Jun-20 09:44:34 market sale golden..axe orendadilnok 04/00 rollabolla21 axe, 6000 minutes 2 1400
10891 2020-Jun-20 02:07:56 market sale   lomoblomlom1 -11/-03 thatcrooks22 axe, 1220 minutes 1 230
10890 2020-Jun-19 21:33:20 market sale   danieldomams -01/-01 semiflexible axe, 6000 minutes 1 1599
10889 2020-Jun-19 12:16:43 market sale   wizardstudio -09/-06 semiflexible axe, 6000 minutes 1 1500
10888 2020-Jun-19 12:15:02 market sale   eosgino33333 -10/-25 semiflexible axe, 6000 minutes 1 1450
10887 2020-Jun-19 00:00:09 market sale   mdsmdsmdsmds -05/06 blueblu12345 axe, 6000 minutes 3 1600
10886 2020-Jun-18 16:20:01 market sale   1ctk3d5eosda 00/02 fanskarma111 axe, 6000 minutes 1 1750
10885 2020-Jun-18 13:04:03 market sale   eosgino33333 -10/-25 pirragameoss axe, 6000 minutes 1 1450
10884 2020-Jun-18 12:12:20 market sale   1ctk3d5eosda -20/21 skyskysky213 axe, 3750 minutes 1 500
10883 2020-Jun-18 08:53:06 market sale   aluminumcoin -18/-12 pirragameoss axe, 5400 minutes 1 1400
10882 2020-Jun-18 07:32:28 market sale   ha3dmmrygyge 11/-13 johnsonmagic axe, 6000 minutes 1 2200
10881 2020-Jun-18 01:23:07 market sale golden..axe orendadilnok 04/00 digdigdigeos axe, 6000 minutes 6 1300
10880 2020-Jun-17 17:15:14 market sale golden..axe orendadilnok 04/00 gru4zkpqb.tp axe, 6000 minutes 1 1300
10879 2020-Jun-17 14:04:44 market sale   gravityalive 15/13 michaelkim13 axe, 6000 minutes 3 1350
10878 2020-Jun-17 14:01:40 market sale   k1234512345n -01/-01 michaelkim13 axe, 4740 minutes 1 770
10877 2020-Jun-17 14:01:08 market sale   k1234512345n -01/-01 michaelkim13 axe, 4800 minutes 1 810
10876 2020-Jun-17 12:46:23 market sale   gravityalive 15/13 dawoodasif11 axe, 6000 minutes 1 1350
10875 2020-Jun-17 10:51:03 market sale   mdsmdsmdsmds 18/22 khzy2hcbzhs5 axe, 6000 minutes 1 1325
10874 2020-Jun-17 09:33:04 market sale   gyydoobyhage 19/15 dillonwheatl axe, 6000 minutes 1 2000
10873 2020-Jun-17 06:53:26 market sale   gravityalive 15/13 dawoodasif11 axe, 6000 minutes 3 1350
10872 2020-Jun-17 06:51:30 market sale   iambig1deeee 26/-19 dawoodasif11 axe, 6000 minutes 2 1870
10871 2020-Jun-17 05:59:15 market sale   mdsmdsmdsmds -05/06 11opointfive axe, 6000 minutes 6 1350
10870 2020-Jun-17 05:22:06 market sale   iambig1deeee 26/-19 norfiescu234 axe, 6000 minutes 1 1870
10869 2020-Jun-17 04:31:55 market sale   apoorvavicky 16/-02 desisafriani axe, 6000 minutes 1 1890
10868 2020-Jun-17 02:27:59 market sale   xcggeosacc13 -03/-19 gyzdmmbrgyge axe, 6000 minutes 23 1350
10867 2020-Jun-16 23:13:52 market sale   1ctk3d5eosda 00/02 megalex12345 axe, 6000 minutes 6 1750
10866 2020-Jun-16 19:12:38 market sale   ltachiuchiha -01/-01 yisuseos1234 axe, 3900 minutes 1 500
10865 2020-Jun-16 08:36:21 market sale   kukusingh333 -10/01 thatcrooks22 axe, 1730 minutes 1 100
10864 2020-Jun-16 04:14:56 market sale   gravityalive 15/13 selamatjalan axe, 6000 minutes 1 1350
10863 2020-Jun-15 18:55:54 market sale   mdsmdsmdsmds -05/06 surajaccount axe, 6000 minutes 1 1350
10862 2020-Jun-15 12:37:20 market sale   iambig1deeee 26/-19 tasmt4acc123 axe, 6000 minutes 1 1870
10861 2020-Jun-15 05:49:18 market sale   ltachiuchiha -01/-01 upeix4re22zk axe, 3900 minutes 1 500
10860 2020-Jun-15 01:55:05 market sale   eyebroowalet -02/17 vishnuvishnu axe, 6000 minutes 1 2000
10859 2020-Jun-14 23:52:04 market sale   iambig1deeee 26/-19 aboyousef123 axe, 6000 minutes 1 1870
10858 2020-Jun-14 23:27:12 market sale   ltachiuchiha -01/-01 baladewa3333 axe, 3900 minutes 1 500
10857 2020-Jun-14 11:24:28 market sale   mdsmdsmdsmds -05/06 indranarayan axe, 6000 minutes 1 1750
10856 2020-Jun-14 11:23:44 market sale   mdsmdsmdsmds -05/06 indranarayan axe, 6000 minutes 1 1750
10855 2020-Jun-14 11:20:27 market sale   mdsmdsmdsmds -05/06 indranarayan axe, 6000 minutes 1 1750
10854 2020-Jun-13 06:22:47 market sale   gravityalive 15/13 episodeseven axe, 6000 minutes 3 1400
10853 2020-Jun-12 20:34:27 market sale   aliraza11122 22/03 subboch2pros axe, 6000 minutes 1 1350
10852 2020-Jun-12 17:24:55 market sale   1ctk3d5eosda 00/02 patelankitbh axe, 6000 minutes 1 1750
10851 2020-Jun-12 15:00:46 market sale   iambig1deeee 26/-19 desisafriani axe, 6000 minutes 1 1870
10850 2020-Jun-12 11:57:18 market sale   aliraza11122 22/03 akash2222111 axe, 6000 minutes 1 1350
10849 2020-Jun-12 11:45:14 market sale   1ctk3d5eosda 23/11 anatus441515 axe, 2840 minutes 1 600
10848 2020-Jun-12 09:06:28 market sale   mdsmdsmdsmds 03/00 renrena22.tp axe, 1300 minutes 1 150
10847 2020-Jun-12 07:38:22 market sale   aluminumcoin -18/-18 agushermawan axe, 6000 minutes 6 1499
10846 2020-Jun-12 03:55:01 market sale   xcggeosacc13 -03/-19 imthe5ervant axe, 1309 minutes 1 99
10845 2020-Jun-11 04:42:01 market sale   bulfagor1111 -01/-01 eeeanekucfxx axe, 3501 minutes 1 300
10844 2020-Jun-11 02:20:03 market sale   aliraza11122 22/03 selamatjalan axe, 6000 minutes 1 1450
10843 2020-Jun-10 18:55:33 market sale   gyydoobyhage 19/15 eeeanekucfxx axe, 6000 minutes 1 2000
10842 2020-Jun-10 06:37:30 market sale   redstranger4 -01/-01 chotpong2535 axe, 5880 minutes 1 1399
10841 2020-Jun-10 03:25:38 market sale   gy3dmojqgege -03/19 mahlerjacob1 axe, 6000 minutes 1 1749
10840 2020-Jun-09 04:07:54 market sale   wizardstudio -09/-06 josedavidvzl axe, 6000 minutes 1 1500
10839 2020-Jun-08 14:51:56 market sale   gy3dmojqgege -03/19 alfarisi1234 axe, 6000 minutes 1 1749
10838 2020-Jun-08 09:36:13 market sale   mdsmdsmdsmds 18/10 shyifuisiful axe, 2400 minutes 1 500
10837 2020-Jun-08 09:35:22 market sale   yuma33554432 -01/-01 shyifuisiful axe, 219 minutes 1 100
10836 2020-Jun-07 16:41:19 market sale golden..axe orendadilnok 04/00 jillsbeannee axe, 6000 minutes 2 1600
10835 2020-Jun-07 02:37:52 market sale   klimanskiy22 25/-18 sufalsahoo12 axe, 4900 minutes 1 1010
10834 2020-Jun-06 07:26:56 market sale   alazspqot3co 04/-12 daigorokoike axe, 6000 minutes 3 1600
10833 2020-Jun-05 17:21:38 market sale golden..axe orendadilnok 04/00 jillsbeannee axe, 6000 minutes 1 1300
10832 2020-Jun-05 16:29:24 market sale   1ctk3d5eosda 00/02 ketchupchips axe, 6000 minutes 10 1750
10831 2020-Jun-05 13:01:14 market sale   12maximecote 27/25 g44denjrgige axe, 6000 minutes 1 1400
10830 2020-Jun-05 11:50:25 market sale   mdsmdsmdsmds -05/06 krishnalal21 axe, 6000 minutes 1 1750
10829 2020-Jun-05 11:08:42 market sale   aluminumcoin -18/-12 emiliomorles axe, 3600 minutes 1 750
10828 2020-Jun-05 09:56:07 market sale   marieedith12 -18/-07 muhammadasif axe, 6000 minutes 4 1240
10827 2020-Jun-05 08:31:55 market sale golden..axe orendadilnok 04/00 cc1cftzakerd axe, 6000 minutes 2 1300
10826 2020-Jun-05 05:49:29 market sale   potplucker11 27/-12 jdanielortiz axe, 88 minutes 1 15
10825 2020-Jun-05 04:40:43 market sale   marieedith12 -18/-07 mariazk12345 axe, 6000 minutes 2 1240
10824 2020-Jun-05 04:13:47 market sale   sbsshetty251 09/10 shabana11223 axe, 6000 minutes 1 1280
10823 2020-Jun-05 03:31:56 market sale   ha3dmmrygyge 11/-13 brijsamant13 axe, 6000 minutes 1 2200
10822 2020-Jun-05 01:50:58 market sale   sbsshetty251 09/10 bluemagic123 axe, 6000 minutes 1 1280
10821 2020-Jun-04 20:19:25 market sale   marieedith12 -18/-07 andresolayaf axe, 6000 minutes 3 1240
10820 2020-Jun-04 18:10:07 market sale   marieedith12 -18/-07 niharika1235 axe, 6000 minutes 1 1240
10819 2020-Jun-04 15:17:58 market sale   ha3dmmrygyge 11/-13 g43dmnrygyge axe, 6000 minutes 1 2200
10818 2020-Jun-04 11:17:36 market sale   marieedith12 -18/-07 desisafriani axe, 6000 minutes 1 1240
10817 2020-Jun-04 10:15:30 market sale   marieedith12 -18/-07 redstranger4 axe, 6000 minutes 1 1240
10816 2020-Jun-04 07:34:27 market sale   baliaviator1 -05/-16 imthe5ervant axe, 1480 minutes 1 250
10815 2020-Jun-04 06:39:03 market sale   k1234512345n -01/-01 pompeos52411 axe, 5100 minutes 1 1480
10814 2020-Jun-03 15:10:01 market sale   ha3dmmrygyge 11/-13 samamad21.tp axe, 6000 minutes 1 2200
10813 2020-Jun-03 03:12:13 market sale   sbsshetty251 09/10 drunkmoon115 axe, 6000 minutes 1 1280
10812 2020-Jun-02 16:22:33 market sale   sbsshetty251 09/10 cryptogameka axe, 6000 minutes 1 1280
10811 2020-Jun-02 16:22:03 market sale   sbsshetty251 09/10 cryptogameka axe, 6000 minutes 2 1280
10810 2020-Jun-02 05:20:30 market sale   12lexas345ai -01/-01 bluemagic123 axe, 1500 minutes 1 400
10809 2020-Jun-02 00:01:15 market sale   iambig1deeee 26/-19 potplucker11 axe, 6000 minutes 1 1870
10808 2020-Jun-01 14:11:27 market sale   benjaminrost -01/-01 sufalsahoo12 axe, 2880 minutes 1 300
10807 2020-Jun-01 07:41:00 market sale   iambig1deeee 26/-19 baretasss111 axe, 6000 minutes 1 1870
10806 2020-Jun-01 02:14:40 market sale   ivanvelazque 19/18 hardcore243i axe, 550 minutes 1 250
10805 2020-Jun-01 00:09:50 market sale   robotstarwar -08/-19 simozuzu2o2o axe, 1580 minutes 1 200
10804 2020-Jun-01 00:06:03 market sale   marisansochi 04/07 simozuzu2o2o axe, 82 minutes 1 200
10803 2020-May-31 18:09:38 market sale   robotstarwar -08/-19 adasterunity axe, 5580 minutes 1 200
10802 2020-May-31 17:33:06 market sale   gyydoobyhage 19/15 g43dmnrygyge axe, 6000 minutes 1 2000
10801 2020-May-31 14:20:28 market sale   mdsmdsmdsmds -05/06 anormira1234 axe, 6000 minutes 1 1750
10800 2020-May-31 11:30:38 market sale   klimanskiy22 -01/-05 nikoleondas1 axe, 6000 minutes 1 1630
10799 2020-May-30 16:15:18 market sale   orendadilnok 04/00 ifegwuonyeka axe, 6000 minutes 1 1300
10798 2020-May-30 14:03:15 market sale   benjaminros1 -01/-01 sufalsahoo12 axe, 650 minutes 1 50
10797 2020-May-30 06:07:02 market sale   benjaminrost -01/-01 siddhatt3322 axe, 1365 minutes 1 250
10796 2020-May-30 05:57:32 market sale   benjaminrost -01/-01 yoranaproeos axe, 1845 minutes 1 240
10795 2020-May-30 01:28:58 market sale   anikybee1234 26/-19 alfarisi1234 axe, 6000 minutes 1 1749
10794 2020-May-30 00:43:43 market sale   benjaminros1 -01/-01 valeska12345 axe, 4096 minutes 1 400
10793 2020-May-29 23:01:10 market sale   4321yamez321 14/04 masterhakuin axe, 4800 minutes 1 1
10792 2020-May-29 22:57:08 market sale   4321yamez321 14/04 masterhakuin axe, 2100 minutes 1 1
10791 2020-May-29 22:05:07 market sale   orendadilnok 04/00 nylthads1234 axe, 6000 minutes 1 1300
10790 2020-May-29 16:25:32 market sale   georgez23eos 02/-08 recklessgame axe, 6000 minutes 2 1400
10789 2020-May-29 15:55:01 market sale   benjaminrost -01/-01 eos4ever1jt1 axe, 6000 minutes 1 1200
10788 2020-May-29 15:42:22 market sale   1ctk3d5eosda -17/-02 eos4ever1jt1 axe, 6000 minutes 6 1750
10787 2020-May-29 14:41:40 market sale   orendadilnok 04/00 tasmt4acc123 axe, 6000 minutes 1 1300
10786 2020-May-29 09:58:42 market sale   alazspqot3co 06/-15 thebest33333 axe, 6000 minutes 3 1380
10785 2020-May-29 02:24:05 market sale   alazspqot3co 10/-16 eosramirico2 axe, 6000 minutes 1 1380
10784 2020-May-29 02:23:52 market sale   fichozzking1 -26/02 eosramirico2 axe, 6000 minutes 2 1350
10783 2020-May-28 20:53:20 market sale   klimanskiy22 -01/-05 valeska12345 axe, 6000 minutes 1 1630
10782 2020-May-28 17:50:51 market sale   orendadilnok 04/00 as1desq55csw axe, 6000 minutes 1 1300
10781 2020-May-28 12:40:31 market sale   playaccount1 -02/-01 baracudass22 axe, 6000 minutes 1 3000
10780 2020-May-28 12:11:20 market sale   fichozzking1 -26/02 yoranaproeos axe, 6000 minutes 1 1350
10779 2020-May-28 12:10:47 market sale   aluminumcoin -18/-12 yoranaproeos axe, 2100 minutes 1 440
10778 2020-May-28 07:44:56 market sale   rrowp1vu5w1y -01/-07 robotstarwar axe, 2000 minutes 1 300
10777 2020-May-27 11:52:31 market sale   savagelitone 05/11 arysln234234 axe, 6000 minutes 1 2000
10776 2020-May-27 11:16:59 market sale   fichozzking1 -26/02 downupdownup axe, 6000 minutes 1 1350
10775 2020-May-27 07:27:49 market sale   fichozzking1 -26/02 downupdownup axe, 6000 minutes 1 1350
10774 2020-May-27 01:56:27 market sale   playaccount1 -02/-01 robotstarwar axe, 6000 minutes 1 3000
10773 2020-May-26 19:08:59 market sale   alazspqot3co 06/-15 rkvasavalov3 axe, 6000 minutes 3 1380
10772 2020-May-26 17:08:07 market sale   drougski5454 -01/-01 theodorus324 axe, 1300 minutes 1 250
10771 2020-May-26 16:45:22 market sale   gyydoobyhage 19/15 sunilksharma axe, 6000 minutes 1 2000
10770 2020-May-26 16:29:47 market sale   brujitaferoz -25/04 andresolayaf axe, 4297 minutes 1 900
10769 2020-May-26 13:30:38 market sale   alazspqot3co 10/-16 g44denjrgige axe, 6000 minutes 1 1380
10768 2020-May-26 11:33:32 market sale   eosgino33333 20/13 izcrsovichbn axe, 4800 minutes 1 720
10767 2020-May-25 21:36:33 market sale   orendadilnok 04/00 1circusnova1 axe, 6000 minutes 3 1300
10766 2020-May-25 15:08:27 market sale   freeedm12345 -01/-01 mrbulprisa11 axe, 2709 minutes 1 500
10765 2020-May-25 12:00:54 market sale   12maximecote 27/25 sktkdgns2121 axe, 6000 minutes 1 1400
10764 2020-May-25 06:14:30 market sale   georgez23eos 02/-08 yaprisheleos axe, 6000 minutes 2 1400
10763 2020-May-25 01:55:50 market sale   12maximecote 27/25 josueabraham axe, 6000 minutes 1 1400
10762 2020-May-24 23:16:28 market sale   brujitaferoz -25/04 mami3crytpos axe, 2400 minutes 1 400
10761 2020-May-24 08:44:28 market sale   12maximecote 27/25 dillonwheatl axe, 6000 minutes 1 1400
10760 2020-May-24 08:40:26 market sale   savagelitone 05/11 anormira1234 axe, 6000 minutes 1 2000
10759 2020-May-24 07:17:12 market sale   georgez23eos 02/-08 pankajsh3211 axe, 6000 minutes 1 1400
10758 2020-May-24 00:35:56 market sale   freeedm12345 -01/-01 digittwallet axe, 1758 minutes 1 400
10757 2020-May-23 08:44:52 market sale   1ctk3d5eosda 00/02 xovna5ed2ouf axe, 6000 minutes 3 1750
10756 2020-May-23 08:04:36 market sale   wujcioloczek -14/-09 digittwallet axe, 1800 minutes 1 200
10755 2020-May-22 17:54:38 market sale   orendadilnok 04/00 omkar22omkar axe, 6000 minutes 1 1300
10754 2020-May-22 13:21:06 market sale   orendadilnok 04/00 procuratoros axe, 6000 minutes 1 1300
10753 2020-May-21 22:25:36 market sale   lomoblomlom1 19/13 yoranaproeos axe, 5280 minutes 1 1100
10752 2020-May-21 20:52:28 market sale   georgez23eos 02/-08 akunzulhelmi axe, 6000 minutes 1 1400
10751 2020-May-21 15:33:02 market sale   orendadilnok 04/00 kingjohnson1 axe, 6000 minutes 1 1300
10750 2020-May-21 10:05:30 market sale   georgez23eos 02/-08 nayana22hark axe, 6000 minutes 1 1400
10749 2020-May-21 09:25:25 market sale   georgez23eos 02/-08 zulhelmipase axe, 6000 minutes 1 1400
10748 2020-May-21 09:24:36 market sale   georgez23eos 02/-08 zulhelmipase axe, 6000 minutes 1 1400
10747 2020-May-20 21:26:34 market sale   orendadilnok 04/00 feelthepain1 axe, 6000 minutes 1 1300
10746 2020-May-20 20:43:23 market sale   dipshlappers -18/-20 maxpowerized axe, 6000 minutes 1 1300
10745 2020-May-20 20:38:20 market sale   dipshlappers -18/-20 nikoleondas1 axe, 6000 minutes 1 1300
10744 2020-May-20 13:29:42 market sale   georgez23eos 02/-08 csaguier1.tp axe, 6000 minutes 3 1400
10743 2020-May-19 23:55:15 market sale   georgez23eos 02/-08 ventolinllev axe, 6000 minutes 3 1400
10742 2020-May-19 23:08:04 market sale   dipshlappers -18/-20 downupdownup axe, 6000 minutes 1 1300
10741 2020-May-19 13:16:31 market sale   savagelitone 05/11 krishnalal21 axe, 6000 minutes 1 2000
10740 2020-May-19 08:39:57 market sale   orendadilnok 04/00 omkar22omkar axe, 6000 minutes 1 1300
10739 2020-May-19 07:10:37 market sale   georgez23eos 02/-08 rajakuba2133 axe, 6000 minutes 1 1400
10738 2020-May-18 21:01:32 market sale   georgez23eos 02/-08 daigorokoike axe, 6000 minutes 3 1400
10737 2020-May-17 22:19:39 market sale   zeroodxero15 20/13 yoranaproeos axe, 4800 minutes 1 1150
10736 2020-May-17 19:07:45 market sale   12maximecote 27/25 wdr2tpqbk4ux axe, 6000 minutes 1 1400
10735 2020-May-17 14:41:26 market sale   4321yamez321 -01/-01 rmrgpg3htq3k axe, 6000 minutes 1 1399
10734 2020-May-17 14:39:34 market sale   4321yamez321 -01/-01 sktkdgns2121 axe, 6000 minutes 1 1399
10733 2020-May-17 14:05:07 market sale   4321yamez321 -01/-01 bithawk11511 axe, 6000 minutes 2 1399
10732 2020-May-17 09:38:04 market sale   1ctk3d5eosda -21/-10 oleggggg2525 axe, 6000 minutes 3 1750
10731 2020-May-17 09:36:17 market sale   1ctk3d5eosda -21/-10 oleggggg2525 axe, 6000 minutes 3 1750
10730 2020-May-17 09:11:51 market sale   1ctk3d5eosda -21/-10 oleggggg2525 axe, 6000 minutes 3 1750
10729 2020-May-17 03:36:48 market sale   makezuranelu -19/-01 maxi15miran4 axe, 6000 minutes 1 1500
10728 2020-May-16 22:24:25 market sale   4321yamez321 -01/-01 miwalletdeos axe, 6000 minutes 1 1399
10727 2020-May-16 20:52:19 market sale   eoseoscrypto 07/-14 feelthepain1 axe, 5580 minutes 1 950
10726 2020-May-16 19:37:08 market sale   gyydoobyhage 18/11 maxi15miran4 axe, 6000 minutes 1 2000
10725 2020-May-16 17:54:03 market sale   eoseoscrypto 07/-14 bithawk11511 axe, 6000 minutes 1 1280
10724 2020-May-16 17:46:27 market sale   orendadilnok 04/00 duendekancit axe, 6000 minutes 1 1300
10723 2020-May-16 10:49:01 market sale   4321yamez321 -01/-01 rahul1234543 axe, 6000 minutes 1 1399
10722 2020-May-16 05:15:00 market sale   4321yamez321 -01/-01 rudimlnqqqqq axe, 6000 minutes 1 1399
10721 2020-May-16 04:01:20 market sale   4321yamez321 -01/-01 episodeseven axe, 6000 minutes 6 1399
10720 2020-May-15 10:29:19 market sale   makezuranelu -19/-01 felixcarvaja axe, 6000 minutes 1 1500
10719 2020-May-15 02:55:49 market sale   12maximecote 27/25 bithawk11511 axe, 6000 minutes 1 1400
10718 2020-May-14 22:53:06 market sale   georgez23eos 02/-08 rtnyffon2x5j axe, 6000 minutes 1 1400
10717 2020-May-14 14:10:39 market sale   12maximecote 27/25 gamernahid12 axe, 6000 minutes 1 1400
10716 2020-May-13 09:50:28 market sale   1ctk3d5eosda 00/02 g43dmnrygyge axe, 6000 minutes 1 1750
10715 2020-May-13 05:49:53 market sale   orendadilnok 04/00 vinhpkim1313 axe, 6000 minutes 6 1300
10714 2020-May-13 03:32:17 market sale   1ctk3d5eosda 14/-14 asesoriasin1 axe, 6000 minutes 1 1750
10713 2020-May-13 00:40:45 market sale   cryptotrade1 02/15 miwalletdeos axe, 3943 minutes 1 999
10712 2020-May-12 19:51:26 market sale   12maximecote 27/25 sgpocasluces axe, 6000 minutes 1 1400
10711 2020-May-12 19:25:22 market sale   k1234512345n -01/-01 choosemyname axe, 1000 minutes 1 230
10710 2020-May-12 13:10:31 market sale   4321yamez321 -01/-01 norfiescu234 axe, 6000 minutes 1 1500
10709 2020-May-12 12:36:26 market sale   aluminumcoin -18/-18 aboyousef123 axe, 6000 minutes 1 1500
10708 2020-May-12 09:09:39 market sale   4321yamez321 -01/-01 olymarinm111 axe, 6000 minutes 1 1500
10707 2020-May-12 06:50:45 market sale   4321yamez321 -01/-01 stiflerphe.q axe, 6000 minutes 1 1500
10706 2020-May-12 05:16:28 market sale   kodosukenaqi -16/07 qh2fpx1vb5yq axe, 4900 minutes 1 750
10705 2020-May-11 21:35:57 market sale   hericaine423 03/-11 fdeidljj4zpt axe, 6000 minutes 1 1250
10704 2020-May-11 17:18:07 market sale   1ctk3d5eosda 14/-14 nakajimakent axe, 6000 minutes 1 1750
10703 2020-May-11 12:24:33 market sale   gyydoobyhage 18/11 aslerboydude axe, 6000 minutes 1 2000
10702 2020-May-11 11:09:05 market sale   aluminumcoin -18/-18 nylthads1234 axe, 6000 minutes 1 1500
10701 2020-May-10 21:54:31 market sale   kodosukenaqi -16/07 yetrimemetor axe, 3900 minutes 1 650
10700 2020-May-10 14:03:00 market sale   12maximecote 27/25 anlooksir.tp axe, 6000 minutes 1 1400
10699 2020-May-09 19:24:32 market sale   orendadilnok 04/00 professor123 axe, 6000 minutes 6 1280
10698 2020-May-09 15:01:47 market sale   4321yamez321 -01/-01 ruinedheart1 axe, 6000 minutes 3 1500
10697 2020-May-09 14:01:58 market sale   hericaine423 03/-11 stiflerphe.q axe, 6000 minutes 1 1350
10696 2020-May-09 13:43:45 market sale   hericaine423 03/-11 maxpowerized axe, 6000 minutes 1 1350
10695 2020-May-09 05:06:01 market sale   hericaine423 03/-11 qh2fpx1vb5yq axe, 6000 minutes 1 1350
10694 2020-May-09 04:52:00 market sale   orendadilnok 04/00 romarleneind axe, 6000 minutes 2 1280
10693 2020-May-09 04:19:42 market sale   12maximecote 17/19 dawoodasif11 axe, 6000 minutes 3 1500
10692 2020-May-08 20:17:24 market sale   hericaine423 03/-11 stiflerphe.q axe, 6000 minutes 1 1350
10691 2020-May-08 09:11:06 market sale   hericaine423 03/-11 gy2dsnbqgmge axe, 6000 minutes 1 1350
10690 2020-May-08 06:05:33 market sale   4321yamez321 -01/-01 patelankitbh axe, 6000 minutes 1 1500
10689 2020-May-07 22:53:00 market sale   1ctk3d5eosda -17/-02 franysfranys axe, 6000 minutes 1 1750
10688 2020-May-07 22:40:06 market sale   4321yamez321 -01/-01 procuratoros axe, 6000 minutes 1 1500
10687 2020-May-07 05:30:30 market sale   1ctk3d5eosda 00/02 simeoneige11 axe, 6000 minutes 5 1750
10686 2020-May-07 02:10:08 market sale   4321yamez321 -01/-01 tasmt4acc123 axe, 6000 minutes 1 1300
10685 2020-May-06 18:50:55 market sale   4321yamez321 -01/-01 qh2fpx1vb5yq axe, 6000 minutes 1 1300
10684 2020-May-06 18:25:13 market sale   4321yamez321 -01/-01 csa1234sb123 axe, 6000 minutes 3 1300
10683 2020-May-06 17:33:15 market sale   12maximecote 17/19 prabhat12345 axe, 6000 minutes 1 1500
10682 2020-May-06 11:33:29 market sale   12maximecote 17/19 abuibnuhajar axe, 6000 minutes 1 1500
10681 2020-May-06 10:10:10 market sale   4321yamez321 -01/-01 lunxlunxlunx axe, 6000 minutes 3 1300
10680 2020-May-06 10:07:19 market sale   4321yamez321 -01/-01 audividesile axe, 6000 minutes 3 1300
10679 2020-May-06 08:38:25 market sale   4321yamez321 -01/-01 prospectorgb axe, 6000 minutes 1 1300
10678 2020-May-06 06:40:19 market sale   georgez23eos 02/-08 leobardojrl2 axe, 6000 minutes 1 1290
10677 2020-May-06 01:24:37 market sale   orendadilnok 04/00 knightshadow axe, 6000 minutes 3 1280
10676 2020-May-05 20:52:34 market sale   pjsportygirl 01/-04 123sanjapopo axe, 6000 minutes 1 2278
10675 2020-May-05 13:20:37 market sale   theaddario15 -21/-14 khzy2hcbzhs5 axe, 6000 minutes 2 1500
10674 2020-May-05 13:19:43 market sale   aluminumcoin -18/-18 khzy2hcbzhs5 axe, 6000 minutes 2 1270
10673 2020-May-05 12:52:09 market sale   aluminumcoin -18/-18 abhaypanwar1 axe, 6000 minutes 1 1270
10672 2020-May-05 09:55:49 market sale   aluminumcoin -18/-18 fdeidljj4zpt axe, 6000 minutes 1 1270
10671 2020-May-05 08:07:34 market sale   1ctk3d5eosda -21/-10 nestheroviap axe, 6000 minutes 1 1650
10670 2020-May-05 07:38:31 market sale   4321yamez321 -01/-01 dewinchester axe, 6000 minutes 2 1300
10669 2020-May-05 05:42:52 market sale   1ctk3d5eosda 00/02 g43dmnrygyge axe, 6000 minutes 2 1650
10668 2020-May-05 03:40:04 market sale   anikybee1234 26/-19 alazspqot3co axe, 6000 minutes 4 1599
10667 2020-May-04 18:32:24 market sale   1ctk3d5eosda -21/-10 criptosonido axe, 6000 minutes 1 1650
10666 2020-May-04 17:24:54 market sale   4321yamez321 -01/-01 nikoleondas1 axe, 6000 minutes 1 1300
10665 2020-May-04 14:11:20 market sale   anikybee1234 26/-19 romarleneind axe, 6000 minutes 1 1599
10664 2020-May-04 13:36:01 market sale   apoorvavicky 16/-02 ahtashammanz axe, 6000 minutes 1 1890
10663 2020-May-04 13:31:45 market sale   1ctk3d5eosda -21/-10 jannatshahza axe, 6000 minutes 1 1650
10662 2020-May-04 13:10:32 market sale   4321yamez321 -01/-01 vautobrazzer axe, 6000 minutes 1 1300
10661 2020-May-04 12:56:36 market sale   aluminumcoin -18/-18 drunkmoon115 axe, 6000 minutes 1 1270
10660 2020-May-04 11:40:51 market sale   georgez23eos 02/-08 lin21lugobda axe, 6000 minutes 1 1290
10659 2020-May-04 07:25:05 market sale   12maximecote 17/19 abk234tropik axe, 6000 minutes 1 1500
10658 2020-May-04 06:47:02 market sale   1ctk3d5eosda 00/02 alexhalesen2 axe, 6000 minutes 1 1650
10657 2020-May-04 06:39:21 market sale   1ctk3d5eosda -21/-10 brijsamant13 axe, 6000 minutes 1 1650
10656 2020-May-04 03:41:44 market sale   1ctk3d5eosda -21/-10 nurliss12345 axe, 6000 minutes 1 1650
10655 2020-May-04 03:19:39 market sale   12maximecote 17/19 ahtashammanz axe, 6000 minutes 1 1500
10654 2020-May-04 02:04:49 market sale   aluminumcoin -18/-18 yohander1534 axe, 6000 minutes 1 1270
10653 2020-May-04 01:59:21 market sale   4321yamez321 -01/-01 aboyousef123 axe, 6000 minutes 1 1300
10652 2020-May-03 21:49:56 market sale   georgez23eos 02/-08 androidereos axe, 6000 minutes 1 1290
10651 2020-May-03 21:38:28 market sale   georgez23eos 02/-08 jannatshahza axe, 6000 minutes 1 1290
10650 2020-May-03 20:22:11 market sale   georgez23eos 02/-08 rkvasavalov3 axe, 6000 minutes 3 1290
10649 2020-May-03 17:03:54 market sale   georgez23eos 02/-08 yohander1534 axe, 6000 minutes 1 1290
10648 2020-May-03 16:01:52 market sale   aluminumcoin -18/-18 dipshlappers axe, 6000 minutes 4 1000
10647 2020-May-03 15:20:10 market sale   1ctk3d5eosda -17/-02 nylthads1234 axe, 6000 minutes 1 1650
10646 2020-May-03 14:42:37 market sale   pjsportygirl 01/-04 nurliss12345 axe, 6000 minutes 1 2278
10645 2020-May-03 14:21:45 market sale   k1234512345n -12/-15 dipshlappers axe, 6000 minutes 4 1290
10644 2020-May-03 13:25:03 market sale   1ctk3d5eosda 00/02 sunilksharma axe, 6000 minutes 1 1650
10643 2020-May-03 13:23:16 market sale   georgez23eos 02/-08 mahlerjacob1 axe, 6000 minutes 1 1290
10642 2020-May-03 13:15:14 market sale   georgez23eos 02/-08 lin21lugobda axe, 6000 minutes 1 1290
10641 2020-May-03 10:27:42 market sale   anikybee1234 26/-19 aboyousef123 axe, 6000 minutes 1 1599
10640 2020-May-03 08:08:21 market sale   hemantsharma 27/-16 livelikeyour axe, 6000 minutes 1 1945
10639 2020-May-03 04:09:57 market sale   12maximecote 25/20 jannatshahza axe, 5160 minutes 1 650
10638 2020-May-03 03:36:02 market sale   ha3dmmrygyge 11/-13 saminabegum1 axe, 6000 minutes 1 1600
10637 2020-May-02 18:17:19 market sale   mdsmdsmdsmds 09/12 maksim123455 axe, 4680 minutes 1 1000
10636 2020-May-02 16:13:43 market sale   georgez23eos 02/-08 marksrobinso axe, 6000 minutes 1 1290
10635 2020-May-02 15:08:14 market sale   georgez23eos 02/-08 gyzdgnzxg4ge axe, 6000 minutes 1 1290
10634 2020-May-02 12:35:31 market sale   eyebroowalet 04/25 maxi15miran4 axe, 6000 minutes 1 1800
10633 2020-May-02 10:10:05 market sale   georgez23eos 02/-08 prospectorgb axe, 6000 minutes 1 1290
10632 2020-May-01 21:58:11 market sale   4321yamez321 14/04 gyzdgnzxg4ge axe, 6000 minutes 1 1300
10631 2020-May-01 18:27:46 market sale   orendadilnok 04/00 astrologic33 axe, 6000 minutes 3 1280
10630 2020-May-01 18:09:44 market sale   ha3dmmrygyge 11/-13 raziyakhatoo axe, 6000 minutes 1 1600
10629 2020-May-01 16:20:19 market sale   4321yamez321 14/04 gyzdgnzxg4ge axe, 6000 minutes 1 1300
10628 2020-May-01 15:40:36 market sale   georgez23eos 02/-08 muhammadasif axe, 6000 minutes 1 1290
10627 2020-May-01 15:30:38 market sale   georgez23eos 14/-13 eyebroowalet axe, 6000 minutes 36 1290
10626 2020-May-01 13:51:38 market sale   4321yamez321 14/04 sunilksharma axe, 6000 minutes 1 1300
10625 2020-May-01 13:17:56 market sale   playaccount1 -02/-01 anahelys1122 axe, 6000 minutes 1 3000
10624 2020-May-01 09:10:39 market sale   4321yamez321 14/04 honyopnyot12 axe, 6000 minutes 1 1300
10623 2020-May-01 08:40:33 market sale   orendadilnok 04/00 ha2tcobtgege axe, 6000 minutes 1 1290
10622 2020-May-01 08:12:24 market sale   georgez23eos 14/-13 daigorokoike axe, 6000 minutes 3 1290
10621 2020-May-01 07:55:18 market sale   ha3dmmrygyge 11/-13 saminabegum1 axe, 6000 minutes 1 1600
10620 2020-May-01 05:50:40 market sale   1ctk3d5eosda -17/-02 lenygabriele axe, 6000 minutes 1 1650
10619 2020-May-01 05:05:03 market sale   georgez23eos 02/-08 rmrgpg3htq3k axe, 6000 minutes 1 1290
10618 2020-Apr-30 22:04:48 market sale   georgez23eos 02/-08 poojarani4ju axe, 6000 minutes 2 1290
10617 2020-Apr-30 19:30:52 market sale   rajveer12dec 14/-24 indersin2445 axe, 6000 minutes 6 1
10616 2020-Apr-30 19:30:25 market sale   rajveer12dec 14/-24 indersin2445 axe, 6000 minutes 5 1
10615 2020-Apr-30 14:07:48 market sale   georgez23eos 02/-08 arysln234234 axe, 6000 minutes 1 1290
10614 2020-Apr-30 14:01:27 market sale   georgez23eos 02/-08 rmrgpg3htq3k axe, 6000 minutes 1 1290
10613 2020-Apr-30 07:38:58 market sale   ha3dmmrygyge 11/-13 omkar22omkar axe, 6000 minutes 3 1450
10612 2020-Apr-29 23:27:53 market sale   georgez23eos 02/-08 astrologic33 axe, 6000 minutes 2 1290
10611 2020-Apr-29 23:20:17 market sale   agungindrag2 -26/21 lotusdogpham axe, 6000 minutes 2 800
10610 2020-Apr-29 13:50:38 market sale   bnr524422515 12/11 fdeidljj4zpt axe, 6000 minutes 1 1055
10609 2020-Apr-29 06:52:32 market sale   georgez23eos 14/-13 episodeseven axe, 6000 minutes 3 1290
10608 2020-Apr-29 05:05:41 market sale   georgez23eos 14/-13 dreammaker23 axe, 6000 minutes 7 1290
10607 2020-Apr-28 22:01:44 market sale   bnr524422515 12/11 digdigdigeos axe, 6000 minutes 1 1055
10606 2020-Apr-28 20:28:27 market sale   1ctk3d5eosda 22/03 nservetdagci axe, 3805 minutes 1 600
10605 2020-Apr-28 20:14:45 market sale   bnr524422515 12/11 rtnyffon2x5j axe, 6000 minutes 1 1055
10604 2020-Apr-28 19:07:06 market sale   4321yamez321 14/04 abhisaini522 axe, 6000 minutes 1 1650
10603 2020-Apr-28 18:44:49 market sale   georgez23eos 02/-08 lotusdogpham axe, 6000 minutes 1 1290
10602 2020-Apr-28 18:12:24 market sale   4321yamez321 14/04 abhisaini522 axe, 6000 minutes 2 1650
10601 2020-Apr-28 17:58:29 market sale   4321yamez321 14/04 bnr524422515 axe, 6000 minutes 3 1650
10600 2020-Apr-28 12:08:39 market sale   anikybee1234 26/-19 arysln234234 axe, 6000 minutes 1 1350
10599 2020-Apr-28 12:06:44 market sale   georgez23eos 02/-08 pirragameoss axe, 6000 minutes 1 1290
10598 2020-Apr-28 10:13:33 market sale   georgez23eos 14/-13 nozemleerdam axe, 6000 minutes 1 1290
10597 2020-Apr-28 07:12:42 market sale   georgez23eos 02/-08 pirragameoss axe, 6000 minutes 1 1290
10596 2020-Apr-28 04:28:24 market sale   4321yamez321 14/04 olubajoabdul axe, 6000 minutes 4 1650
10595 2020-Apr-28 02:35:02 market sale   orendadilnok 04/00 anlooksir.tp axe, 6000 minutes 2 1290
10594 2020-Apr-28 02:34:26 market sale   k1234512345n 02/11 anlooksir.tp axe, 6000 minutes 1 1289
10593 2020-Apr-27 21:16:08 market sale   lomoblomlom1 22/-08 hozzevgaming axe, 6000 minutes 3 1285
10592 2020-Apr-27 13:01:39 market sale   1ctk3d5eosda -21/-10 imranremo123 axe, 6000 minutes 1 1650
10591 2020-Apr-27 12:15:08 market sale   k1234512345n 02/11 patelankitbh axe, 6000 minutes 1 1289
10590 2020-Apr-26 21:07:27 market sale   lomoblomlom1 -21/-25 kuruskin1231 axe, 4993 minutes 1 950
10589 2020-Apr-26 21:01:13 market sale   1ctk3d5eosda -21/-10 aboyousef123 axe, 6000 minutes 1 1650
10588 2020-Apr-26 19:04:08 market sale   k1234512345n 02/11 manuelgil123 axe, 6000 minutes 1 1385
10587 2020-Apr-26 07:53:10 market sale   k1234512345n 02/11 skinspecific axe, 6000 minutes 1 1385
10586 2020-Apr-26 07:20:18 market sale   k1234512345n 02/11 qh2fpx1vb5yq axe, 6000 minutes 1 1385
10585 2020-Apr-26 06:09:16 market sale   pjsportygirl 01/-04 yimicaicedo2 axe, 6000 minutes 1 2278
10584 2020-Apr-26 03:15:10 market sale   1ctk3d5eosda 00/02 krishnalal21 axe, 6000 minutes 1 1650
10583 2020-Apr-26 02:19:43 market sale   eosiominting -03/-09 bnr524422515 axe, 5093 minutes 1 1190
10582 2020-Apr-26 02:19:27 market sale   eosiominting -03/-09 bnr524422515 axe, 5100 minutes 1 1150
10581 2020-Apr-26 01:11:34 market sale   superw4lox11 -12/21 eyebroowalet axe, 6000 minutes 225 1222
10580 2020-Apr-25 22:14:58 market sale   anikybee1234 26/-19 desisafriani axe, 6000 minutes 1 1499
10579 2020-Apr-25 19:25:48 market sale   arkadic45555 -07/06 anlooksir.tp axe, 1650 minutes 1 250
10578 2020-Apr-25 17:29:56 market sale   1ctk3d5eosda -17/-02 yudyprasetya axe, 6000 minutes 1 1650
10577 2020-Apr-25 12:35:37 market sale   eosiominting -03/-09 bnr232454435 axe, 5173 minutes 1 1200
10576 2020-Apr-25 10:13:02 market sale   ha3dmmrygyge 11/-13 nicklcreampi axe, 6000 minutes 2 1450
10575 2020-Apr-25 05:53:36 market sale   ha3dmmrygyge 11/-13 saminabegum1 axe, 6000 minutes 1 1450
10574 2020-Apr-25 01:00:14 market sale   greenforests 25/13 freeedm12345 axe, 5100 minutes 1 800
10573 2020-Apr-24 10:55:19 market sale   12maximecote 06/23 freeedm12345 axe, 6000 minutes 1 1100
10572 2020-Apr-24 10:34:13 market sale   orendadilnok 04/00 tasmt4acc123 axe, 6000 minutes 1 1390
10571 2020-Apr-24 10:33:36 market sale   orendadilnok 04/00 tasmt4acc123 axe, 6000 minutes 1 1390
10570 2020-Apr-24 10:23:27 market sale   orendadilnok 04/00 nylthads1234 axe, 6000 minutes 1 1390
10569 2020-Apr-24 04:57:46 market sale   pjsportygirl 01/-04 abuibnuhajar axe, 6000 minutes 1 2278
10568 2020-Apr-24 04:06:05 market sale   1ctk3d5eosda -08/-26 oscarduperly axe, 2448 minutes 1 400
10567 2020-Apr-24 01:59:52 market sale   12maximecote 06/23 rtnyffon2x5j axe, 6000 minutes 1 1100
10566 2020-Apr-23 23:45:31 market sale   12maximecote 06/23 fdeidljj4zpt axe, 6000 minutes 1 1100
10565 2020-Apr-23 14:30:48 market sale   12maximecote 06/23 andresymm111 axe, 6000 minutes 1 1100
10564 2020-Apr-23 13:04:07 market sale   orendadilnok 04/00 digdigdigeos axe, 6000 minutes 1 1390
10563 2020-Apr-23 07:36:42 market sale   12maximecote 06/23 treedescribe axe, 6000 minutes 3 1100
10562 2020-Apr-23 00:31:21 market sale   12maximecote 06/23 exabyte12345 axe, 5700 minutes 1 1000
10561 2020-Apr-22 20:49:15 market sale   1ctk3d5eosda -08/-26 fdeabreu2you axe, 4084 minutes 1 500
10560 2020-Apr-22 18:24:56 market sale   1ctk3d5eosda 00/02 mbk4qw4jjkq1 axe, 6000 minutes 2 1650
10559 2020-Apr-22 18:23:57 market sale   1ctk3d5eosda 00/02 w3rmfuy3xx1h axe, 6000 minutes 1 1650
10558 2020-Apr-22 09:28:36 market sale   1ctk3d5eosda -21/-10 emiliomorles axe, 6000 minutes 1 1650
10557 2020-Apr-22 08:49:11 market sale   apoorvavicky 16/-02 baretasss111 axe, 6000 minutes 1 1890
10556 2020-Apr-22 07:28:00 market sale   k1234512345n 11/05 akleziastars axe, 5700 minutes 1 1045
10555 2020-Apr-22 07:26:31 market sale   1ctk3d5eosda -21/-10 amartinezm11 axe, 6000 minutes 1 1650
10554 2020-Apr-21 19:01:14 market sale   loyolorivas1 -11/21 aboyousef123 axe, 6000 minutes 1 2000
10553 2020-Apr-21 18:51:30 market sale   freeoooooooo 04/13 rrowp1vu5w1y axe, 6000 minutes 1 1100
10552 2020-Apr-21 06:29:37 market sale   greenforests 25/13 norfiescu234 axe, 5832 minutes 1 1350
10551 2020-Apr-21 06:25:25 market sale   pepperoniss1 -08/-25 valeska12345 axe, 5700 minutes 1 1000
10550 2020-Apr-21 05:25:09 market sale   1ctk3d5eosda -21/-10 unrecognizab axe, 6000 minutes 3 1650
10549 2020-Apr-21 02:35:50 market sale   orendadilnok 04/00 aboyousef123 axe, 6000 minutes 1 1390
10548 2020-Apr-20 12:49:08 market sale   loyolorivas1 -11/21 maritimemasi axe, 6000 minutes 1 2000
10547 2020-Apr-20 12:18:56 market sale   12lexas345ai -26/21 123sanjapopo axe, 6000 minutes 1 1600
10546 2020-Apr-20 10:21:09 market sale   k1234512345n 02/11 rmrgpg3htq3k axe, 6000 minutes 1 1550
10545 2020-Apr-20 03:35:21 market sale   1ctk3d5eosda -17/-02 fahreenkhan1 axe, 6000 minutes 1 1650
10544 2020-Apr-20 02:40:37 market sale   pepperoniss1 -08/-25 valeska12345 axe, 5700 minutes 1 1000
10543 2020-Apr-19 23:29:00 market sale   k1234512345n 02/11 zmeygorynych axe, 6000 minutes 1 1550
10542 2020-Apr-19 18:10:46 market sale   orendadilnok 04/00 uchihanaruto axe, 6000 minutes 6 1400
10541 2020-Apr-19 16:49:50 market sale   1ctk3d5eosda -17/-02 fanskarma111 axe, 6000 minutes 1 1650
10540 2020-Apr-19 15:45:21 market sale   ha3dmmrygyge 11/-13 eyebroowalet axe, 6000 minutes 73 1440
10539 2020-Apr-19 13:54:55 market sale   orendadilnok 04/00 professor123 axe, 6000 minutes 3 1400
10538 2020-Apr-19 04:56:35 market sale   orendadilnok 04/00 nylthads1234 axe, 6000 minutes 1 1400
10537 2020-Apr-19 02:38:44 market sale   orendadilnok 04/00 tasmt4acc123 axe, 6000 minutes 1 1400
10536 2020-Apr-19 02:25:40 market sale   greenforests 25/13 elviswolk113 axe, 2800 minutes 1 600
10535 2020-Apr-19 01:23:59 market sale   ha3dmmrygyge 11/-13 fdeidljj4zpt axe, 6000 minutes 1 1440
10534 2020-Apr-18 23:52:24 market sale   mdsmdsmdsmds -05/06 12maximecote axe, 6000 minutes 1 1650
10533 2020-Apr-18 15:09:50 market sale   mdsmdsmdsmds -05/06 denisklimoff axe, 6000 minutes 1 1650
10532 2020-Apr-18 00:19:46 market sale   gy3dmojqgege -03/19 scatterquick axe, 6000 minutes 21 1799
10531 2020-Apr-17 21:47:20 market sale   gy3dmojqgege -03/19 rafiyahyazak axe, 6000 minutes 1 1799
10530 2020-Apr-17 21:36:17 market sale   k1234512345n 18/18 freeedm12345 axe, 2242 minutes 1 615
10529 2020-Apr-17 14:52:53 market sale   ha3dmmrygyge 11/-13 yaprisheleos axe, 6000 minutes 2 1440
10528 2020-Apr-17 12:13:09 market sale   aluminumcoin 07/10 kingyozarsif axe, 4200 minutes 1 1070
10527 2020-Apr-17 09:02:10 market sale   1ctk3d5eosda -17/-02 fanskarma111 axe, 6000 minutes 1 1799
10526 2020-Apr-17 07:36:33 market sale   superw4lox11 -12/21 daigorokoike axe, 6000 minutes 2 1444
10525 2020-Apr-17 05:09:31 market sale   btcmanu12345 -14/16 register5153 axe, 5433 minutes 1 1000
10524 2020-Apr-16 14:53:28 market sale   gy3dmojqgege -03/19 cryptogameco axe, 6000 minutes 1 1799
10523 2020-Apr-15 18:04:07 market sale   loyolorivas1 -11/21 maritimemasi axe, 6000 minutes 1 2000
10522 2020-Apr-15 12:05:05 market sale   gy3dmojqgege -03/19 averyfine4me axe, 6000 minutes 1 1799
10521 2020-Apr-14 17:31:48 market sale   pjsportygirl 01/-04 sorejansari3 axe, 6000 minutes 1 2278
10520 2020-Apr-14 14:35:32 market sale   hericaine423 -13/21 eleziwar32uj axe, 3868 minutes 1 800
10519 2020-Apr-14 11:32:28 market sale   4321yamez321 14/04 johnsonmagic axe, 6000 minutes 1 1900
10518 2020-Apr-14 10:25:26 market sale   loyolorivas1 -11/21 blessedman33 axe, 6000 minutes 1 2000
10517 2020-Apr-14 03:42:37 market sale   12lexas345ai -26/21 sahazvarithc axe, 6000 minutes 1 1600
10516 2020-Apr-14 01:32:54 market sale   12lexas345ai -26/21 extalifestyl axe, 6000 minutes 1 1600
10515 2020-Apr-13 20:49:27 market sale   12lexas345ai -26/21 qh2fpx1vb5yq axe, 6000 minutes 1 1750
10514 2020-Apr-13 19:28:42 market sale   hericaine423 -13/21 kuriepero145 axe, 4454 minutes 1 250
10513 2020-Apr-13 16:27:15 market sale   mdsmdsmdsmds -05/06 eosiominting axe, 6000 minutes 3 1799
10512 2020-Apr-13 16:13:59 market sale   1ctk3d5eosda 14/-14 nylthads1234 axe, 6000 minutes 1 1900
10511 2020-Apr-13 10:56:02 market sale   ha3dmmrygyge 11/-13 anormira1234 axe, 6000 minutes 1 1840
10510 2020-Apr-12 23:23:59 market sale   lavidaa12345 -04/27 karlaesca123 axe, 6000 minutes 1 1500
10509 2020-Apr-12 21:21:06 market sale   nayounscattr 17/19 nurliss12345 axe, 6000 minutes 1 3333
10508 2020-Apr-12 08:02:25 market sale   anikybee1234 26/-19 patelankitbh axe, 6000 minutes 1 1897
10507 2020-Apr-12 01:15:28 market sale   daveksgaming 07/-14 thoinkibc123 axe, 960 minutes 1 200
10506 2020-Apr-11 11:46:24 market sale   1ctk3d5eosda -17/-02 knightshadow axe, 6000 minutes 3 1900
10505 2020-Apr-11 11:10:42 market sale   anikybee1234 26/-19 mujairin1234 axe, 6000 minutes 1 1897
10504 2020-Apr-10 16:29:32 market sale   apoorvavicky 16/-02 desisafriani axe, 6000 minutes 1 1890
10503 2020-Apr-10 15:45:34 market sale   apoorvavicky 16/-02 muhammadasif axe, 6000 minutes 1 1890
10502 2020-Apr-10 06:48:15 market sale   1ctk3d5eosda 14/-14 rtnyffon2x5j axe, 6000 minutes 1 1900
10501 2020-Apr-10 04:34:40 market sale   1ctk3d5eosda 14/-14 qh2fpx1vb5yq axe, 6000 minutes 1 1900
10500 2020-Apr-10 02:42:55 market sale   1ctk3d5eosda 14/-14 tasmt4acc123 axe, 6000 minutes 1 1900
10499 2020-Apr-10 01:54:04 market sale   gy3dmojqgege -03/19 ryanpogis.tp axe, 6000 minutes 2 1899
10498 2020-Apr-10 01:52:48 market sale   gy3dmojqgege -03/19 ryanpogis.tp axe, 6000 minutes 3 1899
10497 2020-Apr-09 23:26:38 market sale   4321yamez321 14/04 amartinezm11 axe, 6000 minutes 1 1900
10496 2020-Apr-09 16:58:54 market sale   12lexas345ai -26/21 fdeidljj4zpt axe, 6000 minutes 1 1900
10495 2020-Apr-09 16:00:39 market sale   4321yamez321 14/04 amartinezm11 axe, 6000 minutes 1 1900
10494 2020-Apr-09 06:13:45 market sale   pjsportygirl 01/-04 pankajsh3211 axe, 6000 minutes 1 2398
10493 2020-Apr-09 06:04:53 market sale   ha3dmmrygyge 11/-13 sunilksharma axe, 6000 minutes 1 1900
10492 2020-Apr-08 23:52:51 market sale   1ctk3d5eosda 14/-14 oscarodunayo axe, 6000 minutes 8 1900
10491 2020-Apr-08 17:03:36 market sale   anikybee1234 26/-19 baracudass22 axe, 6000 minutes 1 1939
10490 2020-Apr-08 15:23:37 market sale   k1234512345n 18/18 omgfoxcarrot axe, 5020 minutes 1 1580
10489 2020-Apr-08 06:06:16 market sale   1ctk3d5eosda 14/-14 lenygabriele axe, 6000 minutes 1 1900
10488 2020-Apr-08 00:43:44 market sale   k1234512345n 12/07 aboyousef123 axe, 5800 minutes 1 1865
10487 2020-Apr-07 22:25:27 market sale   eleanorfirst 26/-20 omgfoxcarrot axe, 4918 minutes 1 1500
10486 2020-Apr-07 19:08:33 market sale   1ctk3d5eosda 14/-14 asesoriasin1 axe, 6000 minutes 1 1900
10485 2020-Apr-07 09:35:45 market sale   hericaine423 -25/08 hasanshaikhh axe, 6000 minutes 1 1890
10484 2020-Apr-07 09:27:43 market sale   livelinstawe -22/03 gadsbank1gad axe, 1740 minutes 1 500
10483 2020-Apr-06 23:34:25 market sale   mdsmdsmdsmds -05/06 fanskarma111 axe, 6000 minutes 1 1940
10482 2020-Apr-06 17:47:28 market sale   hericaine423 -25/08 subboch2pros axe, 6000 minutes 1 1890
10481 2020-Apr-06 16:39:14 market sale   hericaine423 -25/08 rkvasavalov3 axe, 6000 minutes 3 1890
10480 2020-Apr-06 05:20:02 market sale   4321yamez321 14/04 eosdhangurun axe, 6000 minutes 1 1944
10479 2020-Apr-06 05:15:34 market sale   gy3dmojqgege -03/19 eosdhangurun axe, 6000 minutes 1 1849
10478 2020-Apr-06 01:39:31 market sale   4321yamez321 14/04 thorminerr33 axe, 6000 minutes 3 1944
10477 2020-Apr-05 16:25:03 market sale   cryptogameco -09/04 gy2dsnbqgmge axe, 6000 minutes 1 1850
10476 2020-Apr-05 13:02:42 market sale   gy3dmojqgege -03/19 mantedanco24 axe, 6000 minutes 1 1849
10475 2020-Apr-05 13:02:00 market sale   gy3dmojqgege -03/19 mantedanco24 axe, 6000 minutes 1 1849
10474 2020-Apr-05 13:00:22 market sale   gy3dmojqgege -03/19 mantedanco24 axe, 6000 minutes 1 1849
10473 2020-Apr-05 09:10:34 market sale   loyolorivas1 -11/21 andresymm111 axe, 6000 minutes 1 2000
10472 2020-Apr-05 08:58:13 market sale   mdsmdsmdsmds -05/06 pirragameoss axe, 6000 minutes 1 1940
10471 2020-Apr-05 08:33:27 market sale   cardiyershwn -19/17 nestheroviap axe, 3220 minutes 1 1000
10470 2020-Apr-05 08:32:58 market sale   cardiyershwn -19/17 nestheroviap axe, 3548 minutes 1 1000
10469 2020-Apr-04 17:34:28 market sale   onikmizanur1 -16/10 ryanpogis.tp axe, 1650 minutes 1 300
10468 2020-Apr-04 17:34:19 market sale   dragon4eospg -19/24 ryanpogis.tp axe, 2220 minutes 1 500
10467 2020-Apr-04 17:34:14 market sale   arkadic45555 05/03 ryanpogis.tp axe, 3150 minutes 1 300
10466 2020-Apr-04 17:34:11 market sale   arkadic45555 05/03 ryanpogis.tp axe, 3383 minutes 1 300
10465 2020-Apr-04 16:59:55 market sale   gy3dmojqgege -03/19 fahreenkhan1 axe, 6000 minutes 1 1849
10464 2020-Apr-04 12:02:41 market sale   gy3dmojqgege -03/19 eosgameslive axe, 6000 minutes 1 1849
10463 2020-Apr-04 11:50:22 market sale   gy3dmojqgege -03/19 eosgameslive axe, 6000 minutes 1 1849
10462 2020-Apr-04 11:25:10 market sale   freeoooooooo 04/13 shabana11223 axe, 6000 minutes 1 1749
10461 2020-Apr-04 06:31:33 market sale   gy3dmojqgege -03/19 norfiescu234 axe, 6000 minutes 1 1849
10460 2020-Apr-03 15:06:22 market sale   ndidiamaka24 -25/05 kamikadze44k axe, 2176 minutes 1 450
10459 2020-Apr-02 06:10:21 market sale   mdsmdsmdsmds -05/06 simeoneige11 axe, 6000 minutes 1 1940
10458 2020-Apr-01 11:14:41 market sale   gy3dmojqgege -03/19 maxi15miran4 axe, 6000 minutes 1 1939
10457 2020-Apr-01 06:01:45 market sale   bootiboxboot 05/08 episodeseven axe, 6000 minutes 3 1850
10456 2020-Mar-31 17:56:21 market sale   hemantsharma 27/-16 rgu1tarsenal axe, 6000 minutes 6 1945
10455 2020-Mar-31 04:53:24 market sale   gy3dmojqgege -03/19 shabana11223 axe, 6000 minutes 1 1939
10454 2020-Mar-31 03:28:40 market sale   1ctk3d5eosda -21/-10 sorejansari2 axe, 6000 minutes 1 1940
10453 2020-Mar-31 01:27:21 market sale   farhanafarha -24/-15 ironhorse142 axe, 2400 minutes 1 600
10452 2020-Mar-31 00:19:21 market sale   fieldfareeos 00/14 tgobrialseos axe, 4800 minutes 1 300
10451 2020-Mar-30 18:08:06 market sale   siamsuperman -16/17 1manfrommoon axe, 5223 minutes 1 1
10450 2020-Mar-30 16:52:48 market sale   ha3dmmrygyge 11/-13 raziyakhatoo axe, 6000 minutes 1 2000
10449 2020-Mar-30 13:34:22 market sale   mdsmdsmdsmds 18/10 gyydoobyhage axe, 6000 minutes 27 2000
10448 2020-Mar-30 12:43:08 market sale   mdsmdsmdsmds 18/10 krazycoin111 axe, 6000 minutes 2 2000
10447 2020-Mar-30 09:03:54 market sale   mdsmdsmdsmds -05/06 tasmt4acc123 axe, 6000 minutes 1 2000
10446 2020-Mar-29 23:59:56 market sale   fauzanfazila 09/-17 anikybee1234 axe, 4815 minutes 1 1700
10445 2020-Mar-29 23:49:24 market sale   aluminumcoin 07/10 anikybee1234 axe, 5400 minutes 1 1820
10444 2020-Mar-29 01:09:44 market sale   chiriguitave -20/01 yoelsoto1111 axe, 902 minutes 1 11280
10443 2020-Mar-28 22:43:27 market sale   mortadelazk1 27/09 angeles12345 axe, 3900 minutes 1 210000
10442 2020-Mar-28 22:20:02 market sale   ha3dmmrygyge 11/-13 mortadelazk1 axe, 6000 minutes 2 2000
10441 2020-Mar-28 18:21:47 market sale   gy3dmojqgege -03/19 qh2fpx1vb5yq axe, 6000 minutes 1 1999
10440 2020-Mar-28 12:21:12 market sale   1ctk3d5eosda -21/-10 yend12345mat axe, 6000 minutes 1 1950
10439 2020-Mar-28 11:49:25 market sale   aluminumcoin 07/10 anikybee1234 axe, 3825 minutes 1 1265
10438 2020-Mar-28 10:49:43 market sale   1ctk3d5eosda -21/-10 adrianduran1 axe, 6000 minutes 1 1950
10437 2020-Mar-28 05:17:51 market sale   mdsmdsmdsmds -05/06 knightshadow axe, 6000 minutes 1 2000
10436 2020-Mar-28 03:49:39 market sale   ha3dmmrygyge 11/-13 nicklcreampi axe, 6000 minutes 3 2000
10435 2020-Mar-28 02:32:04 market sale   mdsmdsmdsmds 18/10 tasmt4acc123 axe, 6000 minutes 1 2000
10434 2020-Mar-27 21:00:50 market sale   ha3dmmrygyge 11/-13 makezuranelu axe, 6000 minutes 3 2000
10433 2020-Mar-27 18:05:38 market sale   cardiyershwn -19/17 cyrptosink.e axe, 5700 minutes 1 1800
10432 2020-Mar-27 17:16:15 market sale   1ctk3d5eosda -21/-10 1qaz2wsx4rfv axe, 6000 minutes 2 2000
10431 2020-Mar-27 16:22:43 market sale   mdsmdsmdsmds -05/06 lenygabriele axe, 6000 minutes 1 2000
10430 2020-Mar-27 07:04:04 market sale   ha3dmmrygyge 11/-13 erawati12345 axe, 6000 minutes 1 2000
10429 2020-Mar-27 03:49:25 market sale   mdsmdsmdsmds -05/06 amiraainun12 axe, 6000 minutes 1 2000
10428 2020-Mar-26 19:26:22 market sale   recklessgame -10/00 cryptosinko1 axe, 2210 minutes 1 500
10427 2020-Mar-26 18:33:06 market sale   1ctk3d5eosda -21/-10 raziyakhatoo axe, 6000 minutes 1 2000
10426 2020-Mar-26 17:22:16 market sale   playaccount1 -02/-01 amiraainun12 axe, 6000 minutes 1 3000
10425 2020-Mar-26 09:18:38 market sale   loyolorivas1 -11/21 hassanabid11 axe, 6000 minutes 1 2000
10424 2020-Mar-25 21:08:03 market sale   1ctk3d5eosda 00/02 olymarinm111 axe, 6000 minutes 1 2000
10423 2020-Mar-25 14:54:53 market sale   1ctk3d5eosda -21/-10 mortadelazk1 axe, 6000 minutes 1 2000
10422 2020-Mar-25 12:29:20 market sale   playaccount1 -02/-01 erawati12345 axe, 6000 minutes 1 3000
10421 2020-Mar-25 10:27:55 market sale   nayounscattr 17/19 misspozitiff axe, 6000 minutes 1 3333
10420 2020-Mar-25 07:54:32 market sale   gy3dmojqgege -03/19 rmrgpg3htq3k axe, 6000 minutes 1 2198
10419 2020-Mar-25 06:58:47 market sale   gy3dmojqgege -03/19 rmrgpg3htq3k axe, 6000 minutes 1 2198
10418 2020-Mar-25 05:39:52 market sale   safatabassum -11/27 superork4252 axe, 6000 minutes 2 1900
10417 2020-Mar-25 01:29:46 market sale   loyolorivas1 -11/21 mudasirffmm1 axe, 6000 minutes 2 2000
10416 2020-Mar-24 23:29:10 market sale   coinchitchat -05/22 12lexas345ai axe, 3405 minutes 1 950
10415 2020-Mar-24 23:23:01 market sale   1ctk3d5eosda -21/-10 gilangp12345 axe, 6000 minutes 1 2000
10414 2020-Mar-24 21:47:07 market sale   playaccount1 -02/-01 g43dmnrygyge axe, 6000 minutes 1 3000
10413 2020-Mar-24 19:40:49 market sale   troidauxanh1 03/-08 schwartz2431 axe, 2040 minutes 1 100
10412 2020-Mar-24 15:30:34 market sale   1ctk3d5eosda -21/-10 magum1111111 axe, 6000 minutes 4 2000
10411 2020-Mar-24 15:25:14 market sale   savagelitone 03/06 ironhorse142 axe, 6000 minutes 1 2000
10410 2020-Mar-24 15:24:59 market sale   savagelitone 03/06 ironhorse142 axe, 6000 minutes 1 2000
10409 2020-Mar-24 10:53:56 market sale   1ctk3d5eosda -17/-02 gold4man4eos axe, 6000 minutes 6 2000
10408 2020-Mar-24 10:49:02 market sale   mdsmdsmdsmds 18/10 ahtashammanz axe, 6000 minutes 1 2000
10407 2020-Mar-24 09:57:15 market sale   1ctk3d5eosda -21/-10 heenanaaz123 axe, 6000 minutes 1 2000
10406 2020-Mar-24 09:55:59 market sale   1ctk3d5eosda -21/-10 heenanaaz123 axe, 6000 minutes 1 2000
10405 2020-Mar-24 08:23:46 market sale   1ctk3d5eosda 00/02 mahlerjacob1 axe, 6000 minutes 1 2000
10404 2020-Mar-24 08:10:21 market sale   1ctk3d5eosda -21/-10 rmrgpg3htq3k axe, 6000 minutes 1 2000
10403 2020-Mar-24 07:58:25 market sale   1ctk3d5eosda 00/02 brijsamant13 axe, 6000 minutes 1 2000
10402 2020-Mar-24 05:50:31 market sale   loyolorivas1 -11/21 dillonwheatl axe, 6000 minutes 1 2000
10401 2020-Mar-24 05:09:26 market sale   recklessgame -10/00 spainsontgeo axe, 2940 minutes 1 700
10400 2020-Mar-24 05:09:13 market sale   recklessgame -10/00 spainsontgeo axe, 4800 minutes 1 1200
10399 2020-Mar-24 05:01:57 market sale   1ctk3d5eosda -21/-10 professor123 axe, 6000 minutes 6 2000
10398 2020-Mar-24 03:45:56 market sale   mdsmdsmdsmds 18/10 ahtashammanz axe, 6000 minutes 2 2000
10397 2020-Mar-24 02:45:06 market sale   1ctk3d5eosda -21/-10 nufalfatih12 axe, 6000 minutes 1 2000
10396 2020-Mar-24 02:10:18 market sale   mdsmdsmdsmds -05/06 eyebroowalet axe, 6000 minutes 29 2000
10395 2020-Mar-24 01:22:30 market sale   1ctk3d5eosda -21/-10 therealkurma axe, 6000 minutes 1 2000
10394 2020-Mar-24 00:48:03 market sale   savagelitone 03/06 mujair123455 axe, 6000 minutes 1 2000
10393 2020-Mar-23 23:33:37 market sale   ellordcent23 -20/25 ginoeos33333 axe, 2024 minutes 1 380
10392 2020-Mar-23 23:30:57 market sale   recklessgame -10/00 ginoeos33333 axe, 713 minutes 1 150
10391 2020-Mar-23 23:19:48 market sale   mdsmdsmdsmds -05/06 mujairin1234 axe, 6000 minutes 1 2000
10390 2020-Mar-23 23:12:09 market sale   1ctk3d5eosda -17/-02 gilangp12345 axe, 6000 minutes 1 2000
10389 2020-Mar-23 20:31:52 market sale   recklessgame -10/00 izaakgoldman axe, 181 minutes 1 1
10388 2020-Mar-23 18:25:54 market sale   1ctk3d5eosda -21/-10 heenanaaz123 axe, 6000 minutes 1 2000
10387 2020-Mar-23 17:49:35 market sale   recklessgame -10/00 seratusduapu axe, 6000 minutes 1 1900
10386 2020-Mar-23 15:23:26 market sale   1ctk3d5eosda -21/-10 uchihanaruto axe, 6000 minutes 6 2000
10385 2020-Mar-23 11:31:14 market sale   mdsmdsmdsmds -05/06 aboyousef123 axe, 6000 minutes 1 2000
10384 2020-Mar-23 09:51:39 market sale   mdsmdsmdsmds -05/06 rrowp1vu5w1y axe, 6000 minutes 2 2000
10383 2020-Mar-23 08:28:06 market sale   1ctk3d5eosda -17/-02 nylthads1234 axe, 6000 minutes 1 2200
10382 2020-Mar-23 08:15:09 market sale   1ctk3d5eosda -17/-02 nylthads1234 axe, 6000 minutes 1 2200
10381 2020-Mar-23 06:48:21 market sale   mdsmdsmdsmds 18/10 valeska12345 axe, 6000 minutes 1 2000
10380 2020-Mar-23 01:36:04 market sale   1ctk3d5eosda -21/-10 firozmansuri axe, 6000 minutes 1 2200
10379 2020-Mar-22 23:19:15 market sale   eyebroowalet 04/25 abhishek1334 axe, 6000 minutes 1 3000
10378 2020-Mar-22 22:23:02 market sale   anikybee1234 26/-19 digdigdigeos axe, 6000 minutes 1 2400
10377 2020-Mar-22 21:25:06 market sale   mdsmdsmdsmds -05/06 olymarinm111 axe, 6000 minutes 1 2200
10376 2020-Mar-22 21:03:30 market sale   sergiomarinm 12/14 gqzdqnzugmge axe, 3600 minutes 2 1100
10375 2020-Mar-22 21:03:21 market sale   sergiomarinm 12/14 gqzdqnzugmge axe, 3900 minutes 1 1000
10374 2020-Mar-22 20:44:25 market sale   safatabassum -11/27 andresymm111 axe, 6000 minutes 1 1900
10373 2020-Mar-22 20:06:47 market sale   onikmizanur1 25/15 g44dgmzygege axe, 3780 minutes 1 700
10372 2020-Mar-22 19:58:04 market sale   savagelitone 03/06 johanewa1111 axe, 6000 minutes 1 2200
10371 2020-Mar-22 19:39:49 market sale   gy3dmojqgege -03/19 filosofykopi axe, 6000 minutes 3 2198
10370 2020-Mar-22 17:16:19 market sale   mdsmdsmdsmds -05/06 tonytonyrwww axe, 6000 minutes 1 2200
10369 2020-Mar-22 14:00:55 market sale   mdsmdsmdsmds 18/10 digdigdigeos axe, 6000 minutes 2 2200
10368 2020-Mar-22 11:57:50 market sale   1ctk3d5eosda -21/-10 kimimaruskr3 axe, 6000 minutes 3 2200
10367 2020-Mar-22 11:48:00 market sale   1ctk3d5eosda -21/-10 fajarmuhf.tp axe, 6000 minutes 3 2200
10366 2020-Mar-22 08:39:15 market sale   safatabassum -11/27 g44denjrgige axe, 6000 minutes 1 1900
10365 2020-Mar-22 07:12:34 market sale   bootiboxboot 05/08 episodeseven axe, 6000 minutes 3 1900
10364 2020-Mar-22 05:30:35 market sale   4321yamez321 14/04 prospector15 axe, 6000 minutes 1 2199
10363 2020-Mar-22 05:16:21 market sale   anikybee1234 26/-19 marzukieos11 axe, 6000 minutes 1 2400
10362 2020-Mar-22 03:26:47 market sale   safatabassum -11/27 g44denjrgige axe, 6000 minutes 1 1900
10361 2020-Mar-22 03:26:33 market sale   troidauxanh1 03/-08 g44denjrgige axe, 6000 minutes 1 1800
10360 2020-Mar-22 00:12:43 market sale   troidauxanh1 03/-08 yend12345mat axe, 6000 minutes 1 1800
10359 2020-Mar-21 17:04:17 market sale   savagelitone 03/06 niharika1235 axe, 6000 minutes 1 2200
10358 2020-Mar-21 16:03:29 market sale   mdsmdsmdsmds -05/06 tjyi1scexfrl axe, 6000 minutes 1 2200
10357 2020-Mar-21 13:39:04 market sale   safatabassum -11/27 abk234tropik axe, 6000 minutes 2 1900
10356 2020-Mar-21 13:05:31 market sale   mdsmdsmdsmds -05/06 lunxlunxlunx axe, 6000 minutes 1 2200
10355 2020-Mar-21 12:53:10 market sale   1ctk3d5eosda -21/-10 shakirmohamm axe, 6000 minutes 1 2200
10354 2020-Mar-21 08:29:07 market sale   1ctk3d5eosda -21/-10 franysfranys axe, 6000 minutes 1 2200
10353 2020-Mar-21 08:10:50 market sale   1ctk3d5eosda -21/-10 babanomi1122 axe, 6000 minutes 1 2200
10352 2020-Mar-21 07:34:29 market sale   mdsmdsmdsmds -05/06 hezdsmjqhage axe, 6000 minutes 1 2200
10351 2020-Mar-21 07:31:25 market sale   mdsmdsmdsmds -05/06 hezdsmjqhage axe, 6000 minutes 1 2200
10350 2020-Mar-21 07:11:34 market sale   bnr524422515 04/26 g44dgmzygege axe, 4600 minutes 1 1053
10349 2020-Mar-21 03:19:30 market sale   1ctk3d5eosda -21/-10 doramankarma axe, 6000 minutes 1 2200
10348 2020-Mar-21 02:19:59 market sale   ha3dmmrygyge 11/-13 nayana22hark axe, 6000 minutes 1 2200
10347 2020-Mar-21 01:23:36 market sale   calaeoscala2 -07/27 androidereos axe, 5100 minutes 1 1000
10346 2020-Mar-20 23:20:27 market sale   mdsmdsmdsmds -05/06 digdigdigeos axe, 6000 minutes 1 2200
10345 2020-Mar-20 22:40:52 market sale   1ctk3d5eosda -17/-02 honyopnyot12 axe, 6000 minutes 1 2200
10344 2020-Mar-20 16:15:47 market sale   ha3dmmrygyge 11/-13 rgu1tarsenal axe, 6000 minutes 2 2200
10343 2020-Mar-20 13:49:24 market sale   playaccount1 -02/-01 magum1111111 axe, 6000 minutes 1 3000
10342 2020-Mar-20 12:48:59 market sale   mdsmdsmdsmds -05/06 maheshsargam axe, 6000 minutes 1 2200
10341 2020-Mar-20 11:54:03 market sale   savagelitone 03/06 gunawan12345 axe, 6000 minutes 1 2200
10340 2020-Mar-20 11:52:02 market sale   mdsmdsmdsmds -05/06 gunawan12345 axe, 6000 minutes 1 2200
10339 2020-Mar-20 10:16:47 market sale   superw4lox11 -12/21 nakorofboref axe, 6000 minutes 1 2488
10338 2020-Mar-20 09:39:36 market sale   ha3dmmrygyge 11/-13 nanodarmawan axe, 6000 minutes 1 2200
10337 2020-Mar-20 09:04:30 market sale   superw4lox11 -12/21 1om1nom1nom1 axe, 6000 minutes 3 2488
10336 2020-Mar-20 04:08:49 market sale   mdsmdsmdsmds -05/06 abhaypanwar1 axe, 6000 minutes 1 2200
10335 2020-Mar-20 04:02:03 market sale   mdsmdsmdsmds -05/06 abhaypanwar1 axe, 6000 minutes 1 2200
10334 2020-Mar-20 03:08:43 market sale   1ctk3d5eosda -21/-10 thrinadhprad axe, 6000 minutes 4 2200
10333 2020-Mar-20 03:08:09 market sale   4321yamez321 14/04 prospector15 axe, 6000 minutes 1 2400
10332 2020-Mar-20 02:29:28 market sale   nayounscattr 17/19 wazirxindia2 axe, 6000 minutes 1 3333
10331 2020-Mar-20 01:48:08 market sale   1ctk3d5eosda 14/-14 hassanabid11 axe, 6000 minutes 1 2200
10330 2020-Mar-20 01:30:43 market sale   ha3dmmrygyge 11/-13 nanodarmawan axe, 6000 minutes 1 2200
10329 2020-Mar-19 23:45:09 market sale   1ctk3d5eosda -17/-02 gilangp12345 axe, 6000 minutes 1 2200
10328 2020-Mar-19 21:41:15 market sale   ha3dmmrygyge 11/-13 androidereos axe, 6000 minutes 1 2200
10327 2020-Mar-19 19:42:42 market sale   playaccount1 -02/-01 g43dmnrygyge axe, 6000 minutes 1 3000
10326 2020-Mar-19 18:40:13 market sale   1ctk3d5eosda 14/-14 sorejansari3 axe, 6000 minutes 1 2200
10325 2020-Mar-19 17:14:55 market sale   mdsmdsmdsmds -05/06 marksrobinso axe, 6000 minutes 1 2200
10324 2020-Mar-19 17:07:21 market sale   playaccount1 -02/-01 dillonwheatl axe, 6000 minutes 1 3000
10323 2020-Mar-19 15:56:54 market sale   mdsmdsmdsmds -05/06 nakajimakent axe, 6000 minutes 1 2200
10322 2020-Mar-19 15:46:47 market sale   1ctk3d5eosda -21/-10 nufalfatih12 axe, 6000 minutes 1 2200
10321 2020-Mar-19 15:35:34 market sale   mdsmdsmdsmds -05/06 nikoleondas1 axe, 6000 minutes 1 2200
10320 2020-Mar-19 15:16:02 market sale   1ctk3d5eosda -21/-10 criptosonido axe, 6000 minutes 1 2200
10319 2020-Mar-19 15:11:45 market sale   mdsmdsmdsmds -05/06 deepthaeos15 axe, 6000 minutes 1 2200
10318 2020-Mar-19 11:16:15 market sale   igorsambir41 -03/05 ajaythakur12 axe, 1113 minutes 1 400
10317 2020-Mar-19 02:00:23 market sale   mdsmdsmdsmds -05/06 ingvvarreoos axe, 6000 minutes 1 2200
10316 2020-Mar-19 01:59:55 market sale   mdsmdsmdsmds -05/06 ingvvarreoos axe, 6000 minutes 1 2200
10315 2020-Mar-19 01:59:24 market sale   mdsmdsmdsmds -05/06 ingvvarreoos axe, 6000 minutes 1 2200
10314 2020-Mar-19 00:02:33 market sale   savagelitone 03/06 balanar12345 axe, 6000 minutes 1 2200
10313 2020-Mar-18 22:53:50 market sale   mdsmdsmdsmds -05/06 gyzdmmbrgyge axe, 6000 minutes 3 2200
10312 2020-Mar-18 22:05:37 market sale   ha3dmmrygyge 11/-13 codysincomas axe, 6000 minutes 1 2200
10311 2020-Mar-18 19:37:51 market sale   mdsmdsmdsmds -05/06 eyebroowalet axe, 6000 minutes 19 2200
10310 2020-Mar-18 18:44:44 market sale   mdsmdsmdsmds -05/06 sorejansari3 axe, 6000 minutes 1 2200
10309 2020-Mar-18 18:13:13 market sale   1ctk3d5eosda 18/10 knightshadow axe, 6000 minutes 2 2150
10308 2020-Mar-18 17:38:40 market sale   ha3dmmrygyge 11/-13 misspozitiff axe, 6000 minutes 1 2200
10307 2020-Mar-18 17:06:58 market sale   1ctk3d5eosda 18/10 muinuddinkha axe, 6000 minutes 3 2150
10306 2020-Mar-18 17:02:31 market sale   playaccount1 -02/-01 mahlerjacob1 axe, 6000 minutes 1 3000
10305 2020-Mar-18 17:01:46 market sale   1ctk3d5eosda 18/10 darksiders12 axe, 6000 minutes 1 2150
10304 2020-Mar-18 13:33:50 market sale   1ctk3d5eosda 18/10 aliraza11122 axe, 6000 minutes 1 2150
10303 2020-Mar-18 12:58:31 market sale   1ctk3d5eosda 18/10 sayutisayuti axe, 6000 minutes 1 2150
10302 2020-Mar-18 12:24:31 market sale   1ctk3d5eosda 18/10 yanirauseche axe, 6000 minutes 1 2150
10301 2020-Mar-18 10:11:57 market sale   eyebroowalet 04/25 ehsanelahi11 axe, 6000 minutes 1 3000
10300 2020-Mar-18 06:14:38 market sale   4321yamez321 14/04 doramankarma axe, 6000 minutes 1 2200
10299 2020-Mar-18 04:41:14 market sale   4321yamez321 14/04 desisafriani axe, 6000 minutes 1 2200
10298 2020-Mar-18 03:21:01 market sale   1ctk3d5eosda 18/10 aliraza11122 axe, 6000 minutes 2 2150
10297 2020-Mar-18 03:20:19 market sale   apoorvavicky 16/-02 shakirmohamm axe, 6000 minutes 1 2060
10296 2020-Mar-18 02:32:26 market sale   4321yamez321 14/04 narutowhalle axe, 6000 minutes 1 2200
10295 2020-Mar-18 02:24:15 market sale   4321yamez321 14/04 panasoniex12 axe, 6000 minutes 1 2200
10294 2020-Mar-18 02:24:00 market sale   mdsmdsmdsmds -05/06 eyebroowalet axe, 6000 minutes 19 2150
10293 2020-Mar-18 02:22:50 market sale   mdsmdsmdsmds -05/06 panasoniex12 axe, 6000 minutes 1 2150
10292 2020-Mar-18 00:20:22 market sale   mdsmdsmdsmds -05/06 eyebroowalet axe, 6000 minutes 19 2065
10291 2020-Mar-17 23:52:44 market sale   4321yamez321 14/04 diggerdavied axe, 6000 minutes 1 2200
10290 2020-Mar-17 23:52:14 market sale   4321yamez321 14/04 diggerdavied axe, 6000 minutes 1 2200
10289 2020-Mar-17 23:51:51 market sale   4321yamez321 14/04 diggerdavied axe, 6000 minutes 1 2200
10288 2020-Mar-17 23:51:27 market sale   4321yamez321 14/04 diggerdavied axe, 6000 minutes 1 2200
10287 2020-Mar-17 23:50:39 market sale   4321yamez321 14/04 diggerdavied axe, 6000 minutes 1 2200
10286 2020-Mar-17 22:56:14 market sale   mdsmdsmdsmds -05/06 overlordamit axe, 6000 minutes 1 2065
10285 2020-Mar-17 20:26:32 market sale   mdsmdsmdsmds -05/06 gy2dsnbqgmge axe, 6000 minutes 6 2065
10284 2020-Mar-17 19:26:45 market sale   mdsmdsmdsmds -05/06 saminabegum1 axe, 6000 minutes 1 2065
10283 2020-Mar-17 19:26:07 market sale   mdsmdsmdsmds -05/06 saminabegum1 axe, 6000 minutes 1 2065
10282 2020-Mar-17 19:14:40 market sale   mdsmdsmdsmds -05/06 raziyakhatoo axe, 6000 minutes 1 2065
10281 2020-Mar-17 18:45:05 market sale   mdsmdsmdsmds -05/06 surajaccount axe, 6000 minutes 1 2065
10280 2020-Mar-17 18:27:30 market sale   mdsmdsmdsmds -05/06 sorejansari2 axe, 6000 minutes 1 2065
10279 2020-Mar-17 17:38:08 market sale   eyebroowalet 04/25 amiraainun12 axe, 6000 minutes 1 2400
10278 2020-Mar-17 17:28:13 market sale   crusader4351 -22/-22 amiraainun12 axe, 4140 minutes 1 1500
10277 2020-Mar-17 17:26:51 market sale   mdsmdsmdsmds -05/06 asesoriasin1 axe, 6000 minutes 1 2065
10276 2020-Mar-17 15:42:02 market sale   apoorvavicky 16/-02 firozmansuri axe, 6000 minutes 1 2060
10275 2020-Mar-17 15:40:25 market sale   playaccount1 -02/-01 firozmansuri axe, 6000 minutes 1 3000
10274 2020-Mar-17 15:34:28 market sale   apoorvavicky 16/-02 androidereos axe, 6000 minutes 1 2060
10273 2020-Mar-17 15:30:50 market sale   4321yamez321 14/04 desisafriani axe, 6000 minutes 1 2200
10272 2020-Mar-17 15:24:32 market sale   progamer1111 08/-04 androidereos axe, 6000 minutes 1 1900
10271 2020-Mar-17 13:23:54 market sale   eoswalletak2 -14/27 bobisbobis22 axe, 5100 minutes 2 2045
10270 2020-Mar-17 12:11:26 market sale   apoorvavicky 16/-02 vo3fy3lsf.tp axe, 6000 minutes 1 2060
10269 2020-Mar-17 11:39:07 market sale   apoorvavicky 16/-02 good22damoon axe, 6000 minutes 1 2060
10268 2020-Mar-17 11:32:23 market sale   apoorvavicky 16/-02 thejaguareos axe, 6000 minutes 3 2060
10267 2020-Mar-17 11:26:09 market sale   eoswalletak2 -14/27 franysfranys axe, 5100 minutes 1 2045
10266 2020-Mar-17 11:21:00 market sale   apoorvavicky 16/-02 justforyou13 axe, 6000 minutes 1 2060
10265 2020-Mar-17 11:19:13 market sale   apoorvavicky 16/-02 moosgenerous axe, 6000 minutes 1 2060
10264 2020-Mar-17 10:12:46 market sale   loyolorivas1 -11/21 andresymm111 axe, 6000 minutes 1 2095
10263 2020-Mar-17 10:07:16 market sale   loyolorivas1 -11/21 aniuskaamr11 axe, 6000 minutes 2 2095
10262 2020-Mar-17 09:13:52 market sale   mdsmdsmdsmds -05/06 3gbdkppgkb2c axe, 6000 minutes 1 2065
10261 2020-Mar-17 08:31:43 market sale   eoswalletak2 -14/27 shakirmohamm axe, 3450 minutes 1 1250
10260 2020-Mar-17 06:52:08 market sale   eyebroowalet 04/25 desisafriani axe, 6000 minutes 1 2400
10259 2020-Mar-17 04:55:43 market sale   mdsmdsmdsmds -05/06 abidsahab345 axe, 6000 minutes 1 2065
10258 2020-Mar-17 04:46:59 market sale   ha3dmmrygyge 11/-13 gcshxo3y5.tp axe, 6000 minutes 3 2200
10257 2020-Mar-17 03:27:29 market sale   mdsmdsmdsmds 22/04 yanlisieos12 axe, 6000 minutes 3 2000
10256 2020-Mar-16 23:58:25 market sale   mdsmdsmdsmds -05/06 gm2diojrgege axe, 6000 minutes 1 2065
10255 2020-Mar-16 22:50:53 market sale   mdsmdsmdsmds 22/04 gilangpra123 axe, 6000 minutes 1 2000
10254 2020-Mar-16 20:02:32 market sale   eyebroowalet 04/25 sultaneospro axe, 6000 minutes 3 2400
10253 2020-Mar-16 19:50:02 market sale   mdsmdsmdsmds -05/06 naaasiya1234 axe, 6000 minutes 1 2065
10252 2020-Mar-16 19:47:21 market sale   mdsmdsmdsmds -05/06 shoaibpatni1 axe, 6000 minutes 1 2065
10251 2020-Mar-16 19:01:38 market sale   mdsmdsmdsmds -05/06 criptosonido axe, 6000 minutes 1 2065
10250 2020-Mar-16 18:59:31 market sale   mdsmdsmdsmds -05/06 sorejansari2 axe, 6000 minutes 1 2065
10249 2020-Mar-16 18:24:30 market sale   mdsmdsmdsmds -05/06 wizardstudio axe, 6000 minutes 3 2065
10248 2020-Mar-16 17:56:36 market sale   mdsmdsmdsmds -05/06 arntorkvaale axe, 6000 minutes 1 2065
10247 2020-Mar-16 16:51:24 market sale   mdsmdsmdsmds -05/06 friskazjam12 axe, 6000 minutes 1 2065
10246 2020-Mar-16 16:41:03 market sale   eyebroowalet 04/25 fahreenkhan1 axe, 6000 minutes 1 2400
10245 2020-Mar-16 16:18:31 market sale   ha3dmmrygyge 11/-13 nozemleerdam axe, 6000 minutes 1 2200
10244 2020-Mar-16 16:16:10 market sale   ha3dmmrygyge 11/-13 nozemleerdam axe, 6000 minutes 1 2200
10243 2020-Mar-16 16:02:06 market sale   playaccount1 -02/-01 batetasss111 axe, 6000 minutes 1 3000
10242 2020-Mar-16 13:08:32 market sale   superw4lox11 -12/21 vo3fy3lsf.tp axe, 6000 minutes 2 2488
10241 2020-Mar-16 11:21:16 market sale   apoorvavicky 16/-02 codysincomas axe, 6000 minutes 1 2060
10240 2020-Mar-16 11:21:02 market sale   apoorvavicky 16/-02 codysincomas axe, 6000 minutes 1 2060
10239 2020-Mar-16 08:31:22 market sale   mdsmdsmdsmds -05/06 balanar12345 axe, 6000 minutes 2 2065
10238 2020-Mar-16 07:29:33 market sale   apoorvavicky 16/-02 mohammadhasa axe, 6000 minutes 1 2060
10237 2020-Mar-16 07:17:53 market sale   ha3dmmrygyge 11/-13 mohammadfadi axe, 6000 minutes 1 2200
10236 2020-Mar-16 05:22:16 market sale   eyebroowalet 04/25 badrussaliss axe, 6000 minutes 4 2400
10235 2020-Mar-16 04:56:15 market sale   apoorvavicky 16/-02 11walhallo11 axe, 6000 minutes 2 2060
10234 2020-Mar-16 03:22:55 market sale   anikybee1234 26/-19 d1andayoekan axe, 6000 minutes 1 2100
10233 2020-Mar-15 23:53:40 market sale   anikybee1234 26/-19 nanodarmawan axe, 6000 minutes 1 2100
10232 2020-Mar-15 23:42:03 market sale   apoorvavicky 16/-02 laniaoktavia axe, 6000 minutes 1 2060
10231 2020-Mar-15 22:48:44 market sale   anikybee1234 26/-19 coinmineresp axe, 6000 minutes 1 2100
10230 2020-Mar-15 20:20:28 market sale   prospector15 16/03 berlintyler1 axe, 3 minutes 1 1
10229 2020-Mar-15 20:03:48 market sale   ha3dmmrygyge 11/-13 tamer12lan15 axe, 6000 minutes 1 2200
10228 2020-Mar-15 19:58:49 market sale   ha3dmmrygyge 11/-13 alina33alina axe, 6000 minutes 1 2200
10227 2020-Mar-15 19:27:19 market sale   apoorvavicky 16/-02 skinspecific axe, 6000 minutes 1 2060
10226 2020-Mar-15 19:09:40 market sale   k1234512345n 11/05 ivanzamorano axe, 6000 minutes 3 2794
10225 2020-Mar-15 18:31:38 market sale   playaccount1 -02/-01 blessedman33 axe, 6000 minutes 1 3000
10224 2020-Mar-15 17:41:57 market sale   mdsmdsmdsmds -05/06 yourwishboxx axe, 6000 minutes 1 2065
10223 2020-Mar-15 17:26:42 market sale   ha3dmmrygyge 11/-13 yourwishboxx axe, 6000 minutes 1 2200
10222 2020-Mar-15 16:51:02 market sale   playaccount1 -02/-01 madanmadan12 axe, 6000 minutes 1 3000
10221 2020-Mar-15 16:35:05 market sale   mdsmdsmdsmds -05/06 badrussaliss axe, 6000 minutes 3 2065
10220 2020-Mar-15 16:20:43 market sale   mdsmdsmdsmds -05/06 malahayati12 axe, 6000 minutes 1 2065
10219 2020-Mar-15 16:20:05 market sale   ha3dmmrygyge 11/-13 nufalfatih12 axe, 6000 minutes 1 2200
10218 2020-Mar-15 13:45:15 market sale   mdsmdsmdsmds -05/06 fidaaslam11f axe, 6000 minutes 1 2065
10217 2020-Mar-15 13:39:17 market sale   playaccount1 -02/-01 kinghippyjoe axe, 6000 minutes 1 3000
10216 2020-Mar-15 12:44:58 market sale   playaccount1 -02/-01 lada12345str axe, 6000 minutes 1 3000
10215 2020-Mar-15 12:05:40 market sale   apoorvavicky 16/-02 wdr2tpqbk4ux axe, 6000 minutes 1 2060
10214 2020-Mar-15 11:22:31 market sale   playaccount1 -02/-01 xxxgaluarxxx axe, 6000 minutes 1 3000
10213 2020-Mar-15 11:13:27 market sale   1ctk3d5eosda 11/10 jandarbenn25 axe, 4830 minutes 1 1100
10212 2020-Mar-15 09:00:34 market sale   anikybee1234 26/-19 nidyaastrina axe, 6000 minutes 1 2100
10211 2020-Mar-15 09:00:25 market sale   anikybee1234 26/-19 nidyaastrina axe, 6000 minutes 1 2100
10210 2020-Mar-15 08:58:04 market sale   apoorvavicky 16/-02 nidyaastrina axe, 6000 minutes 2 2060
10209 2020-Mar-15 08:53:47 market sale   mdsmdsmdsmds -05/06 badrussaliss axe, 6000 minutes 3 2065
10208 2020-Mar-15 07:50:55 market sale   ha3dmmrygyge 11/-13 panasoniex12 axe, 6000 minutes 1 2200
10207 2020-Mar-15 07:36:52 market sale   4321yamez321 14/04 kupipancong4 axe, 6000 minutes 1 2200
10206 2020-Mar-15 05:21:34 market sale   4321yamez321 14/04 fauzanazimar axe, 6000 minutes 3 2200
10205 2020-Mar-15 05:06:02 market sale   ha3dmmrygyge 11/-13 yourwishboxx axe, 6000 minutes 1 2200
10204 2020-Mar-15 05:00:33 market sale   playaccount1 -02/-01 godfatherbob axe, 6000 minutes 1 3000
10203 2020-Mar-15 04:37:54 market sale   playaccount1 -02/-01 gamesland121 axe, 6000 minutes 1 3000
10202 2020-Mar-15 01:39:43 market sale   playaccount1 -02/-01 valeska12345 axe, 6000 minutes 1 3000
10201 2020-Mar-15 00:35:03 market sale   ha3dmmrygyge 11/-13 kinghippyjoe axe, 6000 minutes 1 2200
10200 2020-Mar-14 23:54:45 market sale   mdsmdsmdsmds -05/06 mujairin1234 axe, 6000 minutes 1 2065
10199 2020-Mar-14 23:47:41 market sale   mdsmdsmdsmds -05/06 ashars4sakma axe, 6000 minutes 1 2065
10198 2020-Mar-14 22:24:10 market sale   srafiafatima -23/-22 coinmineresp axe, 5600 minutes 1 1850
10197 2020-Mar-14 20:17:22 market sale   playaccount1 -02/-01 yend12345mat axe, 6000 minutes 1 3000
10196 2020-Mar-14 20:07:56 market sale   mdsmdsmdsmds -05/06 surajaccount axe, 6000 minutes 2 2065
10195 2020-Mar-14 19:23:57 market sale   ha3dmmrygyge 11/-13 safwadiiiiii axe, 6000 minutes 4 2200
10194 2020-Mar-14 18:48:39 market sale   playaccount1 -02/-01 misspozitiff axe, 6000 minutes 1 3000
10193 2020-Mar-14 18:19:44 market sale   apoorvavicky 16/-02 bukankalengo axe, 6000 minutes 3 2060
10192 2020-Mar-14 17:29:40 market sale   apoorvavicky 16/-02 rtnyffon2x5j axe, 6000 minutes 2 2060
10191 2020-Mar-14 17:15:24 market sale   4321yamez321 14/04 lada12345str axe, 6000 minutes 1 2200
10190 2020-Mar-14 17:09:34 market sale   apoorvavicky 16/-02 marhabaneos1 axe, 6000 minutes 1 2060
10189 2020-Mar-14 16:17:33 market sale   1ctk3d5eosda 11/10 birrul222222 axe, 2830 minutes 1 800
10188 2020-Mar-14 14:49:10 market sale   ha3dmmrygyge 11/-13 erawati12345 axe, 6000 minutes 1 2200
10187 2020-Mar-14 14:40:46 market sale   apoorvavicky 16/-02 fdeidljj4zpt axe, 6000 minutes 2 2060
10186 2020-Mar-14 14:39:05 market sale   mdsmdsmdsmds -05/06 hassanabid11 axe, 6000 minutes 1 2065
10185 2020-Mar-14 14:34:40 market sale   ha3dmmrygyge 11/-13 kupipancong4 axe, 6000 minutes 1 2200
10184 2020-Mar-14 12:42:04 market sale   apoorvavicky 16/-02 boythegiver2 axe, 6000 minutes 1 2060
10183 2020-Mar-14 12:31:04 market sale   ha3dmmrygyge 11/-13 abuibnuhajar axe, 6000 minutes 1 2200
10182 2020-Mar-14 12:13:45 market sale   apoorvavicky 16/-02 jhonkarmaeos axe, 6000 minutes 1 2060
10181 2020-Mar-14 10:57:54 market sale   playaccount1 -02/-01 n5goqzmjmyxm axe, 6000 minutes 1 3000
10180 2020-Mar-14 10:35:14 market sale   apoorvavicky 16/-02 marlincrypto axe, 6000 minutes 1 2060
10179 2020-Mar-14 09:40:10 market sale   apoorvavicky 16/-02 fmansuri5225 axe, 6000 minutes 1 2060
10178 2020-Mar-14 05:55:03 market sale   apoorvavicky 16/-02 gyydiobygige axe, 6000 minutes 1 2060
10177 2020-Mar-14 02:51:02 market sale   apoorvavicky 16/-02 kupipancong4 axe, 6000 minutes 1 2060
10176 2020-Mar-14 01:28:10 market sale   hemantsharma 27/-16 thedoktoreos axe, 6000 minutes 1 2060
10175 2020-Mar-14 01:10:11 market sale   hemantsharma 27/-16 good22damoon axe, 6000 minutes 1 2060
10174 2020-Mar-14 01:01:35 market sale   hemantsharma 27/-16 nisagenerous axe, 6000 minutes 1 2060
10173 2020-Mar-14 00:00:41 market sale   oanablackice 09/10 xxxgaluarxxx axe, 6000 minutes 1 2050
10172 2020-Mar-13 21:06:00 market sale   oanablackice 09/10 shahzads1122 axe, 6000 minutes 1 2050
10171 2020-Mar-13 19:49:45 market sale   mdsmdsmdsmds -05/06 olymarinm111 axe, 6000 minutes 1 2065
10170 2020-Mar-13 18:25:31 market sale   apoorvavicky 16/-02 gamercrypto3 axe, 6000 minutes 1 2060
10169 2020-Mar-13 18:03:26 market sale   oanablackice 09/10 thorminerr33 axe, 6000 minutes 3 2050
10168 2020-Mar-13 17:13:34 market sale   oanablackice 09/10 thedoktoreos axe, 6000 minutes 1 2050
10167 2020-Mar-13 16:37:45 market sale   hemantsharma 27/-16 laniaoktavia axe, 6000 minutes 1 2060
10166 2020-Mar-13 16:29:23 market sale   hemantsharma 27/-16 justforyou13 axe, 6000 minutes 1 2060
10165 2020-Mar-13 16:06:54 market sale   ha3dmmrygyge 11/-13 khannasultan axe, 6000 minutes 1 2200
10164 2020-Mar-13 15:53:05 market sale   ha3dmmrygyge 11/-13 gcshxo3y5.tp axe, 6000 minutes 2 2200
10163 2020-Mar-13 13:07:28 market sale   k1234512345n 11/05 gamesland121 axe, 6000 minutes 1 2065
10162 2020-Mar-13 12:46:02 market sale   ha3dmmrygyge 11/-13 azkasyakilaa axe, 6000 minutes 2 2200
10161 2020-Mar-13 12:10:46 market sale   playaccount1 -02/-01 machwire4eos axe, 6000 minutes 1 3000
10160 2020-Mar-13 11:13:12 market sale   mdsmdsmdsmds -05/06 ifegwuonyeka axe, 6000 minutes 1 2065
10159 2020-Mar-13 09:30:45 market sale   4321yamez321 14/04 sultaneospro axe, 6000 minutes 3 2200
10158 2020-Mar-13 07:32:46 market sale   hemantsharma 07/-13 knightshadow axe, 6000 minutes 1 2055
10157 2020-Mar-13 03:10:40 market sale   mdsmdsmdsmds -05/06 gilangpra123 axe, 6000 minutes 1 2065
10156 2020-Mar-13 02:36:51 market sale   mdsmdsmdsmds -05/06 snehalghosh1 axe, 6000 minutes 1 2065
10155 2020-Mar-13 02:23:02 market sale   hemantsharma 07/-13 knightshadow axe, 6000 minutes 1 2055
10154 2020-Mar-13 02:22:29 market sale   abraininajar 11/23 nayana22hark axe, 6000 minutes 4 2050
10153 2020-Mar-13 01:07:10 market sale   abraininajar 11/23 eoscadiz1234 axe, 6000 minutes 1 2050
10152 2020-Mar-12 23:35:22 market sale   ha3dmmrygyge 11/-13 muhammadan12 axe, 6000 minutes 1 2200
10151 2020-Mar-12 23:19:40 market sale   abraininajar 11/23 fitarukemana axe, 6000 minutes 1 2050
10150 2020-Mar-12 23:08:42 market sale   mdsmdsmdsmds -05/06 dianbluearfa axe, 6000 minutes 2 2065
10149 2020-Mar-12 22:37:36 market sale   mdsmdsmdsmds -05/06 gilangpra123 axe, 6000 minutes 1 2065
10148 2020-Mar-12 18:12:11 market sale   ha3dmmrygyge 11/-13 mahadev55555 axe, 6000 minutes 1 2200
10147 2020-Mar-12 15:32:36 market sale   ha3dmmrygyge 11/-13 khannasultan axe, 6000 minutes 1 2200
10146 2020-Mar-12 12:21:02 market sale   georgez23eos 14/-13 eosonledgers axe, 6000 minutes 20 2070
10145 2020-Mar-12 10:41:01 market sale   playaccount1 -02/-01 eoscadiz1234 axe, 6000 minutes 1 3000
10144 2020-Mar-12 06:08:32 market sale   mdsmdsmdsmds -05/06 gilangp12345 axe, 6000 minutes 1 2065
10143 2020-Mar-12 04:52:16 market sale   mdsmdsmdsmds -05/06 freon21freon axe, 6000 minutes 1 2065
10142 2020-Mar-12 04:14:28 market sale   nayounscattr 17/19 eentwine1234 axe, 6000 minutes 1 3333
10141 2020-Mar-12 03:56:16 market sale   playaccount1 -02/-01 marzukieos11 axe, 6000 minutes 1 3000
10140 2020-Mar-12 02:58:53 market sale   ha3dmmrygyge 11/-13 aryaln123123 axe, 6000 minutes 1 2200
10139 2020-Mar-12 02:56:06 market sale   ha3dmmrygyge 11/-13 aryaln123123 axe, 6000 minutes 1 2200
10138 2020-Mar-12 01:00:47 market sale   playaccount1 -02/-01 montemiranda axe, 6000 minutes 3 3000
10137 2020-Mar-11 23:23:22 market sale   mdsmdsmdsmds -05/06 royalmoon221 axe, 6000 minutes 1 2065
10136 2020-Mar-11 22:44:07 market sale   hemantsharma 07/-13 gyydiobygige axe, 6000 minutes 1 2055
10135 2020-Mar-11 22:21:48 market sale   mdsmdsmdsmds -05/06 mujair123455 axe, 6000 minutes 1 2065
10134 2020-Mar-11 21:27:42 market sale   mdsmdsmdsmds -05/06 vikinadaeos2 axe, 6000 minutes 1 2065
10133 2020-Mar-11 14:10:08 market sale   mdsmdsmdsmds -05/06 malahayati12 axe, 6000 minutes 2 2065
10132 2020-Mar-11 13:01:07 market sale   mdsmdsmdsmds 22/06 aryaln123123 axe, 6000 minutes 1 2050
10131 2020-Mar-11 11:36:40 market sale   mdsmdsmdsmds 22/06 indersin2445 axe, 6000 minutes 2 2050
10130 2020-Mar-11 11:01:46 market sale   mdsmdsmdsmds -05/06 g43dmnrygyge axe, 6000 minutes 2 2050
10129 2020-Mar-11 08:17:37 market sale   mdsmdsmdsmds -05/06 giytmnjxgege axe, 6000 minutes 2 2050
10128 2020-Mar-11 07:30:13 market sale   mdsmdsmdsmds -05/06 jannannahote axe, 6000 minutes 1 2050
10127 2020-Mar-11 04:47:12 market sale   tkurvk433111 20/27 fandymuhf123 axe, 6000 minutes 2 1950
10126 2020-Mar-11 01:45:31 market sale   4321yamez321 14/04 muhammadan12 axe, 6000 minutes 1 2200
10125 2020-Mar-11 01:41:28 market sale   4321yamez321 14/04 muhammadan12 axe, 6000 minutes 1 2200
10124 2020-Mar-11 00:31:12 market sale   ha3dmmrygyge 11/-13 honyopnyot12 axe, 6000 minutes 1 2200
10123 2020-Mar-11 00:13:05 market sale   mdsmdsmdsmds 22/06 jairing12345 axe, 6000 minutes 1 2050
10122 2020-Mar-10 21:11:40 market sale   tkurvk433111 20/27 stelarizaxxx axe, 6000 minutes 1 1950
10121 2020-Mar-10 20:36:51 market sale   tkurvk433111 20/27 oleggusakoue axe, 6000 minutes 2 1950
10120 2020-Mar-10 18:59:45 market sale   mdsmdsmdsmds -05/06 nicklcreampi axe, 6000 minutes 1 2050
10119 2020-Mar-10 18:01:46 market sale   ha3dmmrygyge 11/-13 musdarmusdar axe, 6000 minutes 1 2200
10118 2020-Mar-10 17:46:26 market sale   anikybee1234 26/-19 alexac1dfish axe, 6000 minutes 3 2100
10117 2020-Mar-10 17:34:50 market sale   ha3dmmrygyge 11/-13 qawiyulfata1 axe, 6000 minutes 1 2200
10116 2020-Mar-10 16:09:30 market sale   mdsmdsmdsmds -05/06 eosgamespect axe, 6000 minutes 1 2050
10115 2020-Mar-10 14:54:44 market sale   anikybee1234 26/-19 narutowhalle axe, 6000 minutes 1 2100
10114 2020-Mar-10 09:17:10 market sale   mdsmdsmdsmds -05/06 giytmnjxgege axe, 6000 minutes 1 2050
10113 2020-Mar-10 09:06:36 market sale   mdsmdsmdsmds -05/06 ngdevi123123 axe, 6000 minutes 1 2050
10112 2020-Mar-10 07:04:48 market sale   mdsmdsmdsmds -05/06 vishnuvishnu axe, 6000 minutes 1 2050
10111 2020-Mar-10 07:03:16 market sale   mdsmdsmdsmds -05/06 vishnuvishnu axe, 6000 minutes 1 2050
10110 2020-Mar-10 06:06:25 market sale   eyebroowalet 04/25 grifterxxxxx axe, 6000 minutes 1 2300
10109 2020-Mar-10 05:11:04 market sale   4321yamez321 14/04 click5clack4 axe, 6000 minutes 1 2200
10108 2020-Mar-10 05:09:19 market sale   eyebroowalet 04/25 click5clack4 axe, 6000 minutes 1 2300
10107 2020-Mar-10 03:23:36 market sale   nicolevateos 16/-06 eosrichard32 axe, 5400 minutes 1 1250
10106 2020-Mar-10 02:48:36 market sale   mdsmdsmdsmds -05/06 daigorokoike axe, 6000 minutes 3 2050
10105 2020-Mar-09 23:29:07 market sale   gy3dmojqgege -04/20 karlaesca123 axe, 2157 minutes 1 699
10104 2020-Mar-09 23:28:11 market sale   mdsmdsmdsmds -05/06 karlaesca123 axe, 6000 minutes 1 2050
10103 2020-Mar-09 23:09:30 market sale   nayounscattr 17/19 click5clack4 axe, 6000 minutes 1 3333
10102 2020-Mar-09 22:27:27 market sale   cardiyershwn -19/17 adrianduran1 axe, 6000 minutes 1 1980
10101 2020-Mar-09 18:21:14 market sale   hitekredneck -10/-03 gm2diobtgmge axe, 6000 minutes 3 1500
10100 2020-Mar-09 16:43:18 market sale   eyebroowalet -10/-07 click5clack4 axe, 6000 minutes 1 2300
10099 2020-Mar-09 14:57:12 market sale   eyebroowalet -10/-07 karlaesca123 axe, 6000 minutes 1 2300
10098 2020-Mar-09 14:49:43 market sale   k1234512345n 11/05 eentwine1234 axe, 6000 minutes 1 2065
10097 2020-Mar-09 13:27:16 market sale   eyebroowalet -10/-07 ngdevi123123 axe, 6000 minutes 2 2300
10096 2020-Mar-09 10:45:19 market sale   tkurvk433111 20/27 muhammadasif axe, 6000 minutes 2 1950
10095 2020-Mar-09 09:09:44 market sale   mdsmdsmdsmds -05/06 arysln234234 axe, 6000 minutes 1 2050
10094 2020-Mar-09 09:05:19 market sale   mdsmdsmdsmds -05/06 arysln234234 axe, 6000 minutes 1 2050
10093 2020-Mar-09 08:58:59 market sale   k1234512345n 11/05 khannasultan axe, 6000 minutes 1 2065
10092 2020-Mar-09 08:10:41 market sale   mdsmdsmdsmds -05/06 qawiyulfata1 axe, 6000 minutes 2 2050
10091 2020-Mar-09 08:03:17 market sale   tkurvk433111 20/27 sendmoney2me axe, 6000 minutes 3 1950
10090 2020-Mar-09 05:49:45 market sale   upclassgames -07/-17 thecilnikopo axe, 6000 minutes 1 1800
10089 2020-Mar-09 04:05:13 market sale   eyebroowalet -10/-07 nanodarmawan axe, 6000 minutes 2 2300
10088 2020-Mar-09 02:18:46 market sale   mdsmdsmdsmds -18/-03 eosrichard32 axe, 1254 minutes 1 400
10087 2020-Mar-09 00:43:32 market sale   eyebroowalet 04/25 shebilpanton axe, 6000 minutes 1 2300
10086 2020-Mar-09 00:20:21 market sale   mdsmdsmdsmds -05/06 shebilpanton axe, 6000 minutes 2 2050
10085 2020-Mar-08 20:09:27 market sale   mdsmdsmdsmds -05/06 guzdkobqhage axe, 6000 minutes 1 2050
10084 2020-Mar-08 17:32:49 market sale   eyebroowalet 04/25 sweetmemoris axe, 6000 minutes 3 2300
10083 2020-Mar-08 17:09:04 market sale   mdsmdsmdsmds -05/06 vishnuvishnu axe, 6000 minutes 1 2050
10082 2020-Mar-08 16:55:48 market sale   mdsmdsmdsmds -05/06 molanabaig12 axe, 6000 minutes 3 2050
10081 2020-Mar-08 13:04:49 market sale   eyebroowalet 04/25 rinaldyalfat axe, 6000 minutes 1 2300
10080 2020-Mar-08 12:17:09 market sale   maejur123451 -17/-24 jazenblunts1 axe, 4500 minutes 1 1499
10079 2020-Mar-08 11:33:52 market sale   mdsmdsmdsmds -05/06 vishnuvishnu axe, 6000 minutes 1 2050
10078 2020-Mar-08 10:11:54 market sale   4321yamez321 14/04 puresaturday axe, 6000 minutes 3 2000
10077 2020-Mar-08 08:07:46 market sale   4321yamez321 14/04 fandymuhf123 axe, 6000 minutes 5 2000
10076 2020-Mar-08 06:09:40 market sale   eyebroowalet -10/-07 rittawahyuni axe, 6000 minutes 1 2300
10075 2020-Mar-08 06:07:42 market sale   playaccount1 -02/-01 cikizan11111 axe, 6000 minutes 2 2499
10074 2020-Mar-08 06:05:13 market sale   upclassgames -07/-17 fajarmuhf123 axe, 6000 minutes 6 1800
10073 2020-Mar-08 05:15:51 market sale   mdsmdsmdsmds -02/-05 heriadipasee axe, 6000 minutes 1 2050
10072 2020-Mar-08 05:06:50 market sale   mdsmdsmdsmds -02/-05 cryptoeospro axe, 6000 minutes 2 2050
10071 2020-Mar-08 04:36:39 market sale   upclassgames -07/-17 esemcawallet axe, 6000 minutes 3 1800
10070 2020-Mar-08 04:08:58 market sale   eyebroowalet 04/25 rinaldyalfat axe, 6000 minutes 1 2300
10069 2020-Mar-08 04:03:09 market sale   4321yamez321 14/04 rinaldyalfat axe, 6000 minutes 1 2000
10068 2020-Mar-08 03:41:31 market sale   eyebroowalet 04/25 rittawahyuni axe, 6000 minutes 1 2300
10067 2020-Mar-08 03:30:51 market sale   eyebroowalet 04/25 putrilindani axe, 6000 minutes 2 2300
10066 2020-Mar-08 03:10:01 market sale   eyebroowalet 04/25 husainibayou axe, 6000 minutes 3 2300
10065 2020-Mar-08 03:03:27 market sale   4321yamez321 14/04 hayaturrahmi axe, 6000 minutes 3 2000
10064 2020-Mar-08 02:50:04 market sale   mdsmdsmdsmds -02/-05 madanmadan12 axe, 6000 minutes 3 2050
10063 2020-Mar-08 02:39:01 market sale   4321yamez321 14/04 rosdianaalfi axe, 6000 minutes 3 2000
10062 2020-Mar-08 02:39:00 market sale   4321yamez321 14/04 rosdianaalfi axe, 6000 minutes 3 2000
10061 2020-Mar-07 15:32:55 market sale   4321yamez321 14/04 firozmansuri axe, 6000 minutes 1 2000
10060 2020-Mar-07 14:09:42 market sale   mdsmdsmdsmds -02/-05 ashars4sakma axe, 6000 minutes 3 2050
10059 2020-Mar-07 12:15:24 market sale   harlemjazzer 18/-22 tjyi1scexfrl axe, 2770 minutes 1 1100
10058 2020-Mar-07 11:53:22 market sale   mdsmdsmdsmds -02/-05 jackure12345 axe, 6000 minutes 3 2050
10057 2020-Mar-07 11:26:14 market sale   playaccount1 -02/-01 musdarmusdar axe, 6000 minutes 1 2499
10056 2020-Mar-07 09:24:10 market sale   4321yamez321 14/04 selmiselmi12 axe, 6000 minutes 1 2000
10055 2020-Mar-07 08:18:37 market sale   mdsmdsmdsmds -02/-05 lenygabriele axe, 6000 minutes 1 2050
10054 2020-Mar-07 08:12:19 market sale   4321yamez321 14/04 muhammadan12 axe, 6000 minutes 1 2000
10053 2020-Mar-07 06:28:48 market sale   playaccount1 -02/-01 azkasyakilaa axe, 6000 minutes 1 2499
10052 2020-Mar-07 05:27:41 market sale   mdsmdsmdsmds -02/-05 tamer12lan15 axe, 6000 minutes 1 2050
10051 2020-Mar-07 05:00:14 market sale   playaccount1 -02/-01 azlanrafif12 axe, 6000 minutes 3 2499
10050 2020-Mar-07 04:45:01 market sale   playaccount1 -02/-01 musdarmusdar axe, 6000 minutes 1 2499
10049 2020-Mar-07 04:44:47 market sale   playaccount1 -02/-01 musdarmusdar axe, 6000 minutes 1 2499
10048 2020-Mar-07 02:45:10 market sale   4321yamez321 14/04 mahadev55555 axe, 6000 minutes 1 2000
10047 2020-Mar-07 00:30:44 market sale   4321yamez321 14/04 harpreetgold axe, 6000 minutes 1 2000
10046 2020-Mar-07 00:17:46 market sale   eyebroowalet -10/-07 coinmineresp axe, 6000 minutes 1 2300
10045 2020-Mar-06 19:09:10 market sale   eyebroowalet 04/25 n5goqzmjmyxm axe, 6000 minutes 1 2300
10044 2020-Mar-06 18:37:55 market sale   eyebroowalet 04/25 selmiselmi12 axe, 6000 minutes 2 2300
10043 2020-Mar-06 17:50:49 market sale   ikramelahi23 18/19 tjyi1scexfrl axe, 2700 minutes 1 1050
10042 2020-Mar-06 12:58:45 market sale   nayounscattr 17/19 gilangpra123 axe, 6000 minutes 1 3000
10041 2020-Mar-06 12:36:29 market sale   anikybee1234 26/-19 jairing12345 axe, 6000 minutes 2 2100
10040 2020-Mar-06 08:05:59 market sale   mdsmdsmdsmds -02/-05 adivaufairaa axe, 6000 minutes 1 1950
10039 2020-Mar-06 08:05:09 market sale   mdsmdsmdsmds -02/-05 adivaufairaa axe, 6000 minutes 2 1950
10038 2020-Mar-06 07:03:00 market sale   mdsmdsmdsmds -05/06 mujair123455 axe, 6000 minutes 1 1950
10037 2020-Mar-06 06:57:24 market sale   eyebroowalet 04/25 jairing12345 axe, 6000 minutes 1 2300
10036 2020-Mar-06 06:55:40 market sale   anikybee1234 26/-19 jairing12345 axe, 6000 minutes 3 1999
10035 2020-Mar-06 05:39:35 market sale   mdsmdsmdsmds -05/06 rajveer12dec axe, 6000 minutes 16 1950
10034 2020-Mar-06 05:35:43 market sale   eyebroowalet 04/25 ehsanelahi11 axe, 6000 minutes 1 2300
10033 2020-Mar-06 05:31:04 market sale   mdsmdsmdsmds -05/06 edina1313131 axe, 6000 minutes 1 1950
10032 2020-Mar-06 04:35:34 market sale   k1234512345n 22/21 ramubalaga12 axe, 5330 minutes 1 1320
10031 2020-Mar-06 04:34:02 market sale   tawintech123 -17/-08 ramubalaga12 axe, 6000 minutes 1 1000
10030 2020-Mar-05 22:17:26 market sale   safarpasee21 23/-14 saqibzafarhe axe, 298 minutes 1 10
10029 2020-Mar-05 21:27:00 market sale   mdsmdsmdsmds -05/06 1jomolungma1 axe, 6000 minutes 10 1950
10028 2020-Mar-05 21:15:18 market sale   isbluemalone 20/11 ha3dmmrygyge axe, 2774 minutes 1 110000
10027 2020-Mar-05 19:43:37 market sale   mdsmdsmdsmds -05/06 sayutisayuti axe, 6000 minutes 2 1950
10026 2020-Mar-05 18:15:22 market sale   mdsmdsmdsmds -05/06 ifegwuonyeka axe, 6000 minutes 2 1950
10025 2020-Mar-05 17:38:43 market sale   mdsmdsmdsmds -05/06 waldeewaldee axe, 6000 minutes 1 1950
10024 2020-Mar-05 16:38:03 market sale   mdsmdsmdsmds -05/06 mahadev55555 axe, 6000 minutes 2 1950
10023 2020-Mar-05 16:37:12 market sale   mdsmdsmdsmds -05/06 mahadev55555 axe, 6000 minutes 1 1950
10022 2020-Mar-05 15:32:53 market sale   mdsmdsmdsmds -05/06 rafiyahyazak axe, 6000 minutes 1 1950
10021 2020-Mar-05 14:58:34 market sale   playaccount1 -02/-01 baretasss111 axe, 6000 minutes 1 2499
10020 2020-Mar-05 14:53:20 market sale   4321yamez321 14/04 batetasss111 axe, 6000 minutes 1 2200
10019 2020-Mar-05 10:03:17 market sale   mdsmdsmdsmds -05/06 muhammadasif axe, 6000 minutes 1 1950
10018 2020-Mar-04 22:07:59 market sale   lomoblomlom1 05/-16 brunogama123 axe, 3580 minutes 1 635
10017 2020-Mar-04 21:56:33 market sale   vatraxopodar 14/14 azaratta3122 axe, 1140 minutes 1 240
10016 2020-Mar-04 15:20:19 market sale   maejur123451 -17/-24 deadpulze123 axe, 6000 minutes 6 1500
10015 2020-Mar-04 13:19:47 market sale   4321yamez321 14/04 eosonledgers axe, 6000 minutes 8 1850
10014 2020-Mar-04 04:40:02 market sale   harlemjazzer 18/-22 11345iwcxfgj axe, 2769 minutes 1 1200
10013 2020-Mar-03 16:39:16 market sale   anikybee1234 26/-19 wilitta12121 axe, 6000 minutes 1 1999
10012 2020-Mar-03 08:14:53 market sale   airdropemmy1 -10/-22 ayoemeka1234 axe, 4500 minutes 1 1
10011 2020-Mar-03 06:26:04 market sale   bonanzahouse 05/01 11walhallo11 axe, 6000 minutes 1 1379
10010 2020-Mar-03 06:10:12 market sale   bonanzahouse 05/01 vautobrazzer axe, 6000 minutes 3 1379
10009 2020-Mar-03 05:33:18 market sale   bonanzahouse 05/01 fandymuhf123 axe, 6000 minutes 1 1379
10008 2020-Mar-03 05:00:25 market sale   fauzanfazila 00/-24 fernandogarc axe, 6000 minutes 1 1300
10007 2020-Mar-03 01:12:22 market sale   safarpasee21 07/10 haradrielb25 axe, 6000 minutes 1 1450
10006 2020-Mar-02 23:52:33 market sale   playaccount1 -02/-01 123sanjapopo axe, 6000 minutes 1 2499
10005 2020-Mar-02 19:46:26 market sale   btcmanu12345 -14/-02 safwadiiiiii axe, 6000 minutes 2 1350
10004 2020-Mar-02 15:55:33 market sale   bonanzahouse 05/01 rajveer12dec axe, 6000 minutes 5 1379
10003 2020-Mar-02 12:57:00 market sale   btcmanu12345 -14/-02 123sanjapopo axe, 6000 minutes 1 1350
10002 2020-Mar-02 12:56:28 market sale   btcmanu12345 -14/-02 123sanjapopo axe, 6000 minutes 1 1350
10001 2020-Mar-02 07:07:52 market sale   btcmanu12345 -14/-02 register5153 axe, 6000 minutes 1 1350
10000 2020-Mar-02 05:54:52 market sale   btcmanu12345 -14/-02 register5153 axe, 6000 minutes 1 1350
9999 2020-Mar-02 03:40:25 market sale   btcmanu12345 -14/-02 aboyousef123 axe, 6000 minutes 1 1350
9998 2020-Mar-01 23:35:29 market sale   btcmanu12345 -14/-02 lenygabriele axe, 6000 minutes 1 1350
9997 2020-Mar-01 19:18:41 market sale   printerserv1 -02/-18 11345iwcxfgj axe, 74 minutes 1 700
9996 2020-Mar-01 17:59:25 market sale   klimanskiy22 06/23 11345iwcxfgj axe, 334 minutes 1 85
9995 2020-Mar-01 09:17:59 market sale   tristan12345 -12/01 aboyousef123 axe, 4320 minutes 1 150
9994 2020-Feb-29 23:35:27 market sale   eoseospat123 -14/00 adivaufairaa axe, 4550 minutes 1 600
9993 2020-Feb-29 03:42:55 market sale   slavasaa4554 -01/-04 bazzy2222222 axe, 142 minutes 1 300
9992 2020-Feb-29 01:46:34 market sale   mansonfamily 12/-11 eossuperhans axe, 1713 minutes 1 100
9991 2020-Feb-29 01:43:51 market sale   mansonfamily 12/-11 eossuperhans axe, 3389 minutes 1 100
9990 2020-Feb-28 17:45:33 market sale   eossuperhans 13/-10 samamad21.tp axe, 6000 minutes 1 1600
9989 2020-Feb-28 17:33:09 market sale   bonanzahouse 05/01 daigorokoike axe, 6000 minutes 1 1379
9988 2020-Feb-28 17:32:19 market sale   gy3dmojqgege -01/03 daigorokoike axe, 6000 minutes 1 1368
9987 2020-Feb-28 16:21:41 market sale   bonanzahouse 05/01 rajveer12dec axe, 6000 minutes 3 1379
9986 2020-Feb-28 15:20:34 market sale   gy3dmojqgege -01/03 tasmt4acc123 axe, 6000 minutes 1 1368
9985 2020-Feb-28 10:51:39 market sale   bonanzahouse 05/01 scatterquick axe, 6000 minutes 16 1379
9984 2020-Feb-28 01:42:32 market sale   gy3dmojqgege -01/03 sayutisayuti axe, 6000 minutes 3 1368
9983 2020-Feb-27 18:22:40 market sale   ikramelahi23 18/19 alexalexale1 axe, 3300 minutes 1 900
9982 2020-Feb-27 12:00:47 market sale   aluminumcoin -18/-18 ddkeyqwertyu axe, 134 minutes 1 25
9981 2020-Feb-26 15:48:45 market sale   gy3dmojqgege -01/03 gy3dqmbygmge axe, 6000 minutes 1 1349
9980 2020-Feb-26 09:24:30 market sale   gy3dmojqgege -01/03 slavasaa4554 axe, 6000 minutes 2 1349
9979 2020-Feb-26 06:33:25 market sale   kblackmon123 09/-18 gy3dqmbygmge axe, 3195 minutes 1 631
9978 2020-Feb-25 23:43:14 market sale   gy3dmojqgege -01/03 arntorkvaale axe, 6000 minutes 1 1349
9977 2020-Feb-25 22:36:36 market sale   ikramelahi23 18/19 luffymonkey3 axe, 1800 minutes 1 350
9976 2020-Feb-25 17:19:24 market sale   savagelitone 05/11 deadpulze123 axe, 6000 minutes 6 1050
9975 2020-Feb-25 17:17:58 market sale   safarpasee21 -22/-20 deadpulze123 axe, 6000 minutes 2 1000
9974 2020-Feb-25 15:27:37 market sale   gy3dmojqgege -01/03 valeska12345 axe, 6000 minutes 1 1349
9973 2020-Feb-25 03:15:54 market sale   srafiafatima -21/08 stelarizaxxx axe, 5400 minutes 1 1000
9972 2020-Feb-24 09:43:49 market sale   savagelitone 05/11 gamernahid12 axe, 6000 minutes 1 1050
9971 2020-Feb-24 03:21:10 market sale   gy3dmojqgege -01/03 tasmt4acc123 axe, 6000 minutes 1 1349
9970 2020-Feb-24 02:47:30 market sale   safarpasee21 -22/-20 rafuchoepeld axe, 6000 minutes 1 1000
9969 2020-Feb-23 16:34:54 market sale   savagelitone 05/11 kowalska1111 axe, 6000 minutes 2 1050
9968 2020-Feb-23 11:26:13 market sale   kblackmon123 09/-18 gm2diojrgege axe, 6000 minutes 1 1263
9967 2020-Feb-23 01:26:49 market sale   knightshadow -03/14 lin21lugobda axe, 6000 minutes 1 1000
9966 2020-Feb-22 17:08:25 market sale   ha3dmmrygyge 11/-13 kowalska1111 axe, 6000 minutes 1 1350
9965 2020-Feb-22 11:22:58 market sale   4321yamez321 14/04 guzdkobqhage axe, 6000 minutes 1 1600
9964 2020-Feb-21 22:53:25 market sale   sashahausner -25/04 scatterquick axe, 6000 minutes 1 998
9963 2020-Feb-21 22:49:41 market sale   abhishek1334 00/-23 scatterquick axe, 6000 minutes 1 1000
9962 2020-Feb-21 18:14:32 market sale   safarpasee21 -22/-20 omgweriam111 axe, 6000 minutes 3 1000
9961 2020-Feb-21 18:12:39 market sale   safarpasee21 -22/-20 rafuchoepeld axe, 6000 minutes 2 1000
9960 2020-Feb-21 17:34:03 market sale   cesarmorles4 -14/07 nubaacsukabl axe, 6000 minutes 2 850
9959 2020-Feb-21 12:21:04 market sale   koizumicomet -18/-03 asasa123russ axe, 6000 minutes 1 930
9958 2020-Feb-21 08:58:24 market sale   ha3dmmrygyge 11/-13 kkatakdokava axe, 6000 minutes 1 1350
9957 2020-Feb-21 04:13:25 market sale   mnipks333333 00/13 spainsontgeo axe, 4771 minutes 1 550
9956 2020-Feb-21 04:13:03 market sale   harlemjazzer 18/-22 spainsontgeo axe, 2770 minutes 1 400
9955 2020-Feb-21 03:01:48 market sale   freedomeze12 -18/04 kryptoseeker axe, 3825 minutes 1 400
9954 2020-Feb-20 07:17:06 market sale   koizumicomet -18/-03 kkatakdokava axe, 6000 minutes 1 930
9953 2020-Feb-20 02:09:05 market sale   gy3dmojqgege -01/03 truenonsense axe, 6000 minutes 1 1049
9952 2020-Feb-20 02:06:59 market sale   gy3dmojqgege -01/03 truenonsense axe, 6000 minutes 1 1049
9951 2020-Feb-19 22:56:50 market sale   cesarmorles4 -14/07 stelarizaxxx axe, 1536 minutes 1 100
9950 2020-Feb-19 19:05:01 market sale   coinchitchat -20/13 stelarizaxxx axe, 3266 minutes 1 460
9949 2020-Feb-19 17:25:25 market sale   gy3dmojqgege -01/03 truenonsense axe, 6000 minutes 1 1049
9948 2020-Feb-19 09:03:49 market sale   koizumicomet -18/-03 yildarodri12 axe, 6000 minutes 1 930
9947 2020-Feb-19 08:56:17 market sale   cesarmorles4 -14/07 danielesc323 axe, 6000 minutes 1 900
9946 2020-Feb-19 07:17:50 market sale   pianocover33 03/-08 1ctk3d5eosda axe, 6000 minutes 1 500
9945 2020-Feb-18 18:23:41 market sale   fauzanfazila 00/-24 ha3dmmrygyge axe, 6000 minutes 5 900
9944 2020-Feb-18 18:23:28 market sale   anikybee1234 26/-19 ha3dmmrygyge axe, 6000 minutes 4 919
9943 2020-Feb-18 02:38:14 market sale   pianocover22 03/-08 gy3dqmbygmge axe, 6000 minutes 1 900
9942 2020-Feb-17 17:02:01 market sale   anikybee1234 26/-19 yelitstienda axe, 6000 minutes 6 919
9941 2020-Feb-17 13:44:43 market sale   mycryptoland -19/-23 safarpasee21 axe, 6000 minutes 9 900
9940 2020-Feb-17 10:18:25 market sale   anikybee1234 26/-19 kkatakdokava axe, 6000 minutes 1 919
9939 2020-Feb-17 04:41:18 market sale   pianocover22 03/-08 muhammadasif axe, 6000 minutes 1 900
9938 2020-Feb-17 03:56:35 market sale   anikybee1234 26/-19 shabana11223 axe, 6000 minutes 1 919
9937 2020-Feb-16 23:54:12 market sale   afernandes12 18/05 pedromineroe axe, 6000 minutes 1 500
9936 2020-Feb-16 08:38:39 market sale   anikybee1234 26/-19 rkvasavalov3 axe, 6000 minutes 2 919
9935 2020-Feb-16 08:38:07 market sale   eoswalletak2 07/11 rkvasavalov3 axe, 6000 minutes 1 800
9934 2020-Feb-16 03:47:16 market sale   savagelitone 05/11 nylthads1234 axe, 6000 minutes 1 1050
9933 2020-Feb-15 19:35:45 market sale   fauzanfazila 00/-24 eddiecarty12 axe, 6000 minutes 11 920
9932 2020-Feb-15 19:22:54 market sale   anikybee1234 26/-19 gy3dqmbygmge axe, 6000 minutes 1 919
9931 2020-Feb-15 13:33:26 market sale   theaddario15 -05/08 styrman12345 axe, 6000 minutes 1 1000
9930 2020-Feb-15 06:01:52 market sale   shariqatiqza 15/01 shovelpileos axe, 1910 minutes 1 300
9929 2020-Feb-15 03:07:24 market sale   albertmarie2 -16/27 dhoelabdhoel axe, 600 minutes 1 200
9928 2020-Feb-14 19:53:51 market sale   theaddario15 -05/08 bustercasey1 axe, 6000 minutes 1 1000
9927 2020-Feb-14 18:21:16 market sale   anikybee1234 26/-19 kaushikvsv13 axe, 6000 minutes 1 919
9926 2020-Feb-14 18:20:33 market sale   yaniadnyeos1 -19/-01 kaushikvsv13 axe, 5400 minutes 1 870
9925 2020-Feb-14 18:10:39 market sale   opa4aaopa4aa -13/24 damianicash1 axe, 3370 minutes 1 300
9924 2020-Feb-14 15:31:45 market sale   opa4aaopa4aa -13/24 farhanafarha axe, 5400 minutes 1 777
9923 2020-Feb-14 06:48:07 market sale   maejur123451 -17/-24 lorrelinne15 axe, 6000 minutes 1 1099
9922 2020-Feb-14 01:32:01 market sale   lomoblomlom1 -10/17 life2kwallet axe, 1200 minutes 1 150
9921 2020-Feb-13 21:40:04 market sale   koizumicomet -18/-03 kinghippyjoe axe, 6000 minutes 1 930
9920 2020-Feb-13 15:40:22 market sale   yaniadnyeos1 -19/-01 gyydiobygige axe, 3197 minutes 1 450
9919 2020-Feb-13 14:34:56 market sale   koizumicomet -18/-03 eosemmanuel1 axe, 6000 minutes 1 930
9918 2020-Feb-13 13:52:12 market sale   fauzanfazila 00/-24 haradrielb25 axe, 6000 minutes 1 920
9917 2020-Feb-13 09:58:57 market sale   theaddario15 -05/08 maheshsargam axe, 6000 minutes 1 1000
9916 2020-Feb-13 00:52:39 market sale   opa4aaopa4aa -13/24 gyydiobygige axe, 2400 minutes 1 200
9915 2020-Feb-12 20:20:06 market sale   umeshkhade14 04/12 speculantmin axe, 6000 minutes 2 930
9914 2020-Feb-12 19:26:48 market sale   opa4aaopa4aa -13/24 darkriderfra axe, 4500 minutes 1 500
9913 2020-Feb-12 11:23:51 market sale   goldcompan.y 00/16 nadeemrko122 axe, 6000 minutes 1 999
9912 2020-Feb-12 02:44:45 market sale   yaniadnyeos1 -19/-01 eosknights21 axe, 5700 minutes 1 800
9911 2020-Feb-11 17:43:00 market sale   gy3dmojqgege -01/03 d1andayoekan axe, 6000 minutes 1 1049
9910 2020-Feb-11 10:31:26 market sale   koizumicomet -18/-03 thebest33333 axe, 6000 minutes 6 930
9909 2020-Feb-11 05:03:17 market sale   ravindra1234 10/25 safarpasee21 axe, 6000 minutes 1 900
9908 2020-Feb-11 02:43:33 market sale   gy3dmojqgege -01/03 giztqmbsg4ge axe, 6000 minutes 20 1049
9907 2020-Feb-10 22:44:05 market sale   koizumicomet -18/-03 norfiescu234 axe, 6000 minutes 1 930
9906 2020-Feb-10 20:01:29 market sale   johanewa1111 09/-18 slavasaa4554 axe, 6000 minutes 2 927
9905 2020-Feb-10 20:00:17 market sale   kblackmon123 20/16 slavasaa4554 axe, 6000 minutes 1 1800
9904 2020-Feb-10 18:48:00 market sale   ravindra1234 10/25 niharika1235 axe, 6000 minutes 1 1000
9903 2020-Feb-10 10:29:57 market sale   theaddario15 -05/08 tasmt4acc123 axe, 6000 minutes 1 1000
9902 2020-Feb-10 08:45:14 market sale   imranzakriya 17/-23 kaushikvsv13 axe, 2963 minutes 1 250
9901 2020-Feb-10 05:32:35 market sale   kblackmon123 20/16 lorrelinne15 axe, 6000 minutes 1 1800
9900 2020-Feb-09 22:30:08 market sale   selamatjalan 22/12 hotzenplotz5 axe, 6000 minutes 1 1000
9899 2020-Feb-09 22:17:02 market sale   gy3dmojqgege -01/03 dreacastaned axe, 6000 minutes 1 1049
9898 2020-Feb-09 21:14:49 market sale   cryptogameco -04/07 qh2fpx1vb5yq axe, 6000 minutes 1 900
9897 2020-Feb-09 19:34:22 market sale   chiriguitave -25/07 ge3demrygege axe, 6000 minutes 2 900
9896 2020-Feb-09 19:32:19 market sale   gy3dmojqgege -01/03 theaddario15 axe, 6000 minutes 1 1049
9895 2020-Feb-09 16:48:55 market sale   vatraxopodar 14/14 sktkdgns2121 axe, 6000 minutes 1 900
9894 2020-Feb-09 09:25:27 market sale   semiflexible -23/-22 safarpasee21 axe, 6000 minutes 1 2100
9893 2020-Feb-09 04:53:40 market sale   selamatjalan 22/12 fanskarma111 axe, 6000 minutes 1 1000
9892 2020-Feb-09 04:33:01 market sale   maejur123451 -17/-24 nestheroviap axe, 6000 minutes 1 1099
9891 2020-Feb-09 04:25:05 market sale   gy3dmojqgege -21/18 nestheroviap axe, 792 minutes 1 119
9890 2020-Feb-08 01:07:00 market sale   johanewa1111 09/-18 kblackmon123 axe, 6000 minutes 5 927
9889 2020-Feb-07 12:57:33 market sale   johanewa1111 09/-18 usmankhalid1 axe, 6000 minutes 3 927
9888 2020-Feb-07 12:07:09 market sale   gy3dmojqgege -01/03 nylthads1234 axe, 6000 minutes 1 1049
9887 2020-Feb-07 08:39:49 market sale   johanewa1111 09/-18 22times1is22 axe, 6000 minutes 1 927
9886 2020-Feb-07 02:27:35 market sale   mnipks333333 00/13 omgweriam111 axe, 4280 minutes 1 500
9885 2020-Feb-06 21:55:57 market sale   johanewa1111 09/-18 22times1is22 axe, 6000 minutes 1 927
9884 2020-Feb-06 21:13:56 market sale   koizumicomet -18/-03 juanvelateos axe, 6000 minutes 1 930
9883 2020-Feb-06 18:55:06 market sale   koizumicomet -18/-03 juanvelateos axe, 6000 minutes 3 930
9882 2020-Feb-06 07:53:58 market sale   ha3dmmrygyge 11/-13 safarpasee21 axe, 6000 minutes 1 1199
9881 2020-Feb-06 01:46:08 market sale   johanewa1111 09/-18 safwadiiiiii axe, 6000 minutes 4 927
9880 2020-Feb-05 12:36:42 market sale   johanewa1111 09/-18 earnmoneybit axe, 6000 minutes 1 927
9879 2020-Feb-04 17:44:51 market sale   ha3dmmrygyge 11/-13 asesoriasin1 axe, 6000 minutes 1 1199
9878 2020-Feb-04 16:54:21 market sale   4321yamez321 14/04 blockadenavi axe, 6000 minutes 3 930
9877 2020-Feb-04 15:20:10 market sale   manturiseoss 22/-08 anli55555555 axe, 2400 minutes 1 500
9876 2020-Feb-04 15:09:49 market sale   rajveer12dec 14/-24 murakiteam12 axe, 6000 minutes 1 1052
9875 2020-Feb-04 15:04:32 market sale   johanewa1111 09/-18 maheshswarga axe, 6000 minutes 2 927
9874 2020-Feb-04 10:40:46 market sale   rajveer12dec 14/-24 murakiteam12 axe, 2519 minutes 1 500
9873 2020-Feb-03 20:38:33 market sale   gy3dmojqgege -01/03 filosofykopi axe, 6000 minutes 1 1049
9872 2020-Feb-03 18:56:01 market sale   anikybee1234 26/-19 hemantsharma axe, 6000 minutes 5 925
9871 2020-Feb-03 15:07:15 market sale   koizumicomet -18/-03 chandansahoo axe, 6000 minutes 3 930
9870 2020-Feb-03 14:26:02 market sale   anikybee1234 26/-19 g44denjrgige axe, 6000 minutes 1 925
9869 2020-Feb-03 09:17:42 market sale   gomersimpson 05/-22 roshandhake5 axe, 6000 minutes 2 899
9868 2020-Feb-03 05:49:00 market sale   gomersimpson 05/-22 sohitthapliy axe, 6000 minutes 3 899
9867 2020-Feb-02 21:58:43 market sale   freedomeze12 19/-14 tijnski12345 axe, 3930 minutes 1 550
9866 2020-Feb-02 18:12:49 market sale   koizumicomet -18/-03 nylthads1234 axe, 6000 minutes 1 930
9865 2020-Feb-02 16:56:02 market sale   mdjohuruli33 -20/22 eyebroowalet axe, 6000 minutes 36 1000
9864 2020-Feb-02 13:59:29 market sale   mrcoinntoken 00/-24 vatraxopodar axe, 6000 minutes 1 926
9863 2020-Feb-02 09:10:14 market sale   mrcoinntoken 00/-24 bachateronyc axe, 6000 minutes 1 926
9862 2020-Feb-02 00:49:42 market sale   anikybee1234 26/-19 magnoliadan2 axe, 6000 minutes 2 900
9861 2020-Feb-02 00:49:18 market sale   pianocover22 03/-08 magnoliadan2 axe, 6000 minutes 1 840
9860 2020-Feb-01 20:01:02 market sale   rajveer12dec 14/-24 safarpasee21 axe, 1800 minutes 1 400
9859 2020-Feb-01 11:26:40 market sale   mrcoinntoken 00/-24 nurmalaanisz axe, 6000 minutes 1 926
9858 2020-Feb-01 02:01:27 market sale   pianocover22 03/-08 qh2fpx1vb5yq axe, 6000 minutes 1 840
9857 2020-Jan-31 14:48:38 market sale   pianocover22 03/-08 g44denjrgige axe, 6000 minutes 1 840
9856 2020-Jan-31 11:47:32 market sale   baliaviator1 22/00 1ohmygoshomg axe, 6000 minutes 1 19000
9855 2020-Jan-31 06:33:47 market sale   pianocover22 03/-08 troidauxanh1 axe, 6000 minutes 2 1
9854 2020-Jan-31 02:57:38 market sale   mrcoinntoken 00/-24 sultaneospro axe, 6000 minutes 1 926
9853 2020-Jan-31 02:56:15 market sale   mrcoinntoken 00/-24 sultaneospro axe, 6000 minutes 2 926
9852 2020-Jan-30 21:06:09 market sale   mrcoinntoken 00/-24 ge3demrygege axe, 6000 minutes 2 926
9851 2020-Jan-30 17:41:19 market sale   mrcoinntoken 00/-24 pianocover22 axe, 6000 minutes 3 926
9850 2020-Jan-30 15:41:12 market sale   machwire4eos -21/-23 manavkumar25 axe, 3314 minutes 1 100
9849 2020-Jan-30 14:37:37 market sale   mastahgreyin 22/24 murakiteam12 axe, 620 minutes 1 200
9848 2020-Jan-30 01:14:08 market sale   eostimbbo123 -15/00 harummewangi axe, 6000 minutes 1 925
9847 2020-Jan-29 17:15:39 market sale   eoswalletak2 -22/02 harummewangi axe, 5820 minutes 1 900
9846 2020-Jan-29 07:51:25 market sale   eostimbbo123 -15/00 hotzenplotz5 axe, 6000 minutes 3 925
9845 2020-Jan-29 04:09:40 market sale   bonanzahouse 05/01 deadpulze123 axe, 6000 minutes 1 1379
9844 2020-Jan-29 01:29:01 market sale   mastahgreyin 22/24 cryptonow.tp axe, 500 minutes 1 200
9843 2020-Jan-27 15:17:04 market sale   aluminumcoin -18/-18 bitcoingamer axe, 6000 minutes 1 100
9842 2020-Jan-26 23:11:49 market sale   k1234512345n 05/24 rgu1tarsenal axe, 6000 minutes 2 930
9841 2020-Jan-26 16:02:10 market sale   eostimbbo123 -15/00 sktkdgns2121 axe, 6000 minutes 1 925
9840 2020-Jan-26 07:36:51 market sale   mrcoinntoken 00/-23 rhamdanydhan axe, 6000 minutes 1 920
9839 2020-Jan-26 05:31:38 market sale   mrcoinntoken 00/-23 critteneyejo axe, 6000 minutes 3 920
9838 2020-Jan-26 03:43:51 market sale   eostimbbo123 -15/00 blessedman33 axe, 6000 minutes 1 925
9837 2020-Jan-25 22:25:06 market sale   harlemjazzer 18/-22 murakiteam12 axe, 300 minutes 1 100
9836 2020-Jan-25 22:19:17 market sale   sumitgujjar1 14/18 arntorkvaale axe, 5100 minutes 1 700
9835 2020-Jan-25 21:32:23 market sale   sumitgujjar1 14/18 arntorkvaale axe, 5700 minutes 1 700
9834 2020-Jan-25 19:21:15 market sale   mrcoinntoken 00/-23 mdsmdsmdsmds axe, 6000 minutes 18 699
9833 2020-Jan-25 12:20:58 market sale   maejur123451 -17/-24 dndakhairani axe, 6000 minutes 1 1099
9832 2020-Jan-25 10:28:05 market sale   eoswalletak2 -25/-12 earnmoneybit axe, 4028 minutes 1 500
9831 2020-Jan-25 01:58:31 market sale   pashevambe33 -15/-26 harummewangi axe, 6000 minutes 1 898
9830 2020-Jan-24 18:39:27 market sale   mrcoinntoken 00/-23 muenariazeos axe, 6000 minutes 34 1
9829 2020-Jan-24 15:36:13 market sale   vjnadharshri 19/13 eosbravebrow axe, 75 minutes 1 15
9828 2020-Jan-24 15:28:37 market sale   johanewa1111 09/-18 nurmalaanisz axe, 6000 minutes 1 927
9827 2020-Jan-24 02:44:32 market sale   salmankhanss -03/12 ikramelahi23 axe, 6000 minutes 3 899
9826 2020-Jan-23 23:44:37 market sale   mortadelazk1 -17/24 pukarinzk123 axe, 3984 minutes 1 283000
9825 2020-Jan-23 23:41:03 market sale   danieldomams -05/08 arntorkvaale axe, 2697 minutes 1 400
9824 2020-Jan-23 23:39:03 market sale   fichozzking1 21/02 jaumereos234 axe, 22 minutes 1 17
9823 2020-Jan-23 19:28:51 market sale   salmankhanss -03/12 harummewangi axe, 6000 minutes 1 899
9822 2020-Jan-23 18:48:30 market sale   k1234512345n 05/24 printerservi axe, 3300 minutes 1 495
9821 2020-Jan-23 18:20:06 market sale   k1234512345n 05/24 kinghippyjoe axe, 3300 minutes 1 495
9820 2020-Jan-23 14:44:05 market sale   nurliss12345 01/22 k1234512345n axe, 6000 minutes 1 500
9819 2020-Jan-23 03:50:11 market sale   salmankhanss -03/12 sktkdgns2121 axe, 6000 minutes 1 899
9818 2020-Jan-23 03:47:16 market sale   pashevambe33 -15/-26 g44denjrgige axe, 6000 minutes 1 898
9817 2020-Jan-23 02:41:37 market sale   salmankhanss -03/12 applelovers1 axe, 6000 minutes 4 899
9816 2020-Jan-22 11:50:31 market sale   salmankhanss -03/12 amadmira4321 axe, 6000 minutes 1 899
9815 2020-Jan-22 11:50:25 market sale   salmankhanss -03/12 amadmira4321 axe, 6000 minutes 1 899
9814 2020-Jan-22 11:22:22 market sale   benjaminrost 05/07 laruziel5313 axe, 862 minutes 1 100
9813 2020-Jan-22 08:41:51 market sale   pashevambe33 -15/-26 karansuthar1 axe, 6000 minutes 1 898
9812 2020-Jan-22 00:17:36 market sale   johanewa1111 25/18 anikybee1234 axe, 6000 minutes 2 900
9811 2020-Jan-21 17:14:30 market sale   koizumicomet -18/-03 chandansahoo axe, 6000 minutes 3 930
9810 2020-Jan-21 16:31:40 market sale   savagelitone 05/11 dearmoreg151 axe, 6000 minutes 1 1050
9809 2020-Jan-21 14:29:45 market sale   savagelitone 05/11 4321yamez321 axe, 6000 minutes 1 1050
9808 2020-Jan-21 08:58:14 market sale   pashevambe33 -15/-26 nestheroviap axe, 6000 minutes 1 898
9807 2020-Jan-21 07:59:18 market sale   salmankhanss -03/12 shoconeossho axe, 6000 minutes 2 899
9806 2020-Jan-21 01:16:26 market sale   tristan12345 -13/00 4321yamez321 axe, 6000 minutes 1 1098
9805 2020-Jan-20 21:02:13 market sale   salmankhanss -03/12 eosemmanuel1 axe, 6000 minutes 1 899
9804 2020-Jan-20 17:27:22 market sale   salmankhanss -03/12 bukhariaaceh axe, 6000 minutes 2 899
9803 2020-Jan-20 14:26:02 market sale   salmankhanss -03/12 bustercasey1 axe, 6000 minutes 1 899
9802 2020-Jan-20 06:22:32 market sale   mdjohuruli33 -20/22 alexalexale1 axe, 6000 minutes 1 1700
9801 2020-Jan-20 02:29:24 market sale   gy3dmojqgege -01/03 adivendereos axe, 6000 minutes 1 1049
9800 2020-Jan-19 21:36:32 market sale   gy3dmojqgege -01/03 fichozzking1 axe, 6000 minutes 2 1049
9799 2020-Jan-19 17:05:05 market sale   danieldomams 07/-08 ronydaeng.tp axe, 5220 minutes 1 299
9798 2020-Jan-19 15:28:47 market sale   johanewa1111 25/18 marcinruss11 axe, 6000 minutes 1 900
9797 2020-Jan-19 13:41:21 market sale   crusader4351 00/-13 criptosonido axe, 4040 minutes 1 850
9796 2020-Jan-19 08:09:14 market sale   georgepulido -10/-10 kaushikvsv13 axe, 6000 minutes 3 750
9795 2020-Jan-19 06:19:19 market sale   gy3dmojqgege -01/03 ditikotoryti axe, 6000 minutes 1 1049
9794 2020-Jan-18 23:12:40 market sale   naddanparind 07/02 progamer1111 axe, 6000 minutes 1 1750
9793 2020-Jan-18 22:33:37 market sale   kantoskantos -23/-03 haradrielb25 axe, 4645 minutes 1 1000
9792 2020-Jan-18 21:02:10 market sale   tristan12345 -13/00 hristijan122 axe, 6000 minutes 3 1098
9791 2020-Jan-18 18:30:32 market sale   johanewa1111 25/18 ochimaan1234 axe, 6000 minutes 3 900
9790 2020-Jan-18 18:21:33 market sale   gy3dmojqgege -01/03 kowalska1111 axe, 6000 minutes 1 1049
9789 2020-Jan-18 17:29:25 market sale   mdjohuruli33 -20/22 rotiv3zezere axe, 6000 minutes 1 1700
9788 2020-Jan-18 15:12:19 market sale   opa4aaopa4aa -13/24 franysfranys axe, 4260 minutes 1 600
9787 2020-Jan-18 14:33:12 market sale   johanewa1111 25/18 sktkdgns2121 axe, 6000 minutes 1 900
9786 2020-Jan-18 10:16:08 market sale   bonanzahouse 05/01 haradrielb25 axe, 6000 minutes 1 1379
9785 2020-Jan-18 09:21:10 market sale   ha3dmmrygyge 11/-13 andresymm111 axe, 6000 minutes 1 1199
9784 2020-Jan-18 08:46:51 market sale   koizumicomet -18/-03 franysfranys axe, 6000 minutes 1 930
9783 2020-Jan-18 08:37:01 market sale   gy3dmojqgege -01/03 amartinezm11 axe, 6000 minutes 1 1049
9782 2020-Jan-18 07:42:17 market sale   imranzakriya 05/25 haradrielb25 axe, 2700 minutes 1 449
9781 2020-Jan-18 05:31:19 market sale   bonanzahouse 05/01 progamer1111 axe, 6000 minutes 1 1379
9780 2020-Jan-18 02:54:41 market sale   kowalska1111 15/-03 mrmelonheads axe, 6000 minutes 1 940
9779 2020-Jan-18 01:04:42 market sale   johanewa1111 25/18 blacklantern axe, 6000 minutes 1 900
9778 2020-Jan-17 22:50:47 market sale   nmotwani2121 04/-20 alwinmerrill axe, 3800 minutes 1 550
9777 2020-Jan-17 22:50:30 market sale   nmotwani2121 04/-20 alwinmerrill axe, 3500 minutes 2 500
9776 2020-Jan-17 19:44:19 market sale   kowalska1111 15/-03 4321yamez321 axe, 6000 minutes 1 940
9775 2020-Jan-17 19:36:29 market sale   imranzakriya 05/25 lorrelinne15 axe, 2700 minutes 1 449
9774 2020-Jan-17 17:23:37 market sale   koizumicomet -18/-03 lin21lugobda axe, 6000 minutes 1 930
9773 2020-Jan-17 15:56:19 market sale   koizumicomet -18/-03 igorgol11.tp axe, 6000 minutes 3 930
9772 2020-Jan-17 07:34:24 market sale   aluminumcoin -18/-12 lussiypusiyi axe, 4730 minutes 1 700
9771 2020-Jan-17 07:34:12 market sale   aluminumcoin -18/-12 lussiypusiyi axe, 4042 minutes 1 630
9770 2020-Jan-17 03:58:39 market sale   tristan12345 -13/00 samchanda234 axe, 6000 minutes 1 1098
9769 2020-Jan-17 00:14:14 market sale   johanewa1111 25/18 g44denjrgige axe, 6000 minutes 1 900
9768 2020-Jan-16 17:28:22 market sale   koizumicomet -18/-03 lovezara1234 axe, 6000 minutes 1 930
9767 2020-Jan-16 16:56:32 market sale   semiflexible -23/-22 anormira1234 axe, 6000 minutes 1 2100
9766 2020-Jan-16 14:21:32 market sale   johanewa1111 25/18 faieos123451 axe, 6000 minutes 1 900
9765 2020-Jan-16 11:54:57 market sale   salmankhanss -03/12 lososwallet1 axe, 6000 minutes 1 897
9764 2020-Jan-16 11:36:22 market sale   johanewa1111 25/18 downupdownup axe, 6000 minutes 3 900
9763 2020-Jan-15 22:25:07 market sale   johanewa1111 25/18 anikybee1234 axe, 6000 minutes 4 900
9762 2020-Jan-15 21:40:21 market sale   sushilkumar2 -19/-01 omgweriam111 axe, 5100 minutes 1 720
9761 2020-Jan-15 19:38:20 market sale   lifeisahell2 -24/-15 lussiypusiyi axe, 6000 minutes 1 1000
9760 2020-Jan-15 17:05:33 market sale   tristan12345 -13/00 cryptogameco axe, 6000 minutes 1 1098
9759 2020-Jan-15 13:04:40 market sale   ha3dmmrygyge 11/-13 indersin2445 axe, 6000 minutes 1 1199
9758 2020-Jan-15 13:03:12 market sale   harlemjazzer 18/-22 indersin2445 axe, 4024 minutes 1 800
9757 2020-Jan-14 19:54:30 market sale   salmankhanss -03/12 anikybee1234 axe, 6000 minutes 2 897
9756 2020-Jan-14 15:48:53 market sale   narayana555g -06/06 ollidoll1352 axe, 1882 minutes 1 99
9755 2020-Jan-14 13:06:44 market sale   salmankhanss -03/12 sayutisayuti axe, 6000 minutes 3 897
9754 2020-Jan-14 07:21:34 market sale   tristan12345 -13/00 hamidusmaxim axe, 6000 minutes 1 1098
9753 2020-Jan-14 04:34:58 market sale   koizumicomet -18/-03 norfiescu234 axe, 6000 minutes 1 930
9752 2020-Jan-14 02:40:52 market sale   mastahgreyin 22/24 damianicash1 axe, 336 minutes 1 100
9751 2020-Jan-14 00:10:38 market sale   hurabasif111 -12/26 mishimishi11 axe, 4600 minutes 1 11900
9750 2020-Jan-13 23:14:59 market sale   shiku2413551 21/-20 daigorokoike axe, 2100 minutes 1 336
9749 2020-Jan-13 17:27:04 market sale   sumitgujjar1 -07/18 hericaine423 axe, 4814 minutes 1 500
9748 2020-Jan-13 17:08:31 market sale   shiku2413551 21/-20 lachiquive45 axe, 1003 minutes 1 157
9747 2020-Jan-13 13:28:44 market sale   salmankhanss -03/12 lenygabriele axe, 6000 minutes 1 897
9746 2020-Jan-13 12:31:34 market sale   eidolsmining 05/-22 govindkumar1 axe, 6000 minutes 1 1040
9745 2020-Jan-13 12:24:53 market sale   johanewa1111 25/18 anikybee1234 axe, 6000 minutes 4 933
9744 2020-Jan-13 09:42:37 market sale   gy2dsnbqgmge 06/-13 ehsanelahi11 axe, 3599 minutes 1 450
9743 2020-Jan-13 09:10:25 market sale   johanewa1111 09/-18 dario1cesaro axe, 6000 minutes 1 932
9742 2020-Jan-13 00:22:57 market sale   gy3dmojqgege -01/03 coachdigithc axe, 6000 minutes 2 1049
9741 2020-Jan-12 23:13:47 market sale   salmankhanss -03/12 downupdownup axe, 6000 minutes 1 897
9740 2020-Jan-12 21:58:26 market sale   shiku2413551 21/-20 marcosgil123 axe, 300 minutes 1 52
9739 2020-Jan-12 13:51:56 market sale   eostimbbo123 -13/27 1ctk3d5eosda axe, 6000 minutes 19 890
9738 2020-Jan-12 13:44:17 market sale   gy2dsnbqgmge 06/-13 1ctk3d5eosda axe, 6000 minutes 8 850
9737 2020-Jan-12 13:22:33 market sale   gy2dsnbqgmge 06/-13 arierockwell axe, 6000 minutes 3 850
9736 2020-Jan-12 13:21:28 market sale   aluminumcoin -18/-18 mikmikmikmik axe, 5480 minutes 1 810
9735 2020-Jan-12 13:20:30 market sale   tfphowgstz1y -13/-12 mikmikmikmik axe, 6000 minutes 2 1000
9734 2020-Jan-12 13:05:04 market sale   johanewa1111 09/-18 olgantovich1 axe, 6000 minutes 2 932
9733 2020-Jan-12 11:58:16 market sale   gy3dmojqgege -01/03 fmansuri5225 axe, 6000 minutes 1 1049
9732 2020-Jan-12 11:00:01 market sale   hurabasif111 -12/25 mishimishi11 axe, 1970 minutes 1 44900
9731 2020-Jan-12 10:05:39 market sale   salmankhanss -03/12 thang12qua12 axe, 6000 minutes 3 897
9730 2020-Jan-12 10:05:30 market sale   salmankhanss -03/12 thang12qua12 axe, 6000 minutes 3 897
9729 2020-Jan-12 05:58:19 market sale   eostimbbo123 -13/27 bagindamerbo axe, 6000 minutes 1 890
9728 2020-Jan-12 04:28:57 market sale   hezdinrugqge 03/-06 eurekamobile axe, 6000 minutes 2 850
9727 2020-Jan-11 22:58:51 market sale   harlemjazzer 18/-22 nestheroviap axe, 3900 minutes 1 550
9726 2020-Jan-11 22:27:39 market sale   hezdinrugqge 03/-06 wilenor12345 axe, 6000 minutes 1 850
9725 2020-Jan-11 22:15:16 market sale   harlemjazzer 18/-22 maxpowerized axe, 3840 minutes 1 500
9724 2020-Jan-11 22:05:11 market sale   danieldomams 22/19 hericaine423 axe, 140 minutes 1 49
9723 2020-Jan-11 15:07:19 market sale   1manfrommoon -07/17 siamsuperman axe, 6000 minutes 1 1
9722 2020-Jan-11 13:11:07 market sale   salmankhanss -03/12 anikybee1234 axe, 6000 minutes 5 897
9721 2020-Jan-11 09:48:39 market sale   hezdinrugqge 03/-06 anilkumarggg axe, 6000 minutes 1 850
9720 2020-Jan-11 09:14:05 market sale   selamatjalan 22/12 thebest33333 axe, 6000 minutes 10 850
9719 2020-Jan-11 06:43:58 market sale   gyydoobyhage 07/04 hananmaliki2 axe, 5700 minutes 1 800
9718 2020-Jan-11 01:33:26 market sale   sumitgujjar1 -05/08 dipshlappers axe, 6000 minutes 2 840
9717 2020-Jan-11 00:34:08 market sale   hezdinrugqge 03/-06 blueblu12345 axe, 6000 minutes 6 850
9716 2020-Jan-10 23:17:06 market sale   gy3dmojqgege -01/03 lorrelinne15 axe, 6000 minutes 1 1049
9715 2020-Jan-10 22:17:16 market sale   gy3dmojqgege -01/03 maxi15miran4 axe, 6000 minutes 1 1049
9714 2020-Jan-10 11:16:32 market sale   eostimbbo123 -13/27 appicsreward axe, 6000 minutes 8 890
9713 2020-Jan-10 07:12:15 market sale   johanewa1111 25/18 skinspecific axe, 6000 minutes 1 933
9712 2020-Jan-10 06:01:04 market sale   heavenlyidea 20/04 chandansahoo axe, 5403 minutes 1 620
9711 2020-Jan-10 04:37:08 market sale   mdjohuruli33 -20/22 rajveer12dec axe, 6000 minutes 3 1700
9710 2020-Jan-09 21:49:53 market sale   xcggeosacc13 -25/27 4ikrmcj1n3hx axe, 6000 minutes 1 889
9709 2020-Jan-09 20:09:07 market sale   johanewa1111 25/18 eos.heath.tp axe, 6000 minutes 3 933
9708 2020-Jan-08 20:46:58 market sale   gy3dmojqgege -01/03 alwinmerrill axe, 6000 minutes 1 1049
9707 2020-Jan-08 19:24:36 market sale   saravah12345 13/14 danmmariu.tp axe, 2880 minutes 1 370
9706 2020-Jan-08 14:20:27 market sale   eidolsmining 05/-22 superiorkv23 axe, 6000 minutes 1 1040
9705 2020-Jan-08 00:53:52 market sale   gy3dmojqgege -01/03 hotzenplotz5 axe, 6000 minutes 1 1049
9704 2020-Jan-07 21:06:34 market sale   patspeer1414 11/05 vatraxopodar axe, 6000 minutes 2 898
9703 2020-Jan-07 06:07:16 market sale   gold4man4eos -23/12 rayrajesh123 axe, 1980 minutes 1 300
9702 2020-Jan-06 23:58:10 market sale   gy3dmojqgege -01/03 maxi15miran4 axe, 6000 minutes 1 1049
9701 2020-Jan-06 21:25:42 market sale   opa4aaopa4aa -13/24 4321yamez321 axe, 1603 minutes 1 222
9700 2020-Jan-06 16:14:33 market sale   saravah12345 13/14 4321yamez321 axe, 3060 minutes 1 400
9699 2020-Jan-06 13:27:10 market sale   saravah12345 13/14 4321yamez321 axe, 2880 minutes 1 370
9698 2020-Jan-06 12:14:50 market sale   salmankhanss -03/12 hamidusmaxim axe, 6000 minutes 1 897
9697 2020-Jan-06 09:08:03 market sale   sophrosyne34 -19/07 stay2hungry1 axe, 3800 minutes 1 450
9696 2020-Jan-05 19:51:56 market sale   michaeleosio 02/-24 1om1nom1nom1 axe, 888 minutes 1 100
9695 2020-Jan-05 18:37:24 market sale   aluminumcoin -18/-18 mdsmdsmdsmds axe, 6000 minutes 4 800
9694 2020-Jan-05 17:41:40 market sale   gy3dmojqgege -01/03 soysebas1111 axe, 6000 minutes 12 1049
9693 2020-Jan-05 14:39:10 market sale   aluminumcoin -18/-18 animalslocer axe, 6000 minutes 1 899
9692 2020-Jan-05 11:23:54 market sale   amadmira4321 -18/-11 samchanda234 axe, 6000 minutes 1 899
9691 2020-Jan-05 10:40:20 market sale   aluminumcoin -18/-18 rajveer12dec axe, 6000 minutes 1 899
9690 2020-Jan-05 02:49:42 market sale   amadmira4321 -18/-11 cc1cftzakerd axe, 6000 minutes 1 899
9689 2020-Jan-04 21:10:24 market sale   tristan12345 -13/00 chandansahoo axe, 6000 minutes 1 1098
9688 2020-Jan-04 12:41:25 market sale   naddanparind 07/02 cesarmorles4 axe, 6000 minutes 3 1750
9687 2020-Jan-04 09:55:33 market sale   aluminumcoin -18/-18 jhonkarmaeos axe, 6000 minutes 1 899
9686 2020-Jan-04 01:44:21 market sale   aluminumcoin -18/-18 xnei3vectnox axe, 6000 minutes 1 899
9685 2020-Jan-04 00:04:08 market sale   harlemjazzer 18/-22 chuckiechuck axe, 3840 minutes 1 500
9684 2020-Jan-03 12:59:34 market sale   aluminumcoin -18/-18 abisurya1234 axe, 6000 minutes 3 899
9683 2020-Jan-03 12:23:55 market sale   amadmira4321 -18/-11 g44denjrgige axe, 6000 minutes 1 899
9682 2020-Jan-03 04:22:34 market sale   amadmira4321 -18/-11 poojarani4ju axe, 6000 minutes 3 899
9681 2020-Jan-03 04:05:58 market sale   sumitgujjar1 -05/08 baljeet25dec axe, 6000 minutes 3 898
9680 2020-Jan-02 18:29:13 market sale   saravah12345 13/14 victormolina axe, 3060 minutes 1 400
9679 2020-Jan-02 17:43:32 market sale   aluminumcoin -18/-18 mummiesgmail axe, 6000 minutes 1 899
9678 2020-Jan-02 16:34:38 market sale   damian123455 10/-16 rxhussain123 axe, 2700 minutes 1 350
9677 2020-Jan-02 14:03:39 market sale   eostimbbo123 -15/00 1ctk3d5eosda axe, 6000 minutes 47 850
9676 2020-Jan-02 10:39:41 market sale   harlemjazzer 18/-22 tasmt4acc123 axe, 3840 minutes 1 600
9675 2020-Jan-02 04:48:48 market sale   eostimbbo123 -15/00 lin21lugobda axe, 6000 minutes 1 850
9674 2020-Jan-02 04:25:26 market sale   gyydoobyhage 07/04 govindkumar1 axe, 4350 minutes 1 525
9673 2020-Jan-01 23:24:35 market sale   eidolsmining 05/-22 nufalfatih12 axe, 6000 minutes 1 1040
9672 2020-Jan-01 22:48:22 market sale   hurabasif111 -12/25 harisali2222 axe, 2860 minutes 1 3200
9671 2020-Jan-01 21:50:36 market sale   eossuperhans 13/-10 123sanjapopo axe, 6000 minutes 1 1700
9670 2020-Jan-01 14:41:11 market sale   eossuperhans 13/-10 aboyousef123 axe, 6000 minutes 1 1700
9669 2020-Jan-01 13:42:41 market sale   awesumfaraz5 02/26 stay2hungry1 axe, 90 minutes 1 50
9668 2020-Jan-01 13:00:24 market sale   wakaiacerse1 03/-23 hassaan12344 axe, 1200 minutes 1 170
9667 2020-Jan-01 12:32:09 market sale   harlemjazzer 18/-22 chandansahoo axe, 3900 minutes 1 620
9666 2020-Jan-01 10:49:32 market sale   crusader4351 27/19 stay2hungry1 axe, 600 minutes 2 150
9665 2020-Jan-01 09:00:14 market sale   eidolsmining 05/-22 harpreetgold axe, 6000 minutes 1 1040
9664 2020-Jan-01 02:53:25 market sale   patspeer1414 11/05 mrmelonheads axe, 6000 minutes 3 900
9663 2019-Dec-31 21:18:49 market sale   salmankhanss -03/12 sayutisayuti axe, 6000 minutes 2 1100
9662 2019-Dec-31 19:19:44 market sale   eostimbbo123 -15/00 anikybee1234 axe, 6000 minutes 10 900
9661 2019-Dec-31 10:19:39 market sale   selamatjalan 22/12 aboyousef123 axe, 6000 minutes 1 1200
9660 2019-Dec-31 06:21:05 market sale   gy3dmojqgege -21/18 rxhussain123 axe, 893 minutes 1 149
9659 2019-Dec-30 20:41:50 market sale   saravah12345 13/14 nestheroviap axe, 3160 minutes 1 400
9658 2019-Dec-30 19:39:47 market sale   kowalska1111 00/23 snehalghosh1 axe, 6000 minutes 5 222
9657 2019-Dec-30 18:09:33 market sale   saravah12345 13/14 haradrielb25 axe, 2880 minutes 1 350
9656 2019-Dec-30 15:43:42 market sale   johanewa1111 27/08 greenforests axe, 6000 minutes 6 1111
9655 2019-Dec-30 12:47:01 market sale   salmankhanss -03/12 airdropemmy1 axe, 6000 minutes 2 998
9654 2019-Dec-30 10:03:35 market sale   salmankhanss -03/12 soul11maxone axe, 6000 minutes 1 998
9653 2019-Dec-30 03:39:02 market sale   salmankhanss -03/12 criptosonido axe, 6000 minutes 1 998
9652 2019-Dec-30 02:09:22 market sale   salmankhanss -03/12 biejiarui.tp axe, 6000 minutes 1 998
9651 2019-Dec-29 21:21:52 market sale   amadmira4321 -18/-11 samamad21.tp axe, 6000 minutes 1 1000
9650 2019-Dec-29 21:21:41 market sale   amadmira4321 -18/-11 samamad21.tp axe, 6000 minutes 1 1000
9649 2019-Dec-29 18:39:55 market sale   salmankhanss -03/12 revederyrave axe, 6000 minutes 1 998
9648 2019-Dec-29 15:37:36 market sale   maejur123451 -17/-24 just4creator axe, 6000 minutes 1 1099
9647 2019-Dec-29 10:10:46 market sale   tfphowgstz1y -13/-12 dario1cesaro axe, 6000 minutes 1 1000
9646 2019-Dec-28 23:37:58 market sale   wakaiacerse1 03/-23 luciano12344 axe, 1080 minutes 1 160
9645 2019-Dec-28 21:06:12 market sale   johanewa1111 09/-18 rajveer12dec axe, 6000 minutes 1 1077
9644 2019-Dec-28 20:21:22 market sale   gy3dmojqgege -01/03 drizzttt2132 axe, 6000 minutes 3 1049
9643 2019-Dec-28 20:18:15 market sale   gy3dmojqgege -01/03 drizzttt2132 axe, 6000 minutes 3 1049
9642 2019-Dec-28 19:31:28 market sale   salmankhanss -03/12 badrussaliss axe, 6000 minutes 3 998
9641 2019-Dec-28 19:25:45 market sale   lifeisahell2 -24/-15 androidereos axe, 6000 minutes 1 1000
9640 2019-Dec-28 16:57:11 market sale   salmankhanss -03/12 aume1rrpmp51 axe, 6000 minutes 2 998
9639 2019-Dec-28 06:17:00 market sale   salmankhanss -03/12 marhabaneos1 axe, 6000 minutes 1 998
9638 2019-Dec-28 03:57:31 market sale   wakaiacerse1 03/-23 asef11111111 axe, 960 minutes 1 140
9637 2019-Dec-28 03:15:39 market sale   salmankhanss -03/12 anikybee1234 axe, 6000 minutes 1 998
9636 2019-Dec-28 01:53:52 market sale   superw4lox11 -12/21 jannismalave axe, 6000 minutes 1 1799
9635 2019-Dec-27 22:03:33 market sale   mdjohuruli33 -20/22 hezdsmjqhage axe, 6000 minutes 1 1800
9634 2019-Dec-27 17:31:40 market sale   sumitgujjar1 -05/08 hungtruongvl axe, 6000 minutes 1 999
9633 2019-Dec-27 16:42:26 market sale   wakaiacerse1 03/-23 asef11111111 axe, 960 minutes 1 140
9632 2019-Dec-27 14:21:15 market sale   tfphowgstz1y -13/-12 xnei3vectnox axe, 6000 minutes 1 1000
9631 2019-Dec-27 13:01:32 market sale   amadmira4321 -18/-11 samchanda234 axe, 2400 minutes 1 1000
9630 2019-Dec-27 10:36:54 market sale   tristan12345 -13/00 alltagskohle axe, 6000 minutes 1 1098
9629 2019-Dec-27 10:33:12 market sale   sumitgujjar1 -05/08 iamleaf22345 axe, 6000 minutes 1 999
9628 2019-Dec-27 09:31:56 market sale   gy3dmojqgege -01/03 drizzttt2132 axe, 6000 minutes 3 1049
9627 2019-Dec-27 07:55:59 market sale   gy3dmojqgege -01/03 espressooooo axe, 6000 minutes 2 1049
9626 2019-Dec-27 00:02:14 market sale   eidolsmining 05/-22 eddyporras13 axe, 6000 minutes 1 1040
9625 2019-Dec-26 21:45:13 market sale   wakaiacerse1 03/-23 asef11111111 axe, 960 minutes 1 140
9624 2019-Dec-26 21:26:44 market sale   sumitgujjar1 -05/08 doughnut2345 axe, 6000 minutes 2 999
9623 2019-Dec-26 16:33:56 market sale   wakaiacerse1 03/-23 maximusalive axe, 1200 minutes 1 180
9622 2019-Dec-26 08:36:13 market sale   gy3dmojqgege -01/03 espressooooo axe, 6000 minutes 2 1049
9621 2019-Dec-26 03:54:13 market sale   aluminumcoin -18/-12 asef11111111 axe, 1100 minutes 1 1
9620 2019-Dec-26 03:40:16 market sale   tfphowgstz1y -13/-12 hananmaliki2 axe, 6000 minutes 1 1000
9619 2019-Dec-26 01:42:56 market sale   chiriguitave -15/18 lagrange1234 axe, 6000 minutes 1 920
9618 2019-Dec-26 01:06:08 market sale   hurabasif111 -12/25 faizansohail axe, 4660 minutes 1 68140
9617 2019-Dec-26 00:47:20 market sale   tristan12345 -13/00 laylaylaylay axe, 6000 minutes 1 1098
9616 2019-Dec-25 16:22:27 market sale   sumitgujjar1 -05/08 mummiesgmail axe, 6000 minutes 1 999
9615 2019-Dec-25 15:41:04 market sale   jennytopkpop 04/04 rotiv3zezere axe, 6000 minutes 1 850
9614 2019-Dec-25 15:39:04 market sale   yahyarafikha -01/09 rotiv3zezere axe, 6000 minutes 2 1500
9613 2019-Dec-25 08:55:17 market sale   ahmadrahmat1 09/-23 jembutkuda12 axe, 3900 minutes 1 700
9612 2019-Dec-25 07:58:43 market sale   gy3dmojqgege -01/03 vitfim1efimo axe, 6000 minutes 1 1049
9611 2019-Dec-25 07:58:25 market sale   gy3dmojqgege -01/03 vitfim1efimo axe, 6000 minutes 1 1049
9610 2019-Dec-25 06:46:39 market sale   firozmansuri 15/01 haradrielb25 axe, 1500 minutes 1 210
9609 2019-Dec-25 06:41:28 market sale   jennytopkpop 04/04 indonesiaz13 axe, 6000 minutes 1 850
9608 2019-Dec-25 06:06:46 market sale   jennytopkpop 04/04 minergateeos axe, 6000 minutes 1 850
9607 2019-Dec-25 03:54:02 market sale   jennytopkpop 04/04 yajirang1234 axe, 6000 minutes 2 850
9606 2019-Dec-25 01:34:27 market sale   arkadic45555 -07/06 androidereos axe, 5520 minutes 1 900
9605 2019-Dec-25 01:01:48 market sale   nylthads1234 26/10 indonesiaz13 axe, 5280 minutes 1 850
9604 2019-Dec-24 22:45:03 market sale   chiriguitave -15/18 martynkoteee axe, 2400 minutes 1 368
9603 2019-Dec-24 14:17:47 market sale   alltokenmrjl 00/-23 doomakos3452 axe, 6000 minutes 1 1267
9602 2019-Dec-24 12:21:00 market sale   gy3dmojqgege -01/03 kirakiradong axe, 6000 minutes 1 1049
9601 2019-Dec-24 11:38:40 market sale   chiriguitave -15/18 martynkoteee axe, 2208 minutes 1 300
9600 2019-Dec-24 11:30:20 market sale   tristan12345 -13/00 donisubroto1 axe, 6000 minutes 1 1098
9599 2019-Dec-24 11:22:37 market sale   alltokenmrjl 00/-23 shotcaller43 axe, 6000 minutes 1 1267
9598 2019-Dec-24 10:55:17 market sale   klimanskiy22 -25/05 kontoljaran1 axe, 4756 minutes 1 675
9597 2019-Dec-24 09:48:29 market sale   alltokenmrjl 00/-23 nylthads1234 axe, 6000 minutes 1 1267
9596 2019-Dec-24 09:47:02 market sale   ahmadrahmat1 09/-23 nylthads1234 axe, 4500 minutes 1 700
9595 2019-Dec-24 08:40:26 market sale   machwire4eos -03/-03 haradrielb25 axe, 2750 minutes 1 500
9594 2019-Dec-24 07:12:04 market sale   sumitgujjar1 -05/08 1jomolungma1 axe, 6000 minutes 4 999
9593 2019-Dec-24 06:15:34 market sale   sanya13joker -22/-09 tukangkayu12 axe, 3000 minutes 1 500
9592 2019-Dec-24 05:59:17 market sale   sumitgujjar1 -05/08 crypto2damoo axe, 6000 minutes 1 999
9591 2019-Dec-24 05:51:33 market sale   klimanskiy22 -25/05 moosgenerous axe, 6000 minutes 1 899
9590 2019-Dec-24 04:59:20 market sale   hezdinrugqge 03/-06 gq4danzvgyge axe, 6000 minutes 1 850
9589 2019-Dec-24 04:57:29 market sale   yahyarafikha -01/09 wolleosgames axe, 6000 minutes 1 780
9588 2019-Dec-24 02:56:11 market sale   tristan12345 -13/00 donisubroto1 axe, 6000 minutes 1 1098
9587 2019-Dec-24 02:55:41 market sale   tristan12345 -13/00 donisubroto1 axe, 6000 minutes 2 1098
9586 2019-Dec-24 00:19:10 market sale   freedomeze12 23/06 martynkoteee axe, 580 minutes 1 95
9585 2019-Dec-24 00:05:12 market sale   bonanzahouse 05/01 daniela5dany axe, 6000 minutes 1 1379
9584 2019-Dec-23 22:06:50 market sale   hezdinrugqge 03/-06 gu3tinjxgage axe, 6000 minutes 1 850
9583 2019-Dec-23 22:06:01 market sale   hezdinrugqge 03/-06 gu3tinjxgage axe, 6000 minutes 2 850
9582 2019-Dec-23 18:14:05 market sale   hezdinrugqge 03/-06 lussiypusiyi axe, 6000 minutes 3 850
9581 2019-Dec-23 15:50:17 market sale   quocvuong252 18/12 k1234512345n axe, 6000 minutes 2 750
9580 2019-Dec-23 08:08:41 market sale   yahyarafikha -01/09 gamesacc1525 axe, 6000 minutes 1 780
9579 2019-Dec-23 07:43:07 market sale   hezdinrugqge 03/-06 indonesiaz13 axe, 6000 minutes 1 950
9578 2019-Dec-23 07:41:12 market sale   hezdinrugqge 03/-06 indonesiaz13 axe, 6000 minutes 1 950
9577 2019-Dec-23 06:50:42 market sale   klimanskiy22 -25/05 indonesiaz11 axe, 4845 minutes 1 670
9576 2019-Dec-23 06:49:32 market sale   chiriguitave 14/04 snehalghosh1 axe, 2040 minutes 1 200
9575 2019-Dec-23 04:40:57 market sale   tristan12345 -13/00 wilitta12121 axe, 6000 minutes 1 1098
9574 2019-Dec-23 04:32:34 market sale   superw4lox11 -12/21 kriptonic115 axe, 6000 minutes 1 1799
9573 2019-Dec-23 04:14:57 market sale   mycryptoland -19/-23 kriptonic115 axe, 2100 minutes 1 300
9572 2019-Dec-23 04:14:46 market sale   mycryptoland -19/-23 kriptonic115 axe, 2390 minutes 1 200
9571 2019-Dec-23 03:49:08 market sale   hezdinrugqge 03/-06 magnet111111 axe, 6000 minutes 1 950
9570 2019-Dec-23 03:27:57 market sale   yahyarafikha -01/09 iamleaf22345 axe, 6000 minutes 1 780
9569 2019-Dec-22 23:51:48 market sale   knightshadow 17/-12 anikybee1234 axe, 6000 minutes 3 950
9568 2019-Dec-22 23:43:20 market sale   freedomeze12 23/06 androidereos axe, 5084 minutes 1 400
9567 2019-Dec-22 12:02:25 market sale   superw4lox11 -12/21 suitconsider axe, 6000 minutes 1 1799
9566 2019-Dec-22 09:38:46 market sale   sumitgujjar1 -05/08 danieldoteos axe, 6000 minutes 1 999
9565 2019-Dec-22 09:03:04 market sale   g43dmnrygyge -02/-18 1ctk3d5eosda axe, 1755 minutes 1 250
9564 2019-Dec-22 06:06:11 market sale   azebahmadsss -13/-23 eosmeetone34 axe, 4500 minutes 1 500
9563 2019-Dec-22 03:17:48 market sale   yahyarafikha -01/09 suitconsider axe, 6000 minutes 1 1500
9562 2019-Dec-22 03:15:39 market sale   prospectorac -14/-06 1yzvdoko51dv axe, 6000 minutes 1 930
9561 2019-Dec-22 03:12:44 market sale   tristan12345 -13/00 thorminerr33 axe, 6000 minutes 1 1098
9560 2019-Dec-22 02:21:48 market sale   mycryptoland -19/-23 androidereos axe, 675 minutes 1 25
9559 2019-Dec-22 01:57:23 market sale   pepperoniss1 21/-07 jureczekwnet axe, 6000 minutes 6 1
9558 2019-Dec-21 22:57:41 market sale   priyanshu123 04/17 manopinigime axe, 430 minutes 1 50
9557 2019-Dec-21 20:16:01 market sale   priyanshu123 04/17 eosmeetone34 axe, 2749 minutes 1 300
9556 2019-Dec-21 20:10:05 market sale   prospectorac -14/-06 eosmeetone34 axe, 5700 minutes 1 199
9555 2019-Dec-21 19:22:20 market sale   mycryptoland -19/-23 supermanz123 axe, 4200 minutes 1 450
9554 2019-Dec-21 19:20:52 market sale   tribalman321 -01/24 jojo12345.m axe, 6000 minutes 1 1500
9553 2019-Dec-21 18:03:32 market sale   prospectorac 00/-24 ha2tcobtgege axe, 6000 minutes 3 998
9552 2019-Dec-21 17:55:13 market sale   tribalman321 -01/24 tribalguy123 axe, 6000 minutes 1 1500
9551 2019-Dec-21 16:15:49 market sale   sumitgujjar1 -05/08 steemporras1 axe, 6000 minutes 2 999
9550 2019-Dec-21 14:26:21 market sale   gy3dmojqgege -01/03 indonesiaz11 axe, 6000 minutes 1 1049
9549 2019-Dec-21 13:07:22 market sale   salmankhanss -03/12 tribalman321 axe, 6000 minutes 4 1100
9548 2019-Dec-21 11:30:10 market sale   mycryptoland -19/-23 indonesiaz11 axe, 4200 minutes 1 450
9547 2019-Dec-21 08:53:00 market sale   salmankhanss -03/12 mnipks333333 axe, 6000 minutes 3 1100
9546 2019-Dec-21 08:37:16 market sale   loveyougullu 27/-19 luvhpluv2311 axe, 6000 minutes 1 900
9545 2019-Dec-21 06:23:42 market sale   gravityalive 20/26 danielwisuda axe, 2700 minutes 1 400
9544 2019-Dec-21 05:21:11 market sale   tanbvdh12345 -20/-20 1mycrypto213 axe, 3980 minutes 1 1000
9543 2019-Dec-21 04:46:05 market sale   jackandisuky 21/27 hospital4221 axe, 6000 minutes 1 1000
9542 2019-Dec-21 03:11:51 market sale   dreamkoooooo 23/-22 dariuska1155 axe, 2775 minutes 1 450
9541 2019-Dec-20 22:22:15 market sale   tfphowgstz1y -13/-12 criptosonido axe, 6000 minutes 1 1000
9540 2019-Dec-20 17:19:58 market sale   salmankhanss -03/12 subboch2pros axe, 6000 minutes 1 1100
9539 2019-Dec-20 16:10:52 market sale   quiver.com -09/-03 patspeer1414 axe, 6000 minutes 5 999
9538 2019-Dec-20 14:53:23 market sale   hezdinrugqge 03/-06 saravah12345 axe, 6000 minutes 6 950
9537 2019-Dec-20 09:05:54 market sale   razorecks.tp 10/08 klimanskiy22 axe, 6000 minutes 1 800
9536 2019-Dec-20 09:05:18 market sale   mycryptoland -19/-23 klimanskiy22 axe, 5100 minutes 1 500
9535 2019-Dec-20 09:05:09 market sale   razorecks.tp 10/08 klimanskiy22 axe, 6000 minutes 1 800
9534 2019-Dec-20 03:08:29 market sale   motngaynang1 -02/-22 gq4danzvgyge axe, 6000 minutes 2 700
9533 2019-Dec-19 23:33:50 market sale   playaccount1 -02/-01 luismarin123 axe, 6000 minutes 1 2499
9532 2019-Dec-19 21:58:36 market sale   gravityalive 15/17 kasehatinez1 axe, 600 minutes 1 50
9531 2019-Dec-19 17:47:24 market sale   lethang12345 -02/-22 slavenkiyyyy axe, 6000 minutes 1 800
9530 2019-Dec-19 13:35:11 market sale   tribalman321 -01/24 afrominers12 axe, 3004 minutes 1 1200
9529 2019-Dec-19 13:29:32 market sale   tribalman321 -01/24 jojo12345.m axe, 3654 minutes 1 700
9528 2019-Dec-19 13:25:59 market sale   tribalman321 -01/24 jojo12345.m axe, 6000 minutes 1 1500
9527 2019-Dec-19 13:25:47 market sale   tribalman321 -01/24 tribalguy123 axe, 6000 minutes 2 1500
9526 2019-Dec-18 13:27:19 market sale   salmankhanss -03/12 subboch2pros axe, 6000 minutes 2 1100
9525 2019-Dec-18 05:06:12 market sale   kjmysterious -23/-13 nestheroviap axe, 2066 minutes 1 299
9524 2019-Dec-18 04:30:42 market sale   bonanzahouse 05/01 lorrelinne15 axe, 6000 minutes 1 1379
9523 2019-Dec-18 03:10:42 market sale   gy3dmojqgege -01/03 nestheroviap axe, 6000 minutes 1 1049
9522 2019-Dec-18 02:25:20 market sale   gy3dmojqgege -01/03 mnidkyfc3333 axe, 6000 minutes 2 1049
9521 2019-Dec-18 01:49:18 market sale   salmankhanss -03/12 lowrider3244 axe, 6000 minutes 3 1100
9520 2019-Dec-18 01:45:51 market sale   adrianoeletr 17/-21 chandansahoo axe, 4500 minutes 1 650
9519 2019-Dec-17 21:45:21 market sale   g43dmnrygyge -02/-18 edithbdraw11 axe, 4761 minutes 1 350
9518 2019-Dec-17 18:53:04 market sale   salmankhanss -03/12 lowrider3244 axe, 6000 minutes 3 1100
9517 2019-Dec-17 11:01:01 market sale   salmankhanss -03/12 shabana11223 axe, 6000 minutes 1 1100
9516 2019-Dec-17 03:11:10 market sale   mdjohuruli33 -20/22 suitconsider axe, 6000 minutes 1 1950
9515 2019-Dec-17 01:27:40 market sale   sanya13joker -22/-09 klimanskiy22 axe, 3600 minutes 1 500
9514 2019-Dec-17 01:27:19 market sale   kjmysterious -23/-13 klimanskiy22 axe, 4500 minutes 1 450
9513 2019-Dec-17 01:27:10 market sale   kjmysterious -23/-13 klimanskiy22 axe, 4800 minutes 1 450
9512 2019-Dec-16 23:23:48 market sale   freeoooooooo 04/13 anikybee1234 axe, 6000 minutes 3 1199
9511 2019-Dec-16 23:09:36 market sale   freeoooooooo 04/13 megapixel123 axe, 6000 minutes 1 1199
9510 2019-Dec-16 18:27:42 market sale   hezdinrugqge 03/-06 shabana11223 axe, 6000 minutes 1 1050
9509 2019-Dec-16 14:27:36 market sale   hezdinrugqge 03/-06 fransemilpbs axe, 6000 minutes 2 1050
9508 2019-Dec-16 13:50:12 market sale   gy3dmojqgege -01/03 dearfriendss axe, 6000 minutes 2 1049
9507 2019-Dec-16 12:12:06 market sale   vishalshaw25 10/-26 donisubroto1 axe, 3620 minutes 1 490
9506 2019-Dec-16 11:47:40 market sale   sushilkumar2 02/-09 donisubroto1 axe, 1400 minutes 1 110
9505 2019-Dec-16 08:36:05 market sale   gy3dmojqgege -01/03 lenygabriele axe, 6000 minutes 1 1049
9504 2019-Dec-16 02:18:06 market sale   priyanshu123 04/17 iloveumaa.tp axe, 3900 minutes 1 500
9503 2019-Dec-16 01:29:01 market sale   gy3dmojqgege -01/03 lorenzznerol axe, 6000 minutes 1 1049
9502 2019-Dec-16 00:47:23 market sale   gy3dmojqgege -01/03 yajirang1234 axe, 6000 minutes 1 1049
9501 2019-Dec-15 21:59:02 market sale   freeoooooooo 04/13 anikybee1234 axe, 6000 minutes 3 1199
9500 2019-Dec-15 19:53:15 market sale   gy3dmojqgege -01/03 hrhmikelent1 axe, 6000 minutes 1 1049
9499 2019-Dec-15 19:49:51 market sale   gy3dmojqgege -01/03 reydelaselva axe, 6000 minutes 1 1049
9498 2019-Dec-15 18:58:39 market sale   machwire4eos -03/-03 izaakgoldman axe, 4413 minutes 1 500
9497 2019-Dec-15 18:18:13 market sale   callmemadman -17/-18 edithbdraw11 axe, 4200 minutes 1 250
9496 2019-Dec-15 18:00:02 market sale   hezdinrugqge 03/-06 lososwallet1 axe, 6000 minutes 1 1050
9495 2019-Dec-15 17:33:31 market sale   gy3dmojqgege -01/03 shabana11223 axe, 6000 minutes 1 1049
9494 2019-Dec-15 12:55:34 market sale   gy3dmojqgege -01/03 sktkdgns2121 axe, 6000 minutes 1 1049
9493 2019-Dec-15 12:52:40 market sale   gy3dmojqgege -01/03 g44denjrgige axe, 6000 minutes 1 1049
9492 2019-Dec-15 12:52:31 market sale   shshshsjsjsh -15/16 g44denjrgige axe, 6000 minutes 1 1000
9491 2019-Dec-15 05:46:12 market sale   mycryptoland -19/-23 smokersh5153 axe, 1800 minutes 1 200
9490 2019-Dec-15 03:01:52 market sale   gy3dmojqgege -01/03 ruinedheart1 axe, 6000 minutes 6 1049
9489 2019-Dec-15 00:47:52 market sale   ravindra1234 07/18 kronicblazer axe, 4380 minutes 1 600
9488 2019-Dec-14 21:52:35 market sale   ravindra1234 07/18 kronicblazer axe, 4240 minutes 1 500
9487 2019-Dec-14 19:21:02 market sale   gy3dmojqgege -01/03 prospectorwg axe, 6000 minutes 26 1097
9486 2019-Dec-14 17:29:15 market sale   tristan12345 -13/00 mummiesgmail axe, 6000 minutes 1 1098
9485 2019-Dec-14 10:53:41 market sale   gy3dmojqgege -01/03 safwadiiiiii axe, 6000 minutes 3 1097
9484 2019-Dec-14 09:04:39 market sale   amadmira4321 -18/-11 yajirang1234 axe, 6000 minutes 1 930
9483 2019-Dec-14 02:19:50 market sale   ravindra1234 07/18 m3yl4n4pr1l1 axe, 6000 minutes 2 900
9482 2019-Dec-14 00:21:54 market sale   amadmira4321 -18/-11 ahmadrahmat1 axe, 6000 minutes 1 930
9481 2019-Dec-13 19:57:18 market sale   mycryptoland -19/-23 ivanvelazque axe, 2700 minutes 1 400
9480 2019-Dec-13 19:54:15 market sale   dreamkoooooo 23/-22 ivanvelazque axe, 2950 minutes 1 350
9479 2019-Dec-13 19:16:25 market sale   freeoooooooo 04/13 razorecks.tp axe, 6000 minutes 2 1199
9478 2019-Dec-13 17:49:09 market sale   ha3dmmrygyge 11/-13 prospectorwg axe, 6000 minutes 10 1299
9477 2019-Dec-13 16:27:24 market sale   gy3dmojqgege -01/03 mdsmdsmdsmds axe, 6000 minutes 18 849
9476 2019-Dec-13 15:51:06 market sale   mikmikmikmik -20/12 charmcontrol axe, 6000 minutes 1 700
9475 2019-Dec-13 14:49:16 market sale   gy3dmojqgege -01/03 patspeer1414 axe, 6000 minutes 1 849
9474 2019-Dec-13 13:23:55 market sale   hananmaliki2 -11/21 chandansahoo axe, 6000 minutes 2 700
9473 2019-Dec-13 10:26:57 market sale   k1234512345n 11/05 smokersh5153 axe, 838 minutes 1 60
9472 2019-Dec-13 10:13:12 market sale   vazrieleos11 10/-16 tribalman321 axe, 6000 minutes 2 800
9471 2019-Dec-13 09:23:47 market sale   gy3dmojqgege -01/03 maejur123451 axe, 6000 minutes 10 849
9470 2019-Dec-13 08:43:23 market sale   hananmaliki2 -11/21 yajirang1234 axe, 6000 minutes 1 700
9469 2019-Dec-13 07:01:36 market sale   georgepulido -10/-10 tfphowgstz1y axe, 6000 minutes 4 680
9468 2019-Dec-13 04:34:04 market sale   azebahmadsss -13/-23 bigrollsmoke axe, 1860 minutes 1 200
9467 2019-Dec-13 02:44:29 market sale   k1234512345n 11/05 bitcoincoimb axe, 4812 minutes 1 500
9466 2019-Dec-12 18:47:13 market sale   tristan12345 -13/00 procuratoros axe, 6000 minutes 1 1098
9465 2019-Dec-12 17:54:07 market sale   sahazvarithc -18/12 1ctk3d5eosda axe, 6000 minutes 7 700
9464 2019-Dec-12 17:51:06 market sale   sahazvarithc -18/12 razorecks.tp axe, 6000 minutes 2 700
9463 2019-Dec-12 17:35:28 market sale   eos23ujzmlig 01/11 iloveumaa.tp axe, 4917 minutes 1 400
9462 2019-Dec-12 17:34:48 market sale   k1234512345n 11/05 iloveumaa.tp axe, 3260 minutes 1 230
9461 2019-Dec-12 16:58:49 market sale   hananmaliki2 -11/21 steemporras1 axe, 6000 minutes 1 700
9460 2019-Dec-12 15:55:50 market sale   temilagszyyy 16/-04 lomoblomlom1 axe, 6000 minutes 2 790
9459 2019-Dec-12 12:25:45 market sale   mixeoswallet 10/-22 eosforever45 axe, 2880 minutes 1 299
9458 2019-Dec-12 07:58:34 market sale   mikmikmikmik -20/12 sultaneospro axe, 6000 minutes 4 700
9457 2019-Dec-12 04:26:43 market sale   1manfrommoon -07/17 1greatminer1 axe, 6000 minutes 1 15000
9456 2019-Dec-12 04:12:54 market sale   dreamkoooooo 23/-22 wolfsevenwol axe, 2400 minutes 1 280
9455 2019-Dec-12 03:35:16 market sale   hananmaliki2 -11/21 drunkmoon115 axe, 6000 minutes 1 700
9454 2019-Dec-12 00:59:32 market sale   eos23ujzmlig 01/11 darthdimsky1 axe, 5000 minutes 2 400
9453 2019-Dec-11 20:43:45 market sale   mikmikmikmik -20/12 davidaemon12 axe, 6000 minutes 9 675
9452 2019-Dec-11 20:28:34 market sale   salmankhanss -03/12 eosramirico2 axe, 6000 minutes 2 1200
9451 2019-Dec-11 17:26:42 market sale   mikmikmikmik -20/12 niksingh1111 axe, 6000 minutes 5 675
9450 2019-Dec-11 17:25:33 market sale   hezdinrugqge 03/-06 niksingh1111 axe, 6000 minutes 10 650
9449 2019-Dec-11 13:18:41 market sale   k1234512345n 11/05 marcrypto111 axe, 4359 minutes 1 615
9448 2019-Dec-11 10:31:56 market sale   hezdinrugqge 03/-06 sendmoney2me axe, 6000 minutes 1 675
9447 2019-Dec-11 10:10:20 market sale   hezdinrugqge 03/-06 gy3dqnrxguge axe, 6000 minutes 1 675
9446 2019-Dec-11 05:44:30 market sale   ingvvarreoos 12/-09 razeshshrest axe, 20 minutes 1 20
9445 2019-Dec-11 00:45:33 market sale   salmankhanss -03/12 eosgames2345 axe, 6000 minutes 1 1200
9444 2019-Dec-10 21:07:33 market sale   ahmadrahmat1 09/-21 hephesto3311 axe, 3072 minutes 1 345
9443 2019-Dec-10 16:46:27 market sale   xcggeosacc13 27/19 kronicblazer axe, 3300 minutes 1 100
9442 2019-Dec-10 14:39:23 market sale   xcggeosacc13 27/19 vladop121212 axe, 3300 minutes 1 100
9441 2019-Dec-10 13:15:29 market sale   ahmadrahmat1 09/-23 bitcoinportu axe, 4433 minutes 1 550
9440 2019-Dec-10 11:08:45 market sale   sahazvarithc -18/12 aniuskaamr11 axe, 6000 minutes 1 700
9439 2019-Dec-10 10:08:48 market sale   xcggeosacc13 27/19 yukaryukaryu axe, 2426 minutes 1 100
9438 2019-Dec-10 06:57:03 market sale   hezdinrugqge 03/-06 cohlsonworld axe, 6000 minutes 4 675
9437 2019-Dec-10 00:18:58 market sale   hezdinrugqge 03/-06 eddyporras13 axe, 6000 minutes 1 675
9436 2019-Dec-09 23:40:22 market sale   narayana444g -13/-17 mdsmdsmdsmds axe, 6000 minutes 10 555
9435 2019-Dec-09 17:43:41 market sale   zahirlehri11 -01/09 mdsmdsmdsmds axe, 6000 minutes 41 600
9434 2019-Dec-09 13:54:24 market sale   zahirlehri11 -01/09 bnr524422515 axe, 6000 minutes 3 670
9433 2019-Dec-09 13:20:49 market sale   ha3dmmrygyge 11/-13 hospital4221 axe, 6000 minutes 1 1299
9432 2019-Dec-09 09:49:33 market sale   johnediii2nd 19/22 govindkumar1 axe, 4947 minutes 1 600
9431 2019-Dec-08 20:24:16 market sale   sahazvarithc -18/12 ohikhena1515 axe, 6000 minutes 1 700
9430 2019-Dec-08 13:07:50 market sale   kjmysterious -23/-13 aghoezuchiha axe, 380 minutes 1 100
9429 2019-Dec-08 11:36:02 market sale   hezdinrugqge 03/-06 shotcaller43 axe, 6000 minutes 1 800
9428 2019-Dec-08 11:07:16 market sale   ducthang22sa -11/27 wilitta12121 axe, 6000 minutes 1 1414
9427 2019-Dec-08 10:01:58 market sale   temilagszyyy 16/-04 kronicblazer axe, 4200 minutes 1 250
9426 2019-Dec-08 09:42:03 market sale   temilagszyyy 16/-04 yukaryukaryu axe, 4200 minutes 1 250
9425 2019-Dec-08 00:19:26 market sale   salmankhanss -07/27 binancequeen axe, 6000 minutes 1 1400
9424 2019-Dec-07 21:06:00 market sale   zahirlehri11 -01/09 blessedman33 axe, 6000 minutes 2 879
9423 2019-Dec-07 20:08:55 market sale   zahirlehri11 -01/09 hmeaworld121 axe, 6000 minutes 9 879
9422 2019-Dec-07 19:54:54 market sale   zahirlehri11 -01/09 jonathaneos1 axe, 6000 minutes 1 879
9421 2019-Dec-07 18:32:04 market sale   gy3dmojqgege -01/03 safwadiiiiii axe, 6000 minutes 2 942
9420 2019-Dec-07 18:30:39 market sale   fichozzking1 -19/-04 askeladdgold axe, 3750 minutes 1 445
9419 2019-Dec-07 17:52:08 market sale   ducthang22sa -11/27 alexalexale1 axe, 6000 minutes 1 1414
9418 2019-Dec-07 16:35:35 market sale   fichozzking1 -18/12 dimasinone13 axe, 6000 minutes 1 880
9417 2019-Dec-07 14:25:39 market sale   hezdinrugqge 03/-06 temilagszyyy axe, 6000 minutes 2 900
9416 2019-Dec-07 14:07:03 market sale   salmankhanss -07/27 binancequeen axe, 6000 minutes 2 1400
9415 2019-Dec-07 11:10:36 market sale   quiver.com -09/-03 ezigoldminer axe, 6000 minutes 1 1199
9414 2019-Dec-07 09:35:03 market sale   amadmira4321 -18/-11 marlincrypto axe, 6000 minutes 1 930
9413 2019-Dec-07 08:59:13 market sale   amadmira4321 -18/-11 sohaileos123 axe, 6000 minutes 1 930
9412 2019-Dec-07 08:57:46 market sale   k1234512345n 11/05 nestheroviap axe, 5099 minutes 1 790
9411 2019-Dec-07 08:45:46 market sale   dreamkoooooo -13/-17 nestheroviap axe, 6000 minutes 1 950
9410 2019-Dec-07 05:05:31 market sale   gy3dmojqgege -01/03 lucky13lucky axe, 6000 minutes 3 942
9409 2019-Dec-07 02:41:06 market sale   aluminumcoin -18/-18 ngoctraneos2 axe, 1000 minutes 1 175
9408 2019-Dec-06 22:32:02 market sale   temilagszyyy 16/-04 valeska12345 axe, 6000 minutes 1 930
9407 2019-Dec-06 21:37:31 market sale   amadmira4321 -18/-11 systemofadow axe, 6000 minutes 1 930
9406 2019-Dec-06 17:42:44 market sale   queldelar133 26/17 z5qgdm5gntcp axe, 6000 minutes 1 940
9405 2019-Dec-06 17:25:29 market sale   quiver.com -09/-03 dhanbahadurg axe, 6000 minutes 1 1199
9404 2019-Dec-06 16:32:29 market sale   gy3dmojqgege -01/03 wakaiacerse1 axe, 6000 minutes 3 944
9403 2019-Dec-06 15:02:09 market sale   gy3dmojqgege -01/03 wakaiacerse1 axe, 6000 minutes 3 944
9402 2019-Dec-06 13:28:08 market sale   salmankhanss -03/12 rayyanhamdan axe, 6000 minutes 6 1400
9401 2019-Dec-06 12:13:24 market sale   gy3dmojqgege -01/03 sausalve2222 axe, 6000 minutes 3 944
9400 2019-Dec-06 07:41:05 market sale   hermansyah21 20/-10 snehalghosh1 axe, 6000 minutes 2 945
9399 2019-Dec-06 07:35:57 market sale   freeoooooooo 04/13 olymarinm111 axe, 6000 minutes 1 1199
9398 2019-Dec-06 07:22:58 market sale   hermansyah21 20/-10 temilagszyyy axe, 6000 minutes 12 945
9397 2019-Dec-06 07:10:45 market sale   hezdinrugqge 03/-06 rejacole2133 axe, 6000 minutes 1 950
9396 2019-Dec-06 05:38:56 market sale   laclapoo1111 19/-21 snehalghosh1 axe, 6000 minutes 1 1049
9395 2019-Dec-06 04:30:34 market sale   hezdinrugqge 03/-06 rejacole2133 axe, 6000 minutes 1 950
9394 2019-Dec-05 23:49:58 market sale   gy3dmojqgege -01/03 steliosfan11 axe, 6000 minutes 1 948
9393 2019-Dec-05 18:32:29 market sale   kowalska1111 00/23 hezdsmjqhage axe, 6000 minutes 1 1270
9392 2019-Dec-05 17:13:57 market sale   hezdinrugqge 03/-06 badrussaliss axe, 6000 minutes 3 950
9391 2019-Dec-05 17:03:21 market sale   vazrieleos11 10/-16 badrussaliss axe, 6000 minutes 2 999
9390 2019-Dec-05 13:04:01 market sale   gy3dmojqgege -01/03 oourodetoloo axe, 6000 minutes 1 948
9389 2019-Dec-05 10:03:05 market sale   selamatjalan 22/12 fanskarma111 axe, 6000 minutes 1 5000
9388 2019-Dec-05 09:32:01 market sale   hermansyah21 20/-10 valeska12345 axe, 6000 minutes 1 949
9387 2019-Dec-05 09:26:24 market sale   kowalska1111 00/23 aniuskaamr11 axe, 6000 minutes 1 1270
9386 2019-Dec-05 06:39:27 market sale   dreamkoooooo -13/-17 steliosfan11 axe, 6000 minutes 1 1080
9385 2019-Dec-05 06:16:15 market sale   hermansyah21 20/-10 waldeewaldee axe, 6000 minutes 1 949
9384 2019-Dec-05 04:45:09 market sale   hurabasif111 -12/25 perezerezere axe, 4650 minutes 1 700
9383 2019-Dec-05 01:58:46 market sale   gy3dmojqgege -01/03 ozymandiaseo axe, 6000 minutes 1 998
9382 2019-Dec-05 01:33:25 market sale   jarenhasan11 08/26 aniuskaamr11 axe, 6000 minutes 1 1300
9381 2019-Dec-05 00:55:39 market sale   gy3dmojqgege -01/03 bastardeos12 axe, 6000 minutes 1 998
9380 2019-Dec-05 00:47:39 market sale   freeoooooooo 04/13 hezdsmjqhage axe, 6000 minutes 1 1199
9379 2019-Dec-04 20:51:16 market sale   gy3dmojqgege -01/03 perezerezere axe, 6000 minutes 1 998
9378 2019-Dec-04 13:18:33 market sale   gy3dmojqgege -01/03 sumitgujjar1 axe, 6000 minutes 2 998
9377 2019-Dec-04 12:47:51 market sale   gy3dmojqgege -01/03 bastardeos12 axe, 6000 minutes 1 998
9376 2019-Dec-04 12:23:07 market sale   mdjohuruli33 -20/22 ifegwuonyeka axe, 6000 minutes 1 2000
9375 2019-Dec-04 04:41:35 market sale   naddanparind 07/02 denisklimoff axe, 6000 minutes 1 1750
9374 2019-Dec-04 04:22:03 market sale   selamatjalan 22/12 fanskarma111 axe, 6000 minutes 2 5000
9373 2019-Dec-04 03:09:38 market sale   rtnyffon2x5j -01/09 gy3dmojqgege axe, 6000 minutes 38 750
9372 2019-Dec-04 02:26:29 market sale   rtnyffon2x5j -01/09 bnr524422515 axe, 6000 minutes 1 750
9371 2019-Dec-04 00:31:11 market sale   hermansyah21 20/-10 valeska12345 axe, 6000 minutes 1 1055
9370 2019-Dec-03 20:41:40 market sale   blueblu12345 -18/12 systemofadow axe, 6000 minutes 1 1055
9369 2019-Dec-03 19:07:30 market sale   benjaminrost 05/07 edgarivanov1 axe, 50 minutes 1 50
9368 2019-Dec-03 17:36:53 market sale   tristan12345 -13/00 lynxstellify axe, 6000 minutes 1 1098
9367 2019-Dec-03 16:57:14 market sale   blueblu12345 -18/12 snehalghosh1 axe, 6000 minutes 2 1055
9366 2019-Dec-03 15:57:29 market sale   blueblu12345 -18/12 anikybee1234 axe, 6000 minutes 3 1055
9365 2019-Dec-03 15:22:28 market sale   tristan12345 -13/00 aume1rrpmp51 axe, 6000 minutes 1 1098
9364 2019-Dec-03 14:38:55 market sale   hermansyah21 20/-10 darthdimsky1 axe, 6000 minutes 2 1055
9363 2019-Dec-03 12:48:42 market sale   naddanparind 07/02 sayutisayuti axe, 6000 minutes 3 1750
9362 2019-Dec-03 10:50:01 market sale   dreamkoooooo -13/-17 recklessgame axe, 6000 minutes 6 1080
9361 2019-Dec-03 07:57:28 market sale   rtnyffon2x5j -01/09 eddiecarty12 axe, 6000 minutes 3 1058
9360 2019-Dec-03 07:39:51 market sale   marisansochi 19/08 lachiquive45 axe, 3724 minutes 1 900
9359 2019-Dec-03 07:09:39 market sale   hassanraza12 14/-25 taurusors212 axe, 870 minutes 1 250
9358 2019-Dec-03 07:00:40 market sale   nispidarious -04/-02 rosimirelesz axe, 1400 minutes 1 250
9357 2019-Dec-03 05:52:54 market sale   tristan12345 -13/00 nestheroviap axe, 6000 minutes 1 1098
9356 2019-Dec-03 05:38:45 market sale   ha3dmmrygyge 11/-13 anikybee1234 axe, 6000 minutes 2 1299
9355 2019-Dec-03 05:37:08 market sale   nicoled12345 19/13 lorrelinne15 axe, 5700 minutes 1 1000
9354 2019-Dec-03 04:15:07 market sale   voodudelk111 25/26 cryptogameco axe, 6000 minutes 4 1397
9353 2019-Dec-03 02:41:00 market sale   hezdinrugqge 03/-06 delltreefono axe, 6000 minutes 1 1000
9352 2019-Dec-03 02:37:54 market sale   hezdinrugqge 03/-06 ricardozamor axe, 6000 minutes 1 1000
9351 2019-Dec-03 00:57:28 market sale   vazrieleos11 10/-16 mengchaofan1 axe, 6000 minutes 1 999
9350 2019-Dec-02 23:24:23 market sale   tanbvdh12345 -20/-20 jummychiras1 axe, 6000 minutes 1 1100
9349 2019-Dec-02 22:29:17 market sale   duckboathunt 23/-19 iambig1deeee axe, 6000 minutes 1 1200
9348 2019-Dec-02 22:12:06 market sale   duckboathunt 23/-19 iambig1deeee axe, 6000 minutes 1 1200
9347 2019-Dec-02 20:58:43 market sale   salmankhanss -03/12 asissmasi.tp axe, 6000 minutes 2 1350
9346 2019-Dec-02 19:22:03 market sale   ha3dmmrygyge 11/-13 eos4ever1jt1 axe, 6000 minutes 1 1299
9345 2019-Dec-02 18:50:18 market sale   hezdinrugqge 03/-06 lucky13lucky axe, 6000 minutes 2 1000
9344 2019-Dec-02 17:50:37 market sale   tristan12345 -13/00 superiorkv23 axe, 6000 minutes 1 1098
9343 2019-Dec-02 17:30:30 market sale   buraqasif444 -12/25 zhvfeddygufu axe, 6000 minutes 1 999
9342 2019-Dec-02 17:24:53 market sale   naddanparind 07/02 selamatjalan axe, 6000 minutes 1 1750
9341 2019-Dec-02 17:20:45 market sale   quiver.com -09/-03 gamesland121 axe, 6000 minutes 1 1199
9340 2019-Dec-02 08:08:46 market sale   markbenecx12 -02/07 duongsatokaa axe, 6000 minutes 3 1500
9339 2019-Dec-02 08:07:21 market sale   duckboathunt 23/-19 aniuskaamr11 axe, 6000 minutes 1 1200
9338 2019-Dec-02 08:00:25 market sale   markbenecx12 -02/07 ronannguyenk axe, 6000 minutes 3 1500
9337 2019-Dec-02 07:55:11 market sale   markbenecx12 -02/07 trangphx5123 axe, 6000 minutes 3 1500
9336 2019-Dec-02 07:52:28 market sale   markbenecx12 -02/07 sisneros2314 axe, 6000 minutes 1 1500
9335 2019-Dec-02 07:50:11 market sale   markbenecx12 -02/07 sisneros2314 axe, 6000 minutes 2 1500
9334 2019-Dec-02 07:45:19 market sale   markbenecx12 -02/07 johaneisakse axe, 6000 minutes 3 1500
9333 2019-Dec-02 07:02:44 market sale   salmankhanss -03/12 fifughoetori axe, 6000 minutes 1 1350
9332 2019-Dec-02 04:44:18 market sale   rtnyffon2x5j -01/09 markbenecx12 axe, 6000 minutes 15 1062
9331 2019-Dec-02 00:11:34 market sale   buraqasif444 -12/25 karaotax1234 axe, 6000 minutes 1 999
9330 2019-Dec-01 23:40:38 market sale   blueblu12345 -18/12 elvysjoanes4 axe, 6000 minutes 1 1063
9329 2019-Dec-01 23:12:13 market sale   mdsmdsmdsmds 27/-17 smokersh5153 axe, 3300 minutes 1 500
9328 2019-Dec-01 23:11:36 market sale   gy3dmojqgege -14/-03 smokersh5153 axe, 900 minutes 1 169
9327 2019-Dec-01 22:37:38 market sale   hezdinrugqge 03/-06 iamjohngalt1 axe, 6000 minutes 3 1000
9326 2019-Dec-01 22:36:35 market sale   hezdinrugqge 03/-06 iamjohngalt1 axe, 6000 minutes 3 1000
9325 2019-Dec-01 18:53:21 market sale   ahmadrahmat1 09/-23 dariuska1155 axe, 111 minutes 1 100
9324 2019-Dec-01 18:50:08 market sale   tristan12345 -13/00 baracudass22 axe, 6000 minutes 1 1098
9323 2019-Dec-01 18:39:28 market sale   tristan12345 -13/00 n5goqzmjmyxm axe, 6000 minutes 2 1098
9322 2019-Dec-01 13:15:57 market sale   vjnadharshri -03/-03 blessedman33 axe, 6000 minutes 3 1050
9321 2019-Dec-01 11:12:13 market sale   1qaz2wsx4rfv -14/02 hermansyah21 axe, 6000 minutes 48 800
9320 2019-Dec-01 08:14:55 market sale   naddanparind 07/02 selamatjalan axe, 6000 minutes 3 1190
9319 2019-Dec-01 07:23:50 market sale   sitonle1x2tn -23/10 newendead355 axe, 1280 minutes 1 129
9318 2019-Dec-01 05:01:34 market sale   buraqasif444 -12/25 eosrodriguez axe, 6000 minutes 1 999
9317 2019-Nov-30 15:14:52 market sale   1qaz2wsx4rfv -14/02 lucky13lucky axe, 6000 minutes 1 1080
9316 2019-Nov-30 14:48:00 market sale   salmankhanss -03/12 dndakhairani axe, 6000 minutes 1 1350
9315 2019-Nov-30 14:05:26 market sale   1qaz2wsx4rfv -14/02 lucky13lucky axe, 6000 minutes 1 1080
9314 2019-Nov-30 13:57:38 market sale   marisansochi 19/08 giezihrz1234 axe, 6000 minutes 1 1060
9313 2019-Nov-30 11:45:29 market sale   aluminumcoin -18/-18 steliosfan11 axe, 6000 minutes 1 1089
9312 2019-Nov-30 11:06:34 market sale   tristan12345 -13/00 baretasss111 axe, 6000 minutes 1 1098
9311 2019-Nov-30 07:28:48 market sale   saltlight421 05/-16 dndakhairani axe, 4041 minutes 1 900
9310 2019-Nov-30 04:50:56 market sale   rtnyffon2x5j -01/09 bukhariaaceh axe, 6000 minutes 2 1068
9309 2019-Nov-30 04:49:44 market sale   tfphowgstz1y 10/13 bukhariaaceh axe, 6000 minutes 1 900
9308 2019-Nov-30 00:35:31 market sale   ravindra1234 -02/-22 eidolsmining axe, 6000 minutes 3 1250
9307 2019-Nov-29 17:49:57 market sale   sitonle1x2tn -23/10 daigorokoike axe, 2051 minutes 1 222
9306 2019-Nov-29 17:24:46 market sale   vjnadharshri -03/-03 giztqmbsg4ge axe, 6000 minutes 8 1050
9305 2019-Nov-29 14:31:14 market sale   tristan12345 -12/-01 apoorvavicky axe, 3300 minutes 1 250
9304 2019-Nov-29 13:38:02 market sale   semiflexible -23/-22 mightyjoe111 axe, 6000 minutes 4 2100
9303 2019-Nov-29 08:27:06 market sale   setrawetseos 22/09 smokersh5153 axe, 750 minutes 1 99
9302 2019-Nov-29 06:07:05 market sale   vjnadharshri -03/-03 lorrelinne15 axe, 6000 minutes 1 1150
9301 2019-Nov-28 19:19:56 market sale   tfphowgstz1y 10/13 erezerezerez axe, 6000 minutes 1 900
9300 2019-Nov-28 16:05:04 market sale   rtnyffon2x5j -01/09 adilkhan1111 axe, 6000 minutes 1 1075
9299 2019-Nov-28 15:54:42 market sale   tristan12345 -13/00 badrussaliss axe, 6000 minutes 2 1098
9298 2019-Nov-28 11:51:07 market sale   ducthang22sa -11/27 chandansahoo axe, 6000 minutes 1 1414
9297 2019-Nov-28 09:12:04 market sale   ravindra1234 -02/-22 adivendereos axe, 6000 minutes 2 1250
9296 2019-Nov-28 08:17:19 market sale   aluminumcoin -18/-18 olymarinm111 axe, 6000 minutes 1 1089
9295 2019-Nov-28 06:08:29 market sale   cryptogameco 17/-26 anikybee1234 axe, 6000 minutes 3 1098
9294 2019-Nov-28 02:19:56 market sale   aluminumcoin -18/-18 dndakhairani axe, 6000 minutes 1 1089
9293 2019-Nov-27 21:21:58 market sale   freeoooooooo 04/13 aniuskaamr11 axe, 6000 minutes 1 1199
9292 2019-Nov-27 21:19:00 market sale   tristan12345 -13/00 lucky13lucky axe, 6000 minutes 1 1098
9291 2019-Nov-27 21:14:45 market sale   tristan12345 -13/00 lucky13lucky axe, 6000 minutes 2 1098
9290 2019-Nov-27 20:11:40 market sale   cmsknight321 06/-15 gu2denzugage axe, 2885 minutes 1 400000
9289 2019-Nov-27 16:27:11 market sale   aluminumcoin -18/-18 krabbelein11 axe, 6000 minutes 3 1089
9288 2019-Nov-27 16:24:19 market sale   sitonle1x2tn -23/10 maritimemasi axe, 1809 minutes 1 259
9287 2019-Nov-27 15:59:50 market sale   1qaz2wsx4rfv -14/02 adilkhan1111 axe, 6000 minutes 1 1080
9286 2019-Nov-27 13:38:19 market sale   rtnyffon2x5j -01/09 lussiypusiyi axe, 6000 minutes 4 1088
9285 2019-Nov-27 11:47:09 market sale   rtnyffon2x5j -01/09 krabbelein11 axe, 6000 minutes 3 1088
9284 2019-Nov-27 11:18:05 market sale   ahmadrahmat1 09/-23 m3yl4n4pr1l1 axe, 6000 minutes 1 2000
9283 2019-Nov-27 09:40:33 market sale   rtnyffon2x5j -01/09 sbsshetty251 axe, 6000 minutes 5 1088
9282 2019-Nov-27 07:36:36 market sale   quiver.com -09/-03 amartinezm11 axe, 6000 minutes 1 1199
9281 2019-Nov-27 00:02:38 market sale   aluminumcoin -18/-18 georgepulido axe, 6000 minutes 2 1089
9280 2019-Nov-26 23:38:26 market sale   cryptogameco 17/-26 ahmadrahmat1 axe, 6000 minutes 3 1098
9279 2019-Nov-26 22:16:00 market sale   voodudelk111 25/26 anikybee1234 axe, 6000 minutes 2 1397
9278 2019-Nov-26 21:17:34 market sale   gy3dmojqgege -01/03 nurliss12345 axe, 6000 minutes 1 1198
9277 2019-Nov-26 18:37:18 market sale   cryptogameco 03/02 myeosiogamer axe, 1820 minutes 1 50
9276 2019-Nov-26 18:36:06 market sale   cryptogameco -06/10 myeosiogamer axe, 4111 minutes 1 100
9275 2019-Nov-26 18:35:48 market sale   gy3dmojqgege -01/03 eosioforlive axe, 6000 minutes 1 1198
9274 2019-Nov-26 17:37:28 market sale   klimanskiy22 -05/-03 andresymm111 axe, 6000 minutes 1 1174
9273 2019-Nov-26 12:44:50 market sale   rtnyffon2x5j -01/09 krishna12345 axe, 6000 minutes 2 1090
9272 2019-Nov-26 12:26:46 market sale   gy3dmojqgege -01/03 m3yl4n4pr1l1 axe, 6000 minutes 2 1198
9271 2019-Nov-26 12:15:55 market sale   rtnyffon2x5j -01/09 oourodetoloo axe, 6000 minutes 1 1090
9270 2019-Nov-26 11:51:03 market sale   rtnyffon2x5j -01/09 oourodetoloo axe, 6000 minutes 1 1090
9269 2019-Nov-26 10:01:06 market sale   upclassgames -18/27 setrawetseos axe, 750 minutes 1 50
9268 2019-Nov-26 08:16:56 market sale   rtnyffon2x5j -01/09 shiku2413551 axe, 6000 minutes 2 1090
9267 2019-Nov-26 07:40:01 market sale   freeoooooooo 04/13 jarenhasan11 axe, 6000 minutes 1 1199
9266 2019-Nov-26 05:58:16 market sale   ravindra1234 -02/-22 bhavnaojha12 axe, 1800 minutes 1 10000
9265 2019-Nov-26 05:30:26 market sale   naddanparind 07/02 eliashasan11 axe, 6000 minutes 1 1190
9264 2019-Nov-26 04:09:02 market sale   naddanparind 07/02 jarenhasan11 axe, 6000 minutes 2 1190
9263 2019-Nov-26 04:06:42 market sale   klimanskiy22 -05/-03 travyknight2 axe, 6000 minutes 1 1174
9262 2019-Nov-26 04:05:56 market sale   freeoooooooo 04/13 nession12345 axe, 6000 minutes 1 1199
9261 2019-Nov-26 03:59:54 market sale   klimanskiy22 -05/-03 latanacripto axe, 6000 minutes 1 1174
9260 2019-Nov-26 03:08:38 market sale   kjmysterious -15/-15 georgepulido axe, 2882 minutes 2 370
9259 2019-Nov-26 00:24:53 market sale   klimanskiy22 -05/-03 mrkubem33333 axe, 6000 minutes 1 1174
9258 2019-Nov-25 22:29:30 market sale   rtnyffon2x5j -01/09 kingping1111 axe, 6000 minutes 1 998
9257 2019-Nov-25 22:28:31 market sale   rtnyffon2x5j -01/09 kingping1111 axe, 6000 minutes 1 998
9256 2019-Nov-25 21:40:21 market sale   naddanparind 07/02 vijay12kumar axe, 6000 minutes 2 1190
9255 2019-Nov-25 20:53:30 market sale   salmankhanss -03/12 biofarmer141 axe, 6000 minutes 1 1350
9254 2019-Nov-25 20:10:00 market sale   aluminumcoin -18/-18 yodaismobile axe, 5700 minutes 1 1050
9253 2019-Nov-25 19:27:10 market sale   bonanzahouse 05/01 olymarinm111 axe, 6000 minutes 1 1379
9252 2019-Nov-25 19:12:30 market sale   myeosiogamer 24/05 coinman14535 axe, 5 minutes 1 1
9251 2019-Nov-25 16:49:54 market sale   delbarre1234 07/18 lussiypusiyi axe, 6000 minutes 2 700
9250 2019-Nov-25 12:37:06 market sale   ha3dmmrygyge 11/-13 aniuskaamr11 axe, 6000 minutes 1 1299
9249 2019-Nov-25 11:00:55 market sale   magum1111111 01/05 iamkushagra1 axe, 5825 minutes 1 950
9248 2019-Nov-25 11:00:20 market sale   knightshadow -03/14 iamkushagra1 axe, 3000 minutes 1 210
9247 2019-Nov-25 11:00:07 market sale   awesumfaraz5 -16/25 iamkushagra1 axe, 117 minutes 1 300
9246 2019-Nov-25 10:59:57 market sale   knightshadow -03/14 iamkushagra1 axe, 1500 minutes 1 105
9245 2019-Nov-25 10:59:44 market sale   knightshadow -03/14 iamkushagra1 axe, 1500 minutes 1 105
9244 2019-Nov-25 09:36:47 market sale   eostarmoveon 19/21 anikybee1234 axe, 6000 minutes 2 999
9243 2019-Nov-25 09:20:18 market sale   rtnyffon2x5j -01/09 furqankha123 axe, 6000 minutes 1 998
9242 2019-Nov-25 07:57:10 market sale   myeosiogamer 24/05 povalsky1111 axe, 925 minutes 1 150
9241 2019-Nov-25 06:37:47 market sale   mdjohuruli33 -20/22 just4creator axe, 6000 minutes 1 2000
9240 2019-Nov-25 05:56:41 market sale   dreamkoooooo -13/-17 nispidarious axe, 3967 minutes 1 777
9239 2019-Nov-25 01:34:04 market sale   kowalska1111 00/23 maxi15miran4 axe, 6000 minutes 1 1328
9238 2019-Nov-25 00:44:24 market sale   salmankhanss -07/27 coffeebeanss axe, 6000 minutes 1 1400
9237 2019-Nov-24 21:23:57 market sale   salmankhanss -07/27 rayyanhamdan axe, 6000 minutes 1 1250
9236 2019-Nov-24 19:05:30 market sale   eostarmoveon 19/21 gamesacc1525 axe, 6000 minutes 1 999
9235 2019-Nov-24 18:04:00 market sale   kowalska1111 00/23 iksdaks12345 axe, 6000 minutes 1 1328
9234 2019-Nov-24 11:51:23 market sale   tristan12345 -13/00 cheeza35scho axe, 6000 minutes 6 1099
9233 2019-Nov-24 11:21:26 market sale   rtnyffon2x5j -01/09 yw3sy4c4j15m axe, 6000 minutes 1 1099
9232 2019-Nov-24 10:57:14 market sale   tristan12345 -13/00 alexpozitiv5 axe, 6000 minutes 2 1099
9231 2019-Nov-24 10:24:59 market sale   rtnyffon2x5j -01/09 lososwallet1 axe, 6000 minutes 2 1099
9230 2019-Nov-24 09:47:08 market sale   ha3dmmrygyge 11/-13 cryptogameco axe, 6000 minutes 6 1299
9229 2019-Nov-24 09:14:39 market sale   naddanparind 07/02 dhoelabdhoel axe, 6000 minutes 1 1190
9228 2019-Nov-24 09:09:17 market sale   zahirlehri11 23/03 dhoelabdhoel axe, 4900 minutes 1 900
9227 2019-Nov-24 08:09:50 market sale   zahirlehri11 23/03 sla112233445 axe, 4200 minutes 1 700
9226 2019-Nov-24 08:01:40 market sale   salmankhanss -07/27 cryptogameco axe, 6000 minutes 6 1250
9225 2019-Nov-24 02:07:17 market sale   apoorvavicky 16/-02 eosrmgcvzla1 axe, 6000 minutes 4 1200
9224 2019-Nov-23 23:22:38 market sale   rtnyffon2x5j -01/09 georgepulido axe, 6000 minutes 1 1099
9223 2019-Nov-23 20:59:18 market sale   rtnyffon2x5j -01/09 kikimora1234 axe, 6000 minutes 1 1099
9222 2019-Nov-23 19:58:00 market sale   salmankhanss -07/27 coffeebeanss axe, 6000 minutes 1 1250
9221 2019-Nov-23 18:34:32 market sale   kowalska1111 00/23 nestheroviap axe, 6000 minutes 1 1328
9220 2019-Nov-23 17:47:23 market sale   rtnyffon2x5j -01/09 abhishek1234 axe, 6000 minutes 1 1099
9219 2019-Nov-23 17:42:57 market sale   rtnyffon2x5j -01/09 rajbharti123 axe, 6000 minutes 1 1099
9218 2019-Nov-23 17:00:58 market sale   lorenzznerol 12/25 21marianna15 axe, 6000 minutes 1 1190
9217 2019-Nov-23 16:26:12 market sale   hurabasif111 -12/25 lorrelinne15 axe, 6000 minutes 1 1239
9216 2019-Nov-23 12:48:23 market sale   aluminumcoin -18/-18 dhoelabdhoel axe, 6000 minutes 1 1190
9215 2019-Nov-23 12:23:55 market sale   f125lifajcwy 14/01 liveevillltr axe, 10 minutes 1 1
9214 2019-Nov-23 10:04:56 market sale   tanbvdh12345 -20/-20 kukusingh333 axe, 6000 minutes 1 1100
9213 2019-Nov-23 08:32:38 market sale   salmankhanss -03/12 yaprisheleos axe, 6000 minutes 1 1350
9212 2019-Nov-23 06:58:01 market sale   orendadilnok 04/00 nyvosezabolo axe, 6000 minutes 3 1099
9211 2019-Nov-23 06:02:52 market sale   aluminumcoin -18/-18 adeoriokinnn axe, 6000 minutes 3 1190
9210 2019-Nov-23 05:26:45 market sale   samsunactive 05/08 naashfak1234 axe, 6000 minutes 1 1700
9209 2019-Nov-23 03:48:16 market sale   ravindra1234 -02/-22 chandansahoo axe, 6000 minutes 2 1250
9208 2019-Nov-23 03:35:20 market sale   freeoooooooo 04/13 yourwishboxx axe, 6000 minutes 1 1199
9207 2019-Nov-23 00:06:47 market sale   gy3dmojqgege -01/03 m3yl4n4pr1l1 axe, 6000 minutes 1 1219
9206 2019-Nov-22 23:27:02 market sale   memunehhhhhh 09/-21 m3yl4n4pr1l1 axe, 6000 minutes 1 1250
9205 2019-Nov-22 23:25:13 market sale   naddanparind 07/02 wakaiacerse1 axe, 6000 minutes 3 1195
9204 2019-Nov-22 21:51:29 market sale   tristan12345 -13/00 darkprospect axe, 6000 minutes 1 1150
9203 2019-Nov-22 19:16:36 market sale   gu2denzugage 09/-25 myeosiogamer axe, 1405 minutes 1 100
9202 2019-Nov-22 19:14:41 market sale   tristan12345 -13/00 emmatarrant1 axe, 6000 minutes 1 1150
9201 2019-Nov-22 19:14:02 market sale   tristan12345 -13/00 emmatarrant1 axe, 6000 minutes 1 1150
9200 2019-Nov-22 17:12:33 market sale   tanbvdh12345 -20/-20 mitya1234123 axe, 6000 minutes 1 1100
9199 2019-Nov-22 16:52:14 market sale   naddanparind 07/02 gamesacc1525 axe, 6000 minutes 1 1195
9198 2019-Nov-22 16:40:13 market sale   binhloicon23 02/05 cyborglemurz axe, 6000 minutes 1 1194
9197 2019-Nov-22 14:37:18 market sale   bonanzahouse 05/01 ahmadsyafi12 axe, 6000 minutes 1 1379
9196 2019-Nov-22 14:11:33 market sale   bonanzahouse 05/01 kurmagoreng1 axe, 6000 minutes 1 1379
9195 2019-Nov-22 13:54:31 market sale   freeoooooooo 04/13 vijay12kumar axe, 6000 minutes 1 1199
9194 2019-Nov-22 10:27:29 market sale   pikachyxaaaa -13/-17 eosbakbakbak axe, 6000 minutes 1 1220
9193 2019-Nov-22 09:55:56 market sale   gu2denzugage 09/-25 alexwarzzzzz axe, 819 minutes 1 50
9192 2019-Nov-22 09:54:48 market sale   naddanparind 07/02 adeoriokinnn axe, 6000 minutes 1 1195
9191 2019-Nov-22 09:26:53 market sale   naddanparind 07/02 adeoriokinnn axe, 6000 minutes 5 1195
9190 2019-Nov-22 08:09:06 market sale   gy3dmojqgege -01/03 allatrybe111 axe, 6000 minutes 1 1219
9189 2019-Nov-22 07:28:02 market sale   bonanzahouse 05/01 sarungjunior axe, 6000 minutes 1 1379
9188 2019-Nov-22 05:16:37 market sale   samsunactive 05/08 sultaneospro axe, 6000 minutes 1 1700
9187 2019-Nov-22 04:41:12 market sale   gy3dmojqgege -01/03 sitonle1x2tn axe, 6000 minutes 1 1219
9186 2019-Nov-22 04:40:33 market sale   gy3dmojqgege -01/03 sitonle1x2tn axe, 6000 minutes 1 1219
9185 2019-Nov-22 04:38:59 market sale   gy3dmojqgege -21/18 sitonle1x2tn axe, 5500 minutes 1 1098
9184 2019-Nov-22 04:20:17 market sale   1qaz2wsx4rfv -14/02 krishna12345 axe, 6000 minutes 1 1398
9183 2019-Nov-21 22:42:10 market sale   iambig1deeee 20/22 anikybee1234 axe, 943 minutes 1 20000
9182 2019-Nov-21 21:30:47 market sale   gy3dmojqgege -21/18 darkprospect axe, 1997 minutes 1 399
9181 2019-Nov-21 19:43:53 market sale   pikachyxaaaa -13/-17 doomakos3452 axe, 6000 minutes 1 1220
9180 2019-Nov-21 16:12:03 market sale   gy3dmojqgege -01/03 eosdarthgexe axe, 6000 minutes 1 1219
9179 2019-Nov-21 15:04:44 market sale   bonanzahouse 05/01 ahmadsyafi12 axe, 6000 minutes 1 1379
9178 2019-Nov-21 14:52:29 market sale   ducthang22sa -11/27 krivbasscity axe, 6000 minutes 1 1414
9177 2019-Nov-21 14:29:51 market sale   ha3dmmrygyge 11/-13 olymarinm111 axe, 6000 minutes 1 1299
9176 2019-Nov-21 13:43:18 market sale   voodudelk111 25/26 mummiesgmail axe, 6000 minutes 1 1378
9175 2019-Nov-21 09:53:24 market sale   memunehhhhhh 09/-21 ahmadrahmat1 axe, 6000 minutes 1 1250
9174 2019-Nov-21 09:07:39 market sale   f125lifajcwy 14/01 izaakgoldman axe, 100 minutes 1 1
9173 2019-Nov-21 06:11:54 market sale   samsunactive 05/08 nafaisal4444 axe, 6000 minutes 1 1700
9172 2019-Nov-21 05:08:27 market sale   superw4lox11 -12/21 suitconsider axe, 6000 minutes 1 1799
9171 2019-Nov-20 21:43:25 market sale   bonanzahouse 05/01 wayunipasee2 axe, 6000 minutes 1 1379
9170 2019-Nov-20 19:27:48 market sale   voodudelk111 25/26 franysfranys axe, 6000 minutes 1 1378
9169 2019-Nov-20 17:52:17 market sale   inspiredbyit -04/03 sirfarazraza axe, 6000 minutes 2 1447
9168 2019-Nov-20 17:20:44 market sale   buraqasif444 -12/26 k1234512345n axe, 4950 minutes 1 799
9167 2019-Nov-20 12:40:04 market sale   klimanskiy22 -05/-03 12samsusam21 axe, 6000 minutes 1 1298
9166 2019-Nov-20 12:16:06 market sale   akantprosteg -21/-10 jaumetresan3 axe, 5400 minutes 1 300
9165 2019-Nov-20 08:04:48 market sale   naddanparind 07/02 mastahgreyin axe, 6000 minutes 1 1550
9164 2019-Nov-20 06:47:24 market sale   voodudelk111 25/26 krivbasscity axe, 6000 minutes 1 1378
9163 2019-Nov-20 06:14:39 market sale   duckboathunt 23/-19 snehalghosh1 axe, 6000 minutes 2 1390
9162 2019-Nov-20 05:40:32 market sale   bonanzahouse 05/01 kurmagoreng1 axe, 6000 minutes 1 1379
9161 2019-Nov-20 05:18:38 market sale   ducthang22sa -11/27 suitconsider axe, 6000 minutes 1 1414
9160 2019-Nov-20 02:06:59 market sale   duckboathunt 23/-19 krivbasscity axe, 6000 minutes 1 1390
9159 2019-Nov-20 00:56:14 market sale   gy3dmojqgege -01/03 ahmadrahmat1 axe, 6000 minutes 3 1241
9158 2019-Nov-19 23:26:05 market sale   bonanzahouse 05/01 fauzanfazila axe, 6000 minutes 3 1379
9157 2019-Nov-19 20:16:25 market sale   klimanskiy22 -05/-03 amartinezm11 axe, 6000 minutes 1 1298
9156 2019-Nov-19 20:14:40 market sale   gy3dmojqgege -01/03 saifulmaarif axe, 6000 minutes 2 1241
9155 2019-Nov-19 20:10:15 market sale   gy3dmojqgege -01/03 georgepulido axe, 6000 minutes 2 1241
9154 2019-Nov-19 19:59:37 market sale   kowalska1111 00/23 aniuskaamr11 axe, 6000 minutes 1 1328
9153 2019-Nov-19 19:42:04 market sale   gy3dmojqgege -01/03 kovateljeoss axe, 6000 minutes 1 1241
9152 2019-Nov-19 16:37:49 market sale   quocvuong252 25/15 nofacenoname axe, 2020 minutes 1 10000
9151 2019-Nov-19 15:56:19 market sale   voodudelk111 25/26 mummiesgmail axe, 6000 minutes 1 1365
9150 2019-Nov-19 14:24:40 market sale   rtnyffon2x5j -01/09 fhcjfkgkfdfj axe, 6000 minutes 1 1242
9149 2019-Nov-19 13:45:31 market sale   ha3dmmrygyge 11/-13 zahrulfuadii axe, 6000 minutes 3 1299
9148 2019-Nov-19 12:39:29 market sale   klimanskiy22 -05/-03 tfphowgstz1y axe, 6000 minutes 2 1298
9147 2019-Nov-19 11:59:00 market sale   duckboathunt 23/-19 andresymm111 axe, 6000 minutes 1 1390
9146 2019-Nov-19 11:10:16 market sale   olegsokolov1 -06/06 eosdarthgexe axe, 5700 minutes 1 1000
9145 2019-Nov-19 10:05:46 market sale   duckboathunt 23/-19 dario1cesaro axe, 6000 minutes 1 1390
9144 2019-Nov-19 07:54:54 market sale   ha3dmmrygyge 11/-13 eosemmanuel1 axe, 6000 minutes 3 1299
9143 2019-Nov-19 03:58:41 market sale   voodudelk111 25/26 wilenor12345 axe, 6000 minutes 1 1365
9142 2019-Nov-19 02:25:15 market sale   freeoooooooo 04/13 bnr524422515 axe, 6000 minutes 2 1370
9141 2019-Nov-19 00:25:47 market sale   1qaz2wsx4rfv -14/02 hezdsmjqhage axe, 6000 minutes 1 1398
9140 2019-Nov-18 23:00:05 market sale   bonanzahouse 05/01 wayunipasee2 axe, 6000 minutes 1 1379
9139 2019-Nov-18 21:49:32 market sale   mdsmdsmdsmds -26/16 k1234512345n axe, 5700 minutes 1 1100
9138 2019-Nov-18 20:18:57 market sale   mycryptoland -19/-23 alexalexale1 axe, 6000 minutes 1 1100
9137 2019-Nov-18 19:28:06 market sale   sjhendrikszz -05/08 zahrulfuadii axe, 6000 minutes 3 1350
9136 2019-Nov-18 19:15:13 market sale   gy3dmojqgege -01/03 sultaneospro axe, 6000 minutes 2 1243
9135 2019-Nov-18 19:15:07 market sale   gy3dmojqgege -01/03 yw3sy4c4j15m axe, 6000 minutes 1 1243
9134 2019-Nov-18 16:41:30 market sale   gy3dmojqgege -01/03 mariaabravoo axe, 6000 minutes 3 1243
9133 2019-Nov-18 15:41:44 market sale   quocvuong252 -03/-03 eosgamerboss axe, 5600 minutes 1 1000
9132 2019-Nov-18 15:19:01 market sale   pieterkoen11 -09/-23 smokersh5153 axe, 900 minutes 1 200
9131 2019-Nov-18 15:18:22 market sale   emiliomorles -15/-18 smokersh5153 axe, 180 minutes 1 50
9130 2019-Nov-18 15:15:18 market sale   gy3dmojqgege -01/03 kurmagoreng1 axe, 6000 minutes 1 1243
9129 2019-Nov-18 14:44:11 market sale   ha3dmmrygyge 11/-13 cryptogameco axe, 6000 minutes 4 1299
9128 2019-Nov-18 12:54:59 market sale   klimanskiy22 -05/-03 waqasjunejo1 axe, 6000 minutes 1 1298
9127 2019-Nov-18 12:50:06 market sale   emiliomorles -15/-18 myeosiogamer axe, 300 minutes 1 60
9126 2019-Nov-18 12:43:02 market sale   emiliomorles -15/-18 waqasjunejo1 axe, 6000 minutes 1 1280
9125 2019-Nov-18 12:10:44 market sale   gy3dmojqgege -01/03 iamleaf22345 axe, 6000 minutes 1 1243
9124 2019-Nov-18 11:40:06 market sale   gy3dmojqgege -01/03 vgholdings11 axe, 6000 minutes 3 1243
9123 2019-Nov-18 11:15:10 market sale   1ctk3d5eosda 15/26 bcbana112233 axe, 3000 minutes 1 500
9122 2019-Nov-18 10:29:09 market sale   gold4man4eos 14/11 rashideos244 axe, 6000 minutes 1 1190
9121 2019-Nov-18 09:45:59 market sale   cryptogameco -04/07 zahrulfuadii axe, 6000 minutes 1 1240
9120 2019-Nov-18 08:51:48 market sale   bonanzahouse 05/01 adivendereos axe, 6000 minutes 1 1379
9119 2019-Nov-18 08:09:09 market sale   johanewa1111 17/14 olymarinm111 axe, 6000 minutes 1 1299
9118 2019-Nov-18 05:53:37 market sale   cryptogameco -04/07 sreebash1234 axe, 6000 minutes 1 1240
9117 2019-Nov-18 05:18:52 market sale   ha3dmmrygyge 11/-13 pranighstarb axe, 6000 minutes 2 1299
9116 2019-Nov-18 04:58:30 market sale   ha3dmmrygyge 11/-13 dipikaa12345 axe, 6000 minutes 1 1299
9115 2019-Nov-18 04:53:02 market sale   voodudelk111 25/26 dipikaa12345 axe, 6000 minutes 1 1365
9114 2019-Nov-18 02:49:08 market sale   gameloverboy 20/-09 necroclown33 axe, 35 minutes 1 15
9113 2019-Nov-18 02:24:13 market sale   cryptogameco -04/07 kjmysterious axe, 6000 minutes 5 1240
9112 2019-Nov-18 01:53:27 market sale   mycryptoland -19/-23 dearfriendss axe, 6000 minutes 1 1099
9111 2019-Nov-18 01:52:56 market sale   mycryptoland -19/-23 dearfriendss axe, 6000 minutes 1 1099
9110 2019-Nov-18 01:44:45 market sale   mycryptoland -19/-23 natasyaputri axe, 6000 minutes 3 1099
9109 2019-Nov-17 23:05:19 market sale   gy3dmojqgege -01/03 mirokeehashi axe, 6000 minutes 1 1243
9108 2019-Nov-17 20:09:15 market sale   mdsmdsmdsmds 27/-08 eosdarthgexe axe, 3900 minutes 1 600
9107 2019-Nov-17 20:03:57 market sale   mdsmdsmdsmds 26/-18 adbobken5555 axe, 3000 minutes 1 500
9106 2019-Nov-17 20:03:49 market sale   mdsmdsmdsmds 26/-18 adbobken5555 axe, 4500 minutes 1 700
9105 2019-Nov-17 19:28:20 market sale   1ctk3d5eosda 15/26 reokijin1515 axe, 2500 minutes 1 400
9104 2019-Nov-17 18:48:37 market sale   mycryptoland -19/-23 beabsoluteli axe, 6000 minutes 2 1099
9103 2019-Nov-17 17:32:09 market sale   voodudelk111 25/26 aluminumcoin axe, 6000 minutes 1 1400
9102 2019-Nov-17 17:04:30 market sale   cryptogameco -04/07 yodaismobile axe, 6000 minutes 1 1240
9101 2019-Nov-17 17:04:25 market sale   hananmaliki2 -11/21 aniuskaamr11 axe, 6000 minutes 1 1339
9100 2019-Nov-17 16:44:05 market sale   voodudelk111 25/26 123sanjapopo axe, 6000 minutes 1 1400
9099 2019-Nov-17 15:04:45 market sale   cryptogameco -04/07 pakistanious axe, 6000 minutes 1 1240
9098 2019-Nov-17 13:20:19 market sale   mycryptoland -19/-23 cohlsonworld axe, 6000 minutes 3 1099
9097 2019-Nov-17 13:04:31 market sale   cryptogameco -04/07 eleanorfirst axe, 6000 minutes 3 1240
9096 2019-Nov-17 12:55:37 market sale   sjhendrikszz -05/08 ranjana44555 axe, 6000 minutes 2 1350
9095 2019-Nov-17 12:11:43 market sale   bonanzahouse 05/01 wayunipasee2 axe, 6000 minutes 1 1379
9094 2019-Nov-17 12:01:00 market sale   gy3dmojqgege -01/03 bnr142455121 axe, 6000 minutes 1 1243
9093 2019-Nov-17 09:37:20 market sale   eosmother123 02/-25 pawelspawels axe, 6000 minutes 2 1244
9092 2019-Nov-17 09:30:46 market sale   gy3dmojqgege -01/03 thebest33333 axe, 6000 minutes 5 1243
9091 2019-Nov-17 06:57:05 market sale   bonanzahouse 05/01 dndakhairani axe, 6000 minutes 1 1379
9090 2019-Nov-17 06:34:53 market sale   bonanzahouse 05/01 dndakhairani axe, 6000 minutes 2 1379
9089 2019-Nov-17 06:32:54 market sale   bonanzahouse 05/01 dndakhairani axe, 6000 minutes 1 1379
9088 2019-Nov-17 05:33:27 market sale   gold4man4eos 14/11 ranjana44555 axe, 6000 minutes 1 1190
9087 2019-Nov-17 03:43:04 market sale   ravindra1234 -02/-22 bhavnaojha12 axe, 6000 minutes 1 2000
9086 2019-Nov-17 02:42:52 market sale   eos23ujzmlig 22/-22 itsmeyourdad axe, 5100 minutes 1 600
9085 2019-Nov-17 00:38:20 market sale   alibabaht123 23/-21 winruner1234 axe, 3500 minutes 1 55000
9084 2019-Nov-16 22:20:28 market sale   classicstrik 03/27 adasterunity axe, 5700 minutes 1 999
9083 2019-Nov-16 20:52:48 market sale   mdsmdsmdsmds 27/-17 smokersh5153 axe, 941 minutes 1 150
9082 2019-Nov-16 20:52:22 market sale   1ctk3d5eosda -18/26 smokersh5153 axe, 520 minutes 1 75
9081 2019-Nov-16 19:23:41 market sale   gy3dmojqgege -01/03 espressooooo axe, 6000 minutes 1 1249
9080 2019-Nov-16 19:21:49 market sale   gy3dmojqgege -01/03 espressooooo axe, 6000 minutes 2 1249
9079 2019-Nov-16 17:36:41 market sale   zahirlehri11 -05/11 g44denjrgige axe, 5400 minutes 1 1000
9078 2019-Nov-16 16:38:23 market sale   klimanskiy22 -05/-03 patspeer1414 axe, 6000 minutes 1 1298
9077 2019-Nov-16 15:36:49 market sale   gy3dmojqgege -01/03 bobisbobis22 axe, 6000 minutes 1 1249
9076 2019-Nov-16 14:15:10 market sale   salmankhanss -03/12 lethang12345 axe, 6000 minutes 4 1200
9075 2019-Nov-16 14:08:42 market sale   eoslittleman 22/-22 lethang12345 axe, 2400 minutes 1 500
9074 2019-Nov-16 13:59:38 market sale   ravindra1234 -02/-22 bhavnaojha12 axe, 6000 minutes 1 2000
9073 2019-Nov-16 12:57:11 market sale   1qaz2wsx4rfv -14/02 dipikaa12345 axe, 6000 minutes 1 1398
9072 2019-Nov-16 12:37:09 market sale   salmankhanss -03/12 pattanaik123 axe, 6000 minutes 1 1200
9071 2019-Nov-16 11:45:45 market sale   hananmaliki2 -11/21 123sanjapopo axe, 6000 minutes 1 1339
9070 2019-Nov-16 10:29:35 market sale   salmankhanss -03/12 correplatano axe, 6000 minutes 1 1200
9069 2019-Nov-16 09:17:43 market sale   klimanskiy22 -05/-03 ravindra1234 axe, 6000 minutes 2 1298
9068 2019-Nov-16 08:13:26 market sale   klimanskiy22 -05/-03 gamesmake143 axe, 6000 minutes 1 1298
9067 2019-Nov-16 08:09:28 market sale   superw4lox11 -12/21 fhcjfkgkfdfj axe, 6000 minutes 1 1799
9066 2019-Nov-16 08:03:21 market sale   rtnyffon2x5j -08/-03 ravindra1234 axe, 6000 minutes 1 1379
9065 2019-Nov-16 06:40:22 market sale   klimanskiy22 -05/-03 priyanshu123 axe, 6000 minutes 2 1298
9064 2019-Nov-16 06:29:52 market sale   azebahmadsss -13/-23 priyanshu123 axe, 6000 minutes 1 1450
9063 2019-Nov-16 05:58:45 market sale   eoslittleman 22/-22 smokersh5153 axe, 1800 minutes 2 300
9062 2019-Nov-16 05:57:31 market sale   eoslittleman 22/-22 smokersh5153 axe, 1800 minutes 1 300
9061 2019-Nov-16 05:57:02 market sale   eoslittleman 22/-22 smokersh5153 axe, 1800 minutes 1 300
9060 2019-Nov-16 04:09:43 market sale   gy3dmojqgege -01/03 bagindamerbo axe, 6000 minutes 1 1276
9059 2019-Nov-16 01:43:44 market sale   hananmaliki2 -11/21 shotcaller43 axe, 6000 minutes 1 1339
9058 2019-Nov-16 00:54:38 market sale   gy3dmojqgege -01/03 franysfranys axe, 6000 minutes 1 1276
9057 2019-Nov-16 00:21:08 market sale   azebahmadsss -13/-23 dreammaker23 axe, 6000 minutes 6 1450
9056 2019-Nov-16 00:07:02 market sale   kowalska1111 00/23 mauriceka111 axe, 6000 minutes 1 1299
9055 2019-Nov-15 23:12:22 market sale   gy3dmojqgege -01/03 hezdsmjqhage axe, 6000 minutes 1 1276
9054 2019-Nov-15 21:31:19 market sale   eos23ujzmlig 22/-22 izaakgoldman axe, 64 minutes 1 1
9053 2019-Nov-15 21:08:13 market sale   mdjohuruli33 -20/22 eddiecarty12 axe, 6000 minutes 1 2000
9052 2019-Nov-15 20:41:43 market sale   ha3dmmrygyge 11/-13 sachintilwan axe, 6000 minutes 2 1299
9051 2019-Nov-15 20:06:51 market sale   voodudelk111 25/26 snehalghosh1 axe, 6000 minutes 4 1473
9050 2019-Nov-15 18:50:21 market sale   gy3dmojqgege -01/03 lowrider3244 axe, 6000 minutes 6 1276
9049 2019-Nov-15 18:00:14 market sale   kowalska1111 00/23 mustyoziey12 axe, 6000 minutes 5 1299
9048 2019-Nov-15 17:39:27 market sale   olegsokolov1 -06/06 batshitberry axe, 2520 minutes 1 530
9047 2019-Nov-15 16:12:13 market sale   conceptplays -03/05 rayhaneosmas axe, 6000 minutes 1 1178
9046 2019-Nov-15 15:15:07 market sale   voodudelk111 25/26 mauriceka111 axe, 6000 minutes 1 1473
9045 2019-Nov-15 14:27:16 market sale   rtnyffon2x5j -01/09 elcubano1.tp axe, 6000 minutes 1 1379
9044 2019-Nov-15 13:49:32 market sale   khushiarvind 10/09 pranighstarx axe, 6000 minutes 1 1177
9043 2019-Nov-15 12:23:26 market sale   kowalska1111 00/23 mustyoziey12 axe, 6000 minutes 7 1299
9042 2019-Nov-15 11:32:45 market sale   khushiarvind 10/09 yw3sy4c4j15m axe, 6000 minutes 1 1177
9041 2019-Nov-15 11:26:38 market sale   ha3dmmrygyge 11/-13 bnr142455121 axe, 6000 minutes 1 1299
9040 2019-Nov-15 08:52:01 market sale   superw4lox11 -12/21 fhcjfkgkfdfj axe, 6000 minutes 1 1799
9039 2019-Nov-15 08:48:59 market sale   khushiarvind 10/09 sbsshetty251 axe, 6000 minutes 1 1177
9038 2019-Nov-15 08:07:17 market sale   alifree12345 27/27 aliraza12345 axe, 5100 minutes 1 100
9037 2019-Nov-15 07:18:37 market sale   voodudelk111 25/26 mabimsabims2 axe, 6000 minutes 1 1473
9036 2019-Nov-15 05:40:24 market sale   khushiarvind 10/09 tihancik5353 axe, 6000 minutes 3 1177
9035 2019-Nov-15 02:59:37 market sale   hananmaliki2 -11/21 chandansahoo axe, 6000 minutes 1 1339
9034 2019-Nov-15 02:58:01 market sale   hananmaliki2 -11/21 chandansahoo axe, 6000 minutes 1 1399
9033 2019-Nov-15 01:28:48 market sale   hananmaliki2 -11/21 olymarinm111 axe, 6000 minutes 1 1339
9032 2019-Nov-15 00:43:53 market sale   freeoooooooo 04/13 anikybee1234 axe, 6000 minutes 1 1370
9031 2019-Nov-15 00:02:18 market sale   ha3dmmrygyge 11/-13 norfiescu234 axe, 6000 minutes 1 1299
9030 2019-Nov-14 23:22:46 market sale   subtilor5154 -11/11 eternalflame axe, 6000 minutes 1 1100
9029 2019-Nov-14 23:12:02 market sale   hananmaliki2 -11/21 baladewa3333 axe, 6000 minutes 1 1339
9028 2019-Nov-14 23:02:58 market sale   hananmaliki2 -11/21 karmaberkahh axe, 6000 minutes 1 1339
9027 2019-Nov-14 22:22:22 market sale   khushiarvind 10/09 hvklxixexhf3 axe, 6000 minutes 3 1100
9026 2019-Nov-14 21:52:33 market sale   duckboathunt 23/-19 eosgames2345 axe, 6000 minutes 1 1490
9025 2019-Nov-14 19:46:17 market sale   samsunactive 05/08 nafaiza12345 axe, 6000 minutes 1 1700
9024 2019-Nov-14 19:44:49 market sale   subtilor5154 -11/11 batshitberry axe, 5700 minutes 1 900
9023 2019-Nov-14 18:32:14 market sale   gy3dmojqgege -01/03 kishanpatel1 axe, 6000 minutes 1 1298
9022 2019-Nov-14 16:47:39 market sale   afernandes12 18/05 arifurislam5 axe, 2400 minutes 1 526
9021 2019-Nov-14 13:54:11 market sale   samsunactive 05/08 ansariirfan1 axe, 6000 minutes 1 1700
9020 2019-Nov-14 13:08:02 market sale   tristan12345 -13/00 aume1rrpmp51 axe, 6000 minutes 3 1300
9019 2019-Nov-14 12:30:35 market sale   ha3dmmrygyge 11/-13 safwadiiiiii axe, 6000 minutes 3 1299
9018 2019-Nov-14 12:18:07 market sale   gy3dmojqgege -01/03 tawintech123 axe, 6000 minutes 5 1298
9017 2019-Nov-14 08:30:03 market sale   kowalska1111 00/23 aniuskaamr11 axe, 6000 minutes 1 1299
9016 2019-Nov-14 07:11:33 market sale   azebahmadsss -13/-23 laylaylaylay axe, 6000 minutes 1 1450
9015 2019-Nov-14 05:32:48 market sale   kowalska1111 00/23 rahulpawar12 axe, 6000 minutes 1 1299
9014 2019-Nov-14 04:21:28 market sale   bonanzahouse 05/01 anikybee1234 axe, 6000 minutes 2 1379
9013 2019-Nov-14 03:36:09 market sale   ducthang22sa -11/27 gamesmake143 axe, 6000 minutes 1 1414
9012 2019-Nov-14 03:00:13 market sale   alifree12345 27/27 prosfectorid axe, 5084 minutes 1 1000
9011 2019-Nov-14 01:01:44 market sale   alifree12345 26/27 iamkushagra1 axe, 5400 minutes 1 950
9010 2019-Nov-13 21:14:07 market sale   alifree12345 26/27 teobethebest axe, 5400 minutes 2 950
9009 2019-Nov-13 21:13:50 market sale   khzy2hcbzhs5 25/18 teobethebest axe, 4800 minutes 1 510
9008 2019-Nov-13 20:37:54 market sale   conceptplays -03/05 sachintilwan axe, 6000 minutes 1 1178
9007 2019-Nov-13 20:37:40 market sale   alifree12345 26/27 sachintilwan axe, 5880 minutes 2 950
9006 2019-Nov-13 19:39:10 market sale   conceptplays -03/05 wilitta12121 axe, 6000 minutes 1 1178
9005 2019-Nov-13 19:17:00 market sale   alifree12345 26/27 widebodycop1 axe, 5880 minutes 1 950
9004 2019-Nov-13 17:43:13 market sale   bonanzahouse 05/01 wilenor12345 axe, 6000 minutes 1 1379
9003 2019-Nov-13 16:37:35 market sale   sitonle1x2tn 19/-12 21marianna15 axe, 6000 minutes 1 1049
9002 2019-Nov-13 16:24:04 market sale   vazrieleos11 10/-16 karansuthar1 axe, 6000 minutes 1 1050
9001 2019-Nov-13 16:02:07 market sale   sjhendrikszz -05/08 mabimsabims2 axe, 6000 minutes 1 1400
9000 2019-Nov-13 15:55:05 market sale   freeoooooooo 04/13 gamesland121 axe, 6000 minutes 1 1370
8999 2019-Nov-13 15:50:17 market sale   gy3dmojqgege -01/03 seregaserega axe, 6000 minutes 1 1338
8998 2019-Nov-13 15:18:54 market sale   tribalman321 -01/24 efxtotbaksta axe, 6000 minutes 1 2000
8997 2019-Nov-13 14:26:20 market sale   vazrieleos11 10/-16 espressooooo axe, 6000 minutes 4 1050
8996 2019-Nov-13 12:40:01 market sale   garlicwallet -05/03 knightshadow axe, 6000 minutes 7 1040
8995 2019-Nov-13 10:40:00 market sale   garlicwallet -05/03 chiriguitave axe, 6000 minutes 2 1040
8994 2019-Nov-13 09:48:23 market sale   naddanparind 07/02 just4creator axe, 6000 minutes 1 1550
8993 2019-Nov-13 09:13:59 market sale   klimanskiy22 -05/-03 waqasjunejo1 axe, 6000 minutes 2 1279
8992 2019-Nov-13 08:57:16 market sale   azebahmadsss -13/-23 yaprisheleos axe, 6000 minutes 1 1450
8991 2019-Nov-13 08:52:00 market sale   salmankhanss -03/12 prospectoris axe, 6000 minutes 1 1179
8990 2019-Nov-13 08:33:28 market sale   sitonle1x2tn 19/-12 widebodycop1 axe, 2100 minutes 1 299
8989 2019-Nov-13 07:21:03 market sale   garlicwallet -05/03 hotzenplotz5 axe, 6000 minutes 1 1040
8988 2019-Nov-13 05:38:30 market sale   garlicwallet -05/03 pakistanious axe, 6000 minutes 2 1040
8987 2019-Nov-13 03:11:44 market sale   afernandes12 18/05 najamjan1122 axe, 2400 minutes 1 526
8986 2019-Nov-13 02:00:54 market sale   bonanzahouse 05/01 rejacole2133 axe, 6000 minutes 1 1379
8985 2019-Nov-13 01:30:20 market sale   salmankhanss -03/12 chandansahoo axe, 6000 minutes 1 1179
8984 2019-Nov-13 01:14:59 market sale   ha3dmmrygyge 11/-13 andresymm111 axe, 6000 minutes 1 1299
8983 2019-Nov-13 01:01:51 market sale   vazrieleos11 10/-16 sultaneospro axe, 6000 minutes 3 1050
8982 2019-Nov-12 22:54:47 market sale   naddanparind 07/02 anikybee1234 axe, 6000 minutes 1 1550
8981 2019-Nov-12 22:45:41 market sale   kowalska1111 00/23 mightsomemic axe, 6000 minutes 3 1299
8980 2019-Nov-12 19:37:37 market sale   azebahmadsss -13/-23 shoaibpatni1 axe, 6000 minutes 1 1450
8979 2019-Nov-12 19:10:19 market sale   conceptplays -03/05 aparnasaha12 axe, 6000 minutes 4 1178
8978 2019-Nov-12 18:20:38 market sale   conceptplays -03/05 krishna12345 axe, 6000 minutes 1 1178
8977 2019-Nov-12 18:17:39 market sale   conceptplays -03/05 waldeewaldee axe, 6000 minutes 1 1178
8976 2019-Nov-12 16:52:06 market sale   ha3dmmrygyge 11/-13 laylaylaylay axe, 6000 minutes 1 1299
8975 2019-Nov-12 16:34:07 market sale   conceptplays -03/05 cc1cftzakerd axe, 6000 minutes 1 1178
8974 2019-Nov-12 12:54:12 market sale   salmankhanss -03/12 pattanaik123 axe, 6000 minutes 1 1179
8973 2019-Nov-12 12:34:52 market sale   hurabasif111 -12/25 naashfak1234 axe, 6000 minutes 1 1344
8972 2019-Nov-12 11:55:34 market sale   conceptplays -03/05 hotzenplotz5 axe, 6000 minutes 1 1178
8971 2019-Nov-12 10:05:03 market sale   apoorvavicky 16/-02 eosdhangurun axe, 6000 minutes 1 1280
8970 2019-Nov-12 08:37:09 market sale   kowalska1111 00/23 grandpaeosb4 axe, 6000 minutes 1 1449
8969 2019-Nov-12 08:20:31 market sale   knightshadow -03/14 sbsshetty251 axe, 6000 minutes 1 1175
8968 2019-Nov-12 08:15:27 market sale   mdjohuruli33 -20/22 digdigdigeos axe, 6000 minutes 1 2000
8967 2019-Nov-12 07:04:58 market sale   alifree12345 27/27 atifmalik512 axe, 6000 minutes 1 1100
8966 2019-Nov-12 05:35:45 market sale   salmankhanss -03/12 hvklxixexhf3 axe, 6000 minutes 5 1179
8965 2019-Nov-12 04:35:02 market sale   voodudelk111 25/26 nestheroviap axe, 6000 minutes 1 1473
8964 2019-Nov-12 01:25:08 market sale   gravityalive 16/27 myeosiogamer axe, 1085 minutes 1 180
8963 2019-Nov-11 23:28:23 market sale   azebahmadsss -13/-23 olymarinm111 axe, 6000 minutes 1 1450
8962 2019-Nov-11 21:14:14 market sale   iambig1deeee 20/22 anikybee1234 axe, 180 minutes 1 44000
8961 2019-Nov-11 20:10:21 market sale   tristan12345 -13/00 ddayhydra333 axe, 6000 minutes 2 1300
8960 2019-Nov-11 20:06:39 market sale   klimanskiy22 -05/-03 zahrulfuadii axe, 6000 minutes 2 1366
8959 2019-Nov-11 19:28:12 market sale   apoorvavicky 16/-02 ha4dmnjtguge axe, 6000 minutes 1 1280
8958 2019-Nov-11 18:23:53 market sale   gold4man4eos 18/10 zahirlehri11 axe, 2099 minutes 1 500
8957 2019-Nov-11 15:19:46 market sale   gravityalive 15/17 mayecopland1 axe, 1085 minutes 1 180
8956 2019-Nov-11 14:37:02 market sale   klimanskiy22 -05/-03 recklessgame axe, 6000 minutes 5 1329
8955 2019-Nov-11 13:51:21 market sale   knightshadow -03/14 lussiypusiyi axe, 6000 minutes 2 1320
8954 2019-Nov-11 13:50:03 market sale   gravityalive 15/17 lussiypusiyi axe, 4500 minutes 1 750
8953 2019-Nov-11 12:09:46 market sale   gy3dmojqgege -01/03 espressooooo axe, 6000 minutes 1 1338
8952 2019-Nov-11 12:06:50 market sale   gy3dmojqgege -01/03 espressooooo axe, 6000 minutes 2 1338
8951 2019-Nov-11 09:14:02 market sale   conceptplays -03/05 travyknight2 axe, 6000 minutes 1 1367
8950 2019-Nov-11 08:50:33 market sale   aluminumcoin 26/-19 aniuskaamr11 axe, 6000 minutes 1 1367
8949 2019-Nov-11 06:49:59 market sale   tristan12345 -13/00 damian123455 axe, 6000 minutes 3 1300
8948 2019-Nov-11 04:50:58 market sale   tristan12345 -13/00 aume1rrpmp51 axe, 6000 minutes 1 1300
8947 2019-Nov-11 04:50:23 market sale   tristan12345 -13/00 aume1rrpmp51 axe, 6000 minutes 2 1300
8946 2019-Nov-11 04:36:09 market sale   tristan12345 -13/00 eosjeuxxxxxx axe, 6000 minutes 2 1300
8945 2019-Nov-11 03:27:45 market sale   gy3dmojqgege -01/03 espressooooo axe, 6000 minutes 2 1366
8944 2019-Nov-10 19:51:04 market sale   gold4man4eos 18/10 hazdaojqgege axe, 6000 minutes 1 1365
8943 2019-Nov-10 19:45:30 market sale   gold4man4eos 18/10 eos4ainichek axe, 6000 minutes 1 1365
8942 2019-Nov-10 19:37:26 market sale   gold4man4eos 18/10 waqasjunejo1 axe, 6000 minutes 2 1365
8941 2019-Nov-10 19:24:07 market sale   klimanskiy22 -05/-03 iridescent11 axe, 6000 minutes 1 1398
8940 2019-Nov-10 18:53:43 market sale   nispidarious -04/-02 marzukieos11 axe, 6000 minutes 1 1364
8939 2019-Nov-10 18:23:17 market sale   nispidarious -04/-02 gamesacc1525 axe, 6000 minutes 1 1364
8938 2019-Nov-10 16:40:41 market sale   gy3dmojqgege -01/03 rafiqulbd123 axe, 6000 minutes 1 1367
8937 2019-Nov-10 16:25:28 market sale   klimanskiy22 -05/-03 eosemmanuel1 axe, 6000 minutes 1 1398
8936 2019-Nov-10 12:15:22 market sale   klimanskiy22 -05/-03 krishna12345 axe, 6000 minutes 1 1368
8935 2019-Nov-10 10:45:05 market sale   gold4man4eos 18/10 kentlung1234 axe, 6000 minutes 1 1365
8934 2019-Nov-10 10:20:08 market sale   kowalska1111 00/23 123sanjapopo axe, 6000 minutes 1 1449
8933 2019-Nov-10 09:55:34 market sale   gold4man4eos 18/10 iambig1deeee axe, 2580 minutes 1 600
8932 2019-Nov-10 09:34:48 market sale   vishalsaroj1 -23/12 matayozam111 axe, 3371 minutes 1 550
8931 2019-Nov-10 08:49:48 market sale   duckboathunt 23/-19 grandpaeosb4 axe, 6000 minutes 1 1490
8930 2019-Nov-10 08:44:20 market sale   1qaz2wsx4rfv -14/02 dautueanh333 axe, 6000 minutes 1 1398
8929 2019-Nov-10 06:56:00 market sale   gy3dmojqgege -01/03 arianmaulana axe, 6000 minutes 1 1369
8928 2019-Nov-10 03:49:04 market sale   mdjohuruli33 -20/22 mnipks333333 axe, 6000 minutes 2 1750
8927 2019-Nov-10 01:37:24 market sale   nispidarious -04/-02 g44denjrgige axe, 6000 minutes 1 1368
8926 2019-Nov-09 20:54:58 market sale   azebahmadsss -13/-23 lumberman111 axe, 6000 minutes 1 1450
8925 2019-Nov-09 19:19:26 market sale   johanewa1111 17/14 freon21freon axe, 6000 minutes 3 1397
8924 2019-Nov-09 17:00:07 market sale   gold4man4eos 18/10 hoveghs12345 axe, 2041 minutes 1 500
8923 2019-Nov-09 16:33:55 market sale   vazrieleos11 10/-16 giztqmbsg4ge axe, 6000 minutes 4 1299
8922 2019-Nov-09 16:02:07 market sale   gy3dmojqgege -01/03 sayutisayuti axe, 6000 minutes 2 1367
8921 2019-Nov-09 15:39:02 market sale   mikmikmikmik -20/12 hamidusmaxim axe, 6000 minutes 1 1370
8920 2019-Nov-09 15:21:16 market sale   bonanzahouse 05/01 badrussaliss axe, 6000 minutes 1 1379
8919 2019-Nov-09 15:11:58 market sale   1ctk3d5eosda -17/-02 nikitabanero axe, 6000 minutes 6 1350
8918 2019-Nov-09 14:17:47 market sale   vazrieleos11 10/-16 pranighstarx axe, 6000 minutes 1 1299
8917 2019-Nov-09 11:30:47 market sale   gy3dmojqgege -01/03 emiliomorles axe, 6000 minutes 4 1367
8916 2019-Nov-09 10:08:24 market sale   bonanzahouse 05/01 sktkdgns2121 axe, 6000 minutes 1 1379
8915 2019-Nov-09 10:02:51 market sale   nispidarious -04/-02 alexalexale1 axe, 5700 minutes 1 950
8914 2019-Nov-09 08:32:22 market sale   maejur123451 -17/-24 1mycrypto213 axe, 5400 minutes 1 2000
8913 2019-Nov-09 03:35:12 market sale   gy3dmojqgege -01/03 kumarwolfren axe, 6000 minutes 1 1367
8912 2019-Nov-09 03:33:54 market sale   sjhendrikszz -05/08 kumarwolfren axe, 6000 minutes 1 1400
8911 2019-Nov-09 03:13:17 market sale   azebahmadsss -13/-23 1mycrypto213 axe, 6000 minutes 1 1450
8910 2019-Nov-09 03:12:33 market sale   ninjaninja11 00/-24 digdigdigeos axe, 6000 minutes 1 2698
8909 2019-Nov-09 03:05:56 market sale   gy3dmojqgege -01/03 1mycrypto213 axe, 6000 minutes 2 1367
8908 2019-Nov-09 02:48:43 market sale   blueblu12345 -15/-23 1mycrypto213 axe, 6000 minutes 2 1366
8907 2019-Nov-09 02:08:01 market sale   superw4lox11 -12/21 fhcjfkgkfdfj axe, 6000 minutes 1 1799
8906 2019-Nov-08 21:42:20 market sale   bonanzahouse 05/01 shunbagidaki axe, 6000 minutes 2 1379
8905 2019-Nov-08 20:46:59 market sale   sitonle1x2tn -23/12 freyaainelan axe, 2996 minutes 1 599
8904 2019-Nov-08 19:08:24 market sale   gy3dmojqgege -01/03 blessedman33 axe, 6000 minutes 1 1367
8903 2019-Nov-08 18:55:39 market sale   gy3dmojqgege -01/03 thinkdigital axe, 6000 minutes 1 1367
8902 2019-Nov-08 18:48:20 market sale   ha3dmmrygyge 11/-13 olymarinm111 axe, 6000 minutes 1 1499
8901 2019-Nov-08 18:33:39 market sale   voodudelk111 25/26 maxi15miran4 axe, 6000 minutes 1 1473
8900 2019-Nov-08 18:17:38 market sale   azebahmadsss -13/-23 kmfpfeos1234 axe, 6000 minutes 1 1450
8899 2019-Nov-08 18:15:42 market sale   azebahmadsss -13/-23 kmfpfeos1234 axe, 6000 minutes 1 1450
8898 2019-Nov-08 17:46:24 market sale   gy3dmojqgege -01/03 rjpootrana12 axe, 6000 minutes 1 1367
8897 2019-Nov-08 16:39:35 market sale   gy3dmojqgege -01/03 nikita112ooo axe, 6000 minutes 3 1367
8896 2019-Nov-08 16:14:00 market sale   tanbvdh12345 -21/-10 autochesseos axe, 6000 minutes 3 1100
8895 2019-Nov-08 15:52:11 market sale   klimanskiy22 -05/-03 anikybee1234 axe, 6000 minutes 1 1368
8894 2019-Nov-08 15:51:06 market sale   klimanskiy22 -05/-03 anikybee1234 axe, 6000 minutes 2 1368
8893 2019-Nov-08 15:05:24 market sale   orendadilnok 04/00 1jomolungma1 axe, 6000 minutes 1 1199
8892 2019-Nov-08 14:03:47 market sale   conceptplays -03/05 anormira1234 axe, 6000 minutes 1 1365
8891 2019-Nov-08 14:01:03 market sale   marzenaruska 02/25 sergeii12345 axe, 167 minutes 1 239
8890 2019-Nov-08 11:23:53 market sale   mikmikmikmik -20/12 freyaainelan axe, 6000 minutes 1 1370
8889 2019-Nov-08 11:06:16 market sale   mikmikmikmik -20/12 eosjeux3xxxx axe, 6000 minutes 1 1370
8888 2019-Nov-08 10:07:00 market sale   gy3dmojqgege -01/03 sktkdgns2121 axe, 6000 minutes 1 1367
8887 2019-Nov-08 09:51:33 market sale   conceptplays -03/05 rahulp121255 axe, 6000 minutes 2 1365
8886 2019-Nov-08 08:17:58 market sale   klimanskiy22 -05/-03 eosmeetone34 axe, 6000 minutes 1 1368
8885 2019-Nov-08 07:59:16 market sale   conceptplays -03/05 prosgold1414 axe, 6000 minutes 1 1365
8884 2019-Nov-08 05:49:01 market sale   klimanskiy22 -05/-03 shakshishah1 axe, 6000 minutes 1 1368
8883 2019-Nov-08 05:15:18 market sale   gy3dmojqgege -01/03 badrussaliss axe, 6000 minutes 1 1369
8882 2019-Nov-08 04:37:36 market sale   duckboathunt 23/-19 criptosonido axe, 6000 minutes 1 1490
8881 2019-Nov-08 02:58:43 market sale   hananmaliki2 -11/21 lowrider3244 axe, 6000 minutes 3 1388
8880 2019-Nov-08 02:47:42 market sale   bonanzahouse 05/01 alifree12345 axe, 6000 minutes 9 1379
8879 2019-Nov-08 01:09:51 market sale   gy3dmojqgege -01/03 blessedman33 axe, 6000 minutes 1 1369
8878 2019-Nov-07 21:27:52 market sale   klimanskiy22 -05/-03 anikybee1234 axe, 6000 minutes 1 1379
8877 2019-Nov-07 18:21:44 market sale   blizarxd2323 11/19 sighmanjesta axe, 6000 minutes 2 1380
8876 2019-Nov-07 17:12:48 market sale   gy3dmojqgege -01/03 patspeer1414 axe, 6000 minutes 1 1369
8875 2019-Nov-07 15:14:23 market sale   gy3dmojqgege -01/03 pranighstarx axe, 6000 minutes 1 1369
8874 2019-Nov-07 14:13:51 market sale   johanewa1111 17/14 izaakgoldman axe, 6000 minutes 1 1397
8873 2019-Nov-07 12:59:29 market sale   gy3dmojqgege -01/03 bnr443442553 axe, 6000 minutes 1 1369
8872 2019-Nov-07 12:54:32 market sale   gy3dmojqgege -01/03 mitya1234123 axe, 6000 minutes 1 1369
8871 2019-Nov-07 12:36:57 market sale   gy3dmojqgege -01/03 prosgold1414 axe, 6000 minutes 3 1369
8870 2019-Nov-07 09:33:06 market sale   gy3dmojqgege -01/03 sktkdgns2121 axe, 6000 minutes 1 1369
8869 2019-Nov-07 09:28:38 market sale   blizarxd2323 11/19 g44denjrgige axe, 6000 minutes 1 1380
8868 2019-Nov-07 07:35:29 market sale   gy3dmojqgege -01/03 hezdsmjqhage axe, 6000 minutes 1 1369
8867 2019-Nov-07 06:17:48 market sale   gy3dmojqgege -01/03 knightshadow axe, 6000 minutes 3 1369
8866 2019-Nov-07 05:47:51 market sale   gy3dmojqgege -01/03 pattanaik123 axe, 6000 minutes 1 1369
8865 2019-Nov-07 05:05:34 market sale   johanewa1111 17/14 gamesmake143 axe, 6000 minutes 1 1444
8864 2019-Nov-07 05:02:09 market sale   heirheirheir -11/-25 dmagonzalez2 axe, 3100 minutes 1 699
8863 2019-Nov-07 04:47:18 market sale   azebahmadsss -13/-23 hospital4221 axe, 6000 minutes 1 1450
8862 2019-Nov-07 04:03:16 market sale   gy3dmojqgege -01/03 eosgames2345 axe, 6000 minutes 1 1369
8861 2019-Nov-07 03:43:54 market sale   gy3dmojqgege -01/03 bagindamerbo axe, 6000 minutes 2 1369
8860 2019-Nov-07 02:54:41 market sale   1qaz2wsx4rfv -14/02 snehalghosh1 axe, 6000 minutes 2 1398
8859 2019-Nov-07 02:44:41 market sale   hananmaliki2 -11/21 gamesacc1525 axe, 6000 minutes 1 1388
8858 2019-Nov-07 01:48:08 market sale   mikmikmikmik -20/12 rajbharti123 axe, 6000 minutes 1 1370
8857 2019-Nov-07 01:29:02 market sale   superw4lox11 -12/21 fhcjfkgkfdfj axe, 6000 minutes 1 1799
8856 2019-Nov-06 22:58:43 market sale   duckboathunt 23/-19 criptosonido axe, 6000 minutes 1 1490
8855 2019-Nov-06 21:03:07 market sale   johanewa1111 17/14 eurekamobile axe, 6000 minutes 1 1444
8854 2019-Nov-06 21:02:48 market sale   hitekredneck -26/03 hamidusmaxim axe, 6000 minutes 1 1400
8853 2019-Nov-06 19:24:31 market sale   conceptplays -03/05 omkarpetkar1 axe, 6000 minutes 1 1370
8852 2019-Nov-06 17:53:18 market sale   jarenhasan11 04/07 dmagonzalez2 axe, 480 minutes 1 250
8851 2019-Nov-06 16:41:46 market sale   gy3dmojqgege -01/03 eostarmoveon axe, 6000 minutes 7 1372
8850 2019-Nov-06 15:06:44 market sale   eossuperhans 13/-10 dario1cesaro axe, 6000 minutes 2 1400
8849 2019-Nov-06 15:02:30 market sale   ha3dmmrygyge 11/-13 alltagskohle axe, 6000 minutes 1 1699
8848 2019-Nov-06 14:50:36 market sale   azebahmadsss -13/-23 ravindra1234 axe, 6000 minutes 1 1450
8847 2019-Nov-06 14:29:20 market sale   thenasumatic 01/13 ciliberto123 axe, 2640 minutes 1 210
8846 2019-Nov-06 14:25:45 market sale   voodudelk111 25/26 alexpozitiv5 axe, 6000 minutes 1 1473
8845 2019-Nov-06 14:23:04 market sale   ducthang22sa -11/27 hospital4221 axe, 6000 minutes 1 1414
8844 2019-Nov-06 14:03:36 market sale   gy3dmojqgege -01/03 mitya1234123 axe, 6000 minutes 1 1372
8843 2019-Nov-06 13:32:48 market sale   aluminumcoin 26/-19 agungindrag2 axe, 334 minutes 1 100
8842 2019-Nov-06 12:53:16 market sale   mikmikmikmik -20/12 freyaainelan axe, 6000 minutes 1 1372
8841 2019-Nov-06 12:18:43 market sale   salmankhanss -03/12 captainakena axe, 6000 minutes 1 1390
8840 2019-Nov-06 11:52:41 market sale   slavasaa4554 22/27 lorrelinne15 axe, 6000 minutes 1 2500
8839 2019-Nov-06 11:47:32 market sale   duckboathunt 23/-19 agungindrag2 axe, 6000 minutes 1 1475
8838 2019-Nov-06 10:24:51 market sale   klimanskiy22 -05/-03 anikybee1234 axe, 6000 minutes 2 1389
8837 2019-Nov-06 09:57:15 market sale   naddanparind 07/02 boreesahnton axe, 6000 minutes 1 1468
8836 2019-Nov-06 09:29:13 market sale   duckboathunt 23/-19 grandpaeosb4 axe, 6000 minutes 1 1475
8835 2019-Nov-06 09:00:17 market sale   gy3dmojqgege -01/03 izaakgoldman axe, 6000 minutes 1 1372
8834 2019-Nov-06 08:59:46 market sale   benjaminros1 01/27 izaakgoldman axe, 283 minutes 1 50
8833 2019-Nov-06 08:42:28 market sale   gy3dmojqgege -01/03 aashishkumar axe, 6000 minutes 3 1372
8832 2019-Nov-06 08:14:55 market sale   gy3dmojqgege -01/03 bikashmahato axe, 6000 minutes 1 1372
8831 2019-Nov-06 06:36:08 market sale   nispidarious -04/-02 bnr443442553 axe, 6000 minutes 1 1371
8830 2019-Nov-06 06:19:22 market sale   duckboathunt 23/-19 megapixel123 axe, 6000 minutes 1 1475
8829 2019-Nov-06 05:09:22 market sale   buraqasif444 -12/25 pranighstarx axe, 6000 minutes 1 1399
8828 2019-Nov-06 03:30:06 market sale   gy3dmojqgege -01/03 mudasirffmm1 axe, 6000 minutes 3 1372
8827 2019-Nov-06 03:27:36 market sale   nexterworlds 27/20 criptosonido axe, 6000 minutes 1 1600
8826 2019-Nov-06 01:22:33 market sale   sjhendrikszz -05/08 chrisxxdrain axe, 6000 minutes 1 1400
8825 2019-Nov-06 01:01:39 market sale   voodudelk111 23/26 olymarinm111 axe, 6000 minutes 1 1400
8824 2019-Nov-05 23:13:25 market sale   johanewa1111 17/14 bnr142455121 axe, 6000 minutes 2 1444
8823 2019-Nov-05 21:42:49 market sale   conceptplays -03/05 jpcubideseos axe, 6000 minutes 1 1373
8822 2019-Nov-05 19:56:11 market sale   usmankhalid1 27/-16 nykassex2255 axe, 6000 minutes 1 1370
8821 2019-Nov-05 18:42:50 market sale   gy3dmojqgege -01/03 krishna12345 axe, 6000 minutes 1 1374
8820 2019-Nov-05 18:03:57 market sale   voodudelk111 23/26 aniuskaamr11 axe, 6000 minutes 1 1400
8819 2019-Nov-05 17:26:23 market sale   usmankhalid1 27/-16 jhonkarmaeos axe, 6000 minutes 1 1370
8818 2019-Nov-05 16:25:16 market sale   gy3dmojqgege -01/03 dmagonixxx12 axe, 6000 minutes 2 1374
8817 2019-Nov-05 16:13:56 market sale   eossuperhans 13/-10 magnet111111 axe, 6000 minutes 1 1400
8816 2019-Nov-05 15:39:50 market sale   tristan12345 25/16 koixuong1234 axe, 3300 minutes 1 550
8815 2019-Nov-05 14:21:44 market sale   gunslair1235 -11/-18 yodaismobile axe, 5280 minutes 1 1000
8814 2019-Nov-05 13:39:36 market sale   gy3dmojqgege -01/03 downupdownup axe, 6000 minutes 1 1374
8813 2019-Nov-05 12:44:24 market sale   1qaz2wsx4rfv -14/02 suitconsider axe, 6000 minutes 1 1500
8812 2019-Nov-05 11:04:52 market sale   ducthang22sa -11/27 krivbasscity axe, 6000 minutes 1 1414
8811 2019-Nov-05 09:50:21 market sale   samsunactive 05/08 muinuddinkha axe, 6000 minutes 1 1700
8810 2019-Nov-05 08:02:42 market sale   mdjohuruli33 -20/22 eddiecarty12 axe, 6000 minutes 1 1600
8809 2019-Nov-05 04:07:08 market sale   gy3dmojqgege -01/03 dmagonixxx12 axe, 6000 minutes 3 1379
8808 2019-Nov-05 00:56:18 market sale   gy3dmojqgege -01/03 workereospro axe, 6000 minutes 4 1379
8807 2019-Nov-04 23:43:26 market sale   duckboathunt 23/-19 eosmeetone34 axe, 6000 minutes 1 1475
8806 2019-Nov-04 20:12:26 market sale   usmankhalid1 27/-16 hazdaojqgege axe, 6000 minutes 1 1380
8805 2019-Nov-04 19:39:33 market sale   inspiredbyit -04/03 k1234512345n axe, 6000 minutes 1 1447
8804 2019-Nov-04 19:31:15 market sale   voodudelk111 23/26 dipshlappers axe, 6000 minutes 3 1400
8803 2019-Nov-04 19:14:58 market sale   superw4lox11 -12/21 tvkfrkkx5rrq axe, 6000 minutes 1 1799
8802 2019-Nov-04 18:19:12 market sale   sitonle1x2tn 25/-20 aume1rrpmp51 axe, 2647 minutes 1 599
8801 2019-Nov-04 17:13:28 market sale   nispidarious -04/-02 aniuskaamr11 axe, 6000 minutes 1 1388
8800 2019-Nov-04 16:30:01 market sale   usmankhalid1 27/-16 justforyou13 axe, 6000 minutes 1 1380
8799 2019-Nov-04 15:32:55 market sale   sitonle1x2tn 25/-20 cryptominior axe, 2520 minutes 1 550
8798 2019-Nov-04 13:37:17 market sale   duckboathunt 23/-19 yoelsoto1111 axe, 6000 minutes 2 1475
8797 2019-Nov-04 12:14:02 market sale   eos4anjsrich -12/-14 eostarmoveon axe, 6000 minutes 1 1800
8796 2019-Nov-04 12:04:58 market sale   apoorvavicky 16/-02 bnr142455121 axe, 6000 minutes 1 1600
8795 2019-Nov-04 11:56:09 market sale   gy3dmojqgege -01/03 eostarmoveon axe, 6000 minutes 8 1389
8794 2019-Nov-04 11:55:49 market sale   hezdinrugqge 03/-06 animalslocer axe, 6000 minutes 1 1250
8793 2019-Nov-04 10:10:08 market sale   ducthang22sa -11/27 kowalska1111 axe, 6000 minutes 1 1414
8792 2019-Nov-04 10:07:13 market sale   1qaz2wsx4rfv -14/02 akhil145hans axe, 6000 minutes 1 1500
8791 2019-Nov-04 09:56:07 market sale   mdjohuruli33 -20/22 lomoblomlom1 axe, 6000 minutes 1 1600
8790 2019-Nov-04 08:52:02 market sale   nispidarious -04/-02 doomakos3452 axe, 6000 minutes 1 1395
8789 2019-Nov-04 08:18:30 market sale   nexterworlds 27/20 eosbabuulai2 axe, 167 minutes 1 200
8788 2019-Nov-04 07:58:33 market sale   hezdinrugqge 03/-06 lorrelinne15 axe, 6000 minutes 1 1250
8787 2019-Nov-04 07:27:33 market sale   johanewa1111 17/14 thorminerr33 axe, 6000 minutes 1 1444
8786 2019-Nov-04 07:02:52 market sale   sitonle1x2tn 25/-20 angelababies axe, 2451 minutes 1 499
8785 2019-Nov-04 07:02:20 market sale   sitonle1x2tn 25/-20 angelababies axe, 4620 minutes 2 599
8784 2019-Nov-04 06:55:47 market sale   gy3dmojqgege -01/03 biofarmer.tp axe, 6000 minutes 1 1389
8783 2019-Nov-04 05:04:39 market sale   nispidarious -04/-02 rahulpawar12 axe, 6000 minutes 1 1249
8782 2019-Nov-04 04:21:04 market sale   nispidarious -04/-02 marlincrypto axe, 6000 minutes 1 1249
8781 2019-Nov-04 03:55:52 market sale   gy3dmojqgege -01/03 mastahgreyin axe, 6000 minutes 1 1398
8780 2019-Nov-04 03:55:35 market sale   nispidarious -04/-02 ndidiamaka24 axe, 6000 minutes 1 1249
8779 2019-Nov-04 03:50:09 market sale   vazrieleos11 00/-25 ndidiamaka24 axe, 6000 minutes 1 1199
8778 2019-Nov-04 03:18:25 market sale   nispidarious -04/-02 kishanpatel2 axe, 6000 minutes 1 1249
8777 2019-Nov-04 03:15:59 market sale   gy3dmojqgege -01/03 qasimgame125 axe, 6000 minutes 1 1398
8776 2019-Nov-04 02:28:29 market sale   nispidarious -04/-02 wilitta12121 axe, 6000 minutes 1 1249
8775 2019-Nov-04 00:16:12 market sale   duckboathunt 23/-19 amadmira4321 axe, 6000 minutes 3 1490
8774 2019-Nov-04 00:04:01 market sale   vazrieleos11 00/-25 tsimanapetso axe, 6000 minutes 1 1199
8773 2019-Nov-03 21:36:15 market sale   nispidarious -04/-02 eosemmanuel1 axe, 6000 minutes 1 1249
8772 2019-Nov-03 19:54:58 market sale   sitonle1x2tn 25/-20 christoffer2 axe, 4620 minutes 1 699
8771 2019-Nov-03 19:52:45 market sale   ha3dmmrygyge 11/-13 snehalghosh1 axe, 6000 minutes 2 1699
8770 2019-Nov-03 18:48:52 market sale   gy3dmojqgege -01/03 patspeer1414 axe, 6000 minutes 1 1409
8769 2019-Nov-03 18:40:32 market sale   iamjohngalt1 -02/-06 christoffer2 axe, 4290 minutes 1 599
8768 2019-Nov-03 17:09:56 market sale   salmankhanss -03/12 latanacripto axe, 6000 minutes 1 1410
8767 2019-Nov-03 17:07:47 market sale   johanewa1111 17/14 latanacripto axe, 6000 minutes 1 1444
8766 2019-Nov-03 16:05:17 market sale   salmankhanss -03/12 govindkumar1 axe, 6000 minutes 2 1410
8765 2019-Nov-03 15:33:55 market sale   ohnurnoby132 07/-04 slavasaa4554 axe, 6000 minutes 6 1200
8764 2019-Nov-03 15:19:17 market sale   ducthang22sa -11/27 sushilkumar2 axe, 6000 minutes 1 1414
8763 2019-Nov-03 15:11:48 market sale   gy3dmojqgege -01/03 dunhildeosli axe, 6000 minutes 1 1409
8762 2019-Nov-03 15:10:48 market sale   gy3dmojqgege -01/03 dunhildeosli axe, 6000 minutes 1 1409
8761 2019-Nov-03 11:25:12 market sale   vazrieleos11 00/-25 samirgh12345 axe, 6000 minutes 1 1199
8760 2019-Nov-03 08:20:25 market sale   salmankhanss -03/12 kazelidispro axe, 6000 minutes 1 1410
8759 2019-Nov-03 07:10:03 market sale   duckboathunt 23/-19 beautifuldil axe, 6000 minutes 1 1490
8758 2019-Nov-03 06:56:54 market sale   duckboathunt 23/-19 devinder3125 axe, 6000 minutes 1 1490
8757 2019-Nov-03 06:42:21 market sale   duckboathunt 23/-19 amandeep5142 axe, 6000 minutes 1 1490
8756 2019-Nov-03 06:40:32 market sale   johanewa1111 17/14 amandeep5142 axe, 6000 minutes 1 1444
8755 2019-Nov-03 05:55:00 market sale   apoorvavicky 16/-02 shakilhossan axe, 6000 minutes 1 1600
8754 2019-Nov-03 05:09:27 market sale   hitekredneck -26/03 lucky13lucky axe, 6000 minutes 3 1475
8753 2019-Nov-03 05:08:47 market sale   hezdinrugqge 03/-06 baigfaisal55 axe, 6000 minutes 1 1250
8752 2019-Nov-03 04:26:27 market sale   blizarxd2323 11/19 amandeep5142 axe, 6000 minutes 1 1420
8751 2019-Nov-03 03:21:59 market sale   gy3dmojqgege -01/03 ernawatieos1 axe, 6000 minutes 3 1409
8750 2019-Nov-03 01:37:14 market sale   samsunactive 05/08 arsyilaarsyi axe, 6000 minutes 1 1700
8749 2019-Nov-02 23:10:41 market sale   hezdinrugqge 03/-06 thedoktoreos axe, 6000 minutes 1 1250
8748 2019-Nov-02 22:52:25 market sale   johanewa1111 17/14 alexpozitiv5 axe, 6000 minutes 2 1444
8747 2019-Nov-02 22:17:05 market sale   orendadilnok 04/00 igorrmilokkk axe, 6000 minutes 3 1299
8746 2019-Nov-02 21:50:51 market sale   hezdinrugqge 03/-06 fundanicaval axe, 6000 minutes 1 1250
8745 2019-Nov-02 21:13:09 market sale   hezdinrugqge 03/-06 yw3sy4c4j15m axe, 6000 minutes 1 1250
8744 2019-Nov-02 21:10:59 market sale   johanewa1111 17/14 tieuacmalm12 axe, 6000 minutes 3 1444
8743 2019-Nov-02 21:06:28 market sale   gy3dmojqgege -01/03 esthermaria1 axe, 6000 minutes 1 1413
8742 2019-Nov-02 19:41:35 market sale   hezdinrugqge 03/-06 sageisbean52 axe, 6000 minutes 1 1250
8741 2019-Nov-02 19:33:29 market sale   blizarxd2323 11/19 thorminerr33 axe, 6000 minutes 1 1420
8740 2019-Nov-02 18:10:55 market sale   duckboathunt 23/-19 procuratoros axe, 6000 minutes 1 1490
8739 2019-Nov-02 17:44:32 market sale   hezdinrugqge 03/-06 prospectorid axe, 6000 minutes 1 1250
8738 2019-Nov-02 16:56:32 market sale   hezdinrugqge 03/-06 mirettyr112r axe, 6000 minutes 1 1250
8737 2019-Nov-02 16:12:40 market sale   gy3dmojqgege -01/03 mummiesgmail axe, 6000 minutes 1 1419
8736 2019-Nov-02 15:43:33 market sale   eos4anjsrich -12/-14 eostarmoveon axe, 6000 minutes 1 1800
8735 2019-Nov-02 14:50:39 market sale   voodudelk111 25/26 tieuacmalm12 axe, 6000 minutes 3 1460
8734 2019-Nov-02 14:15:01 market sale   salmankhanss -03/12 toeflutengur axe, 6000 minutes 1 1428
8733 2019-Nov-02 13:43:22 market sale   duckboathunt 23/-19 eosemmanuel1 axe, 6000 minutes 1 1490
8732 2019-Nov-02 13:23:18 market sale   eos4anjsrich -12/-14 heriadipasee axe, 6000 minutes 1 1800
8731 2019-Nov-02 12:27:32 market sale   gy3dmojqgege -01/03 dipikaa12345 axe, 6000 minutes 1 1419
8730 2019-Nov-02 12:07:44 market sale   duckboathunt 23/-19 yoelsoto1111 axe, 6000 minutes 1 1490
8729 2019-Nov-02 12:03:19 market sale   fastinvpa41a 00/11 samirgh12345 axe, 2687 minutes 1 400
8728 2019-Nov-02 11:54:13 market sale   gy3dmojqgege -01/03 muhammadrafa axe, 6000 minutes 1 1429
8727 2019-Nov-02 11:28:42 market sale   hezdinrugqge 03/-06 boythegiver2 axe, 6000 minutes 1 1250
8726 2019-Nov-02 11:02:38 market sale   semiflexible -23/-22 maxi15miran4 axe, 6000 minutes 1 2100
8725 2019-Nov-02 09:35:09 market sale   gy3dmojqgege -01/03 lucky13lucky axe, 6000 minutes 6 1429
8724 2019-Nov-02 09:22:17 market sale   salmankhanss -03/12 muhammadrafa axe, 6000 minutes 1 1428
8723 2019-Nov-02 07:13:09 market sale   salmankhanss -03/12 prospectorgb axe, 6000 minutes 3 1428
8722 2019-Nov-02 07:08:47 market sale   salmankhanss -03/12 sultaneospro axe, 6000 minutes 2 1428
8721 2019-Nov-02 05:56:01 market sale   salmankhanss -03/12 gamesland121 axe, 6000 minutes 1 1428
8720 2019-Nov-02 05:06:57 market sale   ducthang22sa -11/27 dipikaa12345 axe, 6000 minutes 1 1456
8719 2019-Nov-02 05:06:04 market sale   ducthang22sa -11/27 dipikaa12345 axe, 6000 minutes 1 1456
8718 2019-Nov-02 03:43:34 market sale   nispidarious -04/-02 adilkhanzada axe, 6000 minutes 1 1595
8717 2019-Nov-02 02:34:42 market sale   mdjohuruli33 -20/22 dilipsssss23 axe, 6000 minutes 1 1600
8716 2019-Nov-02 01:46:36 market sale   eos4anjsrich -12/-14 khalilalwzir axe, 6000 minutes 1 1800
8715 2019-Nov-02 01:37:31 market sale   mdjohuruli33 -20/22 thorminerr33 axe, 6000 minutes 1 1600
8714 2019-Nov-02 00:25:15 market sale   setrawetseos -22/02 pointytop111 axe, 4350 minutes 1 800
8713 2019-Nov-02 00:09:52 market sale   voodudelk111 25/26 honggam55555 axe, 6000 minutes 1 1460
8712 2019-Nov-01 23:20:16 market sale   hitekredneck -26/03 jummychiras1 axe, 6000 minutes 2 1475
8711 2019-Nov-01 21:54:36 market sale   salmankhanss -03/12 cyborglemurz axe, 6000 minutes 3 1428
8710 2019-Nov-01 20:34:48 market sale   fastinvpa41a 00/11 sachintilwan axe, 4500 minutes 1 800
8709 2019-Nov-01 20:34:37 market sale   xgreenwallet -12/04 sachintilwan axe, 3705 minutes 1 500
8708 2019-Nov-01 20:34:27 market sale   xgreenwallet -12/04 sachintilwan axe, 2438 minutes 1 300
8707 2019-Nov-01 18:01:43 market sale   duckboathunt 23/-19 eosrmgcvzla1 axe, 6000 minutes 2 1490
8706 2019-Nov-01 17:36:11 market sale   salmankhanss -03/12 marhabaneos1 axe, 6000 minutes 1 1428
8705 2019-Nov-01 11:36:24 market sale   gy3dmojqgege -01/03 shadowclad15 axe, 6000 minutes 1 1429
8704 2019-Nov-01 10:06:03 market sale   voodudelk111 25/26 chisomochale axe, 6000 minutes 6 1449
8703 2019-Nov-01 07:12:43 market sale   gy3dmojqgege -01/03 pekerjapaksa axe, 6000 minutes 1 1429
8702 2019-Nov-01 06:45:33 market sale   samsunactive 05/08 eostellagrg1 axe, 6000 minutes 3 1700
8701 2019-Nov-01 06:25:41 market sale   salmankhanss -03/12 kentlung1234 axe, 6000 minutes 1 1428
8700 2019-Nov-01 06:21:55 market sale   freeoooooooo 04/13 qh2fpx1vb5yq axe, 6000 minutes 1 1749
8699 2019-Nov-01 06:17:31 market sale   setrawetseos -22/02 mrvoldemarus axe, 5160 minutes 1 900
8698 2019-Nov-01 06:17:23 market sale   setrawetseos -22/02 mrvoldemarus axe, 5100 minutes 1 900
8697 2019-Nov-01 06:17:02 market sale   fastinvpa41a 00/11 mrvoldemarus axe, 6000 minutes 1 1200
8696 2019-Nov-01 06:13:20 market sale   kowalska1111 00/23 kirillova555 axe, 6000 minutes 1 1519
8695 2019-Nov-01 04:49:35 market sale   salmankhanss -03/12 hatrang12345 axe, 6000 minutes 1 1428
8694 2019-Nov-01 03:31:02 market sale   gy3dmojqgege -01/03 mniaks111111 axe, 6000 minutes 3 1429
8693 2019-Nov-01 01:45:24 market sale   gy3dmojqgege -01/03 esthermaria1 axe, 6000 minutes 1 1429
8692 2019-Nov-01 00:32:06 market sale   gy3dmojqgege -01/03 moosgenerous axe, 6000 minutes 1 1429
8691 2019-Oct-31 23:03:58 market sale   playaccount1 -02/-01 thewhitewolf axe, 6000 minutes 1 2499
8690 2019-Oct-31 22:08:33 market sale   salmankhanss -03/12 mightsomemic axe, 6000 minutes 3 1430
8689 2019-Oct-31 20:00:57 market sale   fidaaslam11f 07/-08 yolopacho123 axe, 6000 minutes 1 1250
8688 2019-Oct-31 19:49:41 market sale   roshandhake5 -25/21 frangioni.tp axe, 5420 minutes 1 1100
8687 2019-Oct-31 17:03:45 market sale   azebahmadsss -13/-23 anshutiwari1 axe, 6000 minutes 3 1450
8686 2019-Oct-31 15:24:28 market sale   1qaz2wsx4rfv -14/02 chandansahoo axe, 6000 minutes 3 1500
8685 2019-Oct-31 15:22:55 market sale   gy3dmojqgege -01/03 callmemadman axe, 6000 minutes 3 1449
8684 2019-Oct-31 14:24:36 market sale   hitekredneck -26/03 cohlsonworld axe, 6000 minutes 1 1550
8683 2019-Oct-31 14:05:40 market sale   tribalman321 -01/24 aniuskaamr11 axe, 6000 minutes 1 2000
8682 2019-Oct-31 13:42:18 market sale   gy3dmojqgege -01/03 rfbm51ln1haw axe, 6000 minutes 1 1449
8681 2019-Oct-31 12:02:41 market sale   gy3dmojqgege -01/03 subboch2pros axe, 6000 minutes 3 1449
8680 2019-Oct-31 11:36:35 market sale   gy3dmojqgege -01/03 vijay12kumar axe, 6000 minutes 2 1449
8679 2019-Oct-31 10:52:43 market sale   voodudelk111 25/26 bozjamilost1 axe, 6000 minutes 5 1599
8678 2019-Oct-31 10:02:14 market sale   kowalska1111 00/23 eidolsmining axe, 6000 minutes 7 1519
8677 2019-Oct-31 09:02:52 market sale   nexterworlds 27/20 smokersh5153 axe, 600 minutes 1 250
8676 2019-Oct-31 07:46:10 market sale   snipercrypto 07/05 setrawetseos axe, 4350 minutes 1 350
8675 2019-Oct-31 07:18:06 market sale   aluminumcoin -18/-18 khalilalwzir axe, 6000 minutes 1 1600
8674 2019-Oct-31 06:32:44 market sale   gy3dmojqgege -01/03 aventurerooo axe, 6000 minutes 3 1449
8673 2019-Oct-31 05:43:38 market sale   mdjohuruli33 -20/22 fauzanfazila axe, 6000 minutes 1 1600
8672 2019-Oct-31 04:48:20 market sale   azebahmadsss -13/-23 cryptoveleos axe, 6000 minutes 1 1450
8671 2019-Oct-31 04:23:37 market sale   samsunactive 05/08 pattanaik123 axe, 6000 minutes 1 1700
8670 2019-Oct-31 04:10:13 market sale   sjhendrikszz -05/08 vijaykumas12 axe, 6000 minutes 2 1400
8669 2019-Oct-31 03:18:39 market sale   sjhendrikszz -05/08 salmana12345 axe, 6000 minutes 1 1400
8668 2019-Oct-31 03:00:36 market sale   sjhendrikszz -05/08 omkarpetkar1 axe, 6000 minutes 1 1400
8667 2019-Oct-31 02:52:08 market sale   sjhendrikszz -05/08 sachintilwan axe, 6000 minutes 1 1400
8666 2019-Oct-31 02:52:00 market sale   sjhendrikszz -05/08 ferozebegum1 axe, 6000 minutes 3 1400
8665 2019-Oct-31 02:14:33 market sale   1qaz2wsx4rfv -14/02 sherjahanmoh axe, 6000 minutes 2 1500
8664 2019-Oct-30 21:50:31 market sale   tribalman321 -01/24 afernandes12 axe, 6000 minutes 3 2000
8663 2019-Oct-30 21:48:33 market sale   aaaaaaa44444 14/26 musawer12222 axe, 6000 minutes 1 1399
8662 2019-Oct-30 21:26:18 market sale   buraqasif444 -12/26 eosmeetone34 axe, 6000 minutes 1 1510
8661 2019-Oct-30 20:10:03 market sale   duckboathunt 23/-19 hassanraza12 axe, 6000 minutes 1 1490
8660 2019-Oct-30 18:54:18 market sale   snipercrypto 07/05 setrawetseos axe, 5100 minutes 1 100
8659 2019-Oct-30 18:54:10 market sale   snipercrypto 07/05 setrawetseos axe, 5160 minutes 1 100
8658 2019-Oct-30 18:21:59 market sale   duckboathunt 23/-19 yolopacho123 axe, 6000 minutes 1 1490
8657 2019-Oct-30 18:20:48 market sale   maheshsargam -23/-05 lidiaburshti axe, 3940 minutes 1 1300
8656 2019-Oct-30 18:20:01 market sale   aaaaaaa44444 14/26 lidiaburshti axe, 6000 minutes 1 1399
8655 2019-Oct-30 18:06:12 market sale   mdjohuruli33 -20/22 safwadiiiiii axe, 6000 minutes 1 1600
8654 2019-Oct-30 17:56:06 market sale   sjhendrikszz -05/08 nikolfariya3 axe, 6000 minutes 3 1400
8653 2019-Oct-30 17:53:33 market sale   mdjohuruli33 -20/22 chiragpatel1 axe, 6000 minutes 1 1600
8652 2019-Oct-30 17:53:04 market sale   azebahmadsss 10/13 waxeosmaster axe, 6000 minutes 1 1500
8651 2019-Oct-30 17:52:04 market sale   azebahmadsss 10/13 waxeosmaster axe, 6000 minutes 1 1500
8650 2019-Oct-30 17:48:39 market sale   aaaaaaa44444 14/26 marlincrypto axe, 6000 minutes 1 1399
8649 2019-Oct-30 17:34:07 market sale   zeroodxero15 20/13 mhdshahadat1 axe, 6000 minutes 1 1545
8648 2019-Oct-30 16:44:24 market sale   orendadilnok 04/00 nafaiza12345 axe, 6000 minutes 1 1299
8647 2019-Oct-30 16:34:27 market sale   sjhendrikszz -05/08 anubhavbindr axe, 6000 minutes 3 1400
8646 2019-Oct-30 16:31:53 market sale   nispidarious -04/-02 eternalflame axe, 6000 minutes 1 1512
8645 2019-Oct-30 16:25:24 market sale   sjhendrikszz -05/08 sureshpydi12 axe, 6000 minutes 3 1400
8644 2019-Oct-30 15:50:53 market sale   nispidarious -04/-02 robi11223344 axe, 6000 minutes 2 1512
8643 2019-Oct-30 15:23:04 market sale   salmankhanss -03/12 nakorofboref axe, 6000 minutes 1 1350
8642 2019-Oct-30 15:18:03 market sale   sjhendrikszz -05/08 baigsiraju12 axe, 6000 minutes 3 1400
8641 2019-Oct-30 14:15:26 market sale   apoorvavicky 16/-02 abhishek1334 axe, 6000 minutes 1 1600
8640 2019-Oct-30 13:43:07 market sale   sjhendrikszz -05/08 igorgol11.tp axe, 6000 minutes 3 1400
8639 2019-Oct-30 13:17:12 market sale   tgkrijalaron -18/-14 voidknight11 axe, 50 minutes 1 59
8638 2019-Oct-30 12:23:49 market sale   conceptplays -03/05 ihsojib12345 axe, 6000 minutes 1 1290
8637 2019-Oct-30 12:16:17 market sale   salmankhanss -03/12 olymarinm111 axe, 6000 minutes 1 1350
8636 2019-Oct-30 11:49:09 market sale   conceptplays -03/05 prospectorid axe, 6000 minutes 1 1290
8635 2019-Oct-30 11:26:40 market sale   superw4lox11 -12/21 muhammadrafa axe, 6000 minutes 1 1799
8634 2019-Oct-30 11:18:29 market sale   conceptplays -03/05 zanuwaniszan axe, 6000 minutes 1 1290
8633 2019-Oct-30 10:43:14 market sale   mdjohuruli33 -20/22 nafaisal4444 axe, 6000 minutes 1 1600
8632 2019-Oct-30 10:39:17 market sale   conceptplays -03/05 eospremiumax axe, 6000 minutes 1 1290
8631 2019-Oct-30 10:16:12 market sale   johanewa1111 17/14 snehalghosh1 axe, 6000 minutes 2 1511
8630 2019-Oct-30 10:06:54 market sale   nispidarious -04/-02 oisabella345 axe, 6000 minutes 1 1480
8629 2019-Oct-30 09:59:51 market sale   nispidarious -04/-02 kangpupuk123 axe, 6000 minutes 1 1480
8628 2019-Oct-30 06:51:19 market sale   voodudelk111 25/26 ahmedyeboah1 axe, 6000 minutes 1 1599
8627 2019-Oct-30 06:47:46 market sale   sjhendrikszz -05/08 healthyearth axe, 6000 minutes 1 1400
8626 2019-Oct-30 06:17:20 market sale   hitekredneck -26/03 fransemilpbs axe, 6000 minutes 3 1550
8625 2019-Oct-30 06:13:47 market sale   nispidarious -04/-02 vonvarina123 axe, 6000 minutes 1 1480
8624 2019-Oct-30 06:00:03 market sale   playaccount1 -02/-01 nasrinbegum1 axe, 6000 minutes 3 2499
8623 2019-Oct-30 05:19:20 market sale   machwire4eos -26/18 bnr142455121 axe, 3300 minutes 1 300
8622 2019-Oct-30 05:06:10 market sale   kowalska1111 00/23 brahamprakas axe, 6000 minutes 1 1525
8621 2019-Oct-30 04:13:47 market sale   mdjohuruli33 -20/22 krishna12345 axe, 6000 minutes 1 1600
8620 2019-Oct-30 03:54:27 market sale   1qaz2wsx4rfv -14/02 yaniadnyeos1 axe, 6000 minutes 1 1500
8619 2019-Oct-29 23:25:08 market sale   salmankhanss -03/12 yolopacho123 axe, 6000 minutes 1 1350
8618 2019-Oct-29 22:20:29 market sale   bonanzahouse 15/26 captaincrypy axe, 6000 minutes 1 1300
8617 2019-Oct-29 22:06:51 market sale   bonanzahouse 15/26 lorenzznerol axe, 6000 minutes 1 1300
8616 2019-Oct-29 21:21:27 market sale   samsunactive 05/08 doreenbeckey axe, 6000 minutes 1 1700
8615 2019-Oct-29 21:11:11 market sale   snipercrypto 07/05 xgreenwallet axe, 2438 minutes 1 200
8614 2019-Oct-29 21:10:29 market sale   snipercrypto 07/05 xgreenwallet axe, 4305 minutes 1 200
8613 2019-Oct-29 20:46:20 market sale   aluminumcoin -18/-18 diverrpg1234 axe, 3300 minutes 1 580
8612 2019-Oct-29 20:25:33 market sale   ninjaninja11 00/-24 keikochan112 axe, 6000 minutes 6 2498
8611 2019-Oct-29 19:53:38 market sale   hurabasif111 -26/26 ankitrunthal axe, 6000 minutes 3 1395
8610 2019-Oct-29 19:48:46 market sale   iamjohngalt1 -02/-06 rdizthegrem2 axe, 320 minutes 1 99
8609 2019-Oct-29 19:11:33 market sale   tgkrijalaron -18/-14 arianalewis2 axe, 776 minutes 1 199
8608 2019-Oct-29 18:47:58 market sale   duckboathunt 23/-19 floringg2451 axe, 6000 minutes 1 1490
8607 2019-Oct-29 17:57:57 market sale   orendadilnok 04/00 wi5pkzrtwej5 axe, 6000 minutes 6 1299
8606 2019-Oct-29 16:46:20 market sale   playaccount1 -02/-01 noushadmo341 axe, 6000 minutes 3 2499
8605 2019-Oct-29 16:35:14 market sale   aluminumcoin 26/-19 simasandappp axe, 6000 minutes 1 1
8604 2019-Oct-29 16:31:15 market sale   1qaz2wsx4rfv -14/02 seregaserega axe, 6000 minutes 1 1500
8603 2019-Oct-29 16:11:06 market sale   playaccount1 -02/-01 santoshkumas axe, 6000 minutes 3 2499
8602 2019-Oct-29 16:09:04 market sale   recklessgame -26/-04 truenonsense axe, 6000 minutes 1 1000
8601 2019-Oct-29 15:21:38 market sale   apoorvavicky 16/-02 pranighstarx axe, 6000 minutes 1 1600
8600 2019-Oct-29 14:48:44 market sale   sjhendrikszz -05/08 alexhalesen2 axe, 6000 minutes 3 1400
8599 2019-Oct-29 13:49:55 market sale   duckboathunt 23/-19 eosemmanuel1 axe, 6000 minutes 1 1490
8598 2019-Oct-29 13:19:59 market sale   johanewa1111 09/-18 applelovers1 axe, 6000 minutes 1 1542
8597 2019-Oct-29 12:36:23 market sale   duckboathunt 23/-19 krishna12345 axe, 6000 minutes 1 1490
8596 2019-Oct-29 12:22:59 market sale   sjhendrikszz -05/08 mdasifkhan14 axe, 6000 minutes 1 1400
8595 2019-Oct-29 12:05:59 market sale   superw4lox11 -12/21 fhcjfkgkfdfj axe, 6000 minutes 1 1799
8594 2019-Oct-29 11:53:31 market sale   sjhendrikszz -05/08 nakorofboref axe, 6000 minutes 2 1400
8593 2019-Oct-29 11:32:05 market sale   tgkrijalaron 16/26 koixuong1234 axe, 1440 minutes 1 300
8592 2019-Oct-29 11:25:01 market sale   duckboathunt 23/-19 gamesacc1525 axe, 6000 minutes 1 1490
8591 2019-Oct-29 11:00:05 market sale   gy3dmojqgege -01/03 jjaydeep5411 axe, 6000 minutes 2 1399
8590 2019-Oct-29 09:39:18 market sale   salmankhanss -03/12 eospremiumax axe, 6000 minutes 1 1380
8589 2019-Oct-29 09:05:02 market sale   bonanzahouse 15/26 snehalghosh1 axe, 6000 minutes 2 1500
8588 2019-Oct-29 08:46:57 market sale   johanewa1111 17/14 fichozzking1 axe, 6000 minutes 1 1511
8587 2019-Oct-29 08:15:30 market sale   dipshlappers -16/-25 thewildgamer axe, 6000 minutes 3 1300
8586 2019-Oct-29 07:40:33 market sale   dipshlappers -16/-25 recklessgame axe, 6000 minutes 1 1300
8585 2019-Oct-29 06:48:00 market sale   amandeep5142 10/-12 applelovers1 axe, 4500 minutes 1 580
8584 2019-Oct-29 06:22:20 market sale   salmankhanss -03/12 leosinbtc.tp axe, 6000 minutes 2 1380
8583 2019-Oct-29 04:51:23 market sale   iamjohngalt1 -19/-04 2phatriantaz axe, 5180 minutes 1 899
8582 2019-Oct-29 04:36:36 market sale   azebahmadsss 10/13 thirdzebkhan axe, 4800 minutes 1 400
8581 2019-Oct-29 04:16:27 market sale   salmankhanss -03/12 zakianwar123 axe, 6000 minutes 3 1380
8580 2019-Oct-29 03:46:36 market sale   azebahmadsss 10/13 waxeosmaster axe, 6000 minutes 1 1700
8579 2019-Oct-29 02:45:36 market sale   superw4lox11 -12/21 yaniadnyeos1 axe, 6000 minutes 1 1799
8578 2019-Oct-29 02:21:28 market sale   salmankhanss -03/12 vijay12kumar axe, 6000 minutes 1 1380
8577 2019-Oct-29 01:02:58 market sale   voodudelk111 25/26 abhishek1334 axe, 6000 minutes 2 1599
8576 2019-Oct-29 00:57:33 market sale   recklessgame -26/-04 truenonsense axe, 6000 minutes 1 1400
8575 2019-Oct-29 00:44:25 market sale   gy3dmojqgege -01/03 sope11smithy axe, 6000 minutes 4 1379
8574 2019-Oct-29 00:35:09 market sale   gy3dmojqgege -01/03 muhammadrafa axe, 6000 minutes 1 1379
8573 2019-Oct-28 23:03:19 market sale   gy3dmojqgege -01/03 coinchitchat axe, 6000 minutes 4 1379
8572 2019-Oct-28 21:03:38 market sale   orendadilnok 04/00 naaasiya1234 axe, 6000 minutes 1 1299
8571 2019-Oct-28 20:24:17 market sale   gy3dmojqgege -01/03 hmeaworld121 axe, 6000 minutes 6 1379
8570 2019-Oct-28 18:49:24 market sale   nispidarious -04/-02 lachiquive45 axe, 5700 minutes 1 1000
8569 2019-Oct-28 18:42:09 market sale   1qaz2wsx4rfv -14/02 sultaneospro axe, 6000 minutes 2 1500
8568 2019-Oct-28 17:05:24 market sale   mdhrsagar511 -10/-06 recklessgame axe, 6000 minutes 1 1400
8567 2019-Oct-28 16:38:31 market sale   samsunactive 05/08 mnipks333333 axe, 6000 minutes 1 1700
8566 2019-Oct-28 16:37:00 market sale   samsunactive 05/08 mnipks333333 axe, 6000 minutes 1 1700
8565 2019-Oct-28 16:36:33 market sale   samsunactive 05/08 mnipks333333 axe, 6000 minutes 1 1700
8564 2019-Oct-28 16:08:45 market sale   johanewa1111 17/14 sureshbon143 axe, 6000 minutes 1 1511
8563 2019-Oct-28 15:57:57 market sale   mdjohuruli33 -20/22 lorrelinne15 axe, 6000 minutes 1 1600
8562 2019-Oct-28 15:22:53 market sale   johanewa1111 17/14 ikmaleosgo22 axe, 6000 minutes 1 1511
8561 2019-Oct-28 13:47:35 market sale   1qaz2wsx4rfv -14/02 dearfriendss axe, 6000 minutes 3 1500
8560 2019-Oct-28 13:41:46 market sale   klimanskiy22 -07/18 koixuong1234 axe, 4111 minutes 1 699
8559 2019-Oct-28 13:34:44 market sale   dmitriy1meme 05/14 flyhigher151 axe, 6000 minutes 1 1100
8558 2019-Oct-28 13:27:57 market sale   gy3dmojqgege -01/03 scotstyris12 axe, 6000 minutes 1 1379
8557 2019-Oct-28 12:03:55 market sale   johanewa1111 09/-18 applelovers1 axe, 6000 minutes 1 1542
8556 2019-Oct-28 11:34:44 market sale   mdhrsagar511 -10/-06 tapansahoo12 axe, 6000 minutes 1 1400
8555 2019-Oct-28 09:10:18 market sale   salmankhanss -03/12 2phatriantaz axe, 6000 minutes 1 1380
8554 2019-Oct-28 09:06:34 market sale   salmankhanss -03/12 2phatriantaz axe, 6000 minutes 1 1380
8553 2019-Oct-28 07:24:07 market sale   johanewa1111 09/-18 storeservice axe, 6000 minutes 1 1542
8552 2019-Oct-28 06:52:37 market sale   victoriaveos 18/-07 storeservice axe, 6000 minutes 1 1500
8551 2019-Oct-28 05:25:33 market sale   corecodereos 17/-23 poxoronbl123 axe, 6000 minutes 1 1300
8550 2019-Oct-28 03:55:42 market sale   duckboathunt 23/-19 gy2dsnbqgmge axe, 6000 minutes 1 1490
8549 2019-Oct-28 00:47:35 market sale   corecodereos 17/-23 karlaesca123 axe, 6000 minutes 3 1300
8548 2019-Oct-27 22:15:10 market sale   mdjohuruli33 -20/22 nestheroviap axe, 6000 minutes 1 1650
8547 2019-Oct-27 21:59:07 market sale   duckboathunt 23/-19 kikimora1234 axe, 6000 minutes 1 1490
8546 2019-Oct-27 20:47:40 market sale   apoorvavicky 27/14 braveschnitz axe, 3300 minutes 1 650
8545 2019-Oct-27 19:08:05 market sale   mdjohuruli33 -20/22 jeancarlopom axe, 6000 minutes 1 1650
8544 2019-Oct-27 18:56:49 market sale   1qaz2wsx4rfv -14/02 nestheroviap axe, 6000 minutes 1 1390
8543 2019-Oct-27 18:31:06 market sale   aaaaaaa44444 14/26 kishanpatel1 axe, 6000 minutes 1 1500
8542 2019-Oct-27 18:05:13 market sale   orendadilnok 04/00 fastinvpa41a axe, 6000 minutes 3 1300
8541 2019-Oct-27 17:41:58 market sale   1qaz2wsx4rfv -14/02 waqasjunejo1 axe, 6000 minutes 2 1390
8540 2019-Oct-27 17:37:00 market sale   apoorvavicky 04/-26 waqasjunejo1 axe, 4260 minutes 1 870
8539 2019-Oct-27 17:36:39 market sale   apoorvavicky 04/-26 waqasjunejo1 axe, 3036 minutes 1 600
8538 2019-Oct-27 16:52:42 market sale   naddanparind 07/02 justforyou13 axe, 6000 minutes 1 1380
8537 2019-Oct-27 16:49:34 market sale   1qaz2wsx4rfv -14/02 crypto2damoo axe, 6000 minutes 3 1390
8536 2019-Oct-27 16:46:50 market sale   1qaz2wsx4rfv -14/02 animalslocer axe, 6000 minutes 1 1390
8535 2019-Oct-27 16:42:29 market sale   naddanparind 07/02 boythegiver2 axe, 6000 minutes 1 1380
8534 2019-Oct-27 16:29:19 market sale   naddanparind 07/02 criptosonido axe, 6000 minutes 1 1380
8533 2019-Oct-27 15:34:41 market sale   salmankhanss -03/12 lehoahiepden axe, 6000 minutes 2 1380
8532 2019-Oct-27 15:32:26 market sale   gy3dmojqgege -01/03 lehoahiepden axe, 6000 minutes 1 1379
8531 2019-Oct-27 14:28:25 market sale   gy3dmojqgege -01/03 mirzalisl123 axe, 6000 minutes 1 1379
8530 2019-Oct-27 13:17:06 market sale   kowalska1111 00/23 mardianacutt axe, 6000 minutes 1 1527
8529 2019-Oct-27 11:54:50 market sale   salmankhanss -03/12 adbobken5555 axe, 6000 minutes 2 1380
8528 2019-Oct-27 11:46:19 market sale   samsunactive 05/08 alexanderhm1 axe, 6000 minutes 1 1700
8527 2019-Oct-27 11:01:55 market sale   1qaz2wsx4rfv -14/02 cohlsonworld axe, 6000 minutes 1 1390
8526 2019-Oct-27 09:55:25 market sale   iamjohngalt1 -19/-04 nestheroviap axe, 5109 minutes 1 1099
8525 2019-Oct-27 09:38:10 market sale   gy3dmojqgege -01/03 fuadsteemit4 axe, 6000 minutes 1 1379
8524 2019-Oct-27 09:12:31 market sale   gy3dmojqgege -01/03 ankachain.vr axe, 6000 minutes 1 1379
8523 2019-Oct-27 08:25:43 market sale   1qaz2wsx4rfv -14/02 digdigdigeos axe, 6000 minutes 1 1390
8522 2019-Oct-27 08:00:42 market sale   mycryptoland -19/-23 voidknight11 axe, 93 minutes 1 1
8521 2019-Oct-27 07:53:01 market sale   gy3dmojqgege -01/03 rocktheboss2 axe, 6000 minutes 6 1379
8520 2019-Oct-27 06:25:52 market sale   mycryptoland -19/-23 voidknight11 axe, 820 minutes 1 200
8519 2019-Oct-27 05:40:23 market sale   kissamelissa -25/10 borysenkodim axe, 6000 minutes 1 1999
8518 2019-Oct-27 05:34:39 market sale   voodudelk111 25/26 borysenkodim axe, 6000 minutes 2 1599
8517 2019-Oct-27 05:32:45 market sale   salmankhanss -03/12 badrussaliss axe, 6000 minutes 1 1380
8516 2019-Oct-27 04:55:47 market sale   superw4lox11 -12/21 dunhildeosli axe, 6000 minutes 1 1799
8515 2019-Oct-27 03:31:00 market sale   gy3dmojqgege -01/03 ankachain.vr axe, 6000 minutes 1 1379
8514 2019-Oct-27 01:47:35 market sale   johanewa1111 17/14 rashideos112 axe, 6000 minutes 1 1511
8513 2019-Oct-27 01:47:07 market sale   gy3dmojqgege -01/03 marsonstufff axe, 6000 minutes 1 1379
8512 2019-Oct-26 23:58:15 market sale   mdjohuruli33 -20/22 sureshbon143 axe, 6000 minutes 1 1700
8511 2019-Oct-26 23:06:29 market sale   gy3dmojqgege -01/03 coinchitchat axe, 6000 minutes 3 1379
8510 2019-Oct-26 22:35:43 market sale   johanewa1111 09/-18 applelovers1 axe, 6000 minutes 1 1542
8509 2019-Oct-26 21:01:53 market sale   duckboathunt 23/-19 vikingsalive axe, 6000 minutes 1 1490
8508 2019-Oct-26 19:16:35 market sale   gy3dmojqgege -01/03 umeshkrishna axe, 6000 minutes 1 1389
8507 2019-Oct-26 19:12:23 market sale   gy3dmojqgege -01/03 derwinaray25 axe, 6000 minutes 3 1389
8506 2019-Oct-26 19:08:21 market sale   samsunactive 05/08 nestheroviap axe, 6000 minutes 1 1700
8505 2019-Oct-26 18:53:53 market sale   gy3dmojqgege -01/03 bogdandobro1 axe, 6000 minutes 1 1389
8504 2019-Oct-26 18:46:55 market sale   orendadilnok 04/00 draganbekcic axe, 6000 minutes 1 1300
8503 2019-Oct-26 17:57:06 market sale   superw4lox11 -12/21 acekennedy55 axe, 6000 minutes 1 1799
8502 2019-Oct-26 17:55:42 market sale   superw4lox11 -12/21 acekennedy55 axe, 6000 minutes 2 1799
8501 2019-Oct-26 17:31:39 market sale   1qaz2wsx4rfv -14/02 travyknight2 axe, 6000 minutes 1 1390
8500 2019-Oct-26 17:16:56 market sale   orendadilnok 04/00 hemantsharma axe, 6000 minutes 1 1300
8499 2019-Oct-26 16:26:23 market sale   aluminumcoin -18/-18 tapansahoo12 axe, 6000 minutes 1 1600
8498 2019-Oct-26 16:02:59 market sale   tribalman321 -01/24 afernandes12 axe, 6000 minutes 3 1500
8497 2019-Oct-26 15:10:10 market sale   aluminumcoin -18/-18 harindersaha axe, 6000 minutes 1 1600
8496 2019-Oct-26 14:59:10 market sale   gy3dmojqgege -01/03 12345shamilk axe, 6000 minutes 1 1389
8495 2019-Oct-26 14:23:58 market sale   aluminumcoin -18/-18 zanuwaniszan axe, 6000 minutes 1 1600
8494 2019-Oct-26 13:20:47 market sale   ifeoluwaoyin 12/11 shunbagidaki axe, 6000 minutes 1 1386
8493 2019-Oct-26 11:32:29 market sale   randomhouse1 -13/13 iamkushagra1 axe, 3750 minutes 1 1360
8492 2019-Oct-26 11:23:22 market sale   ifeoluwaoyin 12/11 tironas12345 axe, 6000 minutes 1 1386
8491 2019-Oct-26 11:11:54 market sale   superw4lox11 -12/21 eos4ever1jt1 axe, 6000 minutes 1 1799
8490 2019-Oct-26 09:20:56 market sale   kowalska1111 00/23 hospital4221 axe, 6000 minutes 1 1549
8489 2019-Oct-26 09:10:55 market sale   johanewa1111 17/14 pankajsh3211 axe, 6000 minutes 1 1539
8488 2019-Oct-26 09:09:12 market sale   ha3dmmrygyge 11/-13 mardianacutt axe, 6000 minutes 1 1699
8487 2019-Oct-26 08:47:00 market sale   1qaz2wsx4rfv -14/02 rfbm51ln1haw axe, 6000 minutes 1 1390
8486 2019-Oct-26 08:09:27 market sale   1qaz2wsx4rfv -14/02 mengchaofan1 axe, 6000 minutes 1 1390
8485 2019-Oct-26 07:36:50 market sale   1qaz2wsx4rfv -14/02 captainakena axe, 6000 minutes 1 1390
8484 2019-Oct-26 07:21:01 market sale   mdjohuruli33 -20/22 vracevrace13 axe, 6000 minutes 1 1700
8483 2019-Oct-26 06:54:08 market sale   1qaz2wsx4rfv -14/02 thebest33333 axe, 6000 minutes 4 1390
8482 2019-Oct-26 06:36:20 market sale   salmankhanss -03/12 inspiredbyit axe, 6000 minutes 6 1398
8481 2019-Oct-26 05:57:26 market sale   johanewa1111 09/-18 eternalflame axe, 6000 minutes 1 1542
8480 2019-Oct-26 05:27:51 market sale   voodudelk111 25/26 ramizmurtaza axe, 6000 minutes 1 1599
8479 2019-Oct-26 05:17:37 market sale   superw4lox11 -12/21 abhishek1334 axe, 6000 minutes 1 1799
8478 2019-Oct-26 04:52:59 market sale   superw4lox11 -12/21 arshadnadeem axe, 6000 minutes 1 1799
8477 2019-Oct-26 02:13:06 market sale   superw4lox11 -12/21 khalilalwzir axe, 6000 minutes 1 1799
8476 2019-Oct-26 01:41:49 market sale   superw4lox11 -12/21 lorrelinne15 axe, 6000 minutes 1 1799
8475 2019-Oct-26 01:20:51 market sale   kowalska1111 00/23 qasimgame125 axe, 6000 minutes 1 1555
8474 2019-Oct-25 21:40:34 market sale   gy3dmojqgege -01/03 rfbm51ln1haw axe, 6000 minutes 1 1528
8473 2019-Oct-25 21:14:54 market sale   1qaz2wsx4rfv -14/02 maxi15miran4 axe, 6000 minutes 1 1529
8472 2019-Oct-25 19:59:47 market sale   johanewa1111 09/-18 prospectorwg axe, 6000 minutes 10 1543
8471 2019-Oct-25 19:09:09 market sale   azebahmadsss -13/-23 espressooooo axe, 6000 minutes 1 1620
8470 2019-Oct-25 18:49:29 market sale   gy3dmojqgege -01/03 dmagonixxx12 axe, 6000 minutes 1 1528
8469 2019-Oct-25 18:44:38 market sale   gold4man4eos 18/10 yolopacho123 axe, 5495 minutes 1 1400
8468 2019-Oct-25 18:24:41 market sale   myeosprymary 05/06 ganonwarrior axe, 6000 minutes 6 1527
8467 2019-Oct-25 18:17:24 market sale   myeosprymary 05/06 eoscrypto213 axe, 6000 minutes 2 1527
8466 2019-Oct-25 16:53:37 market sale   johanewa1111 17/14 maruzzeos123 axe, 6000 minutes 4 1539
8465 2019-Oct-25 16:50:15 market sale   fahreenkhan1 -03/05 amadmira4321 axe, 6000 minutes 1 1520
8464 2019-Oct-25 14:44:04 market sale   kissamelissa -25/10 abhaypanwar1 axe, 6000 minutes 1 1999
8463 2019-Oct-25 14:29:53 market sale   fahreenkhan1 -03/05 mrosenquist1 axe, 6000 minutes 1 1520
8462 2019-Oct-25 14:08:46 market sale   gy3dmojqgege -01/03 krishna12345 axe, 6000 minutes 1 1528
8461 2019-Oct-25 13:29:12 market sale   myeosprymary 05/06 eliteaccount axe, 6000 minutes 2 1527
8460 2019-Oct-25 13:21:52 market sale   johanewa1111 17/14 tapansahoo12 axe, 6000 minutes 1 1539
8459 2019-Oct-25 12:52:44 market sale   aluminumcoin -18/-18 safwadiiiiii axe, 6000 minutes 2 1600
8458 2019-Oct-25 12:14:30 market sale   gy3dqnrxguge 14/04 aea435ibic3j axe, 6000 minutes 3 1529
8457 2019-Oct-25 11:45:08 market sale   hurabasif111 -26/26 steliosfan11 axe, 6000 minutes 1 1544
8456 2019-Oct-25 11:26:41 market sale   azebahmadsss -13/-23 adityapanwar axe, 6000 minutes 1 1620
8455 2019-Oct-25 11:23:47 market sale   azebahmadsss -13/-23 adityapanwar axe, 6000 minutes 1 1620
8454 2019-Oct-25 11:05:00 market sale   superw4lox11 -12/21 tuancrabgame axe, 6000 minutes 1 1799
8453 2019-Oct-25 10:58:00 market sale   sahellimited 23/15 adityapanwar axe, 6000 minutes 1 1520
8452 2019-Oct-25 10:57:56 market sale   sahellimited 23/15 kumarwolfren axe, 6000 minutes 1 1520
8451 2019-Oct-25 10:55:39 market sale   sahellimited 23/15 gamesland121 axe, 6000 minutes 1 1520
8450 2019-Oct-25 08:36:08 market sale   bonanzahouse 27/-10 doreenbeckey axe, 6000 minutes 1 1999
8449 2019-Oct-25 07:47:38 market sale   azebahmadsss -13/-23 vosemir11235 axe, 6000 minutes 1 1620
8448 2019-Oct-25 04:53:15 market sale   superw4lox11 -12/21 proyeisolahx axe, 6000 minutes 2 1799
8447 2019-Oct-25 04:42:27 market sale   johanewa1111 17/14 adivendereos axe, 6000 minutes 2 1589
8446 2019-Oct-25 01:09:48 market sale   gy3dmojqgege -01/03 aniuskaamr11 axe, 6000 minutes 1 1542
8445 2019-Oct-25 01:09:30 market sale   gy3dmojqgege -01/03 aniuskaamr11 axe, 6000 minutes 1 1542
8444 2019-Oct-25 00:09:12 market sale   gy3dmojqgege -01/03 kikimora1234 axe, 6000 minutes 1 1542
8443 2019-Oct-24 23:55:14 market sale   gy3dqnrxguge 14/04 lorrelinne15 axe, 6000 minutes 1 1543
8442 2019-Oct-24 19:36:50 market sale   fahreenkhan1 -03/05 omkarpetkar1 axe, 6000 minutes 1 1560
8441 2019-Oct-24 19:29:19 market sale   1qaz2wsx4rfv -14/02 bogdandobro1 axe, 6000 minutes 1 1543
8440 2019-Oct-24 18:46:50 market sale   gold4man4eos 18/10 pattanaik123 axe, 4892 minutes 1 1300
8439 2019-Oct-24 18:19:20 market sale   salmankhanss -03/12 rayyanhamdan axe, 6000 minutes 1 1600
8438 2019-Oct-24 18:17:40 market sale   ifeoluwaoyin 12/11 nexterworlds axe, 6000 minutes 1 1545
8437 2019-Oct-24 18:03:50 market sale   apoorvavicky 16/-02 omkarpetkar1 axe, 6000 minutes 1 1600
8436 2019-Oct-24 16:53:24 market sale   salmankhanss -03/12 wilitta12121 axe, 6000 minutes 1 1550
8435 2019-Oct-24 16:33:06 market sale   zeroodxero15 20/13 beabsoluteli axe, 6000 minutes 1 1545
8434 2019-Oct-24 16:17:33 market sale   gy3dqnrxguge 14/04 adivendereos axe, 6000 minutes 2 1545
8433 2019-Oct-24 15:33:32 market sale   zeroodxero15 20/13 babaika11111 axe, 6000 minutes 1 1545
8432 2019-Oct-24 15:17:52 market sale   salmankhanss -03/12 rayyankhanss axe, 6000 minutes 1 1550
8431 2019-Oct-24 14:53:48 market sale   johanewa1111 17/14 vitfim1efimo axe, 6000 minutes 1 1611
8430 2019-Oct-24 14:51:01 market sale   salmankhanss -03/12 magnet111111 axe, 6000 minutes 1 1550
8429 2019-Oct-24 13:23:00 market sale   tribalman321 -01/24 just4creator axe, 6000 minutes 1 2000
8428 2019-Oct-24 12:29:23 market sale   azebahmadsss -13/-23 tapansahoo12 axe, 6000 minutes 1 1620
8427 2019-Oct-24 11:46:10 market sale   orendadilnok 04/00 nispidarious axe, 6000 minutes 1 1999
8426 2019-Oct-24 11:43:23 market sale   karnatron123 27/-22 nano111adama axe, 510 minutes 1 1
8425 2019-Oct-24 09:42:03 market sale   karnatron123 27/-22 nano111adama axe, 3202 minutes 1 1
8424 2019-Oct-24 09:19:22 market sale   salmankhanss -03/12 muhammadrafa axe, 6000 minutes 1 1550
8423 2019-Oct-24 09:18:45 market sale   karnatron123 27/-22 nano111adama axe, 3490 minutes 1 1
8422 2019-Oct-24 09:08:16 market sale   gy3dmojqgege -01/03 mszwqltfmvxa axe, 6000 minutes 1 1544
8421 2019-Oct-24 09:06:50 market sale   gy3dmojqgege -01/03 mszwqltfmvxa axe, 6000 minutes 1 1544
8420 2019-Oct-24 09:04:26 market sale   superw4lox11 -12/21 fhcjfkgkfdfj axe, 6000 minutes 1 1799
8419 2019-Oct-24 07:48:57 market sale   ninjaninja11 00/-24 rayyanannaww axe, 6000 minutes 2 2498
8418 2019-Oct-24 07:42:52 market sale   karnatron123 27/-22 nano111adama axe, 3632 minutes 1 1
8417 2019-Oct-24 07:37:03 market sale   gy3dmojqgege -01/03 abangmedan12 axe, 6000 minutes 1 1544
8416 2019-Oct-24 06:30:10 market sale   voodudelk111 25/26 fishypond213 axe, 6000 minutes 3 1700
8415 2019-Oct-24 06:22:05 market sale   karnatron123 27/-22 nano111adama axe, 3790 minutes 1 1
8414 2019-Oct-24 06:13:49 market sale   gy3dmojqgege -01/03 iamleaf22345 axe, 6000 minutes 1 1544
8413 2019-Oct-24 05:57:42 market sale   gy3dmojqgege -01/03 rrrupesh1234 axe, 6000 minutes 1 1544
8412 2019-Oct-24 05:35:48 market sale   gy3dmojqgege -01/03 alexanderhm1 axe, 6000 minutes 1 1544
8411 2019-Oct-24 05:29:38 market sale   gy3dmojqgege -01/03 alexanderhm1 axe, 6000 minutes 1 1544
8410 2019-Oct-24 04:05:54 market sale   1qaz2wsx4rfv -14/02 eosgames2345 axe, 6000 minutes 1 1599
8409 2019-Oct-24 04:03:14 market sale   1qaz2wsx4rfv -14/02 eosgames2345 axe, 6000 minutes 1 1599
8408 2019-Oct-24 02:47:28 market sale   superw4lox11 -12/21 kisay5555555 axe, 6000 minutes 1 1799
8407 2019-Oct-24 02:42:48 market sale   superw4lox11 -12/21 tonthegreat5 axe, 6000 minutes 1 1799
8406 2019-Oct-24 02:21:54 market sale   gy3dmojqgege -01/03 vishalsaroj1 axe, 6000 minutes 1 1544
8405 2019-Oct-24 01:45:20 market sale   apoorvavicky 16/-02 storeservice axe, 6000 minutes 1 1600
8404 2019-Oct-24 01:29:13 market sale   ha3dmmrygyge 11/-13 abhishek1234 axe, 6000 minutes 2 1699
8403 2019-Oct-24 01:26:26 market sale   azebahmadsss -13/-23 olymarinm111 axe, 6000 minutes 1 1620
8402 2019-Oct-24 00:26:15 market sale   gy3dmojqgege -01/03 zulhelmipase axe, 6000 minutes 1 1544
8401 2019-Oct-23 22:44:40 market sale   salmankhanss -03/12 cristobal111 axe, 6000 minutes 2 1550
8400 2019-Oct-23 21:14:17 market sale   ifeoluwaoyin 12/11 princeedavee axe, 6000 minutes 1 1545
8399 2019-Oct-23 21:02:31 market sale   salmankhanss -03/12 hospital4221 axe, 6000 minutes 1 1550
8398 2019-Oct-23 20:32:17 market sale   salmankhanss -03/12 nylthads1234 axe, 6000 minutes 1 1550
8397 2019-Oct-23 20:19:32 market sale   ninjaninja11 00/-24 samondellisa axe, 6000 minutes 3 2498
8396 2019-Oct-23 18:49:36 market sale   ifeoluwaoyin 12/11 abangmedan12 axe, 6000 minutes 1 1545
8395 2019-Oct-23 18:32:49 market sale   salmankhanss -03/12 chandansahoo axe, 6000 minutes 1 1550
8394 2019-Oct-23 18:31:54 market sale   freedomeze12 -11/09 duongtieuca2 axe, 6000 minutes 1 1550
8393 2019-Oct-23 18:08:28 market sale   apoorvavicky 16/-02 vitfim1efimo axe, 6000 minutes 1 1600
8392 2019-Oct-23 17:09:41 market sale   johanewa1111 17/14 kikimora1234 axe, 6000 minutes 1 1677
8391 2019-Oct-23 16:25:49 market sale   johanewa1111 17/14 mummiesgmail axe, 6000 minutes 1 1677
8390 2019-Oct-23 15:50:36 market sale   voodudelk111 25/26 snehalghosh1 axe, 6000 minutes 1 1700
8389 2019-Oct-23 15:49:31 market sale   freeoooooooo 04/13 theflashyfla axe, 6000 minutes 1 1749
8388 2019-Oct-23 15:04:55 market sale   azebahmadsss -13/-23 elasyichanel axe, 6000 minutes 1 1620
8387 2019-Oct-23 14:52:38 market sale   superw4lox11 -12/21 fifughoetori axe, 6000 minutes 1 1799
8386 2019-Oct-23 14:18:29 market sale   azebahmadsss -13/-23 boythegiver2 axe, 6000 minutes 1 1620
8385 2019-Oct-23 13:41:42 market sale   azebahmadsss -13/-23 jummychiras1 axe, 6000 minutes 1 1620
8384 2019-Oct-23 13:32:30 market sale   azebahmadsss -13/-23 iridescent11 axe, 6000 minutes 1 1620
8383 2019-Oct-23 13:14:21 market sale   apoorvavicky 16/-02 ha4dmnjtguge axe, 6000 minutes 1 1600
8382 2019-Oct-23 13:12:04 market sale   apoorvavicky 16/-02 lokomoto1233 axe, 6000 minutes 1 1600
8381 2019-Oct-23 12:49:09 market sale   mycryptoland -19/-23 sachintilwan axe, 6000 minutes 3 1500
8380 2019-Oct-23 12:19:36 market sale   gy3dmojqgege -01/03 maruzzeos123 axe, 6000 minutes 1 1599
8379 2019-Oct-23 12:17:41 market sale   mycryptoland -19/-23 yusupwilliam axe, 6000 minutes 1 1500
8378 2019-Oct-23 12:12:40 market sale   gy3dmojqgege -01/03 maruzzeos123 axe, 6000 minutes 4 1599
8377 2019-Oct-23 12:11:05 market sale   gy3dmojqgege -01/03 apxuiiob1234 axe, 6000 minutes 3 1599
8376 2019-Oct-23 12:10:45 market sale   gy3dmojqgege -01/03 maruzzeos123 axe, 6000 minutes 4 1599
8375 2019-Oct-23 11:49:05 market sale   gy3dmojqgege -01/03 cuteosmanyak axe, 6000 minutes 1 1499
8374 2019-Oct-23 11:43:32 market sale   gy3dmojqgege -01/03 kumarwolfren axe, 6000 minutes 1 1499
8373 2019-Oct-23 11:29:46 market sale   johanewa1111 17/14 dario1cesaro axe, 6000 minutes 1 1677
8372 2019-Oct-23 11:17:13 market sale   gy3dmojqgege -01/03 cheeza35scho axe, 6000 minutes 3 1499
8371 2019-Oct-23 10:54:53 market sale   freeoooooooo 04/13 fakeeffectai axe, 6000 minutes 2 1749
8370 2019-Oct-23 09:56:00 market sale   gy3dmojqgege -01/03 gamesmake143 axe, 6000 minutes 1 1499
8369 2019-Oct-23 09:00:11 market sale   mycryptoland -19/-23 akleziastars axe, 6000 minutes 1 1500
8368 2019-Oct-23 09:00:00 market sale   gy3dmojqgege -01/03 arianmaulana axe, 6000 minutes 1 1499
8367 2019-Oct-23 08:35:12 market sale   gy3dmojqgege -01/03 zanuwaniszan axe, 6000 minutes 1 1499
8366 2019-Oct-23 05:33:45 market sale   voodudelk111 25/26 wilitta12121 axe, 6000 minutes 1 1700
8365 2019-Oct-23 05:23:31 market sale   gy3dmojqgege -01/03 lakemeuahboe axe, 6000 minutes 1 1599
8364 2019-Oct-23 04:20:25 market sale   azebahmadsss -13/-23 dipikaa12345 axe, 6000 minutes 1 1620
8363 2019-Oct-23 03:48:11 market sale   gy3dmojqgege -01/03 moosgenerous axe, 6000 minutes 1 1619
8362 2019-Oct-23 03:28:35 market sale   superw4lox11 -12/21 ramizmurtaza axe, 6000 minutes 2 1799
8361 2019-Oct-23 02:50:44 market sale   ha3dmmrygyge 11/-13 prabhat12345 axe, 6000 minutes 1 1699
8360 2019-Oct-23 02:43:51 market sale   ninjaninja11 00/-24 jeancarlopom axe, 6000 minutes 1 2498
8359 2019-Oct-23 02:16:18 market sale   ha3dmmrygyge 11/-13 chiragpatel1 axe, 6000 minutes 1 1699
8358 2019-Oct-23 02:14:16 market sale   johanewa1111 17/14 chiragpatel1 axe, 6000 minutes 1 1677
8357 2019-Oct-23 01:20:50 market sale   gy3dmojqgege -01/03 prosgold1414 axe, 6000 minutes 2 1619
8356 2019-Oct-23 00:48:08 market sale   blizarxd2323 11/19 wasifali4212 axe, 6000 minutes 3 1350
8355 2019-Oct-22 23:41:33 market sale   blizarxd2323 11/19 shiku2413551 axe, 6000 minutes 1 1350
8354 2019-Oct-22 23:37:22 market sale   superw4lox11 -12/21 theflashyfla axe, 6000 minutes 3 1799
8353 2019-Oct-22 22:23:40 market sale   azebahmadsss -13/-23 hoffteenkuro axe, 6000 minutes 1 1620
8352 2019-Oct-22 21:42:43 market sale   salmankhanss -03/12 bcurring1234 axe, 6000 minutes 1 1280
8351 2019-Oct-22 20:59:15 market sale   salmankhanss -03/12 valourknight axe, 6000 minutes 1 1280
8350 2019-Oct-22 20:59:11 market sale   salmankhanss -03/12 valourknight axe, 6000 minutes 1 1280
8349 2019-Oct-22 20:50:34 market sale   salmankhanss -03/12 nightrage111 axe, 6000 minutes 1 1280
8348 2019-Oct-22 19:30:52 market sale   1qaz2wsx4rfv -14/02 compoundhero axe, 6000 minutes 1 1698
8347 2019-Oct-22 19:05:57 market sale   azebahmadsss -13/-23 aboyousef123 axe, 6000 minutes 1 1620
8346 2019-Oct-22 19:05:45 market sale   orendadilnok 04/00 sayutisayuti axe, 6000 minutes 2 1999
8345 2019-Oct-22 19:01:29 market sale   azebahmadsss -13/-23 captainakena axe, 6000 minutes 2 1620
8344 2019-Oct-22 18:52:10 market sale   gy3dqnrxguge 14/04 waqasjunejo1 axe, 6000 minutes 1 1280
8343 2019-Oct-22 18:38:48 market sale   klimanskiy22 -05/-03 mykhaelpitys axe, 6000 minutes 3 1649
8342 2019-Oct-22 17:16:24 market sale   questeos1313 -26/24 anshutiwari1 axe, 6000 minutes 1 1250
8341 2019-Oct-22 16:49:32 market sale   questeos1313 -26/24 gamesmake143 axe, 6000 minutes 1 1250
8340 2019-Oct-22 16:26:27 market sale   salmankhanss -03/12 evancvscattr axe, 6000 minutes 3 1280
8339 2019-Oct-22 15:52:17 market sale   superw4lox11 -12/21 maxi15miran4 axe, 6000 minutes 1 1799
8338 2019-Oct-22 15:04:19 market sale   superw4lox11 -12/21 atifmalik512 axe, 6000 minutes 1 1799
8337 2019-Oct-22 14:00:09 market sale   eoschanges21 03/-26 bnr442221245 axe, 5754 minutes 1 1400
8336 2019-Oct-22 13:42:54 market sale   salmankhanss -03/12 garagarakaya axe, 6000 minutes 1 1280
8335 2019-Oct-22 13:27:37 market sale   eoschanges21 03/-26 just4creator axe, 5761 minutes 1 1400
8334 2019-Oct-22 12:05:48 market sale   superw4lox11 -12/21 nasimnasim12 axe, 6000 minutes 1 1799
8333 2019-Oct-22 11:30:48 market sale   salmankhanss -03/12 blessedman33 axe, 6000 minutes 1 1280
8332 2019-Oct-22 11:08:26 market sale   mycryptoland -19/-23 sapecat35.tp axe, 6000 minutes 3 1200
8331 2019-Oct-22 09:10:15 market sale   mycryptoland -19/-23 dexoya1leefu axe, 6000 minutes 1 1200
8330 2019-Oct-22 07:58:52 market sale   mycryptoland -19/-23 adityapanwar axe, 6000 minutes 1 1200
8329 2019-Oct-22 07:46:07 market sale   azebahmadsss -13/-23 ahmedyeboah1 axe, 6000 minutes 1 1650
8328 2019-Oct-22 07:32:11 market sale   klimanskiy22 -05/-03 lachiquive45 axe, 6000 minutes 2 1649
8327 2019-Oct-22 07:23:50 market sale   ifeoluwaoyin 12/11 zahirlehri11 axe, 6000 minutes 2 1180
8326 2019-Oct-22 07:09:00 market sale   vjnadharshri 09/-03 zahirlehri11 axe, 2320 minutes 1 900
8325 2019-Oct-22 06:52:20 market sale   ifeoluwaoyin 12/11 zahirlehri11 axe, 6000 minutes 1 1180
8324 2019-Oct-22 05:23:52 market sale   orendadilnok 04/00 pranighstara axe, 6000 minutes 3 1999
8323 2019-Oct-22 05:03:21 market sale   mycryptoland -19/-23 iamleaf22345 axe, 6000 minutes 1 1200
8322 2019-Oct-22 04:54:51 market sale   mycryptoland -19/-23 healerr12345 axe, 6000 minutes 1 1200
8321 2019-Oct-22 04:54:30 market sale   mycryptoland -19/-23 healerr12345 axe, 6000 minutes 3 1200
8320 2019-Oct-22 04:43:04 market sale   narayana555g 24/-25 karnatron123 axe, 3202 minutes 1 1
8319 2019-Oct-22 04:26:06 market sale   freeoooooooo 04/13 ayamjagoseka axe, 6000 minutes 1 1749
8318 2019-Oct-22 03:23:44 market sale   mycryptoland -19/-23 ranaedrees11 axe, 6000 minutes 1 1130
8317 2019-Oct-22 02:50:35 market sale   gy3dqnrxguge 14/04 aniuskaamr11 axe, 6000 minutes 1 1280
8316 2019-Oct-22 01:03:15 market sale   salmankhanss -03/12 nispidarious axe, 6000 minutes 2 1280
8315 2019-Oct-21 23:11:12 market sale   johanewa1111 17/14 jainalbacrie axe, 6000 minutes 1 1677
8314 2019-Oct-21 21:29:42 market sale   mycryptoland -19/-23 pikipaka1234 axe, 6000 minutes 1 1300
8313 2019-Oct-21 21:16:30 market sale   azebahmadsss -13/-23 gomersimpson axe, 6000 minutes 3 1650
8312 2019-Oct-21 19:48:11 market sale   mycryptoland -19/-23 chrisu123123 axe, 6000 minutes 1 1300
8311 2019-Oct-21 19:13:11 market sale   mycryptoland -19/-23 alexlandowne axe, 6000 minutes 1 1300
8310 2019-Oct-21 19:09:15 market sale   salmankhanss -03/12 captaincrypy axe, 6000 minutes 1 1500
8309 2019-Oct-21 18:42:35 market sale   semiflexible -23/-22 tanishqkadam axe, 6000 minutes 3 2100
8308 2019-Oct-21 17:18:30 market sale   freeoooooooo 04/13 12345junaidj axe, 6000 minutes 3 1499
8307 2019-Oct-21 16:54:42 market sale   eoschanges21 03/-26 lakemeuahboe axe, 5754 minutes 2 1400
8306 2019-Oct-21 16:19:57 market sale   dreacastaned 09/-09 dimas5potyom axe, 6000 minutes 1 1400
8305 2019-Oct-21 14:32:34 market sale   gy3dmojqgege -01/03 qh2fpx1vb5yq axe, 6000 minutes 1 1499
8304 2019-Oct-21 14:07:24 market sale   blizarxd2323 11/19 gamesmake143 axe, 6000 minutes 1 1575
8303 2019-Oct-21 13:13:43 market sale   freeoooooooo 04/13 bnr442221245 axe, 6000 minutes 1 1749
8302 2019-Oct-21 12:53:38 market sale   gy3dmojqgege -01/03 wojciechtako axe, 6000 minutes 1 1499
8301 2019-Oct-21 12:48:30 market sale   gy3dmojqgege -01/03 adivendereos axe, 6000 minutes 4 1499
8300 2019-Oct-21 12:25:56 market sale   gy3dmojqgege -01/03 pattanaik123 axe, 6000 minutes 1 1499
8299 2019-Oct-21 11:34:20 market sale   drunkmoon115 -04/21 midrees11225 axe, 1200 minutes 1 84
8298 2019-Oct-21 11:28:15 market sale   eoschanges21 03/-26 sktkdgns2121 axe, 6000 minutes 1 1400
8297 2019-Oct-21 11:25:17 market sale   azebahmadsss -13/-23 g44denjrgige axe, 6000 minutes 1 1650
8296 2019-Oct-21 11:01:22 market sale   heavenlyidea 10/-11 andersonlope axe, 4800 minutes 1 800
8295 2019-Oct-21 10:47:13 market sale   gy3dmojqgege -01/03 abhishek1334 axe, 6000 minutes 1 1499
8294 2019-Oct-21 09:49:10 market sale   voodudelk111 25/26 eosdhangurun axe, 6000 minutes 1 1700
8293 2019-Oct-21 09:19:14 market sale   ha3dmmrygyge 11/-13 eosformywife axe, 6000 minutes 1 1699
8292 2019-Oct-21 08:53:40 market sale   ha3dmmrygyge 11/-13 chandansahoo axe, 6000 minutes 1 1699
8291 2019-Oct-21 08:17:20 market sale   hitekredneck -26/03 oliverzactom axe, 6000 minutes 1 1690
8290 2019-Oct-21 08:05:49 market sale   superw4lox11 -12/21 lubisayank11 axe, 6000 minutes 1 1799
8289 2019-Oct-21 07:44:31 market sale   1qaz2wsx4rfv -14/02 airalanddigi axe, 6000 minutes 1 1698
8288 2019-Oct-21 07:18:33 market sale   gy3dmojqgege -01/03 baretasss111 axe, 6000 minutes 2 1499
8287 2019-Oct-21 07:10:36 market sale   salmankhanss -03/12 homesalmanss axe, 6000 minutes 1 1500
8286 2019-Oct-21 06:47:32 market sale   hitekredneck -26/03 eosemmanuel1 axe, 6000 minutes 1 1690
8285 2019-Oct-21 06:34:54 market sale   salmankhanss -03/12 shivbhagwann axe, 6000 minutes 3 1500
8284 2019-Oct-21 05:52:25 market sale   gy3dmojqgege -01/03 marlincrypto axe, 6000 minutes 1 1499
8283 2019-Oct-21 05:49:51 market sale   ifeoluwaoyin 12/11 arushkandra1 axe, 6000 minutes 1 1495
8282 2019-Oct-21 05:45:39 market sale   salmankhanss -03/12 shankooooooo axe, 6000 minutes 1 1500
8281 2019-Oct-21 05:21:49 market sale   gy3dmojqgege -01/03 steliosfan11 axe, 6000 minutes 2 1499
8280 2019-Oct-21 05:15:29 market sale   salmankhanss -03/12 audividesile axe, 6000 minutes 1 1500
8279 2019-Oct-21 05:14:43 market sale   salmankhanss -03/12 audividesile axe, 6000 minutes 1 1500
8278 2019-Oct-21 05:13:54 market sale   gy3dmojqgege -01/03 gurunandanyo axe, 6000 minutes 2 1499
8277 2019-Oct-21 05:11:19 market sale   gy3dmojqgege -01/03 andawiansyah axe, 6000 minutes 1 1499
8276 2019-Oct-21 04:29:20 market sale   drunkmoon115 -04/21 rrrupesh1234 axe, 816 minutes 1 20
8275 2019-Oct-21 02:21:37 market sale   superw4lox11 -12/21 shshshsjsjsh axe, 6000 minutes 2 1799
8274 2019-Oct-21 01:59:14 market sale   eos4anjsrich -12/-14 chufengtian5 axe, 6000 minutes 1 1800
8273 2019-Oct-21 01:42:44 market sale   orendadilnok 04/00 shierlych111 axe, 6000 minutes 1 1999
8272 2019-Oct-21 01:17:28 market sale   salmankhanss -03/12 safwadiiiiii axe, 6000 minutes 2 1628
8271 2019-Oct-21 01:05:19 market sale   gy3dmojqgege -01/03 xmahoushoujo axe, 6000 minutes 1 1627
8270 2019-Oct-21 00:09:06 market sale   gy3dmojqgege -01/03 kuzy12345511 axe, 6000 minutes 3 1627
8269 2019-Oct-20 21:44:52 market sale   salmankhanss -03/12 shrishrimals axe, 6000 minutes 1 1628
8268 2019-Oct-20 21:44:39 market sale   salmankhanss -03/12 shrishrimals axe, 6000 minutes 1 1628
8267 2019-Oct-20 20:57:38 market sale   freeoooooooo 04/13 kirillova555 axe, 6000 minutes 1 1749
8266 2019-Oct-20 19:47:52 market sale   ha3dmmrygyge 11/-13 kanrublevess axe, 6000 minutes 1 1699
8265 2019-Oct-20 19:43:59 market sale   voodudelk111 25/26 kanrublevess axe, 6000 minutes 1 1700
8264 2019-Oct-20 19:12:29 market sale   salmankhanss -03/12 eosjeuxxxxxx axe, 6000 minutes 5 1630
8263 2019-Oct-20 18:40:36 market sale   ha3dmmrygyge 11/-13 robson223315 axe, 6000 minutes 1 1699
8262 2019-Oct-20 18:39:35 market sale   hitekredneck -26/03 sanya13joker axe, 6000 minutes 2 1690
8261 2019-Oct-20 17:42:20 market sale   tribalman321 -01/24 ziggysdst.tp axe, 6000 minutes 1 3000
8260 2019-Oct-20 16:32:55 market sale   salmankhanss -03/12 kill12345kil axe, 6000 minutes 1 1630
8259 2019-Oct-20 16:05:48 market sale   ifeoluwaoyin 12/11 devinder3125 axe, 6000 minutes 1 1645
8258 2019-Oct-20 15:20:03 market sale   ha3dmmrygyge 11/-13 fransemilpbs axe, 6000 minutes 3 1699
8257 2019-Oct-20 14:41:36 market sale   hitekredneck -26/03 randomjoe254 axe, 6000 minutes 2 1690
8256 2019-Oct-20 14:34:35 market sale   freeoooooooo 04/13 naaasiya1234 axe, 6000 minutes 1 1749
8255 2019-Oct-20 14:19:50 market sale   narayana444g -11/-13 karnatron123 axe, 510 minutes 1 1
8254 2019-Oct-20 13:23:30 market sale   questeos1313 18/10 prostotheme1 axe, 6000 minutes 1 1650
8253 2019-Oct-20 13:16:25 market sale   questeos1313 18/10 amandeep5142 axe, 6000 minutes 1 1650
8252 2019-Oct-20 13:06:30 market sale   questeos1313 18/10 devinder3125 axe, 6000 minutes 1 1650
8251 2019-Oct-20 12:48:46 market sale   superw4lox11 -12/21 eugelysmusic axe, 6000 minutes 1 1799
8250 2019-Oct-20 12:30:52 market sale   salmankhanss -03/12 usmanazam111 axe, 6000 minutes 1 1700
8249 2019-Oct-20 12:27:06 market sale   ifeoluwaoyin 12/11 bickyrauni11 axe, 6000 minutes 1 1645
8248 2019-Oct-20 12:24:08 market sale   ifeoluwaoyin 12/11 eosjeuxxxxxx axe, 6000 minutes 1 1645
8247 2019-Oct-20 12:17:45 market sale   salmankhanss -03/12 qaylaalifeos axe, 6000 minutes 1 1700
8246 2019-Oct-20 11:07:38 market sale   nayounscattr 17/19 nafaisal4444 axe, 6000 minutes 1 1800
8245 2019-Oct-20 11:07:07 market sale   questeos1313 18/10 doomakos3452 axe, 6000 minutes 1 1650
8244 2019-Oct-20 09:57:26 market sale   gy3dmojqgege -01/03 zsander1guns axe, 6000 minutes 1 1699
8243 2019-Oct-20 09:36:55 market sale   ha3dmmrygyge 11/-13 eosformywife axe, 6000 minutes 1 1888
8242 2019-Oct-20 08:48:42 market sale   blueblu12345 07/-19 sumitgupta35 axe, 84 minutes 1 100
8241 2019-Oct-20 08:47:20 market sale   blueblu12345 07/-19 sumitgupta35 axe, 232 minutes 1 100
8240 2019-Oct-20 08:22:40 market sale   johanewa1111 17/14 sureshbon143 axe, 6000 minutes 1 1966
8239 2019-Oct-20 08:08:03 market sale   1qaz2wsx4rfv -14/02 eosforairull axe, 6000 minutes 1 1980
8238 2019-Oct-20 08:02:23 market sale   yadamaketima -02/02 bnr444333254 axe, 1200 minutes 1 500
8237 2019-Oct-20 07:45:37 market sale   salmankhanss -03/12 marhabaneos1 axe, 6000 minutes 1 1700
8236 2019-Oct-20 07:35:14 market sale   eos4anjsrich -12/-14 yahyarafikha axe, 6000 minutes 1 1800
8235 2019-Oct-20 05:22:08 market sale   gy3dmojqgege -01/03 tettraviuseo axe, 6000 minutes 5 1729
8234 2019-Oct-20 05:01:48 market sale   gy3dmojqgege -01/03 mysteriouskj axe, 6000 minutes 1 1729
8233 2019-Oct-20 04:23:04 market sale   gy3dmojqgege -01/03 coinchitchat axe, 6000 minutes 3 1729
8232 2019-Oct-20 04:08:23 market sale   ha3dmmrygyge 11/-13 gcshxo3y5.tp axe, 6000 minutes 1 1888
8231 2019-Oct-20 03:55:47 market sale   superw4lox11 -12/21 criptosonido axe, 6000 minutes 1 1799
8230 2019-Oct-20 03:29:20 market sale   paticia12345 -13/05 criptosonido axe, 6000 minutes 1 1770
8229 2019-Oct-20 03:24:08 market sale   paticia12345 -13/05 roshandhake5 axe, 6000 minutes 1 1770
8228 2019-Oct-20 02:32:52 market sale   paticia12345 -13/05 bigbarrell23 axe, 6000 minutes 1 1770
8227 2019-Oct-20 02:07:59 market sale   salmankhanss -03/12 natasyaputri axe, 6000 minutes 3 1780
8226 2019-Oct-20 00:58:48 market sale   superw4lox11 -12/21 thorminerr33 axe, 6000 minutes 1 1799
8225 2019-Oct-19 23:45:16 market sale   ninjaninja11 00/-24 jeancarlopom axe, 6000 minutes 1 2498
8224 2019-Oct-19 23:34:15 market sale   ifeoluwaoyin 12/11 g44denjrgige axe, 6000 minutes 1 1775
8223 2019-Oct-19 22:40:26 market sale   johanewa1111 17/14 nathalia1234 axe, 6000 minutes 1 1966
8222 2019-Oct-19 22:23:17 market sale   salmankhanss -03/12 enriquejose1 axe, 6000 minutes 1 1780
8221 2019-Oct-19 22:18:44 market sale   ifeoluwaoyin 12/11 enriquejose1 axe, 6000 minutes 1 1775
8220 2019-Oct-19 21:44:20 market sale   johanewa1111 17/14 nexterworlds axe, 6000 minutes 3 1966
8219 2019-Oct-19 20:27:01 market sale   superw4lox11 -12/21 darklight15m axe, 6000 minutes 1 1799
8218 2019-Oct-19 19:38:37 market sale   1qaz2wsx4rfv -14/02 airalanddigi axe, 6000 minutes 1 1980
8217 2019-Oct-19 19:30:39 market sale   superw4lox11 -12/21 priyabrata44 axe, 6000 minutes 1 1799
8216 2019-Oct-19 19:29:40 market sale   superw4lox11 -12/21 priyabrata44 axe, 6000 minutes 1 1799
8215 2019-Oct-19 18:32:27 market sale   1qaz2wsx4rfv -14/02 rangalamama1 axe, 6000 minutes 1 1980
8214 2019-Oct-19 18:00:28 market sale   superw4lox11 -12/21 compoundhero axe, 6000 minutes 1 1799
8213 2019-Oct-19 17:59:49 market sale   freeoooooooo 04/13 gkgbtceosdap axe, 6000 minutes 1 1800
8212 2019-Oct-19 17:51:49 market sale   superw4lox11 -12/21 bloodshadow2 axe, 6000 minutes 3 1799
8211 2019-Oct-19 17:16:23 market sale   1qaz2wsx4rfv -14/02 dipikaa12345 axe, 6000 minutes 1 1980
8210 2019-Oct-19 16:23:29 market sale   nayounscattr 17/19 ruinedheart1 axe, 6000 minutes 1 1800
8209 2019-Oct-19 15:57:57 market sale   ha3dmmrygyge 11/-13 fidaaslam11f axe, 6000 minutes 2 1888
8208 2019-Oct-19 14:01:47 market sale   gy3dmojqgege -01/03 chandansahoo axe, 6000 minutes 1 1795
8207 2019-Oct-19 13:47:09 market sale   gy3dmojqgege -01/03 mikmikmikmik axe, 6000 minutes 6 1795
8206 2019-Oct-19 13:15:28 market sale   superw4lox11 -12/21 ikmaleosgo22 axe, 6000 minutes 1 1799
8205 2019-Oct-19 12:49:22 market sale   gy3dmojqgege -01/03 valentinloma axe, 6000 minutes 1 1795
8204 2019-Oct-19 12:36:39 market sale   gy3dmojqgege -01/03 yahyarafikha axe, 6000 minutes 1 1795
8203 2019-Oct-19 11:55:48 market sale   johanewa1111 17/14 normalexpert axe, 6000 minutes 1 1966
8202 2019-Oct-19 11:50:37 market sale   johanewa1111 17/14 shankooooooo axe, 6000 minutes 2 1966
8201 2019-Oct-19 11:21:03 market sale   johanewa1111 17/14 vivekjaineos axe, 6000 minutes 1 1966
8200 2019-Oct-19 10:56:25 market sale   johanewa1111 17/14 dilipsssss23 axe, 6000 minutes 1 1966
8199 2019-Oct-19 10:54:29 market sale   superw4lox11 -12/21 igroknarutou axe, 6000 minutes 1 1799
8198 2019-Oct-19 10:30:06 market sale   superw4lox11 -12/21 moosgenerous axe, 6000 minutes 1 1799
8197 2019-Oct-19 10:13:54 market sale   superw4lox11 -12/21 sikdersikder axe, 6000 minutes 1 1799
8196 2019-Oct-19 10:13:42 market sale   superw4lox11 -12/21 thedoktoreos axe, 6000 minutes 1 1799
8195 2019-Oct-19 10:06:35 market sale   superw4lox11 -12/21 thedoktoreos axe, 6000 minutes 1 1799
8194 2019-Oct-19 09:57:03 market sale   superw4lox11 -12/21 dipikaa12345 axe, 6000 minutes 1 1799
8193 2019-Oct-19 09:48:56 market sale   gy3dmojqgege -01/03 thedoktoreos axe, 6000 minutes 1 1765
8192 2019-Oct-19 09:41:54 market sale   johanewa1111 17/14 normalexpert axe, 6000 minutes 1 1966
8191 2019-Oct-19 08:42:54 market sale   johanewa1111 17/14 akleziastars axe, 6000 minutes 1